<?xml version='1.0' encoding='UTF-8'?><gpx version="1.1" creator="JPX - https://github.com/jenetics/jpx" xmlns="http://www.topografix.com/GPX/1/1"><trk><trkseg><trkpt lat="55.59287725265532" lon="38.923010038890276"><ele>118.2</ele><time>2026-05-03T07:36:40Z</time></trkpt><trkpt lat="55.59280310773007" lon="38.92293894654471"><ele>118.4</ele><time>2026-05-03T07:36:42Z</time></trkpt><trkpt lat="55.59267705556303" lon="38.92289709251298"><ele>118.60000000000001</ele><time>2026-05-03T07:36:44Z</time></trkpt><trkpt lat="55.59254802805953" lon="38.922871327544314"><ele>118.80000000000001</ele><time>2026-05-03T07:36:46Z</time></trkpt><trkpt lat="55.59247616382131" lon="38.92284956178902"><ele>119.0</ele><time>2026-05-03T07:36:47Z</time></trkpt><trkpt lat="55.59236060938938" lon="38.92280676311038"><ele>119.0</ele><time>2026-05-03T07:36:49Z</time></trkpt><trkpt lat="55.592288099385726" lon="38.92277763610278"><ele>119.0</ele><time>2026-05-03T07:36:50Z</time></trkpt><trkpt lat="55.59219965321524" lon="38.92273933209239"><ele>119.0</ele><time>2026-05-03T07:36:51Z</time></trkpt><trkpt lat="55.592109123719425" lon="38.92270810742331"><ele>119.0</ele><time>2026-05-03T07:36:52Z</time></trkpt><trkpt lat="55.592000158295704" lon="38.92266449071243"><ele>119.0</ele><time>2026-05-03T07:36:53Z</time></trkpt><trkpt lat="55.59191025200872" lon="38.9226121300519"><ele>119.25</ele><time>2026-05-03T07:36:54Z</time></trkpt><trkpt lat="55.59183438157676" lon="38.92257347850208"><ele>119.5</ele><time>2026-05-03T07:36:55Z</time></trkpt><trkpt lat="55.591744412547996" lon="38.92252490836385"><ele>119.75</ele><time>2026-05-03T07:36:57Z</time></trkpt><trkpt lat="55.591586337435864" lon="38.92249111047707"><ele>120.0</ele><time>2026-05-03T07:37:12Z</time></trkpt><trkpt lat="55.59145072193527" lon="38.92248256949693"><ele>120.0</ele><time>2026-05-03T07:37:13Z</time></trkpt><trkpt lat="55.59135427124347" lon="38.922466114766415"><ele>120.0</ele><time>2026-05-03T07:37:14Z</time></trkpt><trkpt lat="55.59118267216177" lon="38.9224561892406"><ele>120.0</ele><time>2026-05-03T07:37:15Z</time></trkpt><trkpt lat="55.59106568575503" lon="38.92243168024412"><ele>120.0</ele><time>2026-05-03T07:37:16Z</time></trkpt><trkpt lat="55.590935782170085" lon="38.92239424449984"><ele>120.0</ele><time>2026-05-03T07:37:17Z</time></trkpt><trkpt lat="55.59079772020231" lon="38.922351201369054"><ele>120.0</ele><time>2026-05-03T07:37:18Z</time></trkpt><trkpt lat="55.59058966899719" lon="38.92225611539994"><ele>120.0</ele><time>2026-05-03T07:37:19Z</time></trkpt><trkpt lat="55.59042653252906" lon="38.92219113740989"><ele>120.5</ele><time>2026-05-03T07:37:20Z</time></trkpt><trkpt lat="55.59026891134324" lon="38.922128506341444"><ele>121.0</ele><time>2026-05-03T07:37:21Z</time></trkpt><trkpt lat="55.590160154552294" lon="38.92208541417979"><ele>121.5</ele><time>2026-05-03T07:37:22Z</time></trkpt><trkpt lat="55.59003257523844" lon="38.92203577210176"><ele>122.0</ele><time>2026-05-03T07:37:23Z</time></trkpt><trkpt lat="55.58993802684335" lon="38.9220059961741"><ele>122.0</ele><time>2026-05-03T07:37:24Z</time></trkpt><trkpt lat="55.589817143842836" lon="38.92198968430488"><ele>121.99999999999999</ele><time>2026-05-03T07:37:25Z</time></trkpt><trkpt lat="55.589698630019384" lon="38.92189399798334"><ele>121.99999999999999</ele><time>2026-05-03T07:37:26Z</time></trkpt><trkpt lat="55.589637559035054" lon="38.92182260728892"><ele>122.0</ele><time>2026-05-03T07:37:27Z</time></trkpt><trkpt lat="55.589547033237054" lon="38.921804655805275"><ele>122.0</ele><time>2026-05-03T07:37:28Z</time></trkpt><trkpt lat="55.58945777132671" lon="38.92177590009032"><ele>122.19999999999999</ele><time>2026-05-03T07:37:29Z</time></trkpt><trkpt lat="55.589349635502074" lon="38.92174151472989"><ele>122.39999999999999</ele><time>2026-05-03T07:37:30Z</time></trkpt><trkpt lat="55.58924289459381" lon="38.92170703071442"><ele>122.60000000000001</ele><time>2026-05-03T07:37:31Z</time></trkpt><trkpt lat="55.58914025750473" lon="38.92167387399187"><ele>122.80000000000001</ele><time>2026-05-03T07:37:32Z</time></trkpt><trkpt lat="55.58907175765886" lon="38.921651567553624"><ele>123.0</ele><time>2026-05-03T07:37:33Z</time></trkpt><trkpt lat="55.588984330435956" lon="38.92162309708767"><ele>123.0</ele><time>2026-05-03T07:37:34Z</time></trkpt><trkpt lat="55.5888642229296" lon="38.921583984667365"><ele>123.0</ele><time>2026-05-03T07:37:36Z</time></trkpt><trkpt lat="55.588775237105416" lon="38.92155515935422"><ele>123.0</ele><time>2026-05-03T07:37:37Z</time></trkpt><trkpt lat="55.590174553953055" lon="38.92044566899813"><ele>123.0</ele><time>2026-05-03T07:37:38Z</time></trkpt><trkpt lat="55.590115475230576" lon="38.92024170691888"><ele>123.0</ele><time>2026-05-03T07:37:39Z</time></trkpt><trkpt lat="55.59004714663678" lon="38.92000677056241"><ele>123.0</ele><time>2026-05-03T07:37:40Z</time></trkpt><trkpt lat="55.58997873964348" lon="38.9198460722461"><ele>123.0</ele><time>2026-05-03T07:37:41Z</time></trkpt><trkpt lat="55.589927503799366" lon="38.91968173522921"><ele>122.75</ele><time>2026-05-03T07:37:42Z</time></trkpt><trkpt lat="55.58987672752438" lon="38.91949556097244"><ele>122.5</ele><time>2026-05-03T07:37:43Z</time></trkpt><trkpt lat="55.589792336034776" lon="38.91928392171967"><ele>122.25</ele><time>2026-05-03T07:37:44Z</time></trkpt><trkpt lat="55.589702436360625" lon="38.919087617609456"><ele>122.0</ele><time>2026-05-03T07:37:45Z</time></trkpt><trkpt lat="55.58961738798144" lon="38.918953372886"><ele>121.83333333333333</ele><time>2026-05-03T07:37:46Z</time></trkpt><trkpt lat="55.589550618478235" lon="38.918856732444546"><ele>121.66666666666666</ele><time>2026-05-03T07:37:47Z</time></trkpt><trkpt lat="55.589511654037096" lon="38.91875732123024"><ele>121.5</ele><time>2026-05-03T07:37:48Z</time></trkpt><trkpt lat="55.58949671464061" lon="38.91854246134376"><ele>121.33333333333334</ele><time>2026-05-03T07:37:50Z</time></trkpt><trkpt lat="55.58952687742428" lon="38.91840411602121"><ele>121.16666666666667</ele><time>2026-05-03T07:37:51Z</time></trkpt><trkpt lat="55.58954143804478" lon="38.91825192674497"><ele>121.0</ele><time>2026-05-03T07:37:52Z</time></trkpt><trkpt lat="55.58955543871724" lon="38.91809580094108"><ele>120.5</ele><time>2026-05-03T07:37:53Z</time></trkpt><trkpt lat="55.58957243506932" lon="38.91796840409014"><ele>120.0</ele><time>2026-05-03T07:37:54Z</time></trkpt><trkpt lat="55.58957791798085" lon="38.9178423072897"><ele>119.5</ele><time>2026-05-03T07:37:55Z</time></trkpt><trkpt lat="55.589767256434804" lon="38.91765030568568"><ele>119.0</ele><time>2026-05-03T07:37:56Z</time></trkpt><trkpt lat="55.58974088156216" lon="38.917497394654234"><ele>119.0</ele><time>2026-05-03T07:37:58Z</time></trkpt><trkpt lat="55.58971555274746" lon="38.91734862916533"><ele>119.0</ele><time>2026-05-03T07:38:00Z</time></trkpt><trkpt lat="55.58967871773253" lon="38.9171336232155"><ele>119.0</ele><time>2026-05-03T07:38:02Z</time></trkpt><trkpt lat="55.589654024133" lon="38.91698948659831"><ele>119.0</ele><time>2026-05-03T07:38:04Z</time></trkpt><trkpt lat="55.589607093262096" lon="38.91689534463466"><ele>119.0</ele><time>2026-05-03T07:38:06Z</time></trkpt><trkpt lat="55.58927701126776" lon="38.91702596102625"><ele>119.4</ele><time>2026-05-03T07:38:07Z</time></trkpt><trkpt lat="55.58921634998623" lon="38.91696812085476"><ele>119.80000000000001</ele><time>2026-05-03T07:38:09Z</time></trkpt><trkpt lat="55.58918775114338" lon="38.91676754235097"><ele>120.19999999999999</ele><time>2026-05-03T07:38:12Z</time></trkpt><trkpt lat="55.589172562898824" lon="38.91664666566286"><ele>120.6</ele><time>2026-05-03T07:38:13Z</time></trkpt><trkpt lat="55.58912489384765" lon="38.91648527013622"><ele>121.0</ele><time>2026-05-03T07:38:15Z</time></trkpt><trkpt lat="55.5891271109946" lon="38.91622024718893"><ele>121.0</ele><time>2026-05-03T07:38:17Z</time></trkpt><trkpt lat="55.58908776014442" lon="38.91602980279188"><ele>121.0</ele><time>2026-05-03T07:38:19Z</time></trkpt><trkpt lat="55.58943371258282" lon="38.915704605993234"><ele>120.8</ele><time>2026-05-03T07:38:20Z</time></trkpt><trkpt lat="55.58940151425242" lon="38.91551644855865"><ele>120.6</ele><time>2026-05-03T07:38:22Z</time></trkpt><trkpt lat="55.58938146546633" lon="38.91539689807266"><ele>120.4</ele><time>2026-05-03T07:38:23Z</time></trkpt><trkpt lat="55.58934553461487" lon="38.91518823577801"><ele>120.2</ele><time>2026-05-03T07:38:25Z</time></trkpt><trkpt lat="55.58931191249494" lon="38.9149922054051"><ele>120.0</ele><time>2026-05-03T07:38:27Z</time></trkpt><trkpt lat="55.58927464852475" lon="38.91477367233028"><ele>119.75</ele><time>2026-05-03T07:38:29Z</time></trkpt><trkpt lat="55.58924521363277" lon="38.9146036613747"><ele>119.5</ele><time>2026-05-03T07:38:30Z</time></trkpt><trkpt lat="55.589027179353025" lon="38.91457163392498"><ele>119.25</ele><time>2026-05-03T07:38:31Z</time></trkpt><trkpt lat="55.588998132514405" lon="38.914360304535066"><ele>119.0</ele><time>2026-05-03T07:38:32Z</time></trkpt><trkpt lat="55.58915870425015" lon="38.91409625280531"><ele>119.0</ele><time>2026-05-03T07:38:33Z</time></trkpt><trkpt lat="55.589131265630336" lon="38.913936106738404"><ele>119.0</ele><time>2026-05-03T07:38:34Z</time></trkpt><trkpt lat="55.58910403263325" lon="38.913777156096074"><ele>119.0</ele><time>2026-05-03T07:38:35Z</time></trkpt><trkpt lat="55.5890751674782" lon="38.9136086788287"><ele>119.0</ele><time>2026-05-03T07:38:36Z</time></trkpt><trkpt lat="55.58904690630597" lon="38.91344380069863"><ele>119.0</ele><time>2026-05-03T07:38:37Z</time></trkpt><trkpt lat="55.589017476198904" lon="38.9132721298577"><ele>118.80000000000001</ele><time>2026-05-03T07:38:38Z</time></trkpt><trkpt lat="55.588987659717546" lon="38.913098204264735"><ele>118.60000000000001</ele><time>2026-05-03T07:38:39Z</time></trkpt><trkpt lat="55.58895816043836" lon="38.91292612922667"><ele>118.4</ele><time>2026-05-03T07:38:40Z</time></trkpt><trkpt lat="55.588931459632825" lon="38.91277032846645"><ele>118.2</ele><time>2026-05-03T07:38:41Z</time></trkpt><trkpt lat="55.588904260649166" lon="38.912611607881566"><ele>118.0</ele><time>2026-05-03T07:38:42Z</time></trkpt><trkpt lat="55.588876254070264" lon="38.91245765880788"><ele>118.00000000000001</ele><time>2026-05-03T07:38:43Z</time></trkpt><trkpt lat="55.58884515262683" lon="38.91228573730211"><ele>118.0</ele><time>2026-05-03T07:38:44Z</time></trkpt><trkpt lat="55.58881479757539" lon="38.912117941543464"><ele>118.0</ele><time>2026-05-03T07:38:45Z</time></trkpt><trkpt lat="55.58878712627109" lon="38.911964981153716"><ele>118.0</ele><time>2026-05-03T07:38:46Z</time></trkpt><trkpt lat="55.58876330278767" lon="38.911833290512696"><ele>118.00000000000001</ele><time>2026-05-03T07:38:47Z</time></trkpt><trkpt lat="55.58874199847132" lon="38.91171552517703"><ele>118.0</ele><time>2026-05-03T07:38:48Z</time></trkpt><trkpt lat="55.58842397858862" lon="38.91119705324652"><ele>118.2</ele><time>2026-05-03T07:38:50Z</time></trkpt><trkpt lat="55.58833292900694" lon="38.91116276937238"><ele>118.4</ele><time>2026-05-03T07:38:51Z</time></trkpt><trkpt lat="55.58824999876387" lon="38.91113154297089"><ele>118.60000000000001</ele><time>2026-05-03T07:38:52Z</time></trkpt><trkpt lat="55.58817942160518" lon="38.9111049679066"><ele>118.80000000000001</ele><time>2026-05-03T07:38:53Z</time></trkpt><trkpt lat="55.58809143107952" lon="38.911071871383676"><ele>119.0</ele><time>2026-05-03T07:38:55Z</time></trkpt><trkpt lat="55.588001850065" lon="38.91142421707459"><ele>119.0</ele><time>2026-05-03T07:38:58Z</time></trkpt><trkpt lat="55.58795789141275" lon="38.911257424335524"><ele>119.0</ele><time>2026-05-03T07:39:00Z</time></trkpt><trkpt lat="55.58792264614723" lon="38.91114508116249"><ele>119.0</ele><time>2026-05-03T07:39:01Z</time></trkpt><trkpt lat="55.58786112776804" lon="38.91098533882508"><ele>119.0</ele><time>2026-05-03T07:39:04Z</time></trkpt><trkpt lat="55.587781393811134" lon="38.91095468140352"><ele>119.0</ele><time>2026-05-03T07:39:08Z</time></trkpt><trkpt lat="55.58766688008669" lon="38.910869266382825"><ele>119.16666666666666</ele><time>2026-05-03T07:39:11Z</time></trkpt><trkpt lat="55.58755927677058" lon="38.910827654366905"><ele>119.33333333333333</ele><time>2026-05-03T07:39:13Z</time></trkpt><trkpt lat="55.58749655684026" lon="38.91080510541261"><ele>119.5</ele><time>2026-05-03T07:39:14Z</time></trkpt><trkpt lat="55.58743043983978" lon="38.91078266213315"><ele>119.66666666666666</ele><time>2026-05-03T07:39:15Z</time></trkpt><trkpt lat="55.58736955236359" lon="38.910754321468474"><ele>119.83333333333333</ele><time>2026-05-03T07:39:16Z</time></trkpt><trkpt lat="55.58725497745374" lon="38.910718850585425"><ele>120.0</ele><time>2026-05-03T07:39:18Z</time></trkpt><trkpt lat="55.58718410972967" lon="38.91070199997945"><ele>120.0</ele><time>2026-05-03T07:39:19Z</time></trkpt><trkpt lat="55.58710300945227" lon="38.910668909148264"><ele>120.0</ele><time>2026-05-03T07:39:20Z</time></trkpt><trkpt lat="55.587028155158364" lon="38.91065187608635"><ele>120.0</ele><time>2026-05-03T07:39:21Z</time></trkpt><trkpt lat="55.586927414034626" lon="38.91061532078122"><ele>120.0</ele><time>2026-05-03T07:39:22Z</time></trkpt><trkpt lat="55.58681182709721" lon="38.91059293389368"><ele>120.0</ele><time>2026-05-03T07:39:23Z</time></trkpt><trkpt lat="55.58673050418134" lon="38.91056829964651"><ele>120.0</ele><time>2026-05-03T07:39:24Z</time></trkpt><trkpt lat="55.58662141426145" lon="38.91053817098681"><ele>120.0</ele><time>2026-05-03T07:39:26Z</time></trkpt><trkpt lat="55.58655642409488" lon="38.91044084156369"><ele>120.0</ele><time>2026-05-03T07:39:28Z</time></trkpt><trkpt lat="55.58655097456418" lon="38.910207070826665"><ele>120.0</ele><time>2026-05-03T07:39:30Z</time></trkpt><trkpt lat="55.58656282465553" lon="38.91001235491245"><ele>120.0</ele><time>2026-05-03T07:39:31Z</time></trkpt><trkpt lat="55.58659007410554" lon="38.909806482887426"><ele>120.0</ele><time>2026-05-03T07:39:32Z</time></trkpt><trkpt lat="55.58661150206179" lon="38.90957034924084"><ele>120.0</ele><time>2026-05-03T07:39:33Z</time></trkpt><trkpt lat="55.586632433234406" lon="38.909312695802384"><ele>120.0</ele><time>2026-05-03T07:39:34Z</time></trkpt><trkpt lat="55.586669078987484" lon="38.909061877418026"><ele>120.0</ele><time>2026-05-03T07:39:35Z</time></trkpt><trkpt lat="55.586702860636144" lon="38.9087961620061"><ele>120.0</ele><time>2026-05-03T07:39:36Z</time></trkpt><trkpt lat="55.58672963608071" lon="38.90851476561968"><ele>120.0</ele><time>2026-05-03T07:39:37Z</time></trkpt><trkpt lat="55.58676534879457" lon="38.9082206148522"><ele>120.0</ele><time>2026-05-03T07:39:38Z</time></trkpt><trkpt lat="55.58680377733928" lon="38.90792777270496"><ele>120.0</ele><time>2026-05-03T07:39:39Z</time></trkpt><trkpt lat="55.58689284342894" lon="38.90767581269048"><ele>120.0</ele><time>2026-05-03T07:39:40Z</time></trkpt><trkpt lat="55.58692282854999" lon="38.90742388737231"><ele>120.0</ele><time>2026-05-03T07:39:41Z</time></trkpt><trkpt lat="55.58694701768632" lon="38.907220657819416"><ele>120.0</ele><time>2026-05-03T07:39:42Z</time></trkpt><trkpt lat="55.58697042085336" lon="38.90701878526018"><ele>120.0</ele><time>2026-05-03T07:39:43Z</time></trkpt><trkpt lat="55.586996253442805" lon="38.90680139543124"><ele>120.0</ele><time>2026-05-03T07:39:44Z</time></trkpt><trkpt lat="55.587023195069726" lon="38.90657537663687"><ele>120.0</ele><time>2026-05-03T07:39:45Z</time></trkpt><trkpt lat="55.58705117122113" lon="38.90634310403115"><ele>120.0</ele><time>2026-05-03T07:39:46Z</time></trkpt><trkpt lat="55.58707913022912" lon="38.906108587533645"><ele>120.0</ele><time>2026-05-03T07:39:47Z</time></trkpt><trkpt lat="55.58710471408751" lon="38.905893871257625"><ele>120.0</ele><time>2026-05-03T07:39:48Z</time></trkpt><trkpt lat="55.58712756551804" lon="38.90570208688113"><ele>120.0</ele><time>2026-05-03T07:39:49Z</time></trkpt><trkpt lat="55.58715098377622" lon="38.90550603846173"><ele>120.0</ele><time>2026-05-03T07:39:50Z</time></trkpt><trkpt lat="55.58717670747729" lon="38.90529127693857"><ele>120.0</ele><time>2026-05-03T07:39:51Z</time></trkpt><trkpt lat="55.58720111809473" lon="38.90508747904114"><ele>120.0</ele><time>2026-05-03T07:39:52Z</time></trkpt><trkpt lat="55.58722650681032" lon="38.90487551366417"><ele>120.0</ele><time>2026-05-03T07:39:53Z</time></trkpt><trkpt lat="55.58725368374535" lon="38.90464861992111"><ele>120.0</ele><time>2026-05-03T07:39:54Z</time></trkpt><trkpt lat="55.587274348391155" lon="38.90447609468229"><ele>119.75</ele><time>2026-05-03T07:39:55Z</time></trkpt><trkpt lat="55.58729018658322" lon="38.90434387217332"><ele>119.5</ele><time>2026-05-03T07:39:56Z</time></trkpt><trkpt lat="55.58734570894849" lon="38.904138894798194"><ele>119.25</ele><time>2026-05-03T07:39:58Z</time></trkpt><trkpt lat="55.587378935342414" lon="38.903996240489384"><ele>119.0</ele><time>2026-05-03T07:39:59Z</time></trkpt><trkpt lat="55.58738752295257" lon="38.90371320024482"><ele>118.75</ele><time>2026-05-03T07:40:00Z</time></trkpt><trkpt lat="55.58735690123411" lon="38.90348835234971"><ele>118.5</ele><time>2026-05-03T07:40:01Z</time></trkpt><trkpt lat="55.58732843962435" lon="38.9032753934132"><ele>118.25</ele><time>2026-05-03T07:40:02Z</time></trkpt><trkpt lat="55.587299155059306" lon="38.903056628060895"><ele>118.0</ele><time>2026-05-03T07:40:03Z</time></trkpt><trkpt lat="55.5872702038232" lon="38.902839897647844"><ele>118.0</ele><time>2026-05-03T07:40:04Z</time></trkpt><trkpt lat="55.587238899174096" lon="38.90260328548876"><ele>118.0</ele><time>2026-05-03T07:40:05Z</time></trkpt><trkpt lat="55.58720524213095" lon="38.902351181258354"><ele>118.0</ele><time>2026-05-03T07:40:06Z</time></trkpt><trkpt lat="55.587027009617934" lon="38.90211547666539"><ele>118.0</ele><time>2026-05-03T07:40:07Z</time></trkpt><trkpt lat="55.58697625920034" lon="38.90188665871629"><ele>118.0</ele><time>2026-05-03T07:40:08Z</time></trkpt><trkpt lat="55.586938806937596" lon="38.90167682331368"><ele>118.0</ele><time>2026-05-03T07:40:09Z</time></trkpt><trkpt lat="55.58690615177541" lon="38.90148101829402"><ele>118.0</ele><time>2026-05-03T07:40:10Z</time></trkpt><trkpt lat="55.58687338647734" lon="38.9012383041683"><ele>118.0</ele><time>2026-05-03T07:40:11Z</time></trkpt><trkpt lat="55.586873322196745" lon="38.90099924290569"><ele>118.00000000000001</ele><time>2026-05-03T07:40:12Z</time></trkpt><trkpt lat="55.58679738921312" lon="38.900847951807805"><ele>118.00000000000001</ele><time>2026-05-03T07:40:13Z</time></trkpt><trkpt lat="55.586771087189796" lon="38.90068432708049"><ele>118.0</ele><time>2026-05-03T07:40:14Z</time></trkpt><trkpt lat="55.586748607410414" lon="38.9005682629118"><ele>118.0</ele><time>2026-05-03T07:40:15Z</time></trkpt><trkpt lat="55.58672807507603" lon="38.900445929201474"><ele>118.0</ele><time>2026-05-03T07:40:16Z</time></trkpt><trkpt lat="55.58670908407791" lon="38.90032366192267"><ele>118.00000000000001</ele><time>2026-05-03T07:40:17Z</time></trkpt><trkpt lat="55.58668361610573" lon="38.90017270392683"><ele>118.00000000000001</ele><time>2026-05-03T07:40:18Z</time></trkpt><trkpt lat="55.58666621980628" lon="38.90000854462101"><ele>118.0</ele><time>2026-05-03T07:40:19Z</time></trkpt><trkpt lat="55.58664431841604" lon="38.899822819082424"><ele>118.0</ele><time>2026-05-03T07:40:20Z</time></trkpt><trkpt lat="55.58662038811037" lon="38.89966471441894"><ele>118.2</ele><time>2026-05-03T07:40:21.001Z</time></trkpt><trkpt lat="55.58657486108307" lon="38.89949077742827"><ele>118.4</ele><time>2026-05-03T07:40:22.001Z</time></trkpt><trkpt lat="55.586543726972394" lon="38.89931985370656"><ele>118.60000000000001</ele><time>2026-05-03T07:40:23.001Z</time></trkpt><trkpt lat="55.58651927463544" lon="38.89915696205935"><ele>118.80000000000001</ele><time>2026-05-03T07:40:24.001Z</time></trkpt><trkpt lat="55.586496467088864" lon="38.899012010863515"><ele>119.0</ele><time>2026-05-03T07:40:25.001Z</time></trkpt><trkpt lat="55.58645260521224" lon="38.89878192388555"><ele>118.99999999999999</ele><time>2026-05-03T07:40:27.001Z</time></trkpt><trkpt lat="55.586434174375164" lon="38.89864298621594"><ele>119.0</ele><time>2026-05-03T07:40:28.001Z</time></trkpt><trkpt lat="55.58642463172715" lon="38.89852421867033"><ele>119.0</ele><time>2026-05-03T07:40:29.001Z</time></trkpt><trkpt lat="55.58639783306147" lon="38.89839705878155"><ele>119.0</ele><time>2026-05-03T07:40:30.001Z</time></trkpt><trkpt lat="55.586358794663326" lon="38.89826118750342"><ele>118.99999999999999</ele><time>2026-05-03T07:40:31.001Z</time></trkpt><trkpt lat="55.5863143116472" lon="38.898093998835215"><ele>119.0</ele><time>2026-05-03T07:40:33.001Z</time></trkpt><trkpt lat="55.586202264998086" lon="38.898031466914496"><ele>119.0</ele><time>2026-05-03T07:40:35.001Z</time></trkpt><trkpt lat="55.58610280011238" lon="38.8981800728593"><ele>119.0</ele><time>2026-05-03T07:40:37.001Z</time></trkpt><trkpt lat="55.58604972881432" lon="38.89827491069308"><ele>119.0</ele><time>2026-05-03T07:40:38.001Z</time></trkpt><trkpt lat="55.58598759356121" lon="38.898339562484146"><ele>119.0</ele><time>2026-05-03T07:40:39.001Z</time></trkpt><trkpt lat="55.58588418867811" lon="38.8983531401555"><ele>119.0</ele><time>2026-05-03T07:40:40.001Z</time></trkpt><trkpt lat="55.58577026240653" lon="38.898362486098364"><ele>119.0</ele><time>2026-05-03T07:40:41.001Z</time></trkpt><trkpt lat="55.58565430437285" lon="38.898380003860304"><ele>119.0</ele><time>2026-05-03T07:40:42.001Z</time></trkpt><trkpt lat="55.585528185462714" lon="38.89839912577671"><ele>119.0</ele><time>2026-05-03T07:40:43.001Z</time></trkpt><trkpt lat="55.58539652197453" lon="38.89840331415392"><ele>119.0</ele><time>2026-05-03T07:40:44Z</time></trkpt><trkpt lat="55.58528806618933" lon="38.89839092510807"><ele>118.83333333333333</ele><time>2026-05-03T07:40:45Z</time></trkpt><trkpt lat="55.585198162692166" lon="38.89840767199721"><ele>118.66666666666666</ele><time>2026-05-03T07:40:46Z</time></trkpt><trkpt lat="55.585117750805594" lon="38.8984094682404"><ele>118.5</ele><time>2026-05-03T07:40:47Z</time></trkpt><trkpt lat="55.58505341877748" lon="38.89842132740548"><ele>118.33333333333334</ele><time>2026-05-03T07:40:48Z</time></trkpt><trkpt lat="55.58498282498399" lon="38.89844910519794"><ele>118.16666666666667</ele><time>2026-05-03T07:40:50Z</time></trkpt><trkpt lat="55.584919418182004" lon="38.89834794230935"><ele>118.0</ele><time>2026-05-03T07:40:53Z</time></trkpt><trkpt lat="55.58491072109534" lon="38.89821864187921"><ele>118.0</ele><time>2026-05-03T07:40:55Z</time></trkpt><trkpt lat="55.58483418335351" lon="38.89816513400849"><ele>118.00000000000001</ele><time>2026-05-03T07:40:57Z</time></trkpt><trkpt lat="55.58470468044422" lon="38.898211362397035"><ele>118.00000000000001</ele><time>2026-05-03T07:40:59Z</time></trkpt><trkpt lat="55.584633016898934" lon="38.898236189529015"><ele>118.0</ele><time>2026-05-03T07:41:00Z</time></trkpt><trkpt lat="55.58452666708113" lon="38.8982641640242"><ele>118.0</ele><time>2026-05-03T07:41:01Z</time></trkpt><trkpt lat="55.58441237962241" lon="38.8982897084598"><ele>117.75</ele><time>2026-05-03T07:41:02Z</time></trkpt><trkpt lat="55.584289766916044" lon="38.898307434955875"><ele>117.5</ele><time>2026-05-03T07:41:03Z</time></trkpt><trkpt lat="55.58416588351599" lon="38.89833149398241"><ele>117.25</ele><time>2026-05-03T07:41:04Z</time></trkpt><trkpt lat="55.584033236294836" lon="38.89835134192022"><ele>117.0</ele><time>2026-05-03T07:41:04.999Z</time></trkpt><trkpt lat="55.583899307197065" lon="38.898361704830705"><ele>117.0</ele><time>2026-05-03T07:41:05.999Z</time></trkpt><trkpt lat="55.58375780100726" lon="38.89836448888754"><ele>117.0</ele><time>2026-05-03T07:41:06.999Z</time></trkpt><trkpt lat="55.58359503550447" lon="38.89837824687969"><ele>117.0</ele><time>2026-05-03T07:41:07.999Z</time></trkpt><trkpt lat="55.58343372623331" lon="38.89838622409191"><ele>117.33333333333334</ele><time>2026-05-03T07:41:08.999Z</time></trkpt><trkpt lat="55.583254724567" lon="38.898387164880816"><ele>117.66666666666667</ele><time>2026-05-03T07:41:09.999Z</time></trkpt><trkpt lat="55.58308591965663" lon="38.89838635204904"><ele>118.0</ele><time>2026-05-03T07:41:10.999Z</time></trkpt><trkpt lat="55.58292601014051" lon="38.89839158747721"><ele>118.0</ele><time>2026-05-03T07:41:11.999Z</time></trkpt><trkpt lat="55.58279824607038" lon="38.89840777821271"><ele>118.0</ele><time>2026-05-03T07:41:12.999Z</time></trkpt><trkpt lat="55.582684685723954" lon="38.898404616469705"><ele>118.0</ele><time>2026-05-03T07:41:13.999Z</time></trkpt><trkpt lat="55.582578626071545" lon="38.89839871277893"><ele>118.0</ele><time>2026-05-03T07:41:14.999Z</time></trkpt><trkpt lat="55.58245889180153" lon="38.898394169555054"><ele>118.00000000000001</ele><time>2026-05-03T07:41:15.999Z</time></trkpt><trkpt lat="55.58235456912379" lon="38.898388113347444"><ele>118.0</ele><time>2026-05-03T07:41:16.999Z</time></trkpt><trkpt lat="55.58227697147867" lon="38.898398144757564"><ele>118.0</ele><time>2026-05-03T07:41:17.999Z</time></trkpt><trkpt lat="55.58219175265973" lon="38.89839955780489"><ele>118.0</ele><time>2026-05-03T07:41:18.999Z</time></trkpt><trkpt lat="55.58210430810735" lon="38.89838764287342"><ele>118.00000000000001</ele><time>2026-05-03T07:41:19.999Z</time></trkpt><trkpt lat="55.58201504428129" lon="38.89838714064133"><ele>118.0</ele><time>2026-05-03T07:41:20.999Z</time></trkpt><trkpt lat="55.58193374116741" lon="38.89837478120763"><ele>117.50000000000001</ele><time>2026-05-03T07:41:21.999Z</time></trkpt><trkpt lat="55.58183701174258" lon="38.89835238991177"><ele>117.0</ele><time>2026-05-03T07:41:23.999Z</time></trkpt><trkpt lat="55.581748257739456" lon="38.898377131665455"><ele>116.5</ele><time>2026-05-03T07:41:25.999Z</time></trkpt><trkpt lat="55.58168173962574" lon="38.898312153259575"><ele>116.0</ele><time>2026-05-03T07:41:28.999Z</time></trkpt><trkpt lat="55.58158117531194" lon="38.89821796735047"><ele>115.50000000000001</ele><time>2026-05-03T07:41:30.999Z</time></trkpt><trkpt lat="55.58154965395098" lon="38.89812064404931"><ele>115.0</ele><time>2026-05-03T07:41:31.999Z</time></trkpt><trkpt lat="55.581448188911956" lon="38.89803938836705"><ele>115.0</ele><time>2026-05-03T07:41:33.999Z</time></trkpt><trkpt lat="55.58136439451601" lon="38.898042017566034"><ele>115.0</ele><time>2026-05-03T07:41:34.999Z</time></trkpt><trkpt lat="55.581266278403156" lon="38.89803339480454"><ele>115.0</ele><time>2026-05-03T07:41:35.999Z</time></trkpt><trkpt lat="55.58119179239727" lon="38.8980098787731"><ele>115.0</ele><time>2026-05-03T07:41:36.999Z</time></trkpt><trkpt lat="55.58106789484492" lon="38.8979828587326"><ele>115.0</ele><time>2026-05-03T07:41:38.999Z</time></trkpt><trkpt lat="55.58098746757222" lon="38.89796371792664"><ele>114.50000000000001</ele><time>2026-05-03T07:41:39.999Z</time></trkpt><trkpt lat="55.5809125647466" lon="38.89794414274403"><ele>114.0</ele><time>2026-05-03T07:41:40.999Z</time></trkpt><trkpt lat="55.58084511393394" lon="38.897922680621605"><ele>113.5</ele><time>2026-05-03T07:41:42Z</time></trkpt><trkpt lat="55.58077227860448" lon="38.89791041065435"><ele>113.0</ele><time>2026-05-03T07:41:43Z</time></trkpt><trkpt lat="55.580694755826514" lon="38.89792739434621"><ele>112.50000000000001</ele><time>2026-05-03T07:41:44Z</time></trkpt><trkpt lat="55.58060078306181" lon="38.897878885071336"><ele>112.0</ele><time>2026-05-03T07:41:46Z</time></trkpt><trkpt lat="55.58053854609151" lon="38.89783499360765"><ele>112.0</ele><time>2026-05-03T07:41:48Z</time></trkpt><trkpt lat="55.58044546401923" lon="38.897798129688354"><ele>111.99999999999999</ele><time>2026-05-03T07:41:50Z</time></trkpt><trkpt lat="55.58032081620936" lon="38.89777614580138"><ele>111.99999999999999</ele><time>2026-05-03T07:41:52Z</time></trkpt><trkpt lat="55.58024589699431" lon="38.89775455195955"><ele>112.0</ele><time>2026-05-03T07:41:53Z</time></trkpt><trkpt lat="55.58016407720134" lon="38.89773626665146"><ele>112.0</ele><time>2026-05-03T07:41:54Z</time></trkpt><trkpt lat="55.58008622149752" lon="38.897711678096115"><ele>112.33333333333334</ele><time>2026-05-03T07:41:55Z</time></trkpt><trkpt lat="55.58000967713916" lon="38.89769702267333"><ele>112.66666666666667</ele><time>2026-05-03T07:41:56Z</time></trkpt><trkpt lat="55.579945514333495" lon="38.89768135909141"><ele>113.0</ele><time>2026-05-03T07:41:57Z</time></trkpt><trkpt lat="55.57986454698251" lon="38.89767745584263"><ele>113.33333333333334</ele><time>2026-05-03T07:41:58Z</time></trkpt><trkpt lat="55.579781692831716" lon="38.89766790117904"><ele>113.66666666666667</ele><time>2026-05-03T07:41:59Z</time></trkpt><trkpt lat="55.57969450725398" lon="38.89765482388519"><ele>114.0</ele><time>2026-05-03T07:42:00Z</time></trkpt><trkpt lat="55.57961077223772" lon="38.89763152128256"><ele>114.4</ele><time>2026-05-03T07:42:01Z</time></trkpt><trkpt lat="55.579487194061265" lon="38.89759353336286"><ele>114.80000000000001</ele><time>2026-05-03T07:42:02Z</time></trkpt><trkpt lat="55.57938268047573" lon="38.89757478005773"><ele>115.19999999999999</ele><time>2026-05-03T07:42:03Z</time></trkpt><trkpt lat="55.57929413349629" lon="38.897549765000115"><ele>115.6</ele><time>2026-05-03T07:42:04Z</time></trkpt><trkpt lat="55.579195531134445" lon="38.89753528502704"><ele>116.0</ele><time>2026-05-03T07:42:05Z</time></trkpt><trkpt lat="55.57906986383137" lon="38.897507749957306"><ele>116.0</ele><time>2026-05-03T07:42:06Z</time></trkpt><trkpt lat="55.5789280048492" lon="38.897456120106185"><ele>116.0</ele><time>2026-05-03T07:42:07Z</time></trkpt><trkpt lat="55.57880800213438" lon="38.897424934043464"><ele>116.0</ele><time>2026-05-03T07:42:08Z</time></trkpt><trkpt lat="55.578717993774156" lon="38.89741804680018"><ele>116.0</ele><time>2026-05-03T07:42:09Z</time></trkpt><trkpt lat="55.57865227218091" lon="38.89739858435196"><ele>116.0</ele><time>2026-05-03T07:42:10Z</time></trkpt><trkpt lat="55.57855300026682" lon="38.8974126889161"><ele>116.4</ele><time>2026-05-03T07:42:12Z</time></trkpt><trkpt lat="55.57842265531849" lon="38.89746758032913"><ele>116.8</ele><time>2026-05-03T07:42:14Z</time></trkpt><trkpt lat="55.57835056710222" lon="38.89748549065513"><ele>117.20000000000002</ele><time>2026-05-03T07:42:15Z</time></trkpt><trkpt lat="55.578262552686716" lon="38.897486852678895"><ele>117.60000000000001</ele><time>2026-05-03T07:42:17Z</time></trkpt><trkpt lat="55.57819349808638" lon="38.8975293286866"><ele>118.0</ele><time>2026-05-03T07:42:20Z</time></trkpt><trkpt lat="55.57816560367554" lon="38.89737175494246"><ele>118.00000000000001</ele><time>2026-05-03T07:42:23Z</time></trkpt><trkpt lat="55.57817450567157" lon="38.897236952762114"><ele>118.0</ele><time>2026-05-03T07:42:25Z</time></trkpt><trkpt lat="55.578184818615874" lon="38.89709838106417"><ele>118.0</ele><time>2026-05-03T07:42:27Z</time></trkpt><trkpt lat="55.578196836873744" lon="38.89696543660677"><ele>118.0</ele><time>2026-05-03T07:42:28Z</time></trkpt><trkpt lat="55.578210478724465" lon="38.89682122663436"><ele>118.00000000000001</ele><time>2026-05-03T07:42:29Z</time></trkpt><trkpt lat="55.578249426131066" lon="38.89668884339974"><ele>118.0</ele><time>2026-05-03T07:42:30Z</time></trkpt><trkpt lat="55.578280536562566" lon="38.896564858797205"><ele>118.00000000000001</ele><time>2026-05-03T07:42:31Z</time></trkpt><trkpt lat="55.57830651573325" lon="38.89645632814621"><ele>118.0</ele><time>2026-05-03T07:42:32Z</time></trkpt><trkpt lat="55.57833044321334" lon="38.89632716380275"><ele>118.0</ele><time>2026-05-03T07:42:33Z</time></trkpt><trkpt lat="55.578354931225356" lon="38.89621192327072"><ele>118.0</ele><time>2026-05-03T07:42:34Z</time></trkpt><trkpt lat="55.57837113763721" lon="38.89600233609335"><ele>118.00000000000001</ele><time>2026-05-03T07:42:36Z</time></trkpt><trkpt lat="55.578385790891524" lon="38.89589167818445"><ele>118.0</ele><time>2026-05-03T07:42:37Z</time></trkpt><trkpt lat="55.578409851706574" lon="38.89568526718509"><ele>118.0</ele><time>2026-05-03T07:42:39Z</time></trkpt><trkpt lat="55.57841318099141" lon="38.89545636296918"><ele>118.00000000000001</ele><time>2026-05-03T07:42:41Z</time></trkpt><trkpt lat="55.57837138987967" lon="38.89527389553994"><ele>118.00000000000001</ele><time>2026-05-03T07:42:43Z</time></trkpt><trkpt lat="55.57834173377709" lon="38.895128133045326"><ele>118.0</ele><time>2026-05-03T07:42:45Z</time></trkpt><trkpt lat="55.57830039605916" lon="38.894990228500085"><ele>118.0</ele><time>2026-05-03T07:42:48Z</time></trkpt><trkpt lat="55.57825091774308" lon="38.89479801146749"><ele>118.14285714285714</ele><time>2026-05-03T07:42:50Z</time></trkpt><trkpt lat="55.57820952916642" lon="38.8947037735475"><ele>118.28571428571429</ele><time>2026-05-03T07:42:51Z</time></trkpt><trkpt lat="55.57815691264003" lon="38.89463945254328"><ele>118.42857142857143</ele><time>2026-05-03T07:42:52Z</time></trkpt><trkpt lat="55.57808693517518" lon="38.89459127687862"><ele>118.57142857142857</ele><time>2026-05-03T07:42:53Z</time></trkpt><trkpt lat="55.578027440545" lon="38.894522281629825"><ele>118.71428571428572</ele><time>2026-05-03T07:42:54Z</time></trkpt><trkpt lat="55.57797029659272" lon="38.89445166333805"><ele>118.85714285714286</ele><time>2026-05-03T07:42:55Z</time></trkpt><trkpt lat="55.57789272859116" lon="38.89438978607282"><ele>119.0</ele><time>2026-05-03T07:42:56Z</time></trkpt><trkpt lat="55.57778782213899" lon="38.89429037894989"><ele>120.0</ele><time>2026-05-03T07:42:57Z</time></trkpt><trkpt lat="55.577675942316766" lon="38.894177298302445"><ele>121.0</ele><time>2026-05-03T07:42:58Z</time></trkpt><trkpt lat="55.57755400709745" lon="38.89406085758849"><ele>122.0</ele><time>2026-05-03T07:42:59Z</time></trkpt><trkpt lat="55.577417736267826" lon="38.89393457118572"><ele>123.0</ele><time>2026-05-03T07:43:00Z</time></trkpt><trkpt lat="55.57727561301595" lon="38.89380296161959"><ele>123.0</ele><time>2026-05-03T07:43:01Z</time></trkpt><trkpt lat="55.577141217672214" lon="38.89367768213775"><ele>123.0</ele><time>2026-05-03T07:43:02Z</time></trkpt><trkpt lat="55.5770236000524" lon="38.89357230954871"><ele>123.0</ele><time>2026-05-03T07:43:03Z</time></trkpt><trkpt lat="55.57690766946866" lon="38.89347163274068"><ele>123.0</ele><time>2026-05-03T07:43:04Z</time></trkpt><trkpt lat="55.5767945070286" lon="38.893376994614385"><ele>122.75</ele><time>2026-05-03T07:43:05Z</time></trkpt><trkpt lat="55.576681073439744" lon="38.89327040659377"><ele>122.5</ele><time>2026-05-03T07:43:06Z</time></trkpt><trkpt lat="55.576571132603405" lon="38.893165864328594"><ele>122.25</ele><time>2026-05-03T07:43:07Z</time></trkpt><trkpt lat="55.57645489188592" lon="38.8930738877405"><ele>122.0</ele><time>2026-05-03T07:43:08Z</time></trkpt><trkpt lat="55.57633986337198" lon="38.89298521085815"><ele>122.0</ele><time>2026-05-03T07:43:09Z</time></trkpt><trkpt lat="55.57622818017905" lon="38.89287839428969"><ele>122.0</ele><time>2026-05-03T07:43:09.999Z</time></trkpt><trkpt lat="55.576121036299796" lon="38.89277667838466"><ele>122.0</ele><time>2026-05-03T07:43:10.999Z</time></trkpt><trkpt lat="55.57601432761835" lon="38.89266477132862"><ele>122.0</ele><time>2026-05-03T07:43:11.999Z</time></trkpt><trkpt lat="55.57590696288175" lon="38.89254994011851"><ele>122.0</ele><time>2026-05-03T07:43:12.999Z</time></trkpt><trkpt lat="55.575797303661126" lon="38.89241093241045"><ele>122.0</ele><time>2026-05-03T07:43:13.999Z</time></trkpt><trkpt lat="55.57569284098408" lon="38.89228326868627"><ele>122.0</ele><time>2026-05-03T07:43:14.999Z</time></trkpt><trkpt lat="55.57558584225081" lon="38.89213982222523"><ele>122.0</ele><time>2026-05-03T07:43:15.999Z</time></trkpt><trkpt lat="55.575474022095875" lon="38.89197490527929"><ele>122.0</ele><time>2026-05-03T07:43:16.999Z</time></trkpt><trkpt lat="55.575369605291925" lon="38.89181399194466"><ele>122.0</ele><time>2026-05-03T07:43:17.999Z</time></trkpt><trkpt lat="55.57527243013613" lon="38.89165482445656"><ele>122.0</ele><time>2026-05-03T07:43:18.999Z</time></trkpt><trkpt lat="55.57516901267969" lon="38.891501380365945"><ele>122.0</ele><time>2026-05-03T07:43:19.999Z</time></trkpt><trkpt lat="55.575071931685706" lon="38.89135727776872"><ele>122.0</ele><time>2026-05-03T07:43:20.999Z</time></trkpt><trkpt lat="55.574973332877555" lon="38.8911979872249"><ele>122.0</ele><time>2026-05-03T07:43:21.999Z</time></trkpt><trkpt lat="55.57488178324672" lon="38.89103675570438"><ele>122.0</ele><time>2026-05-03T07:43:22.999Z</time></trkpt><trkpt lat="55.5747838034708" lon="38.890875175131825"><ele>122.0</ele><time>2026-05-03T07:43:23.999Z</time></trkpt><trkpt lat="55.57458288765933" lon="38.89056348380219"><ele>122.0</ele><time>2026-05-03T07:43:25.999Z</time></trkpt><trkpt lat="55.574484769964556" lon="38.890404607262944"><ele>122.0</ele><time>2026-05-03T07:43:26.999Z</time></trkpt><trkpt lat="55.57438698755297" lon="38.8902366627708"><ele>122.0</ele><time>2026-05-03T07:43:27.999Z</time></trkpt><trkpt lat="55.574283139874204" lon="38.89007555240519"><ele>122.0</ele><time>2026-05-03T07:43:28.999Z</time></trkpt><trkpt lat="55.57417269062232" lon="38.88990048259734"><ele>122.0</ele><time>2026-05-03T07:43:29.999Z</time></trkpt><trkpt lat="55.57406940955819" lon="38.889734676990116"><ele>122.0</ele><time>2026-05-03T07:43:31Z</time></trkpt><trkpt lat="55.573964397000786" lon="38.88957279560387"><ele>122.0</ele><time>2026-05-03T07:43:32Z</time></trkpt><trkpt lat="55.57385942059281" lon="38.889411621079894"><ele>122.0</ele><time>2026-05-03T07:43:33Z</time></trkpt><trkpt lat="55.573755766624416" lon="38.88925061645116"><ele>121.75</ele><time>2026-05-03T07:43:34Z</time></trkpt><trkpt lat="55.57365472620592" lon="38.889085544115346"><ele>121.5</ele><time>2026-05-03T07:43:35Z</time></trkpt><trkpt lat="55.57355765610155" lon="38.88893110509343"><ele>121.25</ele><time>2026-05-03T07:43:36Z</time></trkpt><trkpt lat="55.5734590865073" lon="38.88878452148241"><ele>121.0</ele><time>2026-05-03T07:43:37Z</time></trkpt><trkpt lat="55.573361776188385" lon="38.88862956126484"><ele>121.0</ele><time>2026-05-03T07:43:38Z</time></trkpt><trkpt lat="55.57326793142004" lon="38.8884769105035"><ele>121.0</ele><time>2026-05-03T07:43:39Z</time></trkpt><trkpt lat="55.573176953304134" lon="38.88832202066597"><ele>121.0</ele><time>2026-05-03T07:43:40Z</time></trkpt><trkpt lat="55.573081049285754" lon="38.88816248428183"><ele>121.0</ele><time>2026-05-03T07:43:41Z</time></trkpt><trkpt lat="55.57297716746786" lon="38.88798961249629"><ele>121.0</ele><time>2026-05-03T07:43:42Z</time></trkpt><trkpt lat="55.57287572816509" lon="38.887821380304224"><ele>121.0</ele><time>2026-05-03T07:43:43Z</time></trkpt><trkpt lat="55.57276507275726" lon="38.88763576974406"><ele>121.0</ele><time>2026-05-03T07:43:44Z</time></trkpt><trkpt lat="55.57265761908637" lon="38.8874474338464"><ele>121.0</ele><time>2026-05-03T07:43:45Z</time></trkpt><trkpt lat="55.57254887389647" lon="38.88727657344807"><ele>121.0</ele><time>2026-05-03T07:43:46Z</time></trkpt><trkpt lat="55.572430713753384" lon="38.88713690992118"><ele>121.0</ele><time>2026-05-03T07:43:47Z</time></trkpt><trkpt lat="55.57229650544588" lon="38.886986474873936"><ele>121.0</ele><time>2026-05-03T07:43:48Z</time></trkpt><trkpt lat="55.57216265941991" lon="38.88682291233158"><ele>121.0</ele><time>2026-05-03T07:43:49Z</time></trkpt><trkpt lat="55.572021518897586" lon="38.88664634387926"><ele>121.0</ele><time>2026-05-03T07:43:50Z</time></trkpt><trkpt lat="55.57189023714019" lon="38.88646786044565"><ele>121.0</ele><time>2026-05-03T07:43:51Z</time></trkpt><trkpt lat="55.571756748739354" lon="38.886275494893646"><ele>121.0</ele><time>2026-05-03T07:43:52Z</time></trkpt><trkpt lat="55.57164127504248" lon="38.886109680920946"><ele>121.0</ele><time>2026-05-03T07:43:53Z</time></trkpt><trkpt lat="55.57153296473199" lon="38.88597157336818"><ele>121.0</ele><time>2026-05-03T07:43:54Z</time></trkpt><trkpt lat="55.57143642054737" lon="38.8858350261258"><ele>121.0</ele><time>2026-05-03T07:43:55Z</time></trkpt><trkpt lat="55.57135571266871" lon="38.88571409336442"><ele>121.16666666666667</ele><time>2026-05-03T07:43:56Z</time></trkpt><trkpt lat="55.57129236030253" lon="38.885630514189394"><ele>121.33333333333334</ele><time>2026-05-03T07:43:57Z</time></trkpt><trkpt lat="55.571210855892055" lon="38.885496613494006"><ele>121.5</ele><time>2026-05-03T07:43:59Z</time></trkpt><trkpt lat="55.571140914671" lon="38.885456493341735"><ele>121.66666666666666</ele><time>2026-05-03T07:44:02Z</time></trkpt><trkpt lat="55.57106805299372" lon="38.885493053147265"><ele>121.83333333333333</ele><time>2026-05-03T07:44:04Z</time></trkpt><trkpt lat="55.570991737272834" lon="38.88548311490443"><ele>122.0</ele><time>2026-05-03T07:44:06Z</time></trkpt><trkpt lat="55.570939047180055" lon="38.88537786043935"><ele>122.0</ele><time>2026-05-03T07:44:08Z</time></trkpt><trkpt lat="55.570923697654955" lon="38.885137062812134"><ele>122.0</ele><time>2026-05-03T07:44:10Z</time></trkpt><trkpt lat="55.570931332345005" lon="38.88494313073759"><ele>122.0</ele><time>2026-05-03T07:44:11Z</time></trkpt><trkpt lat="55.570929579820856" lon="38.88474324661511"><ele>122.0</ele><time>2026-05-03T07:44:12Z</time></trkpt><trkpt lat="55.570916005249266" lon="38.884544722422106"><ele>122.0</ele><time>2026-05-03T07:44:13Z</time></trkpt><trkpt lat="55.570890318792074" lon="38.88435433186987"><ele>121.99999999999999</ele><time>2026-05-03T07:44:14Z</time></trkpt><trkpt lat="55.57088779232126" lon="38.88417530454907"><ele>121.99999999999999</ele><time>2026-05-03T07:44:15Z</time></trkpt><trkpt lat="55.57085871089185" lon="38.88401907724891"><ele>122.0</ele><time>2026-05-03T07:44:17Z</time></trkpt><trkpt lat="55.57077708104189" lon="38.88390911799963"><ele>122.0</ele><time>2026-05-03T07:44:18Z</time></trkpt><trkpt lat="55.57067391432611" lon="38.88381087096072"><ele>122.33333333333333</ele><time>2026-05-03T07:44:19Z</time></trkpt><trkpt lat="55.570592079645074" lon="38.88363003640255"><ele>122.66666666666666</ele><time>2026-05-03T07:44:20Z</time></trkpt><trkpt lat="55.57051877043894" lon="38.883371250487464"><ele>123.0</ele><time>2026-05-03T07:44:21Z</time></trkpt><trkpt lat="55.57044980621936" lon="38.88310664969347"><ele>123.0</ele><time>2026-05-03T07:44:22Z</time></trkpt><trkpt lat="55.5704127458039" lon="38.88290293820656"><ele>123.0</ele><time>2026-05-03T07:44:23Z</time></trkpt><trkpt lat="55.57039298167563" lon="38.88269912176716"><ele>123.0</ele><time>2026-05-03T07:44:24Z</time></trkpt><trkpt lat="55.570383191187105" lon="38.88242776263769"><ele>123.0</ele><time>2026-05-03T07:44:25Z</time></trkpt><trkpt lat="55.57036835218519" lon="38.882148113472404"><ele>123.33333333333334</ele><time>2026-05-03T07:44:26Z</time></trkpt><trkpt lat="55.57035933785563" lon="38.8818421287273"><ele>123.66666666666667</ele><time>2026-05-03T07:44:27Z</time></trkpt><trkpt lat="55.570342960601636" lon="38.8814867535587"><ele>124.0</ele><time>2026-05-03T07:44:28Z</time></trkpt><trkpt lat="55.57030185037985" lon="38.88117468000772"><ele>125.0</ele><time>2026-05-03T07:44:29Z</time></trkpt><trkpt lat="55.57029716214005" lon="38.88090138370193"><ele>126.0</ele><time>2026-05-03T07:44:30Z</time></trkpt><trkpt lat="55.57028383882543" lon="38.88064892329587"><ele>127.0</ele><time>2026-05-03T07:44:31Z</time></trkpt><trkpt lat="55.570274635271566" lon="38.880410644599564"><ele>128.0</ele><time>2026-05-03T07:44:32Z</time></trkpt><trkpt lat="55.57025712545711" lon="38.88014743407241"><ele>127.5</ele><time>2026-05-03T07:44:33Z</time></trkpt><trkpt lat="55.570250340986604" lon="38.87992088204225"><ele>127.0</ele><time>2026-05-03T07:44:34Z</time></trkpt><trkpt lat="55.57024431373788" lon="38.87974241409297"><ele>126.5</ele><time>2026-05-03T07:44:35Z</time></trkpt><trkpt lat="55.57023653684256" lon="38.87954444155275"><ele>126.0</ele><time>2026-05-03T07:44:36Z</time></trkpt><trkpt lat="55.57025849416289" lon="38.87933427989683"><ele>125.66666666666667</ele><time>2026-05-03T07:44:37Z</time></trkpt><trkpt lat="55.57027294170335" lon="38.8791993377475"><ele>125.33333333333334</ele><time>2026-05-03T07:44:38Z</time></trkpt><trkpt lat="55.57026653492574" lon="38.87903280740309"><ele>125.0</ele><time>2026-05-03T07:44:39Z</time></trkpt><trkpt lat="55.57024088516029" lon="38.87889584639403"><ele>124.66666666666667</ele><time>2026-05-03T07:44:40Z</time></trkpt><trkpt lat="55.57020788751198" lon="38.87875994463735"><ele>124.33333333333334</ele><time>2026-05-03T07:44:41Z</time></trkpt><trkpt lat="55.570177864189844" lon="38.8785708042546"><ele>124.0</ele><time>2026-05-03T07:44:42Z</time></trkpt><trkpt lat="55.57017267427104" lon="38.87835509836533"><ele>124.0</ele><time>2026-05-03T07:44:43Z</time></trkpt><trkpt lat="55.57018072602161" lon="38.87812976973763"><ele>124.0</ele><time>2026-05-03T07:44:44Z</time></trkpt><trkpt lat="55.570187482200645" lon="38.877901130098344"><ele>124.0</ele><time>2026-05-03T07:44:45Z</time></trkpt><trkpt lat="55.57018337827134" lon="38.877726087333166"><ele>124.0</ele><time>2026-05-03T07:44:46Z</time></trkpt><trkpt lat="55.57016568008305" lon="38.877594025102255"><ele>124.0</ele><time>2026-05-03T07:44:47Z</time></trkpt><trkpt lat="55.570145025488394" lon="38.87748703241909"><ele>123.80000000000001</ele><time>2026-05-03T07:44:48Z</time></trkpt><trkpt lat="55.57007840272746" lon="38.87735437686885"><ele>123.60000000000001</ele><time>2026-05-03T07:44:50Z</time></trkpt><trkpt lat="55.569973051073596" lon="38.87741605357444"><ele>123.4</ele><time>2026-05-03T07:44:52Z</time></trkpt><trkpt lat="55.56990309617579" lon="38.87746227320562"><ele>123.2</ele><time>2026-05-03T07:44:53Z</time></trkpt><trkpt lat="55.569810433179086" lon="38.87742074960109"><ele>123.0</ele><time>2026-05-03T07:44:54Z</time></trkpt><trkpt lat="55.56971811691556" lon="38.87735157463121"><ele>123.0</ele><time>2026-05-03T07:44:55Z</time></trkpt><trkpt lat="55.56956751602225" lon="38.87726139304283"><ele>123.0</ele><time>2026-05-03T07:44:57Z</time></trkpt><trkpt lat="55.56947193993075" lon="38.87718527689227"><ele>123.0</ele><time>2026-05-03T07:44:59Z</time></trkpt><trkpt lat="55.569386459469314" lon="38.87706933270728"><ele>123.0</ele><time>2026-05-03T07:45:02Z</time></trkpt><trkpt lat="55.56929474278368" lon="38.87694362265813"><ele>124.0</ele><time>2026-05-03T07:45:04Z</time></trkpt><trkpt lat="55.569094727923144" lon="38.876892799348475"><ele>125.0</ele><time>2026-05-03T07:45:05Z</time></trkpt><trkpt lat="55.568985467576766" lon="38.87692685272107"><ele>126.0</ele><time>2026-05-03T07:45:06Z</time></trkpt><trkpt lat="55.5688874363972" lon="38.87696840137496"><ele>127.0</ele><time>2026-05-03T07:45:07Z</time></trkpt><trkpt lat="55.56879792140124" lon="38.87698433872858"><ele>127.0</ele><time>2026-05-03T07:45:08Z</time></trkpt><trkpt lat="55.568694884140875" lon="38.87694254950796"><ele>126.99999999999999</ele><time>2026-05-03T07:45:09Z</time></trkpt><trkpt lat="55.5685667968761" lon="38.87687477689705"><ele>126.99999999999999</ele><time>2026-05-03T07:45:10Z</time></trkpt><trkpt lat="55.56852659725034" lon="38.87669407408538"><ele>127.0</ele><time>2026-05-03T07:45:11Z</time></trkpt><trkpt lat="55.56848587449679" lon="38.87654964831547"><ele>127.0</ele><time>2026-05-03T07:45:12Z</time></trkpt><trkpt lat="55.568427818178385" lon="38.87641717455717"><ele>127.0</ele><time>2026-05-03T07:45:13Z</time></trkpt><trkpt lat="55.568346951382395" lon="38.87635530003173"><ele>126.99999999999999</ele><time>2026-05-03T07:45:14Z</time></trkpt><trkpt lat="55.568254302110546" lon="38.87629577297003"><ele>126.99999999999999</ele><time>2026-05-03T07:45:15Z</time></trkpt><trkpt lat="55.5681797626648" lon="38.87626495674109"><ele>127.0</ele><time>2026-05-03T07:45:16Z</time></trkpt><trkpt lat="55.56806977441307" lon="38.876163759018"><ele>127.0</ele><time>2026-05-03T07:45:18Z</time></trkpt><trkpt lat="55.56799605633505" lon="38.876115703740105"><ele>127.00000000000001</ele><time>2026-05-03T07:45:19Z</time></trkpt><trkpt lat="55.56791804150227" lon="38.87611235228388"><ele>127.0</ele><time>2026-05-03T07:45:21Z</time></trkpt><trkpt lat="55.567858892391136" lon="38.876214043382646"><ele>127.0</ele><time>2026-05-03T07:45:23Z</time></trkpt><trkpt lat="55.56783122882487" lon="38.87634388479504"><ele>127.0</ele><time>2026-05-03T07:45:25Z</time></trkpt><trkpt lat="55.56792261479992" lon="38.87635703200873"><ele>127.00000000000001</ele><time>2026-05-03T07:55:37Z</time></trkpt><trkpt lat="55.56802104311945" lon="38.87643232245433"><ele>127.0</ele><time>2026-05-03T07:55:39Z</time></trkpt><trkpt lat="55.56813530968099" lon="38.87652703358474"><ele>127.0</ele><time>2026-05-03T07:55:41Z</time></trkpt><trkpt lat="55.568200110049744" lon="38.87658751953657"><ele>127.0</ele><time>2026-05-03T07:55:42Z</time></trkpt><trkpt lat="55.568328812047696" lon="38.876398948033334"><ele>127.0</ele><time>2026-05-03T07:55:43Z</time></trkpt><trkpt lat="55.56839612275177" lon="38.87645626727505"><ele>127.0</ele><time>2026-05-03T07:55:44Z</time></trkpt><trkpt lat="55.56851568447901" lon="38.876637937325064"><ele>127.00000000000001</ele><time>2026-05-03T07:55:45Z</time></trkpt><trkpt lat="55.56856206249289" lon="38.87671718059644"><ele>127.0</ele><time>2026-05-03T07:55:46Z</time></trkpt><trkpt lat="55.568614618425975" lon="38.87680698013571"><ele>127.0</ele><time>2026-05-03T07:55:47Z</time></trkpt><trkpt lat="55.56866248063467" lon="38.87688223443807"><ele>127.0</ele><time>2026-05-03T07:55:48Z</time></trkpt><trkpt lat="55.568709293710214" lon="38.87695847346427"><ele>127.00000000000001</ele><time>2026-05-03T07:55:49Z</time></trkpt><trkpt lat="55.5687780477778" lon="38.87707044525978"><ele>127.0</ele><time>2026-05-03T07:55:51Z</time></trkpt><trkpt lat="55.56874976879101" lon="38.876905722278124"><ele>125.0</ele><time>2026-05-03T07:55:52Z</time></trkpt><trkpt lat="55.56861846842884" lon="38.87782435958556"><ele>125.0</ele><time>2026-05-03T07:55:56Z</time></trkpt><trkpt lat="55.5685665812932" lon="38.87802099224971"><ele>125.0</ele><time>2026-05-03T07:55:58Z</time></trkpt><trkpt lat="55.56851163141082" lon="38.87811003687905"><ele>125.0</ele><time>2026-05-03T07:55:59Z</time></trkpt><trkpt lat="55.56844938243851" lon="38.878204929284706"><ele>125.0</ele><time>2026-05-03T07:56:00Z</time></trkpt><trkpt lat="55.56835369449468" lon="38.87831886477009"><ele>125.0</ele><time>2026-05-03T07:56:01Z</time></trkpt><trkpt lat="55.568279106956496" lon="38.87840695896856"><ele>125.6</ele><time>2026-05-03T07:56:02Z</time></trkpt><trkpt lat="55.56819566450875" lon="38.87848537674992"><ele>126.2</ele><time>2026-05-03T07:56:03Z</time></trkpt><trkpt lat="55.568095014985026" lon="38.87856372874195"><ele>126.80000000000001</ele><time>2026-05-03T07:56:04Z</time></trkpt><trkpt lat="55.56799231226371" lon="38.878644054101784"><ele>127.4</ele><time>2026-05-03T07:56:05Z</time></trkpt><trkpt lat="55.56789699814544" lon="38.87873871513806"><ele>128.0</ele><time>2026-05-03T07:56:06Z</time></trkpt><trkpt lat="55.56776692572649" lon="38.878805534560726"><ele>128.0</ele><time>2026-05-03T07:56:07Z</time></trkpt><trkpt lat="55.56765161441086" lon="38.8788917512136"><ele>128.0</ele><time>2026-05-03T07:56:08Z</time></trkpt><trkpt lat="55.56753556005154" lon="38.878974888098696"><ele>128.0</ele><time>2026-05-03T07:56:09Z</time></trkpt><trkpt lat="55.56741630540795" lon="38.87906060721396"><ele>128.0</ele><time>2026-05-03T07:56:10Z</time></trkpt><trkpt lat="55.56730456321144" lon="38.87913799658205"><ele>128.0</ele><time>2026-05-03T07:56:11Z</time></trkpt><trkpt lat="55.56720128638537" lon="38.87921244063406"><ele>128.0</ele><time>2026-05-03T07:56:12Z</time></trkpt><trkpt lat="55.56710177195243" lon="38.879266537915676"><ele>128.0</ele><time>2026-05-03T07:56:13Z</time></trkpt><trkpt lat="55.566985607868276" lon="38.879326304404856"><ele>128.0</ele><time>2026-05-03T07:56:14Z</time></trkpt><trkpt lat="55.56687883322291" lon="38.87941161569489"><ele>128.25</ele><time>2026-05-03T07:56:15Z</time></trkpt><trkpt lat="55.56677387849775" lon="38.879454900437416"><ele>128.5</ele><time>2026-05-03T07:56:16Z</time></trkpt><trkpt lat="55.566671663490496" lon="38.87956002053615"><ele>128.75</ele><time>2026-05-03T07:56:17Z</time></trkpt><trkpt lat="55.56656449388074" lon="38.87967367219545"><ele>129.0</ele><time>2026-05-03T07:56:18Z</time></trkpt><trkpt lat="55.56644919597644" lon="38.879767961366156"><ele>129.0</ele><time>2026-05-03T07:56:19Z</time></trkpt><trkpt lat="55.56633482881537" lon="38.87985438150592"><ele>129.0</ele><time>2026-05-03T07:56:20Z</time></trkpt><trkpt lat="55.56623880016903" lon="38.879960688856656"><ele>129.0</ele><time>2026-05-03T07:56:21Z</time></trkpt><trkpt lat="55.566148016693134" lon="38.88004213579878"><ele>129.0</ele><time>2026-05-03T07:56:22Z</time></trkpt><trkpt lat="55.56605302899642" lon="38.880074748504335"><ele>129.0</ele><time>2026-05-03T07:56:23Z</time></trkpt><trkpt lat="55.56598384234967" lon="38.880134551034274"><ele>129.5</ele><time>2026-05-03T07:56:24Z</time></trkpt><trkpt lat="55.56588610301076" lon="38.88016978015025"><ele>130.0</ele><time>2026-05-03T07:56:25Z</time></trkpt><trkpt lat="55.56580346899205" lon="38.88023657444627"><ele>130.5</ele><time>2026-05-03T07:56:26Z</time></trkpt><trkpt lat="55.56570536125232" lon="38.880274590322834"><ele>131.0</ele><time>2026-05-03T07:56:28Z</time></trkpt><trkpt lat="55.56563558485745" lon="38.880316020810625"><ele>131.5</ele><time>2026-05-03T07:56:30Z</time></trkpt><trkpt lat="55.56555656616708" lon="38.88036293899381"><ele>132.0</ele><time>2026-05-03T07:56:33Z</time></trkpt><trkpt lat="55.565442775452105" lon="38.88043050350288"><ele>132.0</ele><time>2026-05-03T07:56:35Z</time></trkpt><trkpt lat="55.56536277159318" lon="38.880478007022695"><ele>132.0</ele><time>2026-05-03T07:56:36Z</time></trkpt><trkpt lat="55.565285813965566" lon="38.8803857634553"><ele>132.0</ele><time>2026-05-03T07:56:37Z</time></trkpt><trkpt lat="55.565178917825016" lon="38.88029882653264"><ele>132.0</ele><time>2026-05-03T07:56:39Z</time></trkpt><trkpt lat="55.565077767295946" lon="38.88009507010328"><ele>132.0</ele><time>2026-05-03T07:56:41Z</time></trkpt><trkpt lat="55.56501356186277" lon="38.87993796083052"><ele>132.16666666666666</ele><time>2026-05-03T07:56:42Z</time></trkpt><trkpt lat="55.56493810728993" lon="38.87994233570596"><ele>132.33333333333334</ele><time>2026-05-03T07:56:43Z</time></trkpt><trkpt lat="55.564869843832675" lon="38.87987765837933"><ele>132.5</ele><time>2026-05-03T07:56:44Z</time></trkpt><trkpt lat="55.56480406109212" lon="38.87980995539049"><ele>132.66666666666669</ele><time>2026-05-03T07:56:45Z</time></trkpt><trkpt lat="55.564723938165606" lon="38.87972123620715"><ele>132.83333333333334</ele><time>2026-05-03T07:56:46Z</time></trkpt><trkpt lat="55.56464774931278" lon="38.87963156937566"><ele>133.0</ele><time>2026-05-03T07:56:47Z</time></trkpt><trkpt lat="55.564575285626375" lon="38.879553784275615"><ele>133.0</ele><time>2026-05-03T07:56:48Z</time></trkpt><trkpt lat="55.56451723128828" lon="38.87947565020276"><ele>133.0</ele><time>2026-05-03T07:56:49Z</time></trkpt><trkpt lat="55.564397383419056" lon="38.8794212845624"><ele>133.0</ele><time>2026-05-03T07:56:51Z</time></trkpt><trkpt lat="55.564326597056315" lon="38.879394129955976"><ele>133.0</ele><time>2026-05-03T07:56:52Z</time></trkpt><trkpt lat="55.564238807851694" lon="38.87935932709914"><ele>133.0</ele><time>2026-05-03T07:56:53Z</time></trkpt><trkpt lat="55.564155200510676" lon="38.87931615970074"><ele>133.0</ele><time>2026-05-03T07:56:54Z</time></trkpt><trkpt lat="55.564080664302764" lon="38.87926484077821"><ele>133.0</ele><time>2026-05-03T07:56:55Z</time></trkpt><trkpt lat="55.56402097058011" lon="38.87920433579118"><ele>133.0</ele><time>2026-05-03T07:56:56Z</time></trkpt><trkpt lat="55.5639519017551" lon="38.879153656661344"><ele>133.0</ele><time>2026-05-03T07:56:57Z</time></trkpt><trkpt lat="55.56388696267839" lon="38.87913195215529"><ele>133.0</ele><time>2026-05-03T07:56:58Z</time></trkpt><trkpt lat="55.56382218464717" lon="38.87909228726196"><ele>133.0</ele><time>2026-05-03T07:56:59Z</time></trkpt><trkpt lat="55.56373143477228" lon="38.8789675462532"><ele>133.0</ele><time>2026-05-03T07:57:01Z</time></trkpt><trkpt lat="55.56361987241948" lon="38.87889553515118"><ele>133.0</ele><time>2026-05-03T07:57:03Z</time></trkpt><trkpt lat="55.563551244001914" lon="38.878878938863004"><ele>133.0</ele><time>2026-05-03T07:57:04Z</time></trkpt><trkpt lat="55.5634753378069" lon="38.87883568070097"><ele>133.0</ele><time>2026-05-03T07:57:06Z</time></trkpt><trkpt lat="55.56338318828453" lon="38.87881605401854"><ele>133.0</ele><time>2026-05-03T07:57:08Z</time></trkpt><trkpt lat="55.56332037744515" lon="38.87878106825481"><ele>133.0</ele><time>2026-05-03T07:57:09Z</time></trkpt><trkpt lat="55.5632581221275" lon="38.87873242269142"><ele>133.0</ele><time>2026-05-03T07:57:10Z</time></trkpt><trkpt lat="55.56320307467067" lon="38.87860612287549"><ele>133.0</ele><time>2026-05-03T07:57:12Z</time></trkpt><trkpt lat="55.563201813417855" lon="38.87843633206173"><ele>133.0</ele><time>2026-05-03T07:57:15Z</time></trkpt><trkpt lat="55.56314067370293" lon="38.87825149880078"><ele>133.0</ele><time>2026-05-03T07:57:17Z</time></trkpt><trkpt lat="55.56308971328332" lon="38.878138300934516"><ele>133.0</ele><time>2026-05-03T07:57:18Z</time></trkpt><trkpt lat="55.56305702859108" lon="38.878028938491"><ele>133.0</ele><time>2026-05-03T07:57:19Z</time></trkpt><trkpt lat="55.56300287009589" lon="38.87780449124151"><ele>133.0</ele><time>2026-05-03T07:57:21Z</time></trkpt><trkpt lat="55.56298878116857" lon="38.8776425907791"><ele>133.0</ele><time>2026-05-03T07:57:22Z</time></trkpt><trkpt lat="55.5629945409035" lon="38.87748193525451"><ele>133.0</ele><time>2026-05-03T07:57:23Z</time></trkpt><trkpt lat="55.56296761975274" lon="38.877364963826494"><ele>133.0</ele><time>2026-05-03T07:57:24Z</time></trkpt><trkpt lat="55.562911444717905" lon="38.87720816133009"><ele>133.0</ele><time>2026-05-03T07:57:25Z</time></trkpt><trkpt lat="55.56285654230433" lon="38.87704329150152"><ele>133.6</ele><time>2026-05-03T07:57:26Z</time></trkpt><trkpt lat="55.562811081869675" lon="38.87690723703349"><ele>134.20000000000002</ele><time>2026-05-03T07:57:27Z</time></trkpt><trkpt lat="55.562740149025196" lon="38.876764086822924"><ele>134.8</ele><time>2026-05-03T07:57:28Z</time></trkpt><trkpt lat="55.56264377312812" lon="38.876614996632945"><ele>135.4</ele><time>2026-05-03T07:57:29Z</time></trkpt><trkpt lat="55.56255567218079" lon="38.8764736768456"><ele>136.0</ele><time>2026-05-03T07:57:30Z</time></trkpt><trkpt lat="55.56246777889045" lon="38.87632673869953"><ele>136.0</ele><time>2026-05-03T07:57:31Z</time></trkpt><trkpt lat="55.56236775356875" lon="38.876186489897826"><ele>136.0</ele><time>2026-05-03T07:57:32Z</time></trkpt><trkpt lat="55.56227293673623" lon="38.87603281557705"><ele>136.0</ele><time>2026-05-03T07:57:33Z</time></trkpt><trkpt lat="55.56219011182276" lon="38.875837136119515"><ele>136.0</ele><time>2026-05-03T07:57:34Z</time></trkpt><trkpt lat="55.56210467010333" lon="38.87563958906652"><ele>135.66666666666669</ele><time>2026-05-03T07:57:35Z</time></trkpt><trkpt lat="55.56202025586822" lon="38.8754259667361"><ele>135.33333333333334</ele><time>2026-05-03T07:57:36Z</time></trkpt><trkpt lat="55.56193663532126" lon="38.87518190730235"><ele>135.0</ele><time>2026-05-03T07:57:37Z</time></trkpt><trkpt lat="55.56183893123994" lon="38.874966683199844"><ele>135.0</ele><time>2026-05-03T07:57:38Z</time></trkpt><trkpt lat="55.5617489904932" lon="38.87475247993857"><ele>135.0</ele><time>2026-05-03T07:57:39Z</time></trkpt><trkpt lat="55.561657189956826" lon="38.87453650552644"><ele>135.0</ele><time>2026-05-03T07:57:40Z</time></trkpt><trkpt lat="55.56156261115214" lon="38.8743292286677"><ele>135.0</ele><time>2026-05-03T07:57:41Z</time></trkpt><trkpt lat="55.56144864937079" lon="38.87411377152395"><ele>135.0</ele><time>2026-05-03T07:57:42Z</time></trkpt><trkpt lat="55.56133874504677" lon="38.87391988798855"><ele>135.0</ele><time>2026-05-03T07:57:43Z</time></trkpt><trkpt lat="55.56124063474462" lon="38.873722794758"><ele>134.75</ele><time>2026-05-03T07:57:44Z</time></trkpt><trkpt lat="55.56116967942678" lon="38.873546650629464"><ele>134.5</ele><time>2026-05-03T07:57:45Z</time></trkpt><trkpt lat="55.56110599907238" lon="38.873372086665796"><ele>134.25</ele><time>2026-05-03T07:57:46Z</time></trkpt><trkpt lat="55.561065186089664" lon="38.8731470233627"><ele>134.0</ele><time>2026-05-03T07:57:47Z</time></trkpt><trkpt lat="55.5610434008182" lon="38.87289862293759"><ele>134.5</ele><time>2026-05-03T07:57:48Z</time></trkpt><trkpt lat="55.561022537651375" lon="38.87266807127537"><ele>135.0</ele><time>2026-05-03T07:57:49Z</time></trkpt><trkpt lat="55.56097871883371" lon="38.87244100932125"><ele>135.5</ele><time>2026-05-03T07:57:50Z</time></trkpt><trkpt lat="55.5609202499645" lon="38.87224444595001"><ele>136.0</ele><time>2026-05-03T07:57:51Z</time></trkpt><trkpt lat="55.56085721011303" lon="38.872036653145116"><ele>136.0</ele><time>2026-05-03T07:57:52Z</time></trkpt><trkpt lat="55.56077604742715" lon="38.87185390335353"><ele>136.0</ele><time>2026-05-03T07:57:53Z</time></trkpt><trkpt lat="55.56069265939151" lon="38.871658485294766"><ele>136.0</ele><time>2026-05-03T07:57:54Z</time></trkpt><trkpt lat="55.5606004377501" lon="38.87146607547689"><ele>136.0</ele><time>2026-05-03T07:57:55Z</time></trkpt><trkpt lat="55.56054378743322" lon="38.87124167485868"><ele>136.0</ele><time>2026-05-03T07:57:56Z</time></trkpt><trkpt lat="55.56047163381379" lon="38.87108755224721"><ele>136.0</ele><time>2026-05-03T07:57:57Z</time></trkpt><trkpt lat="55.5603976784819" lon="38.87093870908459"><ele>136.0</ele><time>2026-05-03T07:57:58Z</time></trkpt><trkpt lat="55.56031240364167" lon="38.87078237513655"><ele>136.0</ele><time>2026-05-03T07:57:59Z</time></trkpt><trkpt lat="55.56022139734215" lon="38.87062749523285"><ele>136.0</ele><time>2026-05-03T07:58:00Z</time></trkpt><trkpt lat="55.56014273386662" lon="38.87042688901303"><ele>136.0</ele><time>2026-05-03T07:58:01Z</time></trkpt><trkpt lat="55.560051397156606" lon="38.87024365244544"><ele>136.0</ele><time>2026-05-03T07:58:02Z</time></trkpt><trkpt lat="55.55996264915081" lon="38.87006596211918"><ele>136.0</ele><time>2026-05-03T07:58:03Z</time></trkpt><trkpt lat="55.55984759280238" lon="38.86993137985583"><ele>136.0</ele><time>2026-05-03T07:58:04Z</time></trkpt><trkpt lat="55.55974636619406" lon="38.86980635958568"><ele>136.0</ele><time>2026-05-03T07:58:05Z</time></trkpt><trkpt lat="55.55962931249602" lon="38.86968410063989"><ele>136.0</ele><time>2026-05-03T07:58:06Z</time></trkpt><trkpt lat="55.55953148828062" lon="38.86954720314011"><ele>136.0</ele><time>2026-05-03T07:58:07Z</time></trkpt><trkpt lat="55.55942702967176" lon="38.86941663016731"><ele>135.66666666666669</ele><time>2026-05-03T07:58:08Z</time></trkpt><trkpt lat="55.55934069829595" lon="38.8693087210354"><ele>135.33333333333334</ele><time>2026-05-03T07:58:09Z</time></trkpt><trkpt lat="55.55925929531367" lon="38.869237174280194"><ele>135.0</ele><time>2026-05-03T07:58:10Z</time></trkpt><trkpt lat="55.5591922026957" lon="38.869142787719305"><ele>134.66666666666666</ele><time>2026-05-03T07:58:11Z</time></trkpt><trkpt lat="55.55912350051534" lon="38.869037492276995"><ele>134.33333333333331</ele><time>2026-05-03T07:58:13Z</time></trkpt><trkpt lat="55.55905148858236" lon="38.86902970170451"><ele>134.0</ele><time>2026-05-03T07:58:15Z</time></trkpt><trkpt lat="55.55893181267012" lon="38.869158599145685"><ele>133.8</ele><time>2026-05-03T07:58:17Z</time></trkpt><trkpt lat="55.55884626503716" lon="38.86919362824048"><ele>133.60000000000002</ele><time>2026-05-03T07:58:18Z</time></trkpt><trkpt lat="55.55877384893382" lon="38.86926450536622"><ele>133.4</ele><time>2026-05-03T07:58:19Z</time></trkpt><trkpt lat="55.55866198682277" lon="38.86939462049472"><ele>133.20000000000002</ele><time>2026-05-03T07:58:21Z</time></trkpt><trkpt lat="55.55856008945034" lon="38.86945431851024"><ele>133.0</ele><time>2026-05-03T07:58:22Z</time></trkpt><trkpt lat="55.55845889884997" lon="38.8695172188218"><ele>133.0</ele><time>2026-05-03T07:58:23Z</time></trkpt><trkpt lat="55.55836171832045" lon="38.86959854520368"><ele>133.0</ele><time>2026-05-03T07:58:24Z</time></trkpt><trkpt lat="55.55826313551201" lon="38.86967580298051"><ele>133.0</ele><time>2026-05-03T07:58:25Z</time></trkpt><trkpt lat="55.5581580362923" lon="38.869763904298395"><ele>133.0</ele><time>2026-05-03T07:58:26Z</time></trkpt><trkpt lat="55.55804718682398" lon="38.86985187433578"><ele>133.0</ele><time>2026-05-03T07:58:27Z</time></trkpt><trkpt lat="55.55793127994996" lon="38.86994816436877"><ele>133.0</ele><time>2026-05-03T07:58:28Z</time></trkpt><trkpt lat="55.557800798008635" lon="38.87003556377113"><ele>133.0</ele><time>2026-05-03T07:58:29Z</time></trkpt><trkpt lat="55.55766614184956" lon="38.87014290243372"><ele>133.0</ele><time>2026-05-03T07:58:30Z</time></trkpt><trkpt lat="55.557539402444576" lon="38.87025218999607"><ele>132.33333333333334</ele><time>2026-05-03T07:58:31Z</time></trkpt><trkpt lat="55.55728414056481" lon="38.87044084547254"><ele>131.66666666666666</ele><time>2026-05-03T07:58:33Z</time></trkpt><trkpt lat="55.55715321400924" lon="38.87054475115027"><ele>131.0</ele><time>2026-05-03T07:58:34Z</time></trkpt><trkpt lat="55.55701554496694" lon="38.87065406148341"><ele>130.5</ele><time>2026-05-03T07:58:35Z</time></trkpt><trkpt lat="55.55688442076622" lon="38.870760251801514"><ele>130.0</ele><time>2026-05-03T07:58:36Z</time></trkpt><trkpt lat="55.556762039910296" lon="38.87087133433932"><ele>129.5</ele><time>2026-05-03T07:58:37Z</time></trkpt><trkpt lat="55.55663364512498" lon="38.870975094337915"><ele>129.0</ele><time>2026-05-03T07:58:38Z</time></trkpt><trkpt lat="55.55650585362759" lon="38.87106730552158"><ele>128.75</ele><time>2026-05-03T07:58:39Z</time></trkpt><trkpt lat="55.55634158048694" lon="38.870846908117365"><ele>128.5</ele><time>2026-05-03T07:58:40Z</time></trkpt><trkpt lat="55.55624119847006" lon="38.87089151441686"><ele>128.25</ele><time>2026-05-03T07:58:41Z</time></trkpt><trkpt lat="55.55614311136214" lon="38.870935289621215"><ele>128.0</ele><time>2026-05-03T07:58:42Z</time></trkpt><trkpt lat="55.55606768360947" lon="38.87096900377743"><ele>127.80000000000001</ele><time>2026-05-03T07:58:43Z</time></trkpt><trkpt lat="55.55599056718567" lon="38.871003472495595"><ele>127.60000000000001</ele><time>2026-05-03T07:58:44Z</time></trkpt><trkpt lat="55.555846771550655" lon="38.87106774477012"><ele>127.39999999999999</ele><time>2026-05-03T07:58:46Z</time></trkpt><trkpt lat="55.555747577562975" lon="38.87111208164847"><ele>127.19999999999999</ele><time>2026-05-03T07:58:47Z</time></trkpt><trkpt lat="55.55566063634849" lon="38.87113095873709"><ele>127.0</ele><time>2026-05-03T07:58:48Z</time></trkpt><trkpt lat="55.55554373176282" lon="38.8711583386197"><ele>127.0</ele><time>2026-05-03T07:58:49Z</time></trkpt><trkpt lat="55.55540555782276" lon="38.871190699880145"><ele>127.0</ele><time>2026-05-03T07:58:50Z</time></trkpt><trkpt lat="55.55527064133227" lon="38.871222298109245"><ele>127.0</ele><time>2026-05-03T07:58:51Z</time></trkpt><trkpt lat="55.55514130082303" lon="38.87125259575237"><ele>127.0</ele><time>2026-05-03T07:58:52Z</time></trkpt><trkpt lat="55.55499731482554" lon="38.871286343656585"><ele>128.0</ele><time>2026-05-03T07:58:53Z</time></trkpt><trkpt lat="55.554864276098854" lon="38.87131752561967"><ele>129.0</ele><time>2026-05-03T07:58:54Z</time></trkpt><trkpt lat="55.55474441801564" lon="38.87134562925854"><ele>130.0</ele><time>2026-05-03T07:58:55Z</time></trkpt><trkpt lat="55.55463359098888" lon="38.8713716650348"><ele>131.0</ele><time>2026-05-03T07:58:56Z</time></trkpt><trkpt lat="55.554506745176724" lon="38.871401351045115"><ele>131.6</ele><time>2026-05-03T07:58:57Z</time></trkpt><trkpt lat="55.5543842999407" lon="38.87142985398668"><ele>132.2</ele><time>2026-05-03T07:58:58Z</time></trkpt><trkpt lat="55.554261734845845" lon="38.8714232881168"><ele>132.8</ele><time>2026-05-03T07:58:59Z</time></trkpt><trkpt lat="55.55416376134029" lon="38.871423028242724"><ele>133.4</ele><time>2026-05-03T07:59:00Z</time></trkpt><trkpt lat="55.5540639248349" lon="38.871422763428534"><ele>134.0</ele><time>2026-05-03T07:59:01Z</time></trkpt><trkpt lat="55.55395356085883" lon="38.87142247068641"><ele>134.0</ele><time>2026-05-03T07:59:02Z</time></trkpt><trkpt lat="55.55384877145719" lon="38.87142238647458"><ele>134.0</ele><time>2026-05-03T07:59:03Z</time></trkpt><trkpt lat="55.55375090190759" lon="38.871422386475494"><ele>134.0</ele><time>2026-05-03T07:59:04Z</time></trkpt><trkpt lat="55.55363530012217" lon="38.871422386470236"><ele>134.0</ele><time>2026-05-03T07:59:05Z</time></trkpt><trkpt lat="55.55351564119269" lon="38.87142238646805"><ele>134.0</ele><time>2026-05-03T07:59:06Z</time></trkpt><trkpt lat="55.553394576959036" lon="38.87142211539629"><ele>134.25</ele><time>2026-05-03T07:59:07Z</time></trkpt><trkpt lat="55.55326868846632" lon="38.87142177731244"><ele>134.5</ele><time>2026-05-03T07:59:08Z</time></trkpt><trkpt lat="55.55313473940839" lon="38.8714214175786"><ele>134.75</ele><time>2026-05-03T07:59:09Z</time></trkpt><trkpt lat="55.553006379484884" lon="38.87142107285214"><ele>135.0</ele><time>2026-05-03T07:59:10Z</time></trkpt><trkpt lat="55.55288456379847" lon="38.871420905541115"><ele>134.75</ele><time>2026-05-03T07:59:11Z</time></trkpt><trkpt lat="55.55275942507391" lon="38.87142079257024"><ele>134.5</ele><time>2026-05-03T07:59:12Z</time></trkpt><trkpt lat="55.5526455181202" lon="38.87142068973467"><ele>134.25</ele><time>2026-05-03T07:59:13Z</time></trkpt><trkpt lat="55.55251745183623" lon="38.87142057411854"><ele>134.0</ele><time>2026-05-03T07:59:14Z</time></trkpt><trkpt lat="55.55238925788027" lon="38.87142045838689"><ele>134.0</ele><time>2026-05-03T07:59:15Z</time></trkpt><trkpt lat="55.55226817753371" lon="38.87142034907579"><ele>134.0</ele><time>2026-05-03T07:59:16Z</time></trkpt><trkpt lat="55.55214010762944" lon="38.87142023345696"><ele>134.0</ele><time>2026-05-03T07:59:17Z</time></trkpt><trkpt lat="55.55200885694242" lon="38.87144867233819"><ele>134.0</ele><time>2026-05-03T07:59:18Z</time></trkpt><trkpt lat="55.55188294322276" lon="38.87144632850156"><ele>134.25</ele><time>2026-05-03T07:59:19Z</time></trkpt><trkpt lat="55.551751652897096" lon="38.87141988277009"><ele>134.5</ele><time>2026-05-03T07:59:20Z</time></trkpt><trkpt lat="55.551627222620134" lon="38.871419770437456"><ele>134.75</ele><time>2026-05-03T07:59:21Z</time></trkpt><trkpt lat="55.551504493963606" lon="38.8714187205314"><ele>135.0</ele><time>2026-05-03T07:59:22Z</time></trkpt><trkpt lat="55.551367549142455" lon="38.8714429842962"><ele>135.0</ele><time>2026-05-03T07:59:23Z</time></trkpt><trkpt lat="55.55123548411563" lon="38.8714315732191"><ele>135.0</ele><time>2026-05-03T07:59:24Z</time></trkpt><trkpt lat="55.55107663035272" lon="38.87140488449192"><ele>135.0</ele><time>2026-05-03T07:59:25Z</time></trkpt><trkpt lat="55.550914291848315" lon="38.87139989040891"><ele>134.33333333333334</ele><time>2026-05-03T07:59:26Z</time></trkpt><trkpt lat="55.55074109084892" lon="38.87142297137138"><ele>133.66666666666669</ele><time>2026-05-03T07:59:27Z</time></trkpt><trkpt lat="55.55056013609741" lon="38.87143072810481"><ele>133.0</ele><time>2026-05-03T07:59:28Z</time></trkpt><trkpt lat="55.550403816225106" lon="38.87143253455433"><ele>133.0</ele><time>2026-05-03T07:59:29Z</time></trkpt><trkpt lat="55.55024912417328" lon="38.87144097381348"><ele>133.0</ele><time>2026-05-03T07:59:30Z</time></trkpt><trkpt lat="55.55009749307277" lon="38.87141774648973"><ele>133.0</ele><time>2026-05-03T07:59:31Z</time></trkpt><trkpt lat="55.549967327230725" lon="38.87141327519259"><ele>133.0</ele><time>2026-05-03T07:59:32Z</time></trkpt><trkpt lat="55.5498420508214" lon="38.87141953407981"><ele>133.0</ele><time>2026-05-03T07:59:33Z</time></trkpt><trkpt lat="55.549714632677585" lon="38.87141871534784"><ele>133.0</ele><time>2026-05-03T07:59:34Z</time></trkpt><trkpt lat="55.549584096895565" lon="38.871426838193344"><ele>133.0</ele><time>2026-05-03T07:59:35Z</time></trkpt><trkpt lat="55.54944904697611" lon="38.87135527449612"><ele>133.0</ele><time>2026-05-03T07:59:36Z</time></trkpt><trkpt lat="55.549314176405204" lon="38.87137087664426"><ele>132.5</ele><time>2026-05-03T07:59:37Z</time></trkpt><trkpt lat="55.54915857988674" lon="38.87136730978873"><ele>132.0</ele><time>2026-05-03T07:59:38Z</time></trkpt><trkpt lat="55.54901195934754" lon="38.87137861928661"><ele>131.5</ele><time>2026-05-03T07:59:39Z</time></trkpt><trkpt lat="55.54887293086372" lon="38.871379623749576"><ele>131.0</ele><time>2026-05-03T07:59:40Z</time></trkpt><trkpt lat="55.548714977209606" lon="38.87136288055857"><ele>131.0</ele><time>2026-05-03T07:59:41Z</time></trkpt><trkpt lat="55.548572368565324" lon="38.87135776070047"><ele>131.0</ele><time>2026-05-03T07:59:42Z</time></trkpt><trkpt lat="55.548430609135664" lon="38.87136386878217"><ele>131.0</ele><time>2026-05-03T07:59:43Z</time></trkpt><trkpt lat="55.54827689359562" lon="38.87131960210855"><ele>131.0</ele><time>2026-05-03T07:59:44Z</time></trkpt><trkpt lat="55.5481339882502" lon="38.871315050235346"><ele>131.0</ele><time>2026-05-03T07:59:45Z</time></trkpt><trkpt lat="55.54798801379898" lon="38.871310270010646"><ele>131.0</ele><time>2026-05-03T07:59:46Z</time></trkpt><trkpt lat="55.54784551630783" lon="38.871305946637236"><ele>131.0</ele><time>2026-05-03T07:59:47Z</time></trkpt><trkpt lat="55.547680270573906" lon="38.87130095381653"><ele>131.33333333333331</ele><time>2026-05-03T07:59:48Z</time></trkpt><trkpt lat="55.54752863843409" lon="38.87129589685886"><ele>131.66666666666666</ele><time>2026-05-03T07:59:49Z</time></trkpt><trkpt lat="55.54738112280976" lon="38.87129139066788"><ele>132.0</ele><time>2026-05-03T07:59:50Z</time></trkpt><trkpt lat="55.54722903052824" lon="38.871292199411585"><ele>132.0</ele><time>2026-05-03T07:59:51Z</time></trkpt><trkpt lat="55.54708122754324" lon="38.87129969819088"><ele>132.0</ele><time>2026-05-03T07:59:52Z</time></trkpt><trkpt lat="55.546938270305716" lon="38.8713064630418"><ele>132.0</ele><time>2026-05-03T07:59:53Z</time></trkpt><trkpt lat="55.546823185219665" lon="38.87133758937577"><ele>132.0</ele><time>2026-05-03T07:59:54Z</time></trkpt><trkpt lat="55.5467207426875" lon="38.871335874369315"><ele>131.4</ele><time>2026-05-03T07:59:55Z</time></trkpt><trkpt lat="55.54661957905062" lon="38.87131770103621"><ele>130.79999999999998</ele><time>2026-05-03T07:59:56Z</time></trkpt><trkpt lat="55.54651193279262" lon="38.871316899361865"><ele>130.2</ele><time>2026-05-03T07:59:57Z</time></trkpt><trkpt lat="55.54642655471212" lon="38.871334996648365"><ele>129.6</ele><time>2026-05-03T07:59:58Z</time></trkpt><trkpt lat="55.54634722951051" lon="38.8713465347829"><ele>129.0</ele><time>2026-05-03T07:59:59Z</time></trkpt><trkpt lat="55.54626455216986" lon="38.871328974909126"><ele>129.0</ele><time>2026-05-03T08:00:01Z</time></trkpt><trkpt lat="55.54627959265694" lon="38.87167023926572"><ele>129.0</ele><time>2026-05-03T08:00:03Z</time></trkpt><trkpt lat="55.54621716445202" lon="38.871799639682834"><ele>129.0</ele><time>2026-05-03T08:00:05Z</time></trkpt><trkpt lat="55.54617973192294" lon="38.87196064093717"><ele>129.0</ele><time>2026-05-03T08:00:21Z</time></trkpt><trkpt lat="55.54613150595259" lon="38.87210015146583"><ele>128.5</ele><time>2026-05-03T08:00:23Z</time></trkpt><trkpt lat="55.54608235292789" lon="38.87217222294776"><ele>128.0</ele><time>2026-05-03T08:00:24Z</time></trkpt><trkpt lat="55.546013768649786" lon="38.8723150560428"><ele>127.5</ele><time>2026-05-03T08:00:26Z</time></trkpt><trkpt lat="55.54599425712672" lon="38.87249731393554"><ele>127.0</ele><time>2026-05-03T08:00:28Z</time></trkpt><trkpt lat="55.545958765579066" lon="38.87260152114881"><ele>126.5</ele><time>2026-05-03T08:00:29Z</time></trkpt><trkpt lat="55.5459122553784" lon="38.87271846883313"><ele>126.0</ele><time>2026-05-03T08:00:30Z</time></trkpt><trkpt lat="55.54587006551862" lon="38.87281211223396"><ele>126.0</ele><time>2026-05-03T08:00:31Z</time></trkpt><trkpt lat="55.545811020161054" lon="38.87298328704705"><ele>126.0</ele><time>2026-05-03T08:00:33Z</time></trkpt><trkpt lat="55.54578699699419" lon="38.8731190497494"><ele>126.0</ele><time>2026-05-03T08:00:35Z</time></trkpt><trkpt lat="55.545731314424756" lon="38.8731910835054"><ele>126.0</ele><time>2026-05-03T08:00:37Z</time></trkpt><trkpt lat="55.54567818142391" lon="38.87325632806702"><ele>126.0</ele><time>2026-05-03T08:00:39Z</time></trkpt><trkpt lat="55.54564768621197" lon="38.8734034365947"><ele>126.0</ele><time>2026-05-03T08:00:41Z</time></trkpt><trkpt lat="55.54560432679907" lon="38.873579737974396"><ele>126.16666666666667</ele><time>2026-05-03T08:00:44Z</time></trkpt><trkpt lat="55.545577289022816" lon="38.873702618708855"><ele>126.33333333333334</ele><time>2026-05-03T08:00:46Z</time></trkpt><trkpt lat="55.545537524224024" lon="38.87383043795687"><ele>126.5</ele><time>2026-05-03T08:00:48Z</time></trkpt><trkpt lat="55.54545608582276" lon="38.87394001149314"><ele>126.66666666666667</ele><time>2026-05-03T08:01:12Z</time></trkpt><trkpt lat="55.545368135626056" lon="38.87396376332636"><ele>126.83333333333334</ele><time>2026-05-03T08:01:15Z</time></trkpt><trkpt lat="55.54530550407016" lon="38.873926638563994"><ele>127.0</ele><time>2026-05-03T08:01:18Z</time></trkpt><trkpt lat="55.54521872334222" lon="38.87396531386211"><ele>127.00000000000001</ele><time>2026-05-03T08:01:22Z</time></trkpt><trkpt lat="55.54514990498331" lon="38.87403399167943"><ele>127.0</ele><time>2026-05-03T08:01:24Z</time></trkpt><trkpt lat="55.54506330786832" lon="38.87404030186377"><ele>127.0</ele><time>2026-05-03T08:01:27Z</time></trkpt><trkpt lat="55.54497978553637" lon="38.87405158144413"><ele>127.0</ele><time>2026-05-03T08:01:30Z</time></trkpt><trkpt lat="55.544901578868995" lon="38.87405210013653"><ele>127.00000000000001</ele><time>2026-05-03T08:01:33Z</time></trkpt><trkpt lat="55.54486162561958" lon="38.87391918683004"><ele>127.0</ele><time>2026-05-03T08:01:36Z</time></trkpt><trkpt lat="55.54486266236933" lon="38.87374456079476"><ele>127.0</ele><time>2026-05-03T08:01:38.001Z</time></trkpt><trkpt lat="55.54480707180634" lon="38.87368468524602"><ele>127.0</ele><time>2026-05-03T08:01:40.001Z</time></trkpt><trkpt lat="55.5447262905057" lon="38.87370267955882"><ele>127.0</ele><time>2026-05-03T08:01:43.001Z</time></trkpt><trkpt lat="55.544693561576594" lon="38.87380511966892"><ele>127.0</ele><time>2026-05-03T08:01:45.001Z</time></trkpt><trkpt lat="55.54461882183263" lon="38.87384210330739"><ele>127.0</ele><time>2026-05-03T08:01:48.001Z</time></trkpt><trkpt lat="55.544560932439715" lon="38.87392130065872"><ele>127.0</ele><time>2026-05-03T08:01:50.001Z</time></trkpt><trkpt lat="55.54456903456362" lon="38.874031750642516"><ele>127.0</ele><time>2026-05-03T08:01:53.001Z</time></trkpt><trkpt lat="55.54452488032495" lon="38.874126228464775"><ele>127.16666666666667</ele><time>2026-05-03T08:01:55.001Z</time></trkpt><trkpt lat="55.54443687728592" lon="38.87413152060501"><ele>127.33333333333334</ele><time>2026-05-03T08:01:57.001Z</time></trkpt><trkpt lat="55.54436028106374" lon="38.87413320457775"><ele>127.5</ele><time>2026-05-03T08:01:58.001Z</time></trkpt><trkpt lat="55.544287667387756" lon="38.87414424252928"><ele>127.66666666666666</ele><time>2026-05-03T08:01:59.001Z</time></trkpt><trkpt lat="55.5442124380102" lon="38.874149148901104"><ele>127.83333333333333</ele><time>2026-05-03T08:02:00.001Z</time></trkpt><trkpt lat="55.54412483550497" lon="38.874136022232804"><ele>128.0</ele><time>2026-05-03T08:02:01.001Z</time></trkpt><trkpt lat="55.54404537121571" lon="38.87416411347724"><ele>127.99999999999999</ele><time>2026-05-03T08:02:02.001Z</time></trkpt><trkpt lat="55.543952306829404" lon="38.87418542151328"><ele>128.0</ele><time>2026-05-03T08:02:03Z</time></trkpt><trkpt lat="55.543868693066834" lon="38.87421885098693"><ele>128.0</ele><time>2026-05-03T08:02:04Z</time></trkpt><trkpt lat="55.54377030753803" lon="38.874262317333454"><ele>128.0</ele><time>2026-05-03T08:02:05Z</time></trkpt><trkpt lat="55.54368812538037" lon="38.87427739372654"><ele>127.99999999999999</ele><time>2026-05-03T08:02:06Z</time></trkpt><trkpt lat="55.54361899781269" lon="38.87430736360517"><ele>128.0</ele><time>2026-05-03T08:02:09Z</time></trkpt><trkpt lat="55.543504161757745" lon="38.87434892127285"><ele>127.99999999999999</ele><time>2026-05-03T08:02:11Z</time></trkpt><trkpt lat="55.54343238612128" lon="38.87438242200136"><ele>128.0</ele><time>2026-05-03T08:02:12Z</time></trkpt><trkpt lat="55.54336214046793" lon="38.874430955800854"><ele>128.0</ele><time>2026-05-03T08:02:13Z</time></trkpt><trkpt lat="55.543300637893644" lon="38.87448228460279"><ele>128.0</ele><time>2026-05-03T08:02:14Z</time></trkpt><trkpt lat="55.54323171259754" lon="38.8745099207057"><ele>127.99999999999999</ele><time>2026-05-03T08:02:15Z</time></trkpt><trkpt lat="55.54314494206182" lon="38.87454726051634"><ele>128.0</ele><time>2026-05-03T08:02:16Z</time></trkpt><trkpt lat="55.543052589193664" lon="38.8745768476393"><ele>127.99999999999999</ele><time>2026-05-03T08:02:17Z</time></trkpt><trkpt lat="55.54297961351829" lon="38.87460202789941"><ele>128.0</ele><time>2026-05-03T08:02:18Z</time></trkpt><trkpt lat="55.5429079108525" lon="38.874627863870266"><ele>128.0</ele><time>2026-05-03T08:02:19Z</time></trkpt><trkpt lat="55.542816685807004" lon="38.874656990052145"><ele>128.0</ele><time>2026-05-03T08:02:20Z</time></trkpt><trkpt lat="55.542729845496495" lon="38.87461488102112"><ele>127.99999999999999</ele><time>2026-05-03T08:02:21Z</time></trkpt><trkpt lat="55.54263816930406" lon="38.87464777658235"><ele>128.0</ele><time>2026-05-03T08:02:22Z</time></trkpt><trkpt lat="55.54254745641404" lon="38.87467985329571"><ele>127.80000000000001</ele><time>2026-05-03T08:02:23Z</time></trkpt><trkpt lat="55.54244618279435" lon="38.87471554570518"><ele>127.60000000000001</ele><time>2026-05-03T08:02:24Z</time></trkpt><trkpt lat="55.54229174202151" lon="38.87476995465338"><ele>127.39999999999999</ele><time>2026-05-03T08:02:26Z</time></trkpt><trkpt lat="55.542215497694464" lon="38.87480688542378"><ele>127.19999999999999</ele><time>2026-05-03T08:02:27Z</time></trkpt><trkpt lat="55.542143988826545" lon="38.87479974015786"><ele>127.0</ele><time>2026-05-03T08:02:28Z</time></trkpt><trkpt lat="55.54207203033091" lon="38.874848180430256"><ele>127.19999999999999</ele><time>2026-05-03T08:02:31.999Z</time></trkpt><trkpt lat="55.541974381669604" lon="38.87488265631798"><ele>127.39999999999999</ele><time>2026-05-03T08:02:35.999Z</time></trkpt><trkpt lat="55.541851878457535" lon="38.8749242911417"><ele>127.60000000000001</ele><time>2026-05-03T08:02:38Z</time></trkpt><trkpt lat="55.541790354841986" lon="38.87499432217515"><ele>127.80000000000001</ele><time>2026-05-03T08:02:39Z</time></trkpt><trkpt lat="55.54171078863707" lon="38.875083821617324"><ele>128.0</ele><time>2026-05-03T08:02:40Z</time></trkpt><trkpt lat="55.54162546473529" lon="38.87515705390571"><ele>128.0</ele><time>2026-05-03T08:02:41Z</time></trkpt><trkpt lat="55.541509403078564" lon="38.87520987007324"><ele>128.0</ele><time>2026-05-03T08:02:42Z</time></trkpt><trkpt lat="55.541363522820056" lon="38.8752402248194"><ele>128.0</ele><time>2026-05-03T08:02:43Z</time></trkpt><trkpt lat="55.54120882953762" lon="38.875303835989314"><ele>128.0</ele><time>2026-05-03T08:02:44Z</time></trkpt><trkpt lat="55.541033655011525" lon="38.875368113517204"><ele>128.0</ele><time>2026-05-03T08:02:45Z</time></trkpt><trkpt lat="55.540850062820105" lon="38.87543521209194"><ele>128.0</ele><time>2026-05-03T08:02:46Z</time></trkpt><trkpt lat="55.54064894104777" lon="38.87552177350806"><ele>128.0</ele><time>2026-05-03T08:02:47Z</time></trkpt><trkpt lat="55.5404704608176" lon="38.875603624978666"><ele>127.75</ele><time>2026-05-03T08:02:48Z</time></trkpt><trkpt lat="55.54033848239569" lon="38.87566986432184"><ele>127.5</ele><time>2026-05-03T08:02:49Z</time></trkpt><trkpt lat="55.540215070411065" lon="38.87570197335765"><ele>127.25</ele><time>2026-05-03T08:02:50Z</time></trkpt><trkpt lat="55.54008680535055" lon="38.875698475703366"><ele>127.0</ele><time>2026-05-03T08:02:51Z</time></trkpt><trkpt lat="55.53999084531666" lon="38.87572657051697"><ele>127.0</ele><time>2026-05-03T08:02:52Z</time></trkpt><trkpt lat="55.53989749512004" lon="38.87578748946947"><ele>126.99999999999999</ele><time>2026-05-03T08:02:53Z</time></trkpt><trkpt lat="55.53981933945576" lon="38.875852774391696"><ele>126.99999999999999</ele><time>2026-05-03T08:02:54Z</time></trkpt><trkpt lat="55.53972977179852" lon="38.875877302814544"><ele>127.0</ele><time>2026-05-03T08:02:55Z</time></trkpt><trkpt lat="55.53962417130791" lon="38.875881061512175"><ele>127.0</ele><time>2026-05-03T08:02:56Z</time></trkpt><trkpt lat="55.5394941194138" lon="38.87591807336269"><ele>128.25</ele><time>2026-05-03T08:02:57Z</time></trkpt><trkpt lat="55.539361744454176" lon="38.875965876756325"><ele>129.5</ele><time>2026-05-03T08:02:58Z</time></trkpt><trkpt lat="55.53925111732193" lon="38.87598384455751"><ele>130.75</ele><time>2026-05-03T08:02:59Z</time></trkpt><trkpt lat="55.539106772455625" lon="38.87602448493835"><ele>132.0</ele><time>2026-05-03T08:03:00Z</time></trkpt><trkpt lat="55.53894919244136" lon="38.876083415427175"><ele>132.0</ele><time>2026-05-03T08:03:01Z</time></trkpt><trkpt lat="55.53880512021935" lon="38.87615488407129"><ele>132.0</ele><time>2026-05-03T08:03:02Z</time></trkpt><trkpt lat="55.53866887579535" lon="38.87621320454386"><ele>132.0</ele><time>2026-05-03T08:03:03Z</time></trkpt><trkpt lat="55.53854067991092" lon="38.876259075719936"><ele>132.0</ele><time>2026-05-03T08:03:04Z</time></trkpt><trkpt lat="55.538418293427014" lon="38.87630257477094"><ele>132.33333333333334</ele><time>2026-05-03T08:03:05Z</time></trkpt><trkpt lat="55.53828281276662" lon="38.876369648979875"><ele>132.66666666666669</ele><time>2026-05-03T08:03:06Z</time></trkpt><trkpt lat="55.53813254741623" lon="38.87644988660471"><ele>133.0</ele><time>2026-05-03T08:03:07Z</time></trkpt><trkpt lat="55.53795752365298" lon="38.8765075030708"><ele>132.0</ele><time>2026-05-03T08:03:08Z</time></trkpt><trkpt lat="55.53777570823933" lon="38.876572654998945"><ele>131.0</ele><time>2026-05-03T08:03:09Z</time></trkpt><trkpt lat="55.53759220684665" lon="38.87665164879677"><ele>130.0</ele><time>2026-05-03T08:03:10Z</time></trkpt><trkpt lat="55.53740057636481" lon="38.87672914187744"><ele>130.0</ele><time>2026-05-03T08:03:11Z</time></trkpt><trkpt lat="55.53720757408189" lon="38.876803092118145"><ele>130.0</ele><time>2026-05-03T08:03:12Z</time></trkpt><trkpt lat="55.537029884118304" lon="38.8768850445679"><ele>130.0</ele><time>2026-05-03T08:03:13Z</time></trkpt><trkpt lat="55.536829033929926" lon="38.876969618063036"><ele>130.0</ele><time>2026-05-03T08:03:14Z</time></trkpt><trkpt lat="55.53666408826734" lon="38.87702986382045"><ele>130.0</ele><time>2026-05-03T08:03:15Z</time></trkpt><trkpt lat="55.53650974974216" lon="38.8770741494987"><ele>130.0</ele><time>2026-05-03T08:03:16Z</time></trkpt><trkpt lat="55.536365632556496" lon="38.87713216822218"><ele>130.0</ele><time>2026-05-03T08:03:17Z</time></trkpt><trkpt lat="55.53623852167703" lon="38.87720250343292"><ele>130.0</ele><time>2026-05-03T08:03:18Z</time></trkpt><trkpt lat="55.53610341562786" lon="38.87728297870636"><ele>130.0</ele><time>2026-05-03T08:03:19Z</time></trkpt><trkpt lat="55.53595790476235" lon="38.877315097223985"><ele>130.0</ele><time>2026-05-03T08:03:20Z</time></trkpt><trkpt lat="55.53581210602415" lon="38.877336329559"><ele>129.66666666666669</ele><time>2026-05-03T08:03:21Z</time></trkpt><trkpt lat="55.535665774156904" lon="38.87740376107547"><ele>129.33333333333334</ele><time>2026-05-03T08:03:22Z</time></trkpt><trkpt lat="55.535505571853506" lon="38.87746349060261"><ele>129.0</ele><time>2026-05-03T08:03:23Z</time></trkpt><trkpt lat="55.535359702868945" lon="38.87750042118605"><ele>128.8</ele><time>2026-05-03T08:03:24Z</time></trkpt><trkpt lat="55.535229661081196" lon="38.87754034532497"><ele>128.60000000000002</ele><time>2026-05-03T08:03:25Z</time></trkpt><trkpt lat="55.535123258559686" lon="38.87761043704266"><ele>128.4</ele><time>2026-05-03T08:03:26Z</time></trkpt><trkpt lat="55.53503228916541" lon="38.87766271538205"><ele>128.20000000000002</ele><time>2026-05-03T08:03:27Z</time></trkpt><trkpt lat="55.534943061749" lon="38.877696989128"><ele>128.0</ele><time>2026-05-03T08:03:28Z</time></trkpt><trkpt lat="55.5348640128199" lon="38.87771591386205"><ele>127.99999999999999</ele><time>2026-05-03T08:03:29Z</time></trkpt><trkpt lat="55.534797660426406" lon="38.87773802984678"><ele>128.0</ele><time>2026-05-03T08:03:30Z</time></trkpt><trkpt lat="55.53472844443869" lon="38.87775250093987"><ele>128.0</ele><time>2026-05-03T08:03:31Z</time></trkpt><trkpt lat="55.53461395657415" lon="38.87780818959833"><ele>128.0</ele><time>2026-05-03T08:03:33Z</time></trkpt><trkpt lat="55.534526212914514" lon="38.877834039555545"><ele>127.99999999999999</ele><time>2026-05-03T08:03:35Z</time></trkpt><trkpt lat="55.53446329311194" lon="38.877829407118696"><ele>128.0</ele><time>2026-05-03T08:04:48Z</time></trkpt><trkpt lat="55.53431186560338" lon="38.87784446359614"><ele>127.5</ele><time>2026-05-03T08:04:50Z</time></trkpt><trkpt lat="55.534204277724136" lon="38.87785595731881"><ele>127.0</ele><time>2026-05-03T08:04:51Z</time></trkpt><trkpt lat="55.534088574523054" lon="38.87785656503518"><ele>126.5</ele><time>2026-05-03T08:04:52Z</time></trkpt><trkpt lat="55.53396822774981" lon="38.87787179770559"><ele>126.0</ele><time>2026-05-03T08:04:53Z</time></trkpt><trkpt lat="55.533844889510235" lon="38.87788704250849"><ele>126.0</ele><time>2026-05-03T08:04:54Z</time></trkpt><trkpt lat="55.53373677514866" lon="38.877900836594854"><ele>126.0</ele><time>2026-05-03T08:04:55Z</time></trkpt><trkpt lat="55.533640791878554" lon="38.87790905484983"><ele>126.0</ele><time>2026-05-03T08:04:56Z</time></trkpt><trkpt lat="55.53353872567894" lon="38.87791313651633"><ele>126.0</ele><time>2026-05-03T08:04:57Z</time></trkpt><trkpt lat="55.53343107402006" lon="38.87791346650666"><ele>126.0</ele><time>2026-05-03T08:04:58Z</time></trkpt><trkpt lat="55.533348268137665" lon="38.877944714251555"><ele>125.5</ele><time>2026-05-03T08:04:59Z</time></trkpt><trkpt lat="55.53326860564506" lon="38.877961380577815"><ele>125.0</ele><time>2026-05-03T08:05:00Z</time></trkpt><trkpt lat="55.53315487337627" lon="38.87798769947891"><ele>124.5</ele><time>2026-05-03T08:05:02Z</time></trkpt><trkpt lat="55.53308545882021" lon="38.87798880288614"><ele>124.0</ele><time>2026-05-03T08:05:04Z</time></trkpt><trkpt lat="55.53305313894671" lon="38.87787086375377"><ele>123.5</ele><time>2026-05-03T08:05:06Z</time></trkpt><trkpt lat="55.533082462512475" lon="38.87773222502348"><ele>123.0</ele><time>2026-05-03T08:05:08Z</time></trkpt><trkpt lat="55.53307360178784" lon="38.87760696856397"><ele>123.14285714285717</ele><time>2026-05-03T08:05:19Z</time></trkpt><trkpt lat="55.53304066611801" lon="38.877505630465386"><ele>123.28571428571429</ele><time>2026-05-03T08:05:22Z</time></trkpt><trkpt lat="55.53302941499827" lon="38.877389183545354"><ele>123.42857142857144</ele><time>2026-05-03T08:05:24Z</time></trkpt><trkpt lat="55.53299088994865" lon="38.877242093291095"><ele>123.57142857142858</ele><time>2026-05-03T08:05:27Z</time></trkpt><trkpt lat="55.532956507105375" lon="38.877139945606054"><ele>123.71428571428572</ele><time>2026-05-03T08:05:29Z</time></trkpt><trkpt lat="55.532901768655634" lon="38.87704407821002"><ele>123.85714285714286</ele><time>2026-05-03T08:05:32Z</time></trkpt><trkpt lat="55.53283250229532" lon="38.87704465913792"><ele>124.0</ele><time>2026-05-03T08:05:35Z</time></trkpt><trkpt lat="55.53276289055549" lon="38.877046801424996"><ele>124.28571428571429</ele><time>2026-05-03T08:05:37Z</time></trkpt><trkpt lat="55.53268089180778" lon="38.87706404151659"><ele>124.57142857142858</ele><time>2026-05-03T08:05:40Z</time></trkpt><trkpt lat="55.53262841246886" lon="38.8769914425627"><ele>124.85714285714286</ele><time>2026-05-03T08:05:42Z</time></trkpt><trkpt lat="55.53263101567937" lon="38.876875254938604"><ele>125.14285714285714</ele><time>2026-05-03T08:05:44Z</time></trkpt><trkpt lat="55.53260352629055" lon="38.876748310481034"><ele>125.42857142857143</ele><time>2026-05-03T08:05:47Z</time></trkpt><trkpt lat="55.5325328638225" lon="38.87666252692397"><ele>125.71428571428572</ele><time>2026-05-03T08:05:50Z</time></trkpt><trkpt lat="55.532474933187906" lon="38.876617483771255"><ele>126.0</ele><time>2026-05-03T08:05:52Z</time></trkpt><trkpt lat="55.53240879918148" lon="38.876600256124995"><ele>126.0</ele><time>2026-05-03T08:05:54Z</time></trkpt><trkpt lat="55.53234060880533" lon="38.87660687809845"><ele>126.0</ele><time>2026-05-03T08:05:56Z</time></trkpt><trkpt lat="55.53226466608564" lon="38.876604131177324"><ele>126.0</ele><time>2026-05-03T08:05:58Z</time></trkpt><trkpt lat="55.53218845240501" lon="38.87659482737852"><ele>126.0</ele><time>2026-05-03T08:06:01Z</time></trkpt><trkpt lat="55.53213074826834" lon="38.876491292110515"><ele>126.0</ele><time>2026-05-03T08:06:04Z</time></trkpt><trkpt lat="55.532147766508864" lon="38.87634792071954"><ele>126.0</ele><time>2026-05-03T08:06:07Z</time></trkpt><trkpt lat="55.532211824428266" lon="38.876282136304454"><ele>126.0</ele><time>2026-05-03T08:06:11Z</time></trkpt><trkpt lat="55.53222859414145" lon="38.87617262272355"><ele>126.0</ele><time>2026-05-03T08:06:14Z</time></trkpt><trkpt lat="55.53223256918123" lon="38.876023791417595"><ele>126.0</ele><time>2026-05-03T08:06:17Z</time></trkpt><trkpt lat="55.53221347747769" lon="38.87589547280177"><ele>126.0</ele><time>2026-05-03T08:06:20Z</time></trkpt><trkpt lat="55.532222433549094" lon="38.87577173985628"><ele>126.0</ele><time>2026-05-03T08:06:23Z</time></trkpt><trkpt lat="55.53215273225442" lon="38.87570644754152"><ele>126.0</ele><time>2026-05-03T08:06:25Z</time></trkpt><trkpt lat="55.53208564501011" lon="38.8757166696109"><ele>126.0</ele><time>2026-05-03T08:06:27Z</time></trkpt><trkpt lat="55.53200740149601" lon="38.875669917752504"><ele>126.33333333333333</ele><time>2026-05-03T08:06:30Z</time></trkpt><trkpt lat="55.53195335175579" lon="38.87559729066651"><ele>126.66666666666666</ele><time>2026-05-03T08:06:33Z</time></trkpt><trkpt lat="55.531913366942675" lon="38.87548669780001"><ele>127.0</ele><time>2026-05-03T08:06:36Z</time></trkpt><trkpt lat="55.53187778149734" lon="38.87533520054754"><ele>127.33333333333333</ele><time>2026-05-03T08:06:39Z</time></trkpt><trkpt lat="55.531832951376" lon="38.87522441233075"><ele>127.66666666666666</ele><time>2026-05-03T08:06:42Z</time></trkpt><trkpt lat="55.53185549715125" lon="38.87510064530882"><ele>128.0</ele><time>2026-05-03T08:06:45Z</time></trkpt><trkpt lat="55.53188359189537" lon="38.87499766215939"><ele>128.0</ele><time>2026-05-03T08:06:48Z</time></trkpt><trkpt lat="55.53187366531804" lon="38.87483499546757"><ele>127.99999999999999</ele><time>2026-05-03T08:07:52.001Z</time></trkpt><trkpt lat="55.53187836211551" lon="38.87471840429072"><ele>128.0</ele><time>2026-05-03T08:07:54.001Z</time></trkpt><trkpt lat="55.53190392848225" lon="38.87458745882679"><ele>128.0</ele><time>2026-05-03T08:07:57.001Z</time></trkpt><trkpt lat="55.53189831733241" lon="38.874473229703824"><ele>127.99999999999999</ele><time>2026-05-03T08:08:00.001Z</time></trkpt><trkpt lat="55.531846993527665" lon="38.87438192538267"><ele>128.0</ele><time>2026-05-03T08:08:02.001Z</time></trkpt><trkpt lat="55.53179668449327" lon="38.87429118395557"><ele>128.0</ele><time>2026-05-03T08:08:05.001Z</time></trkpt><trkpt lat="55.53175079120337" lon="38.874157040884235"><ele>128.16666666666666</ele><time>2026-05-03T08:08:08.001Z</time></trkpt><trkpt lat="55.53169772139717" lon="38.87407148038811"><ele>128.33333333333331</ele><time>2026-05-03T08:08:10.001Z</time></trkpt><trkpt lat="55.53173775484566" lon="38.87394746557258"><ele>128.5</ele><time>2026-05-03T08:08:13.001Z</time></trkpt><trkpt lat="55.531796001016886" lon="38.87383985853793"><ele>128.66666666666666</ele><time>2026-05-03T08:08:18.001Z</time></trkpt><trkpt lat="55.53180730113849" lon="38.87370218538208"><ele>128.83333333333334</ele><time>2026-05-03T08:08:21Z</time></trkpt><trkpt lat="55.531828076965375" lon="38.87359443371423"><ele>129.0</ele><time>2026-05-03T08:08:28Z</time></trkpt><trkpt lat="55.531750174931105" lon="38.87345976673731"><ele>128.83333333333334</ele><time>2026-05-03T08:08:31Z</time></trkpt><trkpt lat="55.53170884212432" lon="38.87330967564268"><ele>128.66666666666666</ele><time>2026-05-03T08:08:34Z</time></trkpt><trkpt lat="55.531657379317174" lon="38.8732371476824"><ele>128.5</ele><time>2026-05-03T08:08:36Z</time></trkpt><trkpt lat="55.53158180724622" lon="38.87317817904191"><ele>128.33333333333331</ele><time>2026-05-03T08:08:38Z</time></trkpt><trkpt lat="55.53152295513997" lon="38.873047470546695"><ele>128.16666666666666</ele><time>2026-05-03T08:08:40Z</time></trkpt><trkpt lat="55.53148304302596" lon="38.872908355584165"><ele>128.0</ele><time>2026-05-03T08:08:42Z</time></trkpt><trkpt lat="55.53146166834219" lon="38.87278680349351"><ele>128.0</ele><time>2026-05-03T08:08:44Z</time></trkpt><trkpt lat="55.531401270941295" lon="38.87267617296033"><ele>128.0</ele><time>2026-05-03T08:08:46Z</time></trkpt><trkpt lat="55.5313355925543" lon="38.8725865439277"><ele>128.0</ele><time>2026-05-03T08:08:48Z</time></trkpt><trkpt lat="55.53124915092463" lon="38.87252215227808"><ele>128.0</ele><time>2026-05-03T08:08:50Z</time></trkpt><trkpt lat="55.53117202037831" lon="38.87251876838964"><ele>128.0</ele><time>2026-05-03T08:08:52Z</time></trkpt><trkpt lat="55.53105967215247" lon="38.872495218730954"><ele>127.83333333333333</ele><time>2026-05-03T08:08:54Z</time></trkpt><trkpt lat="55.53096538901788" lon="38.87251862647333"><ele>127.66666666666666</ele><time>2026-05-03T08:08:56Z</time></trkpt><trkpt lat="55.53093418423295" lon="38.872662015136626"><ele>127.5</ele><time>2026-05-03T08:08:59Z</time></trkpt><trkpt lat="55.53088983385785" lon="38.87277224391701"><ele>127.33333333333334</ele><time>2026-05-03T08:09:01Z</time></trkpt><trkpt lat="55.53083202612224" lon="38.872818541835386"><ele>127.16666666666667</ele><time>2026-05-03T08:09:03Z</time></trkpt><trkpt lat="55.53080763834979" lon="38.87298792237196"><ele>127.0</ele><time>2026-05-03T08:09:06Z</time></trkpt><trkpt lat="55.530779479995005" lon="38.87315497041497"><ele>127.00000000000001</ele><time>2026-05-03T08:09:08.001Z</time></trkpt><trkpt lat="55.53074605803497" lon="38.873317519176446"><ele>127.0</ele><time>2026-05-03T08:09:10.001Z</time></trkpt><trkpt lat="55.53069528442237" lon="38.87342709489713"><ele>127.0</ele><time>2026-05-03T08:09:14.001Z</time></trkpt><trkpt lat="55.53066302996111" lon="38.8735239592391"><ele>127.0</ele><time>2026-05-03T08:09:16.001Z</time></trkpt><trkpt lat="55.53062646641073" lon="38.87361647318738"><ele>127.00000000000001</ele><time>2026-05-03T08:09:18.001Z</time></trkpt><trkpt lat="55.53057826895059" lon="38.87376876586052"><ele>127.0</ele><time>2026-05-03T08:09:20.001Z</time></trkpt><trkpt lat="55.53050167722352" lon="38.873889640252436"><ele>127.28571428571429</ele><time>2026-05-03T08:09:22.001Z</time></trkpt><trkpt lat="55.5304434015371" lon="38.87395877800381"><ele>127.57142857142856</ele><time>2026-05-03T08:09:24.001Z</time></trkpt><trkpt lat="55.53037689151739" lon="38.874078214552156"><ele>127.85714285714285</ele><time>2026-05-03T08:09:26.001Z</time></trkpt><trkpt lat="55.53033150944984" lon="38.87415692258489"><ele>128.14285714285714</ele><time>2026-05-03T08:09:27.001Z</time></trkpt><trkpt lat="55.53027986911562" lon="38.874243213020904"><ele>128.42857142857142</ele><time>2026-05-03T08:09:29.001Z</time></trkpt><trkpt lat="55.53025079508121" lon="38.87437024650417"><ele>128.7142857142857</ele><time>2026-05-03T08:09:31.001Z</time></trkpt><trkpt lat="55.53025463393912" lon="38.874484107596565"><ele>129.0</ele><time>2026-05-03T08:09:33.001Z</time></trkpt><trkpt lat="55.530244847938796" lon="38.87461130748968"><ele>129.0</ele><time>2026-05-03T08:09:35.001Z</time></trkpt><trkpt lat="55.53024011895692" lon="38.87476615634024"><ele>129.0</ele><time>2026-05-03T08:09:38.001Z</time></trkpt><trkpt lat="55.53022649776555" lon="38.87488449048675"><ele>129.0</ele><time>2026-05-03T08:09:40.001Z</time></trkpt><trkpt lat="55.53019192759124" lon="38.87499558136435"><ele>129.0</ele><time>2026-05-03T08:09:42.001Z</time></trkpt><trkpt lat="55.530184693751075" lon="38.87513791385873"><ele>129.0</ele><time>2026-05-03T08:09:44.001Z</time></trkpt><trkpt lat="55.530211619566394" lon="38.87531498809385"><ele>129.0</ele><time>2026-05-03T08:09:46.001Z</time></trkpt><trkpt lat="55.53024621908429" lon="38.875474731830394"><ele>129.0</ele><time>2026-05-03T08:09:48.001Z</time></trkpt><trkpt lat="55.53029275160185" lon="38.875664479343385"><ele>129.0</ele><time>2026-05-03T08:09:50.001Z</time></trkpt><trkpt lat="55.53032142827794" lon="38.875851599315816"><ele>129.0</ele><time>2026-05-03T08:09:52.001Z</time></trkpt><trkpt lat="55.530386116638226" lon="38.87602585391032"><ele>129.0</ele><time>2026-05-03T08:09:54.001Z</time></trkpt><trkpt lat="55.530404515862365" lon="38.876217713410476"><ele>128.75</ele><time>2026-05-03T08:09:56.001Z</time></trkpt><trkpt lat="55.5304514156067" lon="38.87630525988954"><ele>128.5</ele><time>2026-05-03T08:09:59.001Z</time></trkpt><trkpt lat="55.53060904650928" lon="38.87660244003473"><ele>128.25</ele><time>2026-05-03T08:10:00.001Z</time></trkpt><trkpt lat="55.53064326981876" lon="38.876726703962284"><ele>128.0</ele><time>2026-05-03T08:10:02.001Z</time></trkpt><trkpt lat="55.530564047794016" lon="38.87678642166282"><ele>127.99999999999999</ele><time>2026-05-03T08:10:04.001Z</time></trkpt><trkpt lat="55.53051146121734" lon="38.87670348538362"><ele>128.0</ele><time>2026-05-03T08:10:52.001Z</time></trkpt><trkpt lat="55.53052407772129" lon="38.87657392568467"><ele>128.0</ele><time>2026-05-03T08:10:54.001Z</time></trkpt><trkpt lat="55.5304823374307" lon="38.87644873100958"><ele>128.0</ele><time>2026-05-03T08:10:56.001Z</time></trkpt><trkpt lat="55.53042656423343" lon="38.876300797912016"><ele>127.99999999999999</ele><time>2026-05-03T08:10:58.001Z</time></trkpt><trkpt lat="55.53039399977664" lon="38.876203433890645"><ele>128.0</ele><time>2026-05-03T08:10:59.001Z</time></trkpt><trkpt lat="55.53035852541953" lon="38.87610166607187"><ele>128.16666666666666</ele><time>2026-05-03T08:11:01.001Z</time></trkpt><trkpt lat="55.53037424902664" lon="38.875916081734225"><ele>128.33333333333331</ele><time>2026-05-03T08:11:03.001Z</time></trkpt><trkpt lat="55.53039386936835" lon="38.87578531945888"><ele>128.5</ele><time>2026-05-03T08:11:04.001Z</time></trkpt><trkpt lat="55.53040947924785" lon="38.875631184628794"><ele>128.66666666666666</ele><time>2026-05-03T08:11:05.001Z</time></trkpt><trkpt lat="55.530419593627165" lon="38.875499779398666"><ele>128.83333333333334</ele><time>2026-05-03T08:11:06.001Z</time></trkpt><trkpt lat="55.5304384620654" lon="38.87536872278518"><ele>129.0</ele><time>2026-05-03T08:11:07.001Z</time></trkpt><trkpt lat="55.53045064884281" lon="38.87524827389688"><ele>129.0</ele><time>2026-05-03T08:11:08.001Z</time></trkpt><trkpt lat="55.5304664668963" lon="38.87511973875618"><ele>129.0</ele><time>2026-05-03T08:11:09.001Z</time></trkpt><trkpt lat="55.530478782969766" lon="38.874994009682204"><ele>129.0</ele><time>2026-05-03T08:11:10.001Z</time></trkpt><trkpt lat="55.53051332746501" lon="38.87483913289483"><ele>129.0</ele><time>2026-05-03T08:11:12.001Z</time></trkpt><trkpt lat="55.5305804562093" lon="38.87473263694467"><ele>129.0</ele><time>2026-05-03T08:11:14.001Z</time></trkpt><trkpt lat="55.530647426672445" lon="38.874600226476254"><ele>129.0</ele><time>2026-05-03T08:11:16.001Z</time></trkpt><trkpt lat="55.53068349405386" lon="38.874474804222174"><ele>129.0</ele><time>2026-05-03T08:11:18.001Z</time></trkpt><trkpt lat="55.53068589530197" lon="38.87432928610621"><ele>129.0</ele><time>2026-05-03T08:11:20.001Z</time></trkpt><trkpt lat="55.53069415598374" lon="38.874126954473795"><ele>129.0</ele><time>2026-05-03T08:11:22.001Z</time></trkpt><trkpt lat="55.53068938410751" lon="38.87401485609548"><ele>129.0</ele><time>2026-05-03T08:11:23.001Z</time></trkpt><trkpt lat="55.530711931870044" lon="38.87383928231644"><ele>129.0</ele><time>2026-05-03T08:11:25.001Z</time></trkpt><trkpt lat="55.530704750379144" lon="38.873655714256145"><ele>129.0</ele><time>2026-05-03T08:11:27.001Z</time></trkpt><trkpt lat="55.530689683888156" lon="38.87349147758648"><ele>129.0</ele><time>2026-05-03T08:11:30.001Z</time></trkpt><trkpt lat="55.530643254428306" lon="38.873402168075984"><ele>129.0</ele><time>2026-05-03T08:11:32.001Z</time></trkpt><trkpt lat="55.530579642559445" lon="38.87346017388253"><ele>129.0</ele><time>2026-05-03T08:11:34.001Z</time></trkpt><trkpt lat="55.5305671981169" lon="38.87359912533447"><ele>129.0</ele><time>2026-05-03T08:11:36.001Z</time></trkpt><trkpt lat="55.53051147647599" lon="38.87366153072361"><ele>129.0</ele><time>2026-05-03T08:11:38.001Z</time></trkpt><trkpt lat="55.530426634554125" lon="38.87372973767561"><ele>129.0</ele><time>2026-05-03T08:11:40.001Z</time></trkpt><trkpt lat="55.530381544618955" lon="38.873819168699974"><ele>129.0</ele><time>2026-05-03T08:11:41.001Z</time></trkpt><trkpt lat="55.530314587172036" lon="38.873934111343615"><ele>129.0</ele><time>2026-05-03T08:11:43.001Z</time></trkpt><trkpt lat="55.530237921425545" lon="38.874040334365546"><ele>129.0</ele><time>2026-05-03T08:11:45.001Z</time></trkpt><trkpt lat="55.53015343237117" lon="38.874205661096674"><ele>129.0</ele><time>2026-05-03T08:11:47.001Z</time></trkpt><trkpt lat="55.53004514969997" lon="38.874379662818086"><ele>129.0</ele><time>2026-05-03T08:11:49.001Z</time></trkpt><trkpt lat="55.52998125940617" lon="38.87446792609101"><ele>129.0</ele><time>2026-05-03T08:11:50.001Z</time></trkpt><trkpt lat="55.5299167372303" lon="38.874546258687275"><ele>129.0</ele><time>2026-05-03T08:11:51.001Z</time></trkpt><trkpt lat="55.529862398342395" lon="38.87463079096451"><ele>129.0</ele><time>2026-05-03T08:11:52.001Z</time></trkpt><trkpt lat="55.529796640030874" lon="38.87470559253005"><ele>129.0</ele><time>2026-05-03T08:11:53.001Z</time></trkpt><trkpt lat="55.529743305566825" lon="38.87478269762907"><ele>129.0</ele><time>2026-05-03T08:11:54.001Z</time></trkpt><trkpt lat="55.529651057049264" lon="38.87488981558092"><ele>128.8</ele><time>2026-05-03T08:11:56.001Z</time></trkpt><trkpt lat="55.52955377433377" lon="38.87500220556342"><ele>128.60000000000002</ele><time>2026-05-03T08:11:58.001Z</time></trkpt><trkpt lat="55.52947350513886" lon="38.87513024677337"><ele>128.4</ele><time>2026-05-03T08:12:00.001Z</time></trkpt><trkpt lat="55.529422117819855" lon="38.875264619510645"><ele>128.20000000000002</ele><time>2026-05-03T08:12:02.001Z</time></trkpt><trkpt lat="55.5293728294843" lon="38.8753548878598"><ele>128.0</ele><time>2026-05-03T08:12:03.001Z</time></trkpt><trkpt lat="55.529321456829905" lon="38.87545901905657"><ele>128.0</ele><time>2026-05-03T08:12:04.001Z</time></trkpt><trkpt lat="55.52928570982567" lon="38.87556892144408"><ele>128.0</ele><time>2026-05-03T08:12:05.001Z</time></trkpt><trkpt lat="55.52923554940633" lon="38.875735726960855"><ele>128.0</ele><time>2026-05-03T08:12:07.001Z</time></trkpt><trkpt lat="55.529212241913356" lon="38.87585278321393"><ele>128.0</ele><time>2026-05-03T08:12:08.001Z</time></trkpt><trkpt lat="55.529169519130434" lon="38.87602651318901"><ele>128.0</ele><time>2026-05-03T08:12:10.001Z</time></trkpt><trkpt lat="55.529089349560984" lon="38.87618248158192"><ele>128.16666666666666</ele><time>2026-05-03T08:12:12.001Z</time></trkpt><trkpt lat="55.529033435074666" lon="38.87627275063585"><ele>128.33333333333331</ele><time>2026-05-03T08:12:13.001Z</time></trkpt><trkpt lat="55.52894647701829" lon="38.87639730421954"><ele>128.5</ele><time>2026-05-03T08:12:15.001Z</time></trkpt><trkpt lat="55.528898104183895" lon="38.87647101947768"><ele>128.66666666666666</ele><time>2026-05-03T08:12:16.001Z</time></trkpt><trkpt lat="55.52881704165696" lon="38.87654093960539"><ele>128.83333333333334</ele><time>2026-05-03T08:12:18.001Z</time></trkpt><trkpt lat="55.528751670353394" lon="38.87668192740596"><ele>129.0</ele><time>2026-05-03T08:12:20.001Z</time></trkpt><trkpt lat="55.528699366341016" lon="38.87676054810964"><ele>129.4</ele><time>2026-05-03T08:12:21.001Z</time></trkpt><trkpt lat="55.52863430123606" lon="38.87687055320771"><ele>129.8</ele><time>2026-05-03T08:12:23.001Z</time></trkpt><trkpt lat="55.52860078115738" lon="38.877038504679504"><ele>130.2</ele><time>2026-05-03T08:12:25.001Z</time></trkpt><trkpt lat="55.528623677864104" lon="38.87715058481274"><ele>130.6</ele><time>2026-05-03T08:12:26.001Z</time></trkpt><trkpt lat="55.52869702918865" lon="38.87733189046416"><ele>131.0</ele><time>2026-05-03T08:12:28.001Z</time></trkpt><trkpt lat="55.528720403946295" lon="38.87745454557024"><ele>131.0</ele><time>2026-05-03T08:12:29.001Z</time></trkpt><trkpt lat="55.528723947893475" lon="38.877589948091995"><ele>131.0</ele><time>2026-05-03T08:12:31.001Z</time></trkpt><trkpt lat="55.52868651602813" lon="38.877721883219166"><ele>131.0</ele><time>2026-05-03T08:12:33.001Z</time></trkpt><trkpt lat="55.528616796233734" lon="38.877829669594554"><ele>131.0</ele><time>2026-05-03T08:12:35.001Z</time></trkpt><trkpt lat="55.528561467520404" lon="38.87791781618921"><ele>131.0</ele><time>2026-05-03T08:12:37.001Z</time></trkpt><trkpt lat="55.528479284216715" lon="38.877981832929514"><ele>131.0</ele><time>2026-05-03T08:12:39.001Z</time></trkpt><trkpt lat="55.52836694680468" lon="38.87802765162717"><ele>130.8</ele><time>2026-05-03T08:12:41.001Z</time></trkpt><trkpt lat="55.52825831508728" lon="38.87805640451349"><ele>130.6</ele><time>2026-05-03T08:12:43.001Z</time></trkpt><trkpt lat="55.528176966539135" lon="38.87807477198609"><ele>130.4</ele><time>2026-05-03T08:12:44.001Z</time></trkpt><trkpt lat="55.52806383902676" lon="38.87805150727646"><ele>130.2</ele><time>2026-05-03T08:12:46.001Z</time></trkpt><trkpt lat="55.5279561586111" lon="38.878075459556605"><ele>130.0</ele><time>2026-05-03T08:12:48.001Z</time></trkpt><trkpt lat="55.527878428525504" lon="38.87808430000649"><ele>130.0</ele><time>2026-05-03T08:12:49.001Z</time></trkpt><trkpt lat="55.52778832485519" lon="38.878088716092265"><ele>130.0</ele><time>2026-05-03T08:12:50.001Z</time></trkpt><trkpt lat="55.52768030914325" lon="38.87813805301765"><ele>130.0</ele><time>2026-05-03T08:12:52.001Z</time></trkpt><trkpt lat="55.52757919091331" lon="38.878168999038735"><ele>130.0</ele><time>2026-05-03T08:12:54.001Z</time></trkpt><trkpt lat="55.527526181974096" lon="38.87823255265904"><ele>130.0</ele><time>2026-05-03T08:12:56.001Z</time></trkpt><trkpt lat="55.52748243908235" lon="38.878321944724604"><ele>130.0</ele><time>2026-05-03T08:13:00.001Z</time></trkpt><trkpt lat="55.527423839176166" lon="38.87837035684988"><ele>130.0</ele><time>2026-05-03T08:15:39Z</time></trkpt><trkpt lat="55.52731127298365" lon="38.878385351898764"><ele>130.0</ele><time>2026-05-03T08:15:41Z</time></trkpt><trkpt lat="55.52723734518584" lon="38.878391577313366"><ele>130.0</ele><time>2026-05-03T08:15:42Z</time></trkpt><trkpt lat="55.52715066803485" lon="38.87839795969681"><ele>130.0</ele><time>2026-05-03T08:15:43Z</time></trkpt><trkpt lat="55.527080558801046" lon="38.878403777922564"><ele>130.0</ele><time>2026-05-03T08:15:44Z</time></trkpt><trkpt lat="55.5269685923104" lon="38.87840076133178"><ele>129.8</ele><time>2026-05-03T08:15:46Z</time></trkpt><trkpt lat="55.526892243589366" lon="38.8784012404244"><ele>129.6</ele><time>2026-05-03T08:16:55Z</time></trkpt><trkpt lat="55.52676389943585" lon="38.87839944517552"><ele>129.4</ele><time>2026-05-03T08:16:57Z</time></trkpt><trkpt lat="55.52669679663956" lon="38.87841349969575"><ele>129.2</ele><time>2026-05-03T08:16:58Z</time></trkpt><trkpt lat="55.52661684607217" lon="38.87841439006868"><ele>129.0</ele><time>2026-05-03T08:16:59Z</time></trkpt><trkpt lat="55.52652897051598" lon="38.87827761575782"><ele>129.0</ele><time>2026-05-03T08:17:00Z</time></trkpt><trkpt lat="55.526428094125606" lon="38.87828239053844"><ele>129.0</ele><time>2026-05-03T08:17:01Z</time></trkpt><trkpt lat="55.52631984154867" lon="38.87828775660451"><ele>129.0</ele><time>2026-05-03T08:17:02Z</time></trkpt><trkpt lat="55.526233281218595" lon="38.87829162684932"><ele>129.0</ele><time>2026-05-03T08:17:03Z</time></trkpt><trkpt lat="55.52612700190158" lon="38.878296520334764"><ele>129.0</ele><time>2026-05-03T08:17:04Z</time></trkpt><trkpt lat="55.52600687657037" lon="38.87830211582031"><ele>128.25</ele><time>2026-05-03T08:17:05Z</time></trkpt><trkpt lat="55.525881317995804" lon="38.878307876096116"><ele>127.5</ele><time>2026-05-03T08:17:06Z</time></trkpt><trkpt lat="55.52575309064571" lon="38.87831375124508"><ele>126.75</ele><time>2026-05-03T08:17:07Z</time></trkpt><trkpt lat="55.52562884223811" lon="38.87831941670844"><ele>126.0</ele><time>2026-05-03T08:17:08Z</time></trkpt><trkpt lat="55.52550060177737" lon="38.878325264197876"><ele>125.5</ele><time>2026-05-03T08:17:09Z</time></trkpt><trkpt lat="55.52535998418687" lon="38.87833172808819"><ele>125.0</ele><time>2026-05-03T08:17:10Z</time></trkpt><trkpt lat="55.52521996102515" lon="38.87833887742647"><ele>124.5</ele><time>2026-05-03T08:17:11Z</time></trkpt><trkpt lat="55.52507922661512" lon="38.87834505657516"><ele>124.0</ele><time>2026-05-03T08:17:12Z</time></trkpt><trkpt lat="55.52492967217977" lon="38.87835248223523"><ele>124.0</ele><time>2026-05-03T08:17:13Z</time></trkpt><trkpt lat="55.52478114622459" lon="38.87835916962935"><ele>124.0</ele><time>2026-05-03T08:17:14Z</time></trkpt><trkpt lat="55.52463778184502" lon="38.87836554421523"><ele>124.0</ele><time>2026-05-03T08:17:15Z</time></trkpt><trkpt lat="55.52448977824195" lon="38.87837269066834"><ele>124.0</ele><time>2026-05-03T08:17:16Z</time></trkpt><trkpt lat="55.524343706718305" lon="38.87837971143588"><ele>123.75</ele><time>2026-05-03T08:17:17Z</time></trkpt><trkpt lat="55.524202491146006" lon="38.878385898129274"><ele>123.5</ele><time>2026-05-03T08:17:18Z</time></trkpt><trkpt lat="55.52406151350515" lon="38.87839286566522"><ele>123.25</ele><time>2026-05-03T08:17:19Z</time></trkpt><trkpt lat="55.52392152686957" lon="38.878399500476576"><ele>123.0</ele><time>2026-05-03T08:17:20Z</time></trkpt><trkpt lat="55.523777095047755" lon="38.8784056322602"><ele>123.0</ele><time>2026-05-03T08:17:21Z</time></trkpt><trkpt lat="55.523630864416496" lon="38.87841287199469"><ele>123.0</ele><time>2026-05-03T08:17:22Z</time></trkpt><trkpt lat="55.52348928813058" lon="38.878427704084864"><ele>123.0</ele><time>2026-05-03T08:17:23Z</time></trkpt><trkpt lat="55.52334996041805" lon="38.87842661546902"><ele>123.0</ele><time>2026-05-03T08:17:24Z</time></trkpt><trkpt lat="55.523215473476135" lon="38.87845591030489"><ele>123.5</ele><time>2026-05-03T08:17:25Z</time></trkpt><trkpt lat="55.523073623200524" lon="38.87845203047935"><ele>124.0</ele><time>2026-05-03T08:17:26Z</time></trkpt><trkpt lat="55.52293874876594" lon="38.8784494105765"><ele>124.5</ele><time>2026-05-03T08:17:27Z</time></trkpt><trkpt lat="55.522788026776475" lon="38.87846698140365"><ele>125.0</ele><time>2026-05-03T08:17:28Z</time></trkpt><trkpt lat="55.52265063355687" lon="38.87847577144127"><ele>125.25</ele><time>2026-05-03T08:17:29Z</time></trkpt><trkpt lat="55.522506898548876" lon="38.878486194100915"><ele>125.5</ele><time>2026-05-03T08:17:30Z</time></trkpt><trkpt lat="55.522359295424415" lon="38.87849183895597"><ele>125.75</ele><time>2026-05-03T08:17:31Z</time></trkpt><trkpt lat="55.522209556660165" lon="38.87849493045072"><ele>126.0</ele><time>2026-05-03T08:17:32Z</time></trkpt><trkpt lat="55.52207022911199" lon="38.87850072014668"><ele>125.5</ele><time>2026-05-03T08:17:33Z</time></trkpt><trkpt lat="55.52192422594906" lon="38.878516145439406"><ele>125.0</ele><time>2026-05-03T08:17:34Z</time></trkpt><trkpt lat="55.521772091003996" lon="38.87850476343244"><ele>124.5</ele><time>2026-05-03T08:17:35Z</time></trkpt><trkpt lat="55.52163869376289" lon="38.87849413543274"><ele>124.0</ele><time>2026-05-03T08:17:36Z</time></trkpt><trkpt lat="55.52149317686433" lon="38.878496184930476"><ele>124.0</ele><time>2026-05-03T08:17:37Z</time></trkpt><trkpt lat="55.52133304823592" lon="38.8785093532346"><ele>124.0</ele><time>2026-05-03T08:17:38Z</time></trkpt><trkpt lat="55.52118506356465" lon="38.87851240186678"><ele>124.0</ele><time>2026-05-03T08:17:39Z</time></trkpt><trkpt lat="55.521030411944" lon="38.878534524952975"><ele>123.75</ele><time>2026-05-03T08:17:40Z</time></trkpt><trkpt lat="55.520890624775944" lon="38.878541102286526"><ele>123.5</ele><time>2026-05-03T08:17:41Z</time></trkpt><trkpt lat="55.520752804786156" lon="38.87854732266003"><ele>123.25</ele><time>2026-05-03T08:17:42Z</time></trkpt><trkpt lat="55.52060781485547" lon="38.878553832020295"><ele>123.0</ele><time>2026-05-03T08:17:43Z</time></trkpt><trkpt lat="55.520461388147325" lon="38.87856071442942"><ele>123.0</ele><time>2026-05-03T08:17:44Z</time></trkpt><trkpt lat="55.52031568261226" lon="38.87856729326344"><ele>123.0</ele><time>2026-05-03T08:17:45Z</time></trkpt><trkpt lat="55.5201644332562" lon="38.87857412317694"><ele>123.0</ele><time>2026-05-03T08:17:46Z</time></trkpt><trkpt lat="55.520017945751235" lon="38.878581401140195"><ele>123.0</ele><time>2026-05-03T08:17:47Z</time></trkpt><trkpt lat="55.519862439552675" lon="38.87858382847974"><ele>123.0</ele><time>2026-05-03T08:17:48Z</time></trkpt><trkpt lat="55.51971346360797" lon="38.87857640226079"><ele>123.0</ele><time>2026-05-03T08:17:49Z</time></trkpt><trkpt lat="55.51956786188461" lon="38.878569144195396"><ele>123.0</ele><time>2026-05-03T08:17:50Z</time></trkpt><trkpt lat="55.51941738776195" lon="38.87856194051085"><ele>123.0</ele><time>2026-05-03T08:17:51Z</time></trkpt><trkpt lat="55.519258816525685" lon="38.878553990674014"><ele>121.66666666666666</ele><time>2026-05-03T08:17:52Z</time></trkpt><trkpt lat="55.51911122609663" lon="38.878546754061176"><ele>120.33333333333333</ele><time>2026-05-03T08:17:53Z</time></trkpt><trkpt lat="55.518951188659095" lon="38.87853903734135"><ele>119.0</ele><time>2026-05-03T08:17:54Z</time></trkpt><trkpt lat="55.518804144079596" lon="38.878531933122495"><ele>119.0</ele><time>2026-05-03T08:17:55Z</time></trkpt><trkpt lat="55.51865849224773" lon="38.87852544900041"><ele>119.0</ele><time>2026-05-03T08:17:56Z</time></trkpt><trkpt lat="55.51851073158383" lon="38.87851838640812"><ele>119.0</ele><time>2026-05-03T08:17:57Z</time></trkpt><trkpt lat="55.518364748316756" lon="38.87851078262154"><ele>119.0</ele><time>2026-05-03T08:17:58Z</time></trkpt><trkpt lat="55.51822391930649" lon="38.87850361628158"><ele>119.0</ele><time>2026-05-03T08:17:59Z</time></trkpt><trkpt lat="55.51806789714358" lon="38.87847144658789"><ele>119.0</ele><time>2026-05-03T08:18:00Z</time></trkpt><trkpt lat="55.517930762220956" lon="38.87847453011426"><ele>119.0</ele><time>2026-05-03T08:18:01Z</time></trkpt><trkpt lat="55.51778193246151" lon="38.878468899112804"><ele>119.0</ele><time>2026-05-03T08:18:02Z</time></trkpt><trkpt lat="55.51763886966967" lon="38.8784568440486"><ele>118.75</ele><time>2026-05-03T08:18:03Z</time></trkpt><trkpt lat="55.5174963953115" lon="38.87845227516273"><ele>118.5</ele><time>2026-05-03T08:18:04Z</time></trkpt><trkpt lat="55.51734697615823" lon="38.87846753219425"><ele>118.25</ele><time>2026-05-03T08:18:05Z</time></trkpt><trkpt lat="55.51723940916208" lon="38.87846236929088"><ele>118.0</ele><time>2026-05-03T08:18:06Z</time></trkpt><trkpt lat="55.51715120319902" lon="38.87847501386828"><ele>118.2</ele><time>2026-05-03T08:18:07Z</time></trkpt><trkpt lat="55.51701993776809" lon="38.87845959204458"><ele>118.4</ele><time>2026-05-03T08:18:09Z</time></trkpt><trkpt lat="55.51693579193967" lon="38.878460269463126"><ele>118.60000000000001</ele><time>2026-05-03T08:18:10Z</time></trkpt><trkpt lat="55.51685334150563" lon="38.878461091287754"><ele>118.80000000000001</ele><time>2026-05-03T08:18:11Z</time></trkpt><trkpt lat="55.5167822158777" lon="38.87845128880709"><ele>119.0</ele><time>2026-05-03T08:18:12Z</time></trkpt><trkpt lat="55.51668843942546" lon="38.878443571118424"><ele>119.66666666666666</ele><time>2026-05-03T08:18:14Z</time></trkpt><trkpt lat="55.51661603196934" lon="38.87842525075328"><ele>120.33333333333333</ele><time>2026-05-03T08:18:16Z</time></trkpt><trkpt lat="55.516545088210485" lon="38.87842234357644"><ele>121.0</ele><time>2026-05-03T08:18:19Z</time></trkpt><trkpt lat="55.51647459275208" lon="38.87841900872487"><ele>121.66666666666666</ele><time>2026-05-03T08:18:22Z</time></trkpt><trkpt lat="55.51641054971779" lon="38.878428095897924"><ele>122.33333333333333</ele><time>2026-05-03T08:18:37Z</time></trkpt><trkpt lat="55.51634650569348" lon="38.87823410461065"><ele>123.0</ele><time>2026-05-03T08:18:53Z</time></trkpt><trkpt lat="55.51627622094538" lon="38.878185299666946"><ele>122.66666666666667</ele><time>2026-05-03T08:19:12Z</time></trkpt><trkpt lat="55.51620875658567" lon="38.878194373009556"><ele>122.33333333333334</ele><time>2026-05-03T08:19:14Z</time></trkpt><trkpt lat="55.516104384457215" lon="38.87814585488514"><ele>122.0</ele><time>2026-05-03T08:19:16Z</time></trkpt><trkpt lat="55.51602279906058" lon="38.87811484491342"><ele>121.66666666666667</ele><time>2026-05-03T08:19:19Z</time></trkpt><trkpt lat="55.51594523847292" lon="38.878086805025056"><ele>121.33333333333334</ele><time>2026-05-03T08:19:22Z</time></trkpt><trkpt lat="55.51586347023513" lon="38.87807996673518"><ele>121.0</ele><time>2026-05-03T08:19:25Z</time></trkpt><trkpt lat="55.51579798110978" lon="38.87809069661578"><ele>121.00000000000001</ele><time>2026-05-03T08:19:28Z</time></trkpt><trkpt lat="55.51572856420416" lon="38.87805523674174"><ele>121.0</ele><time>2026-05-03T08:19:32Z</time></trkpt><trkpt lat="55.5156628015192" lon="38.877999366013086"><ele>121.0</ele><time>2026-05-03T08:19:36Z</time></trkpt><trkpt lat="55.51558044798482" lon="38.878037848008674"><ele>121.0</ele><time>2026-05-03T08:19:39Z</time></trkpt><trkpt lat="55.51548673350812" lon="38.87805293256603"><ele>121.00000000000001</ele><time>2026-05-03T08:19:42Z</time></trkpt><trkpt lat="55.51538845011932" lon="38.87799169308735"><ele>121.0</ele><time>2026-05-03T08:19:44Z</time></trkpt><trkpt lat="55.5153178452867" lon="38.87809225821291"><ele>120.6</ele><time>2026-05-03T08:19:46Z</time></trkpt><trkpt lat="55.5152385915027" lon="38.878263230618394"><ele>120.19999999999999</ele><time>2026-05-03T08:19:48Z</time></trkpt><trkpt lat="55.51518364227614" lon="38.87832184439276"><ele>119.80000000000001</ele><time>2026-05-03T08:19:49Z</time></trkpt><trkpt lat="55.51513237848828" lon="38.87840877943464"><ele>119.4</ele><time>2026-05-03T08:19:51Z</time></trkpt><trkpt lat="55.515044996301484" lon="38.87849759907956"><ele>119.0</ele><time>2026-05-03T08:19:54Z</time></trkpt><trkpt lat="55.5149612371649" lon="38.878551212835085"><ele>119.0</ele><time>2026-05-03T08:19:56Z</time></trkpt><trkpt lat="55.51495078487317" lon="38.878441031104096"><ele>119.0</ele><time>2026-05-03T08:19:58Z</time></trkpt><trkpt lat="55.51500134125743" lon="38.87835196181151"><ele>119.0</ele><time>2026-05-03T08:20:10Z</time></trkpt><trkpt lat="55.51502513081256" lon="38.878204083058925"><ele>119.0</ele><time>2026-05-03T08:20:21Z</time></trkpt><trkpt lat="55.515057870214115" lon="38.87810056266972"><ele>119.0</ele><time>2026-05-03T08:20:28Z</time></trkpt><trkpt lat="55.51499568473727" lon="38.878031124247045"><ele>119.0</ele><time>2026-05-03T08:20:32Z</time></trkpt><trkpt lat="55.51492611137192" lon="38.87799579610076"><ele>119.0</ele><time>2026-05-03T08:20:35Z</time></trkpt><trkpt lat="55.51484357444217" lon="38.87801682787465"><ele>118.99999999999999</ele><time>2026-05-03T08:20:38Z</time></trkpt><trkpt lat="55.514773240838835" lon="38.87797659222531"><ele>119.0</ele><time>2026-05-03T08:20:42Z</time></trkpt><trkpt lat="55.51483875714164" lon="38.877958140791755"><ele>119.0</ele><time>2026-05-03T08:20:57Z</time></trkpt><trkpt lat="55.514921526297975" lon="38.87801071660208"><ele>119.0</ele><time>2026-05-03T08:21:01Z</time></trkpt><trkpt lat="55.515009134561204" lon="38.878004899500816"><ele>118.99999999999999</ele><time>2026-05-03T08:21:04Z</time></trkpt><trkpt lat="55.5150773886166" lon="38.87806668791161"><ele>119.0</ele><time>2026-05-03T08:21:07Z</time></trkpt><trkpt lat="55.51514049086822" lon="38.878047999718625"><ele>119.0</ele><time>2026-05-03T08:21:09Z</time></trkpt><trkpt lat="55.51523775536379" lon="38.87802172353509"><ele>119.0</ele><time>2026-05-03T08:21:11Z</time></trkpt><trkpt lat="55.51529109109609" lon="38.87791093956119"><ele>119.0</ele><time>2026-05-03T08:21:13Z</time></trkpt><trkpt lat="55.515347801000466" lon="38.87779674108948"><ele>119.0</ele><time>2026-05-03T08:21:15Z</time></trkpt><trkpt lat="55.51538939362255" lon="38.8776138768945"><ele>119.0</ele><time>2026-05-03T08:21:17Z</time></trkpt><trkpt lat="55.515408653696454" lon="38.877468321080684"><ele>120.6</ele><time>2026-05-03T08:21:18Z</time></trkpt><trkpt lat="55.51544428324037" lon="38.87730629090497"><ele>122.2</ele><time>2026-05-03T08:21:19Z</time></trkpt><trkpt lat="55.51546642967372" lon="38.877162892420614"><ele>123.79999999999998</ele><time>2026-05-03T08:21:20Z</time></trkpt><trkpt lat="55.51548954110969" lon="38.87701391231673"><ele>125.39999999999999</ele><time>2026-05-03T08:21:21Z</time></trkpt><trkpt lat="55.515502645902515" lon="38.87686948156018"><ele>127.0</ele><time>2026-05-03T08:21:22Z</time></trkpt><trkpt lat="55.51550860702707" lon="38.87668347339219"><ele>127.25</ele><time>2026-05-03T08:21:23Z</time></trkpt><trkpt lat="55.51551390012662" lon="38.87650215452875"><ele>127.5</ele><time>2026-05-03T08:21:24Z</time></trkpt><trkpt lat="55.51553341991116" lon="38.876359023943785"><ele>127.75</ele><time>2026-05-03T08:21:25Z</time></trkpt><trkpt lat="55.51562848787945" lon="38.87605041495075"><ele>128.0</ele><time>2026-05-03T08:21:27Z</time></trkpt><trkpt lat="55.515683597882095" lon="38.87589802989924"><ele>127.4</ele><time>2026-05-03T08:21:28Z</time></trkpt><trkpt lat="55.515722933504755" lon="38.87572218982817"><ele>126.80000000000001</ele><time>2026-05-03T08:21:29Z</time></trkpt><trkpt lat="55.51576082704752" lon="38.875563571817594"><ele>126.2</ele><time>2026-05-03T08:21:30Z</time></trkpt><trkpt lat="55.51584527643696" lon="38.87541666720123"><ele>125.6</ele><time>2026-05-03T08:21:31Z</time></trkpt><trkpt lat="55.51592566069743" lon="38.87527914221605"><ele>125.0</ele><time>2026-05-03T08:21:32Z</time></trkpt><trkpt lat="55.515983395376495" lon="38.87512936867091"><ele>125.2</ele><time>2026-05-03T08:21:33Z</time></trkpt><trkpt lat="55.51606691111779" lon="38.87500033117225"><ele>125.4</ele><time>2026-05-03T08:21:34Z</time></trkpt><trkpt lat="55.516139097709804" lon="38.8748766389951"><ele>125.6</ele><time>2026-05-03T08:21:35Z</time></trkpt><trkpt lat="55.51621982347913" lon="38.87475111333426"><ele>125.8</ele><time>2026-05-03T08:21:36Z</time></trkpt><trkpt lat="55.516276990752566" lon="38.87459002807028"><ele>126.0</ele><time>2026-05-03T08:21:37Z</time></trkpt><trkpt lat="55.51631365916921" lon="38.87441345628436"><ele>126.0</ele><time>2026-05-03T08:21:38Z</time></trkpt><trkpt lat="55.51633005853735" lon="38.87423584707548"><ele>126.0</ele><time>2026-05-03T08:21:39Z</time></trkpt><trkpt lat="55.51636043299844" lon="38.87408473563045"><ele>126.0</ele><time>2026-05-03T08:21:40Z</time></trkpt><trkpt lat="55.51641782815458" lon="38.87395763391045"><ele>126.0</ele><time>2026-05-03T08:21:41Z</time></trkpt><trkpt lat="55.516452791049744" lon="38.873828139745086"><ele>126.0</ele><time>2026-05-03T08:21:42Z</time></trkpt><trkpt lat="55.516646947869205" lon="38.87375130615664"><ele>126.0</ele><time>2026-05-03T08:21:43Z</time></trkpt><trkpt lat="55.51678621770708" lon="38.87368995952145"><ele>126.0</ele><time>2026-05-03T08:21:44Z</time></trkpt><trkpt lat="55.5169287263512" lon="38.87363652358809"><ele>126.0</ele><time>2026-05-03T08:21:45Z</time></trkpt><trkpt lat="55.51704845274583" lon="38.87358345636339"><ele>126.0</ele><time>2026-05-03T08:21:46Z</time></trkpt><trkpt lat="55.517164966449855" lon="38.87350952994809"><ele>126.0</ele><time>2026-05-03T08:21:47Z</time></trkpt><trkpt lat="55.517276241162364" lon="38.87345276870272"><ele>126.0</ele><time>2026-05-03T08:21:48Z</time></trkpt><trkpt lat="55.51736998368648" lon="38.87341091296259"><ele>126.0</ele><time>2026-05-03T08:21:49Z</time></trkpt><trkpt lat="55.517445650724284" lon="38.87332760741542"><ele>126.0</ele><time>2026-05-03T08:21:50Z</time></trkpt><trkpt lat="55.517492238263415" lon="38.87321503918281"><ele>126.0</ele><time>2026-05-03T08:21:51Z</time></trkpt><trkpt lat="55.51751974352515" lon="38.873055541067615"><ele>126.0</ele><time>2026-05-03T08:21:52Z</time></trkpt><trkpt lat="55.517516915989965" lon="38.87291052763922"><ele>126.0</ele><time>2026-05-03T08:21:53Z</time></trkpt><trkpt lat="55.517476067137466" lon="38.872760556739436"><ele>126.0</ele><time>2026-05-03T08:21:54Z</time></trkpt><trkpt lat="55.51739550287508" lon="38.872588483681994"><ele>126.0</ele><time>2026-05-03T08:21:55Z</time></trkpt><trkpt lat="55.51729443357938" lon="38.87241683196983"><ele>126.0</ele><time>2026-05-03T08:21:56Z</time></trkpt><trkpt lat="55.51720416206207" lon="38.87232583682906"><ele>125.6</ele><time>2026-05-03T08:21:57Z</time></trkpt><trkpt lat="55.51710832363639" lon="38.872237693301415"><ele>125.19999999999999</ele><time>2026-05-03T08:21:58Z</time></trkpt><trkpt lat="55.517013354230414" lon="38.87216140463474"><ele>124.80000000000001</ele><time>2026-05-03T08:21:59Z</time></trkpt><trkpt lat="55.516955285831024" lon="38.8720509855831"><ele>124.4</ele><time>2026-05-03T08:22:00Z</time></trkpt><trkpt lat="55.51691205279671" lon="38.871918713331596"><ele>124.0</ele><time>2026-05-03T08:22:01Z</time></trkpt><trkpt lat="55.5168800162936" lon="38.871814201739916"><ele>123.0</ele><time>2026-05-03T08:22:02Z</time></trkpt><trkpt lat="55.516760228211865" lon="38.87169462652454"><ele>122.0</ele><time>2026-05-03T08:22:04Z</time></trkpt><trkpt lat="55.51666475067327" lon="38.87170134937865"><ele>121.0</ele><time>2026-05-03T08:22:05Z</time></trkpt><trkpt lat="55.51656097610633" lon="38.87171684979064"><ele>120.0</ele><time>2026-05-03T08:22:06Z</time></trkpt><trkpt lat="55.51644807396695" lon="38.87171520683942"><ele>120.0</ele><time>2026-05-03T08:22:07Z</time></trkpt><trkpt lat="55.51632933195572" lon="38.871717260499125"><ele>120.0</ele><time>2026-05-03T08:22:08Z</time></trkpt><trkpt lat="55.51620170649906" lon="38.87170743916295"><ele>120.0</ele><time>2026-05-03T08:22:09Z</time></trkpt><trkpt lat="55.51607193137213" lon="38.87171356552472"><ele>120.0</ele><time>2026-05-03T08:22:10Z</time></trkpt><trkpt lat="55.515939946298495" lon="38.871710745128695"><ele>119.25</ele><time>2026-05-03T08:22:11Z</time></trkpt><trkpt lat="55.515803681575825" lon="38.871696574305275"><ele>118.5</ele><time>2026-05-03T08:22:12Z</time></trkpt><trkpt lat="55.51567578513339" lon="38.871668630603956"><ele>117.75</ele><time>2026-05-03T08:22:13Z</time></trkpt><trkpt lat="55.51554234466322" lon="38.871649601257545"><ele>117.0</ele><time>2026-05-03T08:22:14Z</time></trkpt><trkpt lat="55.51541251721526" lon="38.87163616218131"><ele>117.75</ele><time>2026-05-03T08:22:15Z</time></trkpt><trkpt lat="55.51528056619695" lon="38.87162298316212"><ele>118.5</ele><time>2026-05-03T08:22:16Z</time></trkpt><trkpt lat="55.515154407470945" lon="38.871603333039495"><ele>119.25</ele><time>2026-05-03T08:22:17Z</time></trkpt><trkpt lat="55.515032857647135" lon="38.87159399595287"><ele>120.0</ele><time>2026-05-03T08:22:18Z</time></trkpt><trkpt lat="55.514910858190575" lon="38.87158757204455"><ele>120.0</ele><time>2026-05-03T08:22:19Z</time></trkpt><trkpt lat="55.51478426456135" lon="38.87157935992375"><ele>120.0</ele><time>2026-05-03T08:22:20Z</time></trkpt><trkpt lat="55.514669181100295" lon="38.87156824013141"><ele>120.0</ele><time>2026-05-03T08:22:21Z</time></trkpt><trkpt lat="55.514554319464516" lon="38.87157030196318"><ele>120.0</ele><time>2026-05-03T08:22:22Z</time></trkpt><trkpt lat="55.51443530579127" lon="38.871569827866516"><ele>120.25</ele><time>2026-05-03T08:22:23Z</time></trkpt><trkpt lat="55.514314263929414" lon="38.87156639869013"><ele>120.5</ele><time>2026-05-03T08:22:24Z</time></trkpt><trkpt lat="55.5141951294964" lon="38.871559629228365"><ele>120.75</ele><time>2026-05-03T08:22:25Z</time></trkpt><trkpt lat="55.51407777342284" lon="38.87155986341647"><ele>121.0</ele><time>2026-05-03T08:22:26Z</time></trkpt><trkpt lat="55.51395757537396" lon="38.87155540205292"><ele>121.0</ele><time>2026-05-03T08:22:27Z</time></trkpt><trkpt lat="55.51383479807734" lon="38.87154507406992"><ele>121.0</ele><time>2026-05-03T08:22:28Z</time></trkpt><trkpt lat="55.51371245915159" lon="38.87154619331399"><ele>121.0</ele><time>2026-05-03T08:22:29Z</time></trkpt><trkpt lat="55.51359198123451" lon="38.87153897309882"><ele>121.0</ele><time>2026-05-03T08:22:30Z</time></trkpt><trkpt lat="55.51347688281084" lon="38.87153220782448"><ele>121.25</ele><time>2026-05-03T08:22:31Z</time></trkpt><trkpt lat="55.51336670631878" lon="38.8715345707962"><ele>121.5</ele><time>2026-05-03T08:22:32Z</time></trkpt><trkpt lat="55.513246831211426" lon="38.87157054072804"><ele>121.75</ele><time>2026-05-03T08:22:33Z</time></trkpt><trkpt lat="55.513111331302106" lon="38.87160398814098"><ele>122.0</ele><time>2026-05-03T08:22:34Z</time></trkpt><trkpt lat="55.51299910283366" lon="38.8715923311267"><ele>122.0</ele><time>2026-05-03T08:22:35Z</time></trkpt><trkpt lat="55.51288233877965" lon="38.871562057807544"><ele>122.0</ele><time>2026-05-03T08:22:36Z</time></trkpt><trkpt lat="55.512760119531016" lon="38.87156515486439"><ele>122.0</ele><time>2026-05-03T08:22:37Z</time></trkpt><trkpt lat="55.512641848899925" lon="38.871561320093534"><ele>122.0</ele><time>2026-05-03T08:22:38Z</time></trkpt><trkpt lat="55.512519603681525" lon="38.871579071629746"><ele>122.0</ele><time>2026-05-03T08:22:39Z</time></trkpt><trkpt lat="55.51240206698652" lon="38.871599802721356"><ele>121.99999999999999</ele><time>2026-05-03T08:22:40Z</time></trkpt><trkpt lat="55.51229920583931" lon="38.87159072249469"><ele>121.99999999999999</ele><time>2026-05-03T08:22:41Z</time></trkpt><trkpt lat="55.51220654729428" lon="38.871574957644874"><ele>122.0</ele><time>2026-05-03T08:22:42Z</time></trkpt><trkpt lat="55.51208032019995" lon="38.87156027323922"><ele>122.0</ele><time>2026-05-03T08:22:43Z</time></trkpt><trkpt lat="55.511951478113694" lon="38.87155044225724"><ele>122.25</ele><time>2026-05-03T08:22:44Z</time></trkpt><trkpt lat="55.51181922508062" lon="38.871576315954805"><ele>122.5</ele><time>2026-05-03T08:22:45Z</time></trkpt><trkpt lat="55.5116818151063" lon="38.87161138609961"><ele>122.75</ele><time>2026-05-03T08:22:46.001Z</time></trkpt><trkpt lat="55.51154260197682" lon="38.87165810969068"><ele>123.0</ele><time>2026-05-03T08:22:47.001Z</time></trkpt><trkpt lat="55.51141344028202" lon="38.8717094908368"><ele>123.0</ele><time>2026-05-03T08:22:48.001Z</time></trkpt><trkpt lat="55.51129596271705" lon="38.87174990972098"><ele>123.0</ele><time>2026-05-03T08:22:49.001Z</time></trkpt><trkpt lat="55.5111823235049" lon="38.87180272446485"><ele>123.0</ele><time>2026-05-03T08:22:50.001Z</time></trkpt><trkpt lat="55.51106401151247" lon="38.87186372716256"><ele>123.0</ele><time>2026-05-03T08:22:51.001Z</time></trkpt><trkpt lat="55.5109591009975" lon="38.87190785536492"><ele>123.25</ele><time>2026-05-03T08:22:52.001Z</time></trkpt><trkpt lat="55.51084973532043" lon="38.87194800327711"><ele>123.5</ele><time>2026-05-03T08:22:53.001Z</time></trkpt><trkpt lat="55.510731161479505" lon="38.87201690449535"><ele>123.75</ele><time>2026-05-03T08:22:54.001Z</time></trkpt><trkpt lat="55.51062715385005" lon="38.87208551548115"><ele>124.0</ele><time>2026-05-03T08:22:55.001Z</time></trkpt><trkpt lat="55.510524040609965" lon="38.87215345452633"><ele>124.0</ele><time>2026-05-03T08:22:56.001Z</time></trkpt><trkpt lat="55.51042012083019" lon="38.87222569613055"><ele>124.0</ele><time>2026-05-03T08:22:57.001Z</time></trkpt><trkpt lat="55.51031075083744" lon="38.872306767009505"><ele>124.0</ele><time>2026-05-03T08:22:58.001Z</time></trkpt><trkpt lat="55.51020095975754" lon="38.87240087183652"><ele>124.0</ele><time>2026-05-03T08:22:59.001Z</time></trkpt><trkpt lat="55.51010043042747" lon="38.87248123987471"><ele>124.2</ele><time>2026-05-03T08:23:00.001Z</time></trkpt><trkpt lat="55.50999935267553" lon="38.87254355191828"><ele>124.4</ele><time>2026-05-03T08:23:01.001Z</time></trkpt><trkpt lat="55.509920153661334" lon="38.87257512186331"><ele>124.6</ele><time>2026-05-03T08:23:02.001Z</time></trkpt><trkpt lat="55.509814588733605" lon="38.87264843134857"><ele>124.8</ele><time>2026-05-03T08:23:03.999Z</time></trkpt><trkpt lat="55.50973827901366" lon="38.87267844298612"><ele>125.0</ele><time>2026-05-03T08:30:45.001Z</time></trkpt><trkpt lat="55.509631583375864" lon="38.872673005514194"><ele>124.75</ele><time>2026-05-03T08:30:47.001Z</time></trkpt><trkpt lat="55.509573563690594" lon="38.872490142527354"><ele>124.5</ele><time>2026-05-03T08:30:48.001Z</time></trkpt><trkpt lat="55.50949587242208" lon="38.872490763077025"><ele>124.25</ele><time>2026-05-03T08:30:50.001Z</time></trkpt><trkpt lat="55.50941939555793" lon="38.87274192702032"><ele>124.0</ele><time>2026-05-03T08:30:52.001Z</time></trkpt><trkpt lat="55.5093212672556" lon="38.87275671715595"><ele>124.0</ele><time>2026-05-03T08:30:54.001Z</time></trkpt><trkpt lat="55.50925655662914" lon="38.87275990088703"><ele>124.0</ele><time>2026-05-03T08:30:55.001Z</time></trkpt><trkpt lat="55.50920011454957" lon="38.87249909698713"><ele>124.0</ele><time>2026-05-03T08:30:56.001Z</time></trkpt><trkpt lat="55.50914137847951" lon="38.87284604838932"><ele>124.0</ele><time>2026-05-03T08:30:57.001Z</time></trkpt><trkpt lat="55.50906561509139" lon="38.87294163889933"><ele>124.00000000000001</ele><time>2026-05-03T08:30:58.001Z</time></trkpt><trkpt lat="55.50898077561985" lon="38.87299381919575"><ele>124.0</ele><time>2026-05-03T08:30:59.001Z</time></trkpt><trkpt lat="55.50890690547522" lon="38.87303828227552"><ele>124.0</ele><time>2026-05-03T08:31:00.001Z</time></trkpt><trkpt lat="55.50884624947703" lon="38.87317178328625"><ele>124.0</ele><time>2026-05-03T08:31:01.001Z</time></trkpt><trkpt lat="55.50877657401769" lon="38.873203088292925"><ele>124.00000000000001</ele><time>2026-05-03T08:31:02.001Z</time></trkpt><trkpt lat="55.508709080641566" lon="38.8732786008475"><ele>124.0</ele><time>2026-05-03T08:31:03.001Z</time></trkpt><trkpt lat="55.50864464043376" lon="38.8733558500252"><ele>124.00000000000001</ele><time>2026-05-03T08:31:04.001Z</time></trkpt><trkpt lat="55.508572965732434" lon="38.87342106763013"><ele>124.0</ele><time>2026-05-03T08:31:05.001Z</time></trkpt><trkpt lat="55.50849782255374" lon="38.87348921566171"><ele>124.0</ele><time>2026-05-03T08:31:06.001Z</time></trkpt><trkpt lat="55.50842952085318" lon="38.873551423396776"><ele>124.0</ele><time>2026-05-03T08:31:07.001Z</time></trkpt><trkpt lat="55.50836491498115" lon="38.87361028539292"><ele>124.00000000000001</ele><time>2026-05-03T08:31:08.001Z</time></trkpt><trkpt lat="55.50825288828061" lon="38.87371235220461"><ele>124.0</ele><time>2026-05-03T08:31:10.001Z</time></trkpt><trkpt lat="55.50814509705835" lon="38.87381056009792"><ele>124.00000000000001</ele><time>2026-05-03T08:31:12.001Z</time></trkpt><trkpt lat="55.50807252245255" lon="38.87387689055781"><ele>124.0</ele><time>2026-05-03T08:31:13.001Z</time></trkpt><trkpt lat="55.50800145551077" lon="38.87397987712017"><ele>124.0</ele><time>2026-05-03T08:31:15.001Z</time></trkpt><trkpt lat="55.50794718604617" lon="38.87410399141789"><ele>124.0</ele><time>2026-05-03T08:31:16.001Z</time></trkpt><trkpt lat="55.50790594368318" lon="38.874198312737896"><ele>124.00000000000001</ele><time>2026-05-03T08:31:17.001Z</time></trkpt><trkpt lat="55.50785303659826" lon="38.874319311266326"><ele>124.0</ele><time>2026-05-03T08:31:19.001Z</time></trkpt><trkpt lat="55.50779492071709" lon="38.874451948751016"><ele>123.80000000000001</ele><time>2026-05-03T08:31:20.001Z</time></trkpt><trkpt lat="55.50773654047255" lon="38.87458532212292"><ele>123.60000000000001</ele><time>2026-05-03T08:31:21.001Z</time></trkpt><trkpt lat="55.50767732635926" lon="38.87472140648366"><ele>123.4</ele><time>2026-05-03T08:31:22.001Z</time></trkpt><trkpt lat="55.50761375464126" lon="38.8748666979374"><ele>123.2</ele><time>2026-05-03T08:31:23.001Z</time></trkpt><trkpt lat="55.5075453230892" lon="38.875023027914224"><ele>123.0</ele><time>2026-05-03T08:31:24.001Z</time></trkpt><trkpt lat="55.507474305196496" lon="38.87518524852575"><ele>123.75</ele><time>2026-05-03T08:31:25.001Z</time></trkpt><trkpt lat="55.50740500500532" lon="38.875344710218585"><ele>124.5</ele><time>2026-05-03T08:31:26.001Z</time></trkpt><trkpt lat="55.507330835190004" lon="38.87551305679385"><ele>125.25</ele><time>2026-05-03T08:31:26.999Z</time></trkpt><trkpt lat="55.507255963518844" lon="38.87568431552753"><ele>126.0</ele><time>2026-05-03T08:31:27.999Z</time></trkpt><trkpt lat="55.50718291871145" lon="38.87585073794488"><ele>126.25</ele><time>2026-05-03T08:31:29Z</time></trkpt><trkpt lat="55.50710629234452" lon="38.876026966740305"><ele>126.5</ele><time>2026-05-03T08:31:29.999Z</time></trkpt><trkpt lat="55.50702970119541" lon="38.876201701739866"><ele>126.75</ele><time>2026-05-03T08:31:30.999Z</time></trkpt><trkpt lat="55.506951157423465" lon="38.87638157875595"><ele>127.0</ele><time>2026-05-03T08:31:31.999Z</time></trkpt><trkpt lat="55.50686856196934" lon="38.876570734716495"><ele>126.25</ele><time>2026-05-03T08:31:33Z</time></trkpt><trkpt lat="55.50678919973522" lon="38.87675178397784"><ele>125.5</ele><time>2026-05-03T08:31:34Z</time></trkpt><trkpt lat="55.50671894138968" lon="38.87691270455791"><ele>124.75</ele><time>2026-05-03T08:31:35Z</time></trkpt><trkpt lat="55.5066340734886" lon="38.87710570902162"><ele>124.0</ele><time>2026-05-03T08:31:36Z</time></trkpt><trkpt lat="55.50656429560015" lon="38.877270549311596"><ele>124.00000000000001</ele><time>2026-05-03T08:31:37Z</time></trkpt><trkpt lat="55.50652011471416" lon="38.87737561493929"><ele>124.0</ele><time>2026-05-03T08:31:38Z</time></trkpt><trkpt lat="55.50647163830337" lon="38.87749022483482"><ele>124.0</ele><time>2026-05-03T08:31:39Z</time></trkpt><trkpt lat="55.50640983919901" lon="38.87763576494964"><ele>124.0</ele><time>2026-05-03T08:31:41Z</time></trkpt><trkpt lat="55.506320798095814" lon="38.87754623984255"><ele>124.00000000000001</ele><time>2026-05-03T08:31:45Z</time></trkpt><trkpt lat="55.506240774669415" lon="38.87751833357893"><ele>124.0</ele><time>2026-05-03T08:31:47Z</time></trkpt><trkpt lat="55.506152717156674" lon="38.87748762562098"><ele>124.5</ele><time>2026-05-03T08:31:49Z</time></trkpt><trkpt lat="55.50624799638778" lon="38.87793376433753"><ele>125.0</ele><time>2026-05-03T08:32:25Z</time></trkpt><trkpt lat="55.50617476329535" lon="38.87797250030444"><ele>125.5</ele><time>2026-05-03T08:32:27.001Z</time></trkpt><trkpt lat="55.50616976225495" lon="38.878123635077515"><ele>126.0</ele><time>2026-05-03T08:32:29.001Z</time></trkpt><trkpt lat="55.50614770210489" lon="38.878229839568455"><ele>125.66666666666667</ele><time>2026-05-03T08:32:33.001Z</time></trkpt><trkpt lat="55.506076725649244" lon="38.878343993678484"><ele>125.33333333333334</ele><time>2026-05-03T08:32:53.001Z</time></trkpt><trkpt lat="55.50602353114296" lon="38.87844666210576"><ele>125.0</ele><time>2026-05-03T08:32:54.001Z</time></trkpt><trkpt lat="55.50594769936243" lon="38.87857149541677"><ele>124.66666666666667</ele><time>2026-05-03T08:32:55.001Z</time></trkpt><trkpt lat="55.50588872670593" lon="38.87868785949153"><ele>124.33333333333334</ele><time>2026-05-03T08:32:56.001Z</time></trkpt><trkpt lat="55.50583524258266" lon="38.87879505391468"><ele>124.0</ele><time>2026-05-03T08:32:57.001Z</time></trkpt><trkpt lat="55.505767596512584" lon="38.878882292227516"><ele>124.0</ele><time>2026-05-03T08:32:58.001Z</time></trkpt><trkpt lat="55.50568876594002" lon="38.87897717557125"><ele>124.0</ele><time>2026-05-03T08:32:59.001Z</time></trkpt><trkpt lat="55.50560908985403" lon="38.879074372921124"><ele>124.0</ele><time>2026-05-03T08:33:00.001Z</time></trkpt><trkpt lat="55.50552237179212" lon="38.87917902863104"><ele>124.0</ele><time>2026-05-03T08:33:01.001Z</time></trkpt><trkpt lat="55.50544303919635" lon="38.879274771135755"><ele>124.0</ele><time>2026-05-03T08:33:02.001Z</time></trkpt><trkpt lat="55.50535439731335" lon="38.879290417267576"><ele>124.0</ele><time>2026-05-03T08:33:03.001Z</time></trkpt><trkpt lat="55.50524814304198" lon="38.87934330247642"><ele>124.0</ele><time>2026-05-03T08:33:04.001Z</time></trkpt><trkpt lat="55.50515431847355" lon="38.87938961965731"><ele>124.0</ele><time>2026-05-03T08:33:05.001Z</time></trkpt><trkpt lat="55.505045208883246" lon="38.87944347835375"><ele>124.0</ele><time>2026-05-03T08:33:06.001Z</time></trkpt><trkpt lat="55.504952503433316" lon="38.87948941848646"><ele>124.0</ele><time>2026-05-03T08:33:07.001Z</time></trkpt><trkpt lat="55.50487081026892" lon="38.87952996299271"><ele>124.0</ele><time>2026-05-03T08:33:08.001Z</time></trkpt><trkpt lat="55.50479396990541" lon="38.87956809926077"><ele>124.0</ele><time>2026-05-03T08:33:09.001Z</time></trkpt><trkpt lat="55.5047516888216" lon="38.879791287514784"><ele>124.0</ele><time>2026-05-03T08:33:10.001Z</time></trkpt><trkpt lat="55.50469629300323" lon="38.87990619468818"><ele>124.0</ele><time>2026-05-03T08:33:11.001Z</time></trkpt><trkpt lat="55.50462110454848" lon="38.880023968383234"><ele>124.0</ele><time>2026-05-03T08:33:12.001Z</time></trkpt><trkpt lat="55.504570496723844" lon="38.8801305770925"><ele>123.6</ele><time>2026-05-03T08:33:13.001Z</time></trkpt><trkpt lat="55.504531098212304" lon="38.88022349046759"><ele>123.2</ele><time>2026-05-03T08:33:14.001Z</time></trkpt><trkpt lat="55.504474726767626" lon="38.88041117637808"><ele>122.79999999999998</ele><time>2026-05-03T08:33:16.001Z</time></trkpt><trkpt lat="55.50447819768341" lon="38.8806133538604"><ele>122.39999999999999</ele><time>2026-05-03T08:33:18.001Z</time></trkpt><trkpt lat="55.504486587782445" lon="38.88074746183391"><ele>122.0</ele><time>2026-05-03T08:33:19.001Z</time></trkpt><trkpt lat="55.50449550905007" lon="38.88088812827549"><ele>122.0</ele><time>2026-05-03T08:33:20.001Z</time></trkpt><trkpt lat="55.50450773236627" lon="38.881082706910206"><ele>121.99999999999999</ele><time>2026-05-03T08:33:21.001Z</time></trkpt><trkpt lat="55.504517322581215" lon="38.88123454213614"><ele>121.99999999999999</ele><time>2026-05-03T08:33:22.001Z</time></trkpt><trkpt lat="55.50452624808572" lon="38.88136991160186"><ele>122.0</ele><time>2026-05-03T08:33:23.001Z</time></trkpt><trkpt lat="55.50453966133616" lon="38.88148636149996"><ele>122.0</ele><time>2026-05-03T08:33:24.001Z</time></trkpt><trkpt lat="55.50456966311598" lon="38.881677760380576"><ele>122.8</ele><time>2026-05-03T08:33:26.001Z</time></trkpt><trkpt lat="55.50461401358981" lon="38.88192587952386"><ele>123.6</ele><time>2026-05-03T08:33:28.001Z</time></trkpt><trkpt lat="55.50464338600707" lon="38.882102038094644"><ele>124.39999999999999</ele><time>2026-05-03T08:33:29.001Z</time></trkpt><trkpt lat="55.50468305592335" lon="38.88223901637978"><ele>125.19999999999999</ele><time>2026-05-03T08:33:30.001Z</time></trkpt><trkpt lat="55.50468952181547" lon="38.88237525428838"><ele>126.0</ele><time>2026-05-03T08:33:31.001Z</time></trkpt><trkpt lat="55.50472980105092" lon="38.88253760846245"><ele>126.0</ele><time>2026-05-03T08:33:33Z</time></trkpt><trkpt lat="55.50467601569104" lon="38.882693548871416"><ele>126.0</ele><time>2026-05-03T08:33:35Z</time></trkpt><trkpt lat="55.50463688017228" lon="38.88281209871419"><ele>126.0</ele><time>2026-05-03T08:33:37Z</time></trkpt><trkpt lat="55.504619056305934" lon="38.882919841247165"><ele>126.0</ele><time>2026-05-03T08:33:38Z</time></trkpt><trkpt lat="55.50457217503488" lon="38.88302355056285"><ele>126.0</ele><time>2026-05-03T08:33:40Z</time></trkpt><trkpt lat="55.50453695021413" lon="38.883135655584816"><ele>126.0</ele><time>2026-05-03T08:33:43Z</time></trkpt><trkpt lat="55.50449746352432" lon="38.88326320197981"><ele>126.0</ele><time>2026-05-03T08:33:46Z</time></trkpt><trkpt lat="55.50446310139013" lon="38.88337209702708"><ele>126.0</ele><time>2026-05-03T08:33:47Z</time></trkpt><trkpt lat="55.5044279268583" lon="38.88348253021346"><ele>126.0</ele><time>2026-05-03T08:33:48Z</time></trkpt><trkpt lat="55.50439661601439" lon="38.8835826981934"><ele>126.0</ele><time>2026-05-03T08:33:49Z</time></trkpt><trkpt lat="55.504380487952254" lon="38.883693788690444"><ele>126.0</ele><time>2026-05-03T08:33:50Z</time></trkpt><trkpt lat="55.50433943819313" lon="38.883781792507115"><ele>126.0</ele><time>2026-05-03T08:33:51Z</time></trkpt><trkpt lat="55.50430534851509" lon="38.883900761851905"><ele>126.0</ele><time>2026-05-03T08:33:52Z</time></trkpt><trkpt lat="55.50426349007965" lon="38.88404877119086"><ele>126.0</ele><time>2026-05-03T08:33:53Z</time></trkpt><trkpt lat="55.50421516202427" lon="38.88421083526798"><ele>126.0</ele><time>2026-05-03T08:33:54Z</time></trkpt><trkpt lat="55.50415532166712" lon="38.88437823193398"><ele>126.0</ele><time>2026-05-03T08:33:55Z</time></trkpt><trkpt lat="55.5040995713958" lon="38.88455784236455"><ele>126.0</ele><time>2026-05-03T08:33:56Z</time></trkpt><trkpt lat="55.504044907052595" lon="38.884744305478186"><ele>126.0</ele><time>2026-05-03T08:33:57Z</time></trkpt><trkpt lat="55.503988820800785" lon="38.88493558722919"><ele>126.0</ele><time>2026-05-03T08:33:58Z</time></trkpt><trkpt lat="55.50394078514298" lon="38.885093609870886"><ele>126.0</ele><time>2026-05-03T08:33:59Z</time></trkpt><trkpt lat="55.50392412749475" lon="38.885288088288554"><ele>126.0</ele><time>2026-05-03T08:34:00Z</time></trkpt><trkpt lat="55.503898092705846" lon="38.885468339558365"><ele>126.0</ele><time>2026-05-03T08:34:01Z</time></trkpt><trkpt lat="55.50386514258064" lon="38.88569951926271"><ele>126.0</ele><time>2026-05-03T08:34:02Z</time></trkpt><trkpt lat="55.50382730138622" lon="38.88596101340745"><ele>126.0</ele><time>2026-05-03T08:34:03Z</time></trkpt><trkpt lat="55.503786346527576" lon="38.88624522576195"><ele>126.0</ele><time>2026-05-03T08:34:04Z</time></trkpt><trkpt lat="55.5037467540514" lon="38.886497741226854"><ele>126.0</ele><time>2026-05-03T08:34:05Z</time></trkpt><trkpt lat="55.503722983699205" lon="38.886692196087196"><ele>126.0</ele><time>2026-05-03T08:34:06Z</time></trkpt><trkpt lat="55.503706295806204" lon="38.8868482802471"><ele>126.0</ele><time>2026-05-03T08:34:07Z</time></trkpt><trkpt lat="55.503674518881795" lon="38.88705173331625"><ele>126.0</ele><time>2026-05-03T08:34:10Z</time></trkpt><trkpt lat="55.50367324219543" lon="38.88718857132461"><ele>126.0</ele><time>2026-05-03T08:34:11Z</time></trkpt><trkpt lat="55.50364231044941" lon="38.887333868852366"><ele>125.8</ele><time>2026-05-03T08:34:12Z</time></trkpt><trkpt lat="55.503613314718706" lon="38.887505233852984"><ele>125.6</ele><time>2026-05-03T08:34:14.001Z</time></trkpt><trkpt lat="55.503606036789634" lon="38.887637155522256"><ele>125.4</ele><time>2026-05-03T08:34:15.001Z</time></trkpt><trkpt lat="55.50358937223885" lon="38.887745247909734"><ele>125.2</ele><time>2026-05-03T08:34:16.001Z</time></trkpt><trkpt lat="55.50357496708194" lon="38.88789729888002"><ele>125.0</ele><time>2026-05-03T08:34:17.001Z</time></trkpt><trkpt lat="55.50353141090044" lon="38.88810624383201"><ele>124.6</ele><time>2026-05-03T08:34:18.001Z</time></trkpt><trkpt lat="55.503523219873266" lon="38.88827286579028"><ele>124.2</ele><time>2026-05-03T08:34:19.001Z</time></trkpt><trkpt lat="55.50349817797037" lon="38.88843179370388"><ele>123.80000000000001</ele><time>2026-05-03T08:34:20.001Z</time></trkpt><trkpt lat="55.503469470532615" lon="38.88862763928051"><ele>123.4</ele><time>2026-05-03T08:34:21.001Z</time></trkpt><trkpt lat="55.5034440996231" lon="38.888820573683695"><ele>123.0</ele><time>2026-05-03T08:34:22.001Z</time></trkpt><trkpt lat="55.503417970261125" lon="38.88902328137963"><ele>122.75</ele><time>2026-05-03T08:34:23.001Z</time></trkpt><trkpt lat="55.50338982771496" lon="38.88924580153082"><ele>122.5</ele><time>2026-05-03T08:34:24.001Z</time></trkpt><trkpt lat="55.50336289716441" lon="38.88946783499872"><ele>122.25</ele><time>2026-05-03T08:34:25.001Z</time></trkpt><trkpt lat="55.50331919678519" lon="38.88967349965789"><ele>122.0</ele><time>2026-05-03T08:34:26.001Z</time></trkpt><trkpt lat="55.50330532178501" lon="38.88988215400661"><ele>123.25</ele><time>2026-05-03T08:34:27.001Z</time></trkpt><trkpt lat="55.503275926221" lon="38.89010871967152"><ele>124.5</ele><time>2026-05-03T08:34:28.001Z</time></trkpt><trkpt lat="55.503244457333665" lon="38.89034110914626"><ele>125.75</ele><time>2026-05-03T08:34:29.001Z</time></trkpt><trkpt lat="55.50321388262539" lon="38.890546949584206"><ele>127.0</ele><time>2026-05-03T08:34:30.001Z</time></trkpt><trkpt lat="55.50318452967586" lon="38.8907105641499"><ele>127.00000000000001</ele><time>2026-05-03T08:34:31.001Z</time></trkpt><trkpt lat="55.503162280330045" lon="38.89084682404711"><ele>127.0</ele><time>2026-05-03T08:34:32.001Z</time></trkpt><trkpt lat="55.50314485845074" lon="38.89097646032158"><ele>127.0</ele><time>2026-05-03T08:34:33.001Z</time></trkpt><trkpt lat="55.50312336704091" lon="38.89111995616009"><ele>127.0</ele><time>2026-05-03T08:34:34.001Z</time></trkpt><trkpt lat="55.503105725680896" lon="38.891239577265694"><ele>127.00000000000001</ele><time>2026-05-03T08:34:35.001Z</time></trkpt><trkpt lat="55.503074275147775" lon="38.89142558777367"><ele>127.0</ele><time>2026-05-03T08:34:37.001Z</time></trkpt><trkpt lat="55.50305122243927" lon="38.89158786702213"><ele>127.33333333333334</ele><time>2026-05-03T08:34:39.001Z</time></trkpt><trkpt lat="55.503027676037256" lon="38.891756135910434"><ele>127.66666666666667</ele><time>2026-05-03T08:34:41.001Z</time></trkpt><trkpt lat="55.50300259859547" lon="38.891913548230285"><ele>128.0</ele><time>2026-05-03T08:34:43.001Z</time></trkpt><trkpt lat="55.50297489614097" lon="38.892110462762815"><ele>128.33333333333334</ele><time>2026-05-03T08:34:45.001Z</time></trkpt><trkpt lat="55.50294768208158" lon="38.89223965234131"><ele>128.66666666666666</ele><time>2026-05-03T08:34:47.001Z</time></trkpt><trkpt lat="55.50292296815478" lon="38.8923442066082"><ele>129.0</ele><time>2026-05-03T08:34:49.001Z</time></trkpt><trkpt lat="55.50290807859259" lon="38.89246666534089"><ele>127.80000000000001</ele><time>2026-05-03T08:34:51.001Z</time></trkpt><trkpt lat="55.502879896655536" lon="38.89258746302753"><ele>126.60000000000001</ele><time>2026-05-03T08:34:53.001Z</time></trkpt><trkpt lat="55.50284983868123" lon="38.89275647878928"><ele>125.4</ele><time>2026-05-03T08:34:54.001Z</time></trkpt><trkpt lat="55.50283175010028" lon="38.892965852783554"><ele>124.2</ele><time>2026-05-03T08:34:55.001Z</time></trkpt><trkpt lat="55.50280393359474" lon="38.89318753793872"><ele>123.0</ele><time>2026-05-03T08:34:56.001Z</time></trkpt><trkpt lat="55.50276968092074" lon="38.89335530987708"><ele>123.4</ele><time>2026-05-03T08:34:57.001Z</time></trkpt><trkpt lat="55.502746286688215" lon="38.893497442890165"><ele>123.80000000000001</ele><time>2026-05-03T08:34:58.001Z</time></trkpt><trkpt lat="55.5027119522195" lon="38.89367534836056"><ele>124.2</ele><time>2026-05-03T08:34:59.001Z</time></trkpt><trkpt lat="55.502665368221294" lon="38.89382382775355"><ele>124.6</ele><time>2026-05-03T08:35:00.001Z</time></trkpt><trkpt lat="55.50259100537199" lon="38.894016949631755"><ele>125.0</ele><time>2026-05-03T08:35:01.001Z</time></trkpt><trkpt lat="55.50249635925961" lon="38.89419937820045"><ele>125.0</ele><time>2026-05-03T08:35:02.001Z</time></trkpt><trkpt lat="55.50240036142517" lon="38.894394178702235"><ele>125.0</ele><time>2026-05-03T08:35:03.001Z</time></trkpt><trkpt lat="55.50230366908334" lon="38.89460667704205"><ele>125.0</ele><time>2026-05-03T08:35:04.001Z</time></trkpt><trkpt lat="55.502206091722286" lon="38.89478088302145"><ele>125.0</ele><time>2026-05-03T08:35:05.001Z</time></trkpt><trkpt lat="55.502073299914805" lon="38.895017245847384"><ele>125.75</ele><time>2026-05-03T08:35:06.001Z</time></trkpt><trkpt lat="55.50196722492696" lon="38.895227558158794"><ele>126.5</ele><time>2026-05-03T08:35:07.001Z</time></trkpt><trkpt lat="55.50186967822979" lon="38.89537491910193"><ele>127.25</ele><time>2026-05-03T08:35:08.001Z</time></trkpt><trkpt lat="55.50176686924213" lon="38.89556221027716"><ele>128.0</ele><time>2026-05-03T08:35:09.001Z</time></trkpt><trkpt lat="55.50167862271124" lon="38.89573197796433"><ele>128.0</ele><time>2026-05-03T08:35:10.001Z</time></trkpt><trkpt lat="55.50159595530989" lon="38.89591606492552"><ele>128.0</ele><time>2026-05-03T08:35:11.001Z</time></trkpt><trkpt lat="55.50152058214191" lon="38.89610122417848"><ele>128.0</ele><time>2026-05-03T08:35:12.001Z</time></trkpt><trkpt lat="55.501447563027256" lon="38.896292840763564"><ele>128.0</ele><time>2026-05-03T08:35:13.001Z</time></trkpt><trkpt lat="55.50140565540172" lon="38.89645230528987"><ele>127.75</ele><time>2026-05-03T08:35:14.001Z</time></trkpt><trkpt lat="55.501335572846145" lon="38.89659156147648"><ele>127.5</ele><time>2026-05-03T08:35:15.002Z</time></trkpt><trkpt lat="55.501220126927514" lon="38.89671470169828"><ele>127.25</ele><time>2026-05-03T08:35:16.001Z</time></trkpt><trkpt lat="55.50112190897925" lon="38.89684260868546"><ele>127.0</ele><time>2026-05-03T08:35:17.001Z</time></trkpt><trkpt lat="55.50104396896328" lon="38.89697162658376"><ele>126.0</ele><time>2026-05-03T08:35:18.001Z</time></trkpt><trkpt lat="55.500962522357476" lon="38.897158954722286"><ele>125.0</ele><time>2026-05-03T08:35:19.001Z</time></trkpt><trkpt lat="55.500867993166814" lon="38.897343850229376"><ele>124.0</ele><time>2026-05-03T08:35:20.001Z</time></trkpt><trkpt lat="55.500786224712314" lon="38.89747662128018"><ele>123.0</ele><time>2026-05-03T08:35:21.001Z</time></trkpt><trkpt lat="55.500713189923076" lon="38.89762703868534"><ele>122.5</ele><time>2026-05-03T08:35:22.001Z</time></trkpt><trkpt lat="55.50065480889427" lon="38.89779208988814"><ele>122.0</ele><time>2026-05-03T08:35:23.001Z</time></trkpt><trkpt lat="55.50058876449213" lon="38.89799726387142"><ele>121.5</ele><time>2026-05-03T08:35:24.001Z</time></trkpt><trkpt lat="55.50051245342219" lon="38.89820453460313"><ele>121.0</ele><time>2026-05-03T08:35:25.001Z</time></trkpt><trkpt lat="55.50042885324361" lon="38.8983806834697"><ele>120.5</ele><time>2026-05-03T08:35:26.001Z</time></trkpt><trkpt lat="55.50034233981568" lon="38.89854005019843"><ele>120.0</ele><time>2026-05-03T08:35:27.001Z</time></trkpt><trkpt lat="55.50024467968582" lon="38.89868428576719"><ele>119.5</ele><time>2026-05-03T08:35:28.001Z</time></trkpt><trkpt lat="55.50012212619231" lon="38.8987694649938"><ele>119.0</ele><time>2026-05-03T08:35:29.001Z</time></trkpt><trkpt lat="55.499981842076174" lon="38.89884598124087"><ele>119.0</ele><time>2026-05-03T08:35:30.001Z</time></trkpt><trkpt lat="55.49982264659454" lon="38.89894068281964"><ele>119.0</ele><time>2026-05-03T08:35:31.001Z</time></trkpt><trkpt lat="55.499666877311" lon="38.89904533782407"><ele>119.0</ele><time>2026-05-03T08:35:32.001Z</time></trkpt><trkpt lat="55.499505644974285" lon="38.89914329813993"><ele>119.66666666666666</ele><time>2026-05-03T08:35:33.001Z</time></trkpt><trkpt lat="55.49932642021626" lon="38.89927098505434"><ele>120.33333333333334</ele><time>2026-05-03T08:35:34.001Z</time></trkpt><trkpt lat="55.499144892212854" lon="38.89941030288547"><ele>121.0</ele><time>2026-05-03T08:35:35.001Z</time></trkpt><trkpt lat="55.49897148124987" lon="38.89953578231773"><ele>121.0</ele><time>2026-05-03T08:35:36.001Z</time></trkpt><trkpt lat="55.49877990994102" lon="38.89965675319126"><ele>121.0</ele><time>2026-05-03T08:35:37.001Z</time></trkpt><trkpt lat="55.498595448339515" lon="38.89978729484479"><ele>121.0</ele><time>2026-05-03T08:35:38.001Z</time></trkpt><trkpt lat="55.4983998579682" lon="38.899922990340606"><ele>120.33333333333334</ele><time>2026-05-03T08:35:38.999Z</time></trkpt><trkpt lat="55.49821502989181" lon="38.90004613906846"><ele>119.66666666666666</ele><time>2026-05-03T08:35:39.999Z</time></trkpt><trkpt lat="55.49806284082989" lon="38.90015583316371"><ele>119.0</ele><time>2026-05-03T08:35:40.999Z</time></trkpt><trkpt lat="55.49792272992139" lon="38.90024603146609"><ele>118.66666666666666</ele><time>2026-05-03T08:35:41.999Z</time></trkpt><trkpt lat="55.49781826344157" lon="38.90031955498318"><ele>118.33333333333333</ele><time>2026-05-03T08:35:42.999Z</time></trkpt><trkpt lat="55.497744565015644" lon="38.900371627247786"><ele>118.0</ele><time>2026-05-03T08:35:43.999Z</time></trkpt><trkpt lat="55.49766365256114" lon="38.90041836935686"><ele>117.66666666666666</ele><time>2026-05-03T08:35:45.999Z</time></trkpt><trkpt lat="55.49760684618193" lon="38.900470717977115"><ele>117.33333333333333</ele><time>2026-05-03T08:35:46.999Z</time></trkpt><trkpt lat="55.49756442942569" lon="38.90055974635921"><ele>117.0</ele><time>2026-05-03T08:35:48.999Z</time></trkpt><trkpt lat="55.49752283054568" lon="38.90065225515183"><ele>117.0</ele><time>2026-05-03T08:37:00Z</time></trkpt><trkpt lat="55.497428931528" lon="38.900717109706235"><ele>116.99999999999999</ele><time>2026-05-03T08:37:02.001Z</time></trkpt><trkpt lat="55.49734015492721" lon="38.90079485794101"><ele>116.99999999999999</ele><time>2026-05-03T08:37:04.001Z</time></trkpt><trkpt lat="55.49726043772305" lon="38.90085846833533"><ele>117.0</ele><time>2026-05-03T08:37:06.001Z</time></trkpt><trkpt lat="55.49715094387463" lon="38.90091878072344"><ele>117.0</ele><time>2026-05-03T08:37:08.001Z</time></trkpt><trkpt lat="55.4970292719305" lon="38.900950865901336"><ele>117.33333333333333</ele><time>2026-05-03T08:37:10.001Z</time></trkpt><trkpt lat="55.496959106402116" lon="38.90099369231645"><ele>117.66666666666666</ele><time>2026-05-03T08:37:11.001Z</time></trkpt><trkpt lat="55.49689163160616" lon="38.901050290391396"><ele>118.0</ele><time>2026-05-03T08:37:12.001Z</time></trkpt><trkpt lat="55.496826607245744" lon="38.90110893035565"><ele>118.33333333333333</ele><time>2026-05-03T08:37:13.001Z</time></trkpt><trkpt lat="55.49673081315249" lon="38.90120189938239"><ele>118.66666666666666</ele><time>2026-05-03T08:37:15.001Z</time></trkpt><trkpt lat="55.496656426918754" lon="38.90125042929464"><ele>119.0</ele><time>2026-05-03T08:37:16.001Z</time></trkpt><trkpt lat="55.496562709367666" lon="38.90129951414772"><ele>119.0</ele><time>2026-05-03T08:37:18.001Z</time></trkpt><trkpt lat="55.49647520071446" lon="38.9013810381928"><ele>119.0</ele><time>2026-05-03T08:37:20.001Z</time></trkpt><trkpt lat="55.49639358253041" lon="38.90143428906713"><ele>119.0</ele><time>2026-05-03T08:37:47Z</time></trkpt><trkpt lat="55.496317249934386" lon="38.90147179948091"><ele>119.0</ele><time>2026-05-03T08:37:49Z</time></trkpt><trkpt lat="55.49620561584432" lon="38.90155495343471"><ele>119.0</ele><time>2026-05-03T08:37:51Z</time></trkpt><trkpt lat="55.496087931029635" lon="38.901654451210256"><ele>118.99999999999999</ele><time>2026-05-03T08:37:53Z</time></trkpt><trkpt lat="55.496016639583715" lon="38.901718291738824"><ele>119.0</ele><time>2026-05-03T08:37:54Z</time></trkpt><trkpt lat="55.49596079352858" lon="38.901774042267085"><ele>119.0</ele><time>2026-05-03T08:37:55Z</time></trkpt><trkpt lat="55.495896924788426" lon="38.901801563876404"><ele>119.0</ele><time>2026-05-03T08:37:56Z</time></trkpt><trkpt lat="55.49582939875388" lon="38.90184927615744"><ele>118.99999999999999</ele><time>2026-05-03T08:37:57Z</time></trkpt><trkpt lat="55.49573589997898" lon="38.901944564842836"><ele>119.0</ele><time>2026-05-03T08:37:59Z</time></trkpt><trkpt lat="55.49566560472313" lon="38.90198654642923"><ele>118.99999999999999</ele><time>2026-05-03T08:38:00Z</time></trkpt><trkpt lat="55.49559660071844" lon="38.90201233316103"><ele>119.0</ele><time>2026-05-03T08:38:01Z</time></trkpt><trkpt lat="55.495511321173886" lon="38.90208769791103"><ele>119.0</ele><time>2026-05-03T08:38:02Z</time></trkpt><trkpt lat="55.495434153520314" lon="38.90214612075941"><ele>119.0</ele><time>2026-05-03T08:38:03Z</time></trkpt><trkpt lat="55.4953687339682" lon="38.90221033164822"><ele>118.99999999999999</ele><time>2026-05-03T08:38:04Z</time></trkpt><trkpt lat="55.495283295158195" lon="38.902282434087205"><ele>119.0</ele><time>2026-05-03T08:38:05Z</time></trkpt><trkpt lat="55.49520427045342" lon="38.90234534340172"><ele>119.33333333333333</ele><time>2026-05-03T08:38:07Z</time></trkpt><trkpt lat="55.49513687388983" lon="38.902409339242766"><ele>119.66666666666666</ele><time>2026-05-03T08:38:08Z</time></trkpt><trkpt lat="55.49504987895044" lon="38.902451779017646"><ele>120.0</ele><time>2026-05-03T08:38:09Z</time></trkpt><trkpt lat="55.49498828238829" lon="38.90250395232251"><ele>120.33333333333334</ele><time>2026-05-03T08:38:10Z</time></trkpt><trkpt lat="55.494920014925384" lon="38.90254404076825"><ele>120.66666666666667</ele><time>2026-05-03T08:38:11Z</time></trkpt><trkpt lat="55.49483395482623" lon="38.90261015492599"><ele>121.0</ele><time>2026-05-03T08:38:12Z</time></trkpt><trkpt lat="55.49475604530321" lon="38.90267719008778"><ele>121.0</ele><time>2026-05-03T08:38:13Z</time></trkpt><trkpt lat="55.494664398290936" lon="38.90270578082426"><ele>121.0</ele><time>2026-05-03T08:38:15Z</time></trkpt><trkpt lat="55.494554870510946" lon="38.902706102235285"><ele>121.0</ele><time>2026-05-03T08:38:17Z</time></trkpt><trkpt lat="55.49443515729722" lon="38.902773123567805"><ele>121.0</ele><time>2026-05-03T08:38:18Z</time></trkpt><trkpt lat="55.49431387582682" lon="38.90285623898113"><ele>121.0</ele><time>2026-05-03T08:38:19Z</time></trkpt><trkpt lat="55.49417822784199" lon="38.90294836524529"><ele>121.0</ele><time>2026-05-03T08:38:20Z</time></trkpt><trkpt lat="55.494017856905415" lon="38.903047809476085"><ele>121.0</ele><time>2026-05-03T08:38:21Z</time></trkpt><trkpt lat="55.49388989965335" lon="38.90314689478104"><ele>121.00000000000001</ele><time>2026-05-03T08:38:22Z</time></trkpt><trkpt lat="55.493815343629606" lon="38.903212997162164"><ele>121.0</ele><time>2026-05-03T08:38:23Z</time></trkpt><trkpt lat="55.493750557943656" lon="38.903262489641875"><ele>121.0</ele><time>2026-05-03T08:38:24Z</time></trkpt><trkpt lat="55.49368809321014" lon="38.903325285957585"><ele>121.0</ele><time>2026-05-03T08:38:25Z</time></trkpt><trkpt lat="55.493608453456055" lon="38.9033514155373"><ele>121.00000000000001</ele><time>2026-05-03T08:38:27Z</time></trkpt><trkpt lat="55.49355737785605" lon="38.90346206635821"><ele>121.0</ele><time>2026-05-03T08:38:29Z</time></trkpt><trkpt lat="55.49344492834661" lon="38.903521191296"><ele>121.50000000000001</ele><time>2026-05-03T08:38:31Z</time></trkpt><trkpt lat="55.49336994466497" lon="38.90347188255926"><ele>122.0</ele><time>2026-05-03T08:38:33Z</time></trkpt><trkpt lat="55.493300538501515" lon="38.903585919192146"><ele>122.5</ele><time>2026-05-03T08:38:35Z</time></trkpt><trkpt lat="55.493239563979635" lon="38.90363780274148"><ele>123.0</ele><time>2026-05-03T08:38:37.001Z</time></trkpt><trkpt lat="55.49317439651596" lon="38.90368705317951"><ele>123.50000000000001</ele><time>2026-05-03T08:38:38.001Z</time></trkpt><trkpt lat="55.493100573013926" lon="38.90373316873725"><ele>124.0</ele><time>2026-05-03T08:38:39.001Z</time></trkpt><trkpt lat="55.493019016851875" lon="38.90379565530662"><ele>124.0</ele><time>2026-05-03T08:38:40.001Z</time></trkpt><trkpt lat="55.492942310945296" lon="38.90385501052923"><ele>124.0</ele><time>2026-05-03T08:38:41.001Z</time></trkpt><trkpt lat="55.492855773386985" lon="38.903910985544485"><ele>124.0</ele><time>2026-05-03T08:38:42.001Z</time></trkpt><trkpt lat="55.49275968414029" lon="38.90397317070067"><ele>124.0</ele><time>2026-05-03T08:38:43.001Z</time></trkpt><trkpt lat="55.49266312216829" lon="38.904047343229955"><ele>124.0</ele><time>2026-05-03T08:38:44.001Z</time></trkpt><trkpt lat="55.4925580776912" lon="38.90413353836858"><ele>124.0</ele><time>2026-05-03T08:38:45.001Z</time></trkpt><trkpt lat="55.492448380210675" lon="38.90421024437519"><ele>124.0</ele><time>2026-05-03T08:38:46.001Z</time></trkpt><trkpt lat="55.492329323176115" lon="38.90430339527598"><ele>124.0</ele><time>2026-05-03T08:38:47.001Z</time></trkpt><trkpt lat="55.492195827154966" lon="38.904402807274494"><ele>124.0</ele><time>2026-05-03T08:38:48.001Z</time></trkpt><trkpt lat="55.49207405037064" lon="38.904493763633944"><ele>124.0</ele><time>2026-05-03T08:38:49.001Z</time></trkpt><trkpt lat="55.49193116763304" lon="38.90460539578605"><ele>124.0</ele><time>2026-05-03T08:38:50.001Z</time></trkpt><trkpt lat="55.49180150866856" lon="38.90470088126875"><ele>124.0</ele><time>2026-05-03T08:38:51.001Z</time></trkpt><trkpt lat="55.491679789551306" lon="38.904814735628186"><ele>124.0</ele><time>2026-05-03T08:38:52.001Z</time></trkpt><trkpt lat="55.49153680675571" lon="38.90491750513282"><ele>124.0</ele><time>2026-05-03T08:38:53.001Z</time></trkpt><trkpt lat="55.4913893648303" lon="38.90500979282938"><ele>124.0</ele><time>2026-05-03T08:38:54.001Z</time></trkpt><trkpt lat="55.49124941643321" lon="38.90512613721899"><ele>124.0</ele><time>2026-05-03T08:38:55.001Z</time></trkpt><trkpt lat="55.49111194238786" lon="38.905238733784095"><ele>124.25</ele><time>2026-05-03T08:38:56.001Z</time></trkpt><trkpt lat="55.49097302806578" lon="38.90535773886259"><ele>124.5</ele><time>2026-05-03T08:38:57.001Z</time></trkpt><trkpt lat="55.490845867539036" lon="38.90547524848138"><ele>124.75</ele><time>2026-05-03T08:38:58.001Z</time></trkpt><trkpt lat="55.49072621997394" lon="38.90555904619486"><ele>125.0</ele><time>2026-05-03T08:38:59.001Z</time></trkpt><trkpt lat="55.49059287752456" lon="38.90567055364527"><ele>125.0</ele><time>2026-05-03T08:39:00.001Z</time></trkpt><trkpt lat="55.49045522085009" lon="38.90578988096832"><ele>125.0</ele><time>2026-05-03T08:39:01.001Z</time></trkpt><trkpt lat="55.49032525449674" lon="38.905901752376316"><ele>125.0</ele><time>2026-05-03T08:39:02.001Z</time></trkpt><trkpt lat="55.49019522673487" lon="38.906007595024995"><ele>125.0</ele><time>2026-05-03T08:39:03.001Z</time></trkpt><trkpt lat="55.49007178278721" lon="38.906117207402396"><ele>124.75</ele><time>2026-05-03T08:39:04.001Z</time></trkpt><trkpt lat="55.489951981764094" lon="38.90623092283649"><ele>124.5</ele><time>2026-05-03T08:39:05.001Z</time></trkpt><trkpt lat="55.489826027657976" lon="38.90633328232004"><ele>124.25</ele><time>2026-05-03T08:39:06.001Z</time></trkpt><trkpt lat="55.489701939755804" lon="38.906447515899096"><ele>124.0</ele><time>2026-05-03T08:39:07.001Z</time></trkpt><trkpt lat="55.48957877093517" lon="38.906569358247275"><ele>124.0</ele><time>2026-05-03T08:39:08.001Z</time></trkpt><trkpt lat="55.48944983726766" lon="38.90664272789515"><ele>124.0</ele><time>2026-05-03T08:39:09.001Z</time></trkpt><trkpt lat="55.4893092949605" lon="38.906747520810725"><ele>124.0</ele><time>2026-05-03T08:39:10.001Z</time></trkpt><trkpt lat="55.48919315223936" lon="38.906837503325946"><ele>124.0</ele><time>2026-05-03T08:39:11.001Z</time></trkpt><trkpt lat="55.489103504003126" lon="38.90693208418896"><ele>124.0</ele><time>2026-05-03T08:39:12.001Z</time></trkpt><trkpt lat="55.4890152333957" lon="38.90703014896687"><ele>124.0</ele><time>2026-05-03T08:39:13.001Z</time></trkpt><trkpt lat="55.488904750295724" lon="38.90711175812837"><ele>124.0</ele><time>2026-05-03T08:39:14.001Z</time></trkpt><trkpt lat="55.48878386809416" lon="38.90721971103172"><ele>124.0</ele><time>2026-05-03T08:39:15.001Z</time></trkpt><trkpt lat="55.488691514591665" lon="38.90734255428733"><ele>124.25</ele><time>2026-05-03T08:39:16.001Z</time></trkpt><trkpt lat="55.488576603487196" lon="38.90746488989353"><ele>124.5</ele><time>2026-05-03T08:39:17.001Z</time></trkpt><trkpt lat="55.48848196328522" lon="38.90757254575593"><ele>124.75</ele><time>2026-05-03T08:39:18.001Z</time></trkpt><trkpt lat="55.48837308837064" lon="38.907660919808336"><ele>125.0</ele><time>2026-05-03T08:39:19.001Z</time></trkpt><trkpt lat="55.4882726089576" lon="38.90775879258203"><ele>125.0</ele><time>2026-05-03T08:39:20.001Z</time></trkpt><trkpt lat="55.48807496407303" lon="38.90787781676927"><ele>125.0</ele><time>2026-05-03T08:39:21.001Z</time></trkpt><trkpt lat="55.4879425321001" lon="38.90798785437737"><ele>125.0</ele><time>2026-05-03T08:39:22.001Z</time></trkpt><trkpt lat="55.48782063803852" lon="38.90808731324812"><ele>124.99999999999999</ele><time>2026-05-03T08:39:23.001Z</time></trkpt><trkpt lat="55.48772867973165" lon="38.908175995509545"><ele>125.0</ele><time>2026-05-03T08:39:24.001Z</time></trkpt><trkpt lat="55.48764585664205" lon="38.908246830773635"><ele>125.0</ele><time>2026-05-03T08:39:25.001Z</time></trkpt><trkpt lat="55.487579490646496" lon="38.90829280157138"><ele>125.0</ele><time>2026-05-03T08:39:26.001Z</time></trkpt><trkpt lat="55.4874798799807" lon="38.90837798422484"><ele>124.99999999999999</ele><time>2026-05-03T08:39:28.001Z</time></trkpt><trkpt lat="55.487415821427064" lon="38.908418901941815"><ele>125.0</ele><time>2026-05-03T08:39:30.001Z</time></trkpt><trkpt lat="55.487297926886875" lon="38.908408930355726"><ele>124.8</ele><time>2026-05-03T08:40:46.001Z</time></trkpt><trkpt lat="55.487238093118286" lon="38.90845865374017"><ele>124.6</ele><time>2026-05-03T08:40:47.001Z</time></trkpt><trkpt lat="55.487183949428356" lon="38.90856634121418"><ele>124.4</ele><time>2026-05-03T08:40:48.001Z</time></trkpt><trkpt lat="55.4871115592369" lon="38.90868068799895"><ele>124.2</ele><time>2026-05-03T08:40:49.001Z</time></trkpt><trkpt lat="55.48702609733192" lon="38.90878675566762"><ele>124.0</ele><time>2026-05-03T08:40:50.001Z</time></trkpt><trkpt lat="55.48692436133234" lon="38.90888618745699"><ele>124.0</ele><time>2026-05-03T08:40:51.001Z</time></trkpt><trkpt lat="55.48679965137306" lon="38.90899601253067"><ele>124.0</ele><time>2026-05-03T08:40:52.001Z</time></trkpt><trkpt lat="55.486671386220095" lon="38.9091072761366"><ele>124.0</ele><time>2026-05-03T08:40:53.001Z</time></trkpt><trkpt lat="55.4865553029718" lon="38.90921935773513"><ele>124.0</ele><time>2026-05-03T08:40:54.001Z</time></trkpt><trkpt lat="55.48641805998804" lon="38.90933353424803"><ele>123.0</ele><time>2026-05-03T08:40:55.001Z</time></trkpt><trkpt lat="55.486252555544546" lon="38.909426623994634"><ele>122.0</ele><time>2026-05-03T08:40:56.001Z</time></trkpt><trkpt lat="55.48605738090683" lon="38.909500900946306"><ele>121.0</ele><time>2026-05-03T08:40:57.001Z</time></trkpt><trkpt lat="55.4858463799284" lon="38.90959761567318"><ele>121.0</ele><time>2026-05-03T08:40:58.001Z</time></trkpt><trkpt lat="55.485896671148566" lon="38.9096781231872"><ele>121.0</ele><time>2026-05-03T08:40:59.001Z</time></trkpt><trkpt lat="55.485794735208614" lon="38.90976806253132"><ele>121.0</ele><time>2026-05-03T08:41:00.001Z</time></trkpt><trkpt lat="55.48569335981938" lon="38.90983726043561"><ele>121.0</ele><time>2026-05-03T08:41:01.001Z</time></trkpt><trkpt lat="55.48559839100834" lon="38.909894444469344"><ele>121.0</ele><time>2026-05-03T08:41:02.001Z</time></trkpt><trkpt lat="55.485500775434865" lon="38.90996064089979"><ele>120.75</ele><time>2026-05-03T08:41:03.001Z</time></trkpt><trkpt lat="55.48539737267837" lon="38.910007462722504"><ele>120.5</ele><time>2026-05-03T08:41:04.001Z</time></trkpt><trkpt lat="55.48528414751725" lon="38.9100833933165"><ele>120.25</ele><time>2026-05-03T08:41:05.001Z</time></trkpt><trkpt lat="55.485164084074434" lon="38.910147514376696"><ele>120.0</ele><time>2026-05-03T08:41:06.001Z</time></trkpt><trkpt lat="55.48504373417928" lon="38.91023583636054"><ele>120.0</ele><time>2026-05-03T08:41:07.001Z</time></trkpt><trkpt lat="55.4849114027527" lon="38.91035708487202"><ele>120.0</ele><time>2026-05-03T08:41:08.001Z</time></trkpt><trkpt lat="55.484782402070145" lon="38.910447995882485"><ele>120.0</ele><time>2026-05-03T08:41:09.001Z</time></trkpt><trkpt lat="55.48464730461146" lon="38.91054104440631"><ele>120.0</ele><time>2026-05-03T08:41:10.001Z</time></trkpt><trkpt lat="55.48452252804721" lon="38.91062167874747"><ele>119.75</ele><time>2026-05-03T08:41:11.001Z</time></trkpt><trkpt lat="55.48440526559593" lon="38.91069923482676"><ele>119.5</ele><time>2026-05-03T08:41:12.001Z</time></trkpt><trkpt lat="55.48429888812127" lon="38.910782956624665"><ele>119.25</ele><time>2026-05-03T08:41:13.001Z</time></trkpt><trkpt lat="55.48419398166681" lon="38.91086454797578"><ele>119.0</ele><time>2026-05-03T08:41:14.001Z</time></trkpt><trkpt lat="55.484084363239184" lon="38.910953532428735"><ele>119.0</ele><time>2026-05-03T08:41:15.001Z</time></trkpt><trkpt lat="55.48397331145992" lon="38.91106084128265"><ele>119.0</ele><time>2026-05-03T08:41:16.001Z</time></trkpt><trkpt lat="55.483859508080535" lon="38.91120252903726"><ele>119.0</ele><time>2026-05-03T08:41:17.001Z</time></trkpt><trkpt lat="55.48373719982075" lon="38.91131877316"><ele>119.0</ele><time>2026-05-03T08:41:18.001Z</time></trkpt><trkpt lat="55.48361100806182" lon="38.91146557832226"><ele>119.25</ele><time>2026-05-03T08:41:19.001Z</time></trkpt><trkpt lat="55.4834779346539" lon="38.91162458810693"><ele>119.5</ele><time>2026-05-03T08:41:20.001Z</time></trkpt><trkpt lat="55.48335010692286" lon="38.91176544669726"><ele>119.75</ele><time>2026-05-03T08:41:21.001Z</time></trkpt><trkpt lat="55.48323270708279" lon="38.91188087454706"><ele>120.0</ele><time>2026-05-03T08:41:22.001Z</time></trkpt><trkpt lat="55.48312896169561" lon="38.91197741550507"><ele>120.0</ele><time>2026-05-03T08:41:23.001Z</time></trkpt><trkpt lat="55.48303737179743" lon="38.91206325475557"><ele>120.0</ele><time>2026-05-03T08:41:24.001Z</time></trkpt><trkpt lat="55.482840974616046" lon="38.912241039670185"><ele>120.0</ele><time>2026-05-03T08:41:26.001Z</time></trkpt><trkpt lat="55.482749666251244" lon="38.91232657928981"><ele>120.0</ele><time>2026-05-03T08:41:27.001Z</time></trkpt><trkpt lat="55.4826776004391" lon="38.91239905197369"><ele>120.0</ele><time>2026-05-03T08:41:28.001Z</time></trkpt><trkpt lat="55.48260909298437" lon="38.912457041579046"><ele>120.0</ele><time>2026-05-03T08:41:29.001Z</time></trkpt><trkpt lat="55.48254466499626" lon="38.912505081376906"><ele>120.0</ele><time>2026-05-03T08:41:30.001Z</time></trkpt><trkpt lat="55.48247255944089" lon="38.912600038317905"><ele>120.0</ele><time>2026-05-03T08:41:32.002Z</time></trkpt><trkpt lat="55.48242363412182" lon="38.9126735422718"><ele>120.0</ele><time>2026-05-03T08:41:33.002Z</time></trkpt><trkpt lat="55.48236670800321" lon="38.912737842600606"><ele>120.0</ele><time>2026-05-03T08:41:34.002Z</time></trkpt><trkpt lat="55.482276894480144" lon="38.912927393397055"><ele>120.0</ele><time>2026-05-03T08:41:35.002Z</time></trkpt><trkpt lat="55.48218286453709" lon="38.91302693875764"><ele>120.0</ele><time>2026-05-03T08:41:36.002Z</time></trkpt><trkpt lat="55.482091661899204" lon="38.913136747173844"><ele>120.0</ele><time>2026-05-03T08:41:37.002Z</time></trkpt><trkpt lat="55.48197287023575" lon="38.91325050975159"><ele>120.0</ele><time>2026-05-03T08:41:38.002Z</time></trkpt><trkpt lat="55.48189152577147" lon="38.913341671629595"><ele>120.0</ele><time>2026-05-03T08:41:39.002Z</time></trkpt><trkpt lat="55.48178030790153" lon="38.91345069240607"><ele>120.0</ele><time>2026-05-03T08:41:41.002Z</time></trkpt><trkpt lat="55.48170970916919" lon="38.913523646624526"><ele>120.0</ele><time>2026-05-03T08:41:42.002Z</time></trkpt><trkpt lat="55.481648626700085" lon="38.9135971048667"><ele>120.0</ele><time>2026-05-03T08:41:43.002Z</time></trkpt><trkpt lat="55.48158754095369" lon="38.91369726059774"><ele>120.0</ele><time>2026-05-03T08:41:44.002Z</time></trkpt><trkpt lat="55.48153298480216" lon="38.91379026397168"><ele>120.0</ele><time>2026-05-03T08:41:45.002Z</time></trkpt><trkpt lat="55.48144279717312" lon="38.91384695562616"><ele>120.0</ele><time>2026-05-03T08:41:46.002Z</time></trkpt><trkpt lat="55.4813451541363" lon="38.91391314236291"><ele>120.0</ele><time>2026-05-03T08:41:47.002Z</time></trkpt><trkpt lat="55.481276508776006" lon="38.91397248504049"><ele>120.0</ele><time>2026-05-03T08:41:48.002Z</time></trkpt><trkpt lat="55.48120484338479" lon="38.91405847559014"><ele>120.0</ele><time>2026-05-03T08:41:49.002Z</time></trkpt><trkpt lat="55.481105715901684" lon="38.91418785496585"><ele>120.0</ele><time>2026-05-03T08:41:50.002Z</time></trkpt><trkpt lat="55.48102011789215" lon="38.914291694407794"><ele>120.2</ele><time>2026-05-03T08:41:51.002Z</time></trkpt><trkpt lat="55.480943471003506" lon="38.91437916652713"><ele>120.4</ele><time>2026-05-03T08:41:52.002Z</time></trkpt><trkpt lat="55.480854147516354" lon="38.91447466935156"><ele>120.6</ele><time>2026-05-03T08:41:53.002Z</time></trkpt><trkpt lat="55.480757732674945" lon="38.91455774395404"><ele>120.8</ele><time>2026-05-03T08:41:54.002Z</time></trkpt><trkpt lat="55.48069029059792" lon="38.91462011785272"><ele>121.0</ele><time>2026-05-03T08:41:55.002Z</time></trkpt><trkpt lat="55.48061533593842" lon="38.91469929916701"><ele>121.0</ele><time>2026-05-03T08:41:56.002Z</time></trkpt><trkpt lat="55.48052916177001" lon="38.91476779136769"><ele>121.0</ele><time>2026-05-03T08:41:57.001Z</time></trkpt><trkpt lat="55.48043249191082" lon="38.9148540769544"><ele>121.0</ele><time>2026-05-03T08:41:58.001Z</time></trkpt><trkpt lat="55.480344362932556" lon="38.91492570486956"><ele>121.0</ele><time>2026-05-03T08:41:59.001Z</time></trkpt><trkpt lat="55.48022473776796" lon="38.91502389373463"><ele>121.0</ele><time>2026-05-03T08:42:01.001Z</time></trkpt><trkpt lat="55.48016477878829" lon="38.91506581472258"><ele>120.83333333333334</ele><time>2026-05-03T08:42:02.001Z</time></trkpt><trkpt lat="55.48009660015276" lon="38.91511908084029"><ele>120.66666666666667</ele><time>2026-05-03T08:42:03.001Z</time></trkpt><trkpt lat="55.4800241577226" lon="38.915182156410175"><ele>120.5</ele><time>2026-05-03T08:42:04.001Z</time></trkpt><trkpt lat="55.47995816680282" lon="38.91526332471138"><ele>120.33333333333334</ele><time>2026-05-03T08:42:05.001Z</time></trkpt><trkpt lat="55.47989076555138" lon="38.9153619903135"><ele>120.16666666666667</ele><time>2026-05-03T08:42:06.001Z</time></trkpt><trkpt lat="55.479817456552304" lon="38.91543110025168"><ele>120.0</ele><time>2026-05-03T08:42:07.001Z</time></trkpt><trkpt lat="55.479753180909285" lon="38.91545923023676"><ele>120.0</ele><time>2026-05-03T08:42:08.001Z</time></trkpt><trkpt lat="55.47965757450881" lon="38.91552284387041"><ele>120.0</ele><time>2026-05-03T08:42:09.001Z</time></trkpt><trkpt lat="55.4795615843893" lon="38.9155716140567"><ele>120.0</ele><time>2026-05-03T08:42:10.001Z</time></trkpt><trkpt lat="55.47949170647886" lon="38.91562045241373"><ele>120.0</ele><time>2026-05-03T08:42:11.001Z</time></trkpt><trkpt lat="55.47940960878144" lon="38.91568774518054"><ele>120.0</ele><time>2026-05-03T08:42:12.001Z</time></trkpt><trkpt lat="55.479318851783006" lon="38.915795553677185"><ele>120.0</ele><time>2026-05-03T08:42:13.001Z</time></trkpt><trkpt lat="55.47924049055148" lon="38.91586427189468"><ele>120.0</ele><time>2026-05-03T08:42:14.001Z</time></trkpt><trkpt lat="55.479173932453165" lon="38.91592757197935"><ele>120.0</ele><time>2026-05-03T08:42:15.001Z</time></trkpt><trkpt lat="55.479104303450384" lon="38.915962946199386"><ele>120.0</ele><time>2026-05-03T08:42:16.001Z</time></trkpt><trkpt lat="55.47905298302771" lon="38.916062597271114"><ele>120.0</ele><time>2026-05-03T08:42:27.001Z</time></trkpt><trkpt lat="55.47898639436894" lon="38.916149739577136"><ele>120.0</ele><time>2026-05-03T08:42:28.001Z</time></trkpt><trkpt lat="55.47886066658267" lon="38.916234288965434"><ele>120.0</ele><time>2026-05-03T08:42:29.001Z</time></trkpt><trkpt lat="55.47872865093186" lon="38.91632904089817"><ele>120.0</ele><time>2026-05-03T08:42:30.001Z</time></trkpt><trkpt lat="55.478627091554465" lon="38.916395334890964"><ele>120.0</ele><time>2026-05-03T08:42:31.001Z</time></trkpt><trkpt lat="55.478525563070626" lon="38.91638888410221"><ele>120.0</ele><time>2026-05-03T08:42:33.001Z</time></trkpt><trkpt lat="55.47846793606738" lon="38.91631855085117"><ele>120.0</ele><time>2026-05-03T08:42:34.001Z</time></trkpt><trkpt lat="55.47842405026696" lon="38.91622691541802"><ele>120.0</ele><time>2026-05-03T08:42:35.001Z</time></trkpt><trkpt lat="55.47838627843821" lon="38.91613035122101"><ele>120.0</ele><time>2026-05-03T08:42:36.001Z</time></trkpt><trkpt lat="55.47830209199739" lon="38.91604638471666"><ele>120.0</ele><time>2026-05-03T08:42:38.001Z</time></trkpt><trkpt lat="55.47819463918856" lon="38.916118046461605"><ele>120.0</ele><time>2026-05-03T08:42:40.001Z</time></trkpt><trkpt lat="55.478147555616374" lon="38.91619258205934"><ele>120.0</ele><time>2026-05-03T08:42:41.001Z</time></trkpt><trkpt lat="55.478117441511614" lon="38.91630070489231"><ele>120.0</ele><time>2026-05-03T08:42:42.001Z</time></trkpt><trkpt lat="55.47808370136151" lon="38.91641424085944"><ele>120.0</ele><time>2026-05-03T08:42:43.001Z</time></trkpt><trkpt lat="55.47803738905795" lon="38.91652778699074"><ele>120.0</ele><time>2026-05-03T08:42:44.001Z</time></trkpt><trkpt lat="55.477995515901476" lon="38.91661632502835"><ele>120.0</ele><time>2026-05-03T08:42:45.001Z</time></trkpt><trkpt lat="55.47792859501919" lon="38.91675203625859"><ele>120.0</ele><time>2026-05-03T08:42:46.001Z</time></trkpt><trkpt lat="55.47785545780552" lon="38.91685027942299"><ele>120.0</ele><time>2026-05-03T08:42:47.001Z</time></trkpt><trkpt lat="55.47777890688041" lon="38.91696047963893"><ele>120.0</ele><time>2026-05-03T08:42:48.001Z</time></trkpt><trkpt lat="55.47770034392334" lon="38.91705351827868"><ele>119.8</ele><time>2026-05-03T08:42:49.001Z</time></trkpt><trkpt lat="55.47761543754239" lon="38.9171561350068"><ele>119.6</ele><time>2026-05-03T08:42:51.001Z</time></trkpt><trkpt lat="55.47749540368309" lon="38.91712205563843"><ele>119.4</ele><time>2026-05-03T08:42:53.001Z</time></trkpt><trkpt lat="55.477441892835934" lon="38.91703964638347"><ele>119.2</ele><time>2026-05-03T08:42:54.001Z</time></trkpt><trkpt lat="55.47739909739851" lon="38.916934234838905"><ele>119.0</ele><time>2026-05-03T08:42:55.001Z</time></trkpt><trkpt lat="55.477346509998604" lon="38.91677641368486"><ele>119.4</ele><time>2026-05-03T08:42:57.001Z</time></trkpt><trkpt lat="55.4772853065552" lon="38.916557364350936"><ele>119.80000000000001</ele><time>2026-05-03T08:42:59.001Z</time></trkpt><trkpt lat="55.477279462359476" lon="38.91641615606274"><ele>120.19999999999999</ele><time>2026-05-03T08:43:00.001Z</time></trkpt><trkpt lat="55.47727925803614" lon="38.91628742016498"><ele>120.6</ele><time>2026-05-03T08:43:01.001Z</time></trkpt><trkpt lat="55.477275216465856" lon="38.916131777913954"><ele>121.0</ele><time>2026-05-03T08:43:02.001Z</time></trkpt><trkpt lat="55.47726705499769" lon="38.915969924151135"><ele>121.16666666666667</ele><time>2026-05-03T08:43:03.001Z</time></trkpt><trkpt lat="55.477261483114034" lon="38.915798891505816"><ele>121.33333333333334</ele><time>2026-05-03T08:43:04.001Z</time></trkpt><trkpt lat="55.477251156490155" lon="38.91565646797797"><ele>121.5</ele><time>2026-05-03T08:43:05.001Z</time></trkpt><trkpt lat="55.4772390535427" lon="38.915489423108916"><ele>121.66666666666666</ele><time>2026-05-03T08:43:06.001Z</time></trkpt><trkpt lat="55.47724500794341" lon="38.91536824569984"><ele>121.83333333333333</ele><time>2026-05-03T08:43:07.001Z</time></trkpt><trkpt lat="55.47722137281244" lon="38.91523459774096"><ele>122.0</ele><time>2026-05-03T08:43:08.001Z</time></trkpt><trkpt lat="55.477207393833375" lon="38.91509277216669"><ele>121.99999999999999</ele><time>2026-05-03T08:43:09.001Z</time></trkpt><trkpt lat="55.47719533297493" lon="38.91497769763701"><ele>122.0</ele><time>2026-05-03T08:43:10.001Z</time></trkpt><trkpt lat="55.47718222884588" lon="38.91484844217819"><ele>122.0</ele><time>2026-05-03T08:43:11.002Z</time></trkpt><trkpt lat="55.47716617788774" lon="38.9147110157936"><ele>122.0</ele><time>2026-05-03T08:43:12.002Z</time></trkpt><trkpt lat="55.47715053453829" lon="38.914555529714484"><ele>121.99999999999999</ele><time>2026-05-03T08:43:13.002Z</time></trkpt><trkpt lat="55.47711887320405" lon="38.91444224660694"><ele>122.0</ele><time>2026-05-03T08:43:14.002Z</time></trkpt><trkpt lat="55.47709625911763" lon="38.914300387341854"><ele>121.8</ele><time>2026-05-03T08:43:15.002Z</time></trkpt><trkpt lat="55.47707143206007" lon="38.91414744936584"><ele>121.6</ele><time>2026-05-03T08:43:16.002Z</time></trkpt><trkpt lat="55.47704736963222" lon="38.913995128259124"><ele>121.39999999999999</ele><time>2026-05-03T08:43:17.002Z</time></trkpt><trkpt lat="55.477024544714965" lon="38.91382042888245"><ele>121.19999999999999</ele><time>2026-05-03T08:43:18.002Z</time></trkpt><trkpt lat="55.47700748845808" lon="38.913679107661956"><ele>121.0</ele><time>2026-05-03T08:43:19.002Z</time></trkpt><trkpt lat="55.47698833612531" lon="38.913497599083286"><ele>121.4</ele><time>2026-05-03T08:43:20.002Z</time></trkpt><trkpt lat="55.476976067414675" lon="38.9133229386865"><ele>121.8</ele><time>2026-05-03T08:43:21.002Z</time></trkpt><trkpt lat="55.47694398514425" lon="38.91316255142374"><ele>122.20000000000002</ele><time>2026-05-03T08:43:22.002Z</time></trkpt><trkpt lat="55.47693152201031" lon="38.91299192835901"><ele>122.60000000000001</ele><time>2026-05-03T08:43:23.002Z</time></trkpt><trkpt lat="55.47691978470495" lon="38.91280294432817"><ele>123.0</ele><time>2026-05-03T08:43:24.002Z</time></trkpt><trkpt lat="55.47690184343152" lon="38.91262262596213"><ele>123.4</ele><time>2026-05-03T08:43:25.002Z</time></trkpt><trkpt lat="55.476882244772575" lon="38.91242121228777"><ele>123.80000000000001</ele><time>2026-05-03T08:43:26.002Z</time></trkpt><trkpt lat="55.476861871677585" lon="38.91223700066687"><ele>124.2</ele><time>2026-05-03T08:43:27.002Z</time></trkpt><trkpt lat="55.476843799868256" lon="38.9120406808069"><ele>124.6</ele><time>2026-05-03T08:43:28.002Z</time></trkpt><trkpt lat="55.476827591750755" lon="38.91184276835328"><ele>125.0</ele><time>2026-05-03T08:43:29.002Z</time></trkpt><trkpt lat="55.47681897990177" lon="38.91166042337841"><ele>125.4</ele><time>2026-05-03T08:43:30.002Z</time></trkpt><trkpt lat="55.47681103045442" lon="38.91145880392622"><ele>125.8</ele><time>2026-05-03T08:43:31.002Z</time></trkpt><trkpt lat="55.47679876899134" lon="38.91125512261414"><ele>126.19999999999999</ele><time>2026-05-03T08:43:32.002Z</time></trkpt><trkpt lat="55.476785320570215" lon="38.911073969891525"><ele>126.6</ele><time>2026-05-03T08:43:33.002Z</time></trkpt><trkpt lat="55.47677608784648" lon="38.91087366958576"><ele>127.0</ele><time>2026-05-03T08:43:34.002Z</time></trkpt><trkpt lat="55.47675979663179" lon="38.91067211217454"><ele>127.16666666666667</ele><time>2026-05-03T08:43:35.002Z</time></trkpt><trkpt lat="55.47672961988377" lon="38.91046706357575"><ele>127.33333333333334</ele><time>2026-05-03T08:43:36.002Z</time></trkpt><trkpt lat="55.4767076146453" lon="38.91031003268255"><ele>127.5</ele><time>2026-05-03T08:43:37.002Z</time></trkpt><trkpt lat="55.47668691255681" lon="38.910181672125624"><ele>127.66666666666666</ele><time>2026-05-03T08:43:38.002Z</time></trkpt><trkpt lat="55.47667840073196" lon="38.91005403560745"><ele>127.83333333333333</ele><time>2026-05-03T08:43:39.002Z</time></trkpt><trkpt lat="55.47661974512454" lon="38.90995295032351"><ele>128.0</ele><time>2026-05-03T08:43:42.002Z</time></trkpt><trkpt lat="55.47653451553845" lon="38.90998996503191"><ele>127.99999999999999</ele><time>2026-05-03T08:43:44.002Z</time></trkpt><trkpt lat="55.47647883580011" lon="38.91005113962311"><ele>128.0</ele><time>2026-05-03T08:43:45.002Z</time></trkpt><trkpt lat="55.47641501998875" lon="38.91011230013761"><ele>128.0</ele><time>2026-05-03T08:43:46.002Z</time></trkpt><trkpt lat="55.4763388258042" lon="38.910148160298256"><ele>128.0</ele><time>2026-05-03T08:43:47.002Z</time></trkpt><trkpt lat="55.476240920535105" lon="38.910202245603614"><ele>127.99999999999999</ele><time>2026-05-03T08:43:48.002Z</time></trkpt><trkpt lat="55.4761613000085" lon="38.910261317178445"><ele>128.0</ele><time>2026-05-03T08:43:49.002Z</time></trkpt><trkpt lat="55.47607394982847" lon="38.910329295130104"><ele>127.66666666666666</ele><time>2026-05-03T08:43:50.002Z</time></trkpt><trkpt lat="55.47597847747748" lon="38.91037847976726"><ele>127.33333333333333</ele><time>2026-05-03T08:43:51.002Z</time></trkpt><trkpt lat="55.47589124827318" lon="38.91041236204517"><ele>127.0</ele><time>2026-05-03T08:43:52.002Z</time></trkpt><trkpt lat="55.475786466762834" lon="38.91045075819502"><ele>126.66666666666666</ele><time>2026-05-03T08:43:53.002Z</time></trkpt><trkpt lat="55.475709609023234" lon="38.910479471227184"><ele>126.33333333333333</ele><time>2026-05-03T08:43:54.002Z</time></trkpt><trkpt lat="55.47564164013133" lon="38.91051199454851"><ele>126.0</ele><time>2026-05-03T08:43:55.002Z</time></trkpt><trkpt lat="55.475558965673585" lon="38.91058141215057"><ele>126.0</ele><time>2026-05-03T08:43:56.002Z</time></trkpt><trkpt lat="55.4754814833782" lon="38.91065507763965"><ele>126.0</ele><time>2026-05-03T08:43:57.002Z</time></trkpt><trkpt lat="55.47538020915132" lon="38.91075060408489"><ele>126.0</ele><time>2026-05-03T08:43:58.002Z</time></trkpt><trkpt lat="55.47529053591178" lon="38.91084113585222"><ele>126.0</ele><time>2026-05-03T08:43:59.002Z</time></trkpt><trkpt lat="55.47521438010207" lon="38.910925010772985"><ele>126.0</ele><time>2026-05-03T08:44:00.002Z</time></trkpt><trkpt lat="55.47511575904055" lon="38.9110243971406"><ele>126.4</ele><time>2026-05-03T08:44:01.002Z</time></trkpt><trkpt lat="55.475021594612876" lon="38.91112760120688"><ele>126.8</ele><time>2026-05-03T08:44:02.002Z</time></trkpt><trkpt lat="55.47492620741742" lon="38.91123112637184"><ele>127.20000000000002</ele><time>2026-05-03T08:44:03.001Z</time></trkpt><trkpt lat="55.4748222500654" lon="38.91135879933253"><ele>127.60000000000001</ele><time>2026-05-03T08:44:04.001Z</time></trkpt><trkpt lat="55.474741294946966" lon="38.9114403273726"><ele>128.0</ele><time>2026-05-03T08:44:05.001Z</time></trkpt><trkpt lat="55.47466401397535" lon="38.911575113031674"><ele>128.8</ele><time>2026-05-03T08:44:07.001Z</time></trkpt><trkpt lat="55.47464746081245" lon="38.91178187366714"><ele>129.60000000000002</ele><time>2026-05-03T08:44:09.001Z</time></trkpt><trkpt lat="55.47470030436344" lon="38.91196830225163"><ele>130.39999999999998</ele><time>2026-05-03T08:44:11.001Z</time></trkpt><trkpt lat="55.47476928365747" lon="38.912042486509115"><ele>131.2</ele><time>2026-05-03T08:44:12.001Z</time></trkpt><trkpt lat="55.47485049138828" lon="38.9121236885854"><ele>132.0</ele><time>2026-05-03T08:44:13.001Z</time></trkpt><trkpt lat="55.47493138498927" lon="38.91224696184539"><ele>132.0</ele><time>2026-05-03T08:44:14.001Z</time></trkpt><trkpt lat="55.4750058584596" lon="38.91236488292986"><ele>132.0</ele><time>2026-05-03T08:44:15.001Z</time></trkpt><trkpt lat="55.47509074717893" lon="38.912493929415845"><ele>132.0</ele><time>2026-05-03T08:44:16.001Z</time></trkpt><trkpt lat="55.47517532252996" lon="38.912611550868796"><ele>132.0</ele><time>2026-05-03T08:44:17.001Z</time></trkpt><trkpt lat="55.47525774638566" lon="38.9127525195967"><ele>132.0</ele><time>2026-05-03T08:44:18.001Z</time></trkpt><trkpt lat="55.47533173990868" lon="38.912906763757626"><ele>131.5</ele><time>2026-05-03T08:44:19.001Z</time></trkpt><trkpt lat="55.475418590757215" lon="38.913067460119834"><ele>131.0</ele><time>2026-05-03T08:44:20.001Z</time></trkpt><trkpt lat="55.47550128502191" lon="38.91323665692528"><ele>130.5</ele><time>2026-05-03T08:44:21.001Z</time></trkpt><trkpt lat="55.47556826472997" lon="38.91340179137411"><ele>130.0</ele><time>2026-05-03T08:44:22.001Z</time></trkpt><trkpt lat="55.47563718257621" lon="38.913580357158956"><ele>130.0</ele><time>2026-05-03T08:44:23.001Z</time></trkpt><trkpt lat="55.47570245897885" lon="38.91377809200046"><ele>130.0</ele><time>2026-05-03T08:44:24.001Z</time></trkpt><trkpt lat="55.47576160798574" lon="38.913959795381295"><ele>130.0</ele><time>2026-05-03T08:44:25.001Z</time></trkpt><trkpt lat="55.47581193668161" lon="38.91411994828551"><ele>130.0</ele><time>2026-05-03T08:44:26.001Z</time></trkpt><trkpt lat="55.47586869100905" lon="38.91425312494931"><ele>130.0</ele><time>2026-05-03T08:44:27.001Z</time></trkpt><trkpt lat="55.475900417566486" lon="38.914413698432206"><ele>130.0</ele><time>2026-05-03T08:44:28.001Z</time></trkpt><trkpt lat="55.475964864750985" lon="38.914598797985946"><ele>130.0</ele><time>2026-05-03T08:44:30.001Z</time></trkpt><trkpt lat="55.47602027220819" lon="38.91475883124552"><ele>130.0</ele><time>2026-05-03T08:44:32.001Z</time></trkpt><trkpt lat="55.47604768320816" lon="38.91490572893248"><ele>130.0</ele><time>2026-05-03T08:44:34.001Z</time></trkpt><trkpt lat="55.47600192127757" lon="38.915043720686086"><ele>130.0</ele><time>2026-05-03T08:44:36.001Z</time></trkpt><trkpt lat="55.47594422954592" lon="38.91513138187541"><ele>129.2</ele><time>2026-05-03T08:44:37.001Z</time></trkpt><trkpt lat="55.47588106474178" lon="38.91524504757786"><ele>128.4</ele><time>2026-05-03T08:44:38.001Z</time></trkpt><trkpt lat="55.47579575883358" lon="38.91536455911776"><ele>127.6</ele><time>2026-05-03T08:44:39.001Z</time></trkpt><trkpt lat="55.47571422944149" lon="38.91551054887271"><ele>126.8</ele><time>2026-05-03T08:44:40.001Z</time></trkpt><trkpt lat="55.4756612323658" lon="38.91559979719393"><ele>126.0</ele><time>2026-05-03T08:44:41.001Z</time></trkpt><trkpt lat="55.47559905292871" lon="38.91567064701963"><ele>126.0</ele><time>2026-05-03T08:44:42.001Z</time></trkpt><trkpt lat="55.47552612669788" lon="38.91576024678446"><ele>126.0</ele><time>2026-05-03T08:44:43.001Z</time></trkpt><trkpt lat="55.475426881920704" lon="38.9158820235753"><ele>126.0</ele><time>2026-05-03T08:44:44.001Z</time></trkpt><trkpt lat="55.47536727505068" lon="38.915969796328646"><ele>126.0</ele><time>2026-05-03T08:44:45.001Z</time></trkpt><trkpt lat="55.47532343664985" lon="38.9160893516884"><ele>126.0</ele><time>2026-05-03T08:44:46.001Z</time></trkpt><trkpt lat="55.475253441687244" lon="38.91617122115522"><ele>127.57142857142857</ele><time>2026-05-03T08:44:48.001Z</time></trkpt><trkpt lat="55.475184999392496" lon="38.9161364092727"><ele>129.14285714285714</ele><time>2026-05-03T08:44:52.001Z</time></trkpt><trkpt lat="55.47515819266903" lon="38.916027077157956"><ele>130.71428571428572</ele><time>2026-05-03T08:44:59.001Z</time></trkpt><trkpt lat="55.47513331873944" lon="38.915914265315344"><ele>132.28571428571428</ele><time>2026-05-03T08:45:01.001Z</time></trkpt><trkpt lat="55.47508691245331" lon="38.91581712863174"><ele>133.85714285714286</ele><time>2026-05-03T08:45:04.001Z</time></trkpt><trkpt lat="55.475009341686416" lon="38.915824527409576"><ele>135.42857142857144</ele><time>2026-05-03T08:45:07.001Z</time></trkpt><trkpt lat="55.47493826781239" lon="38.91591485204116"><ele>137.0</ele><time>2026-05-03T08:45:09.001Z</time></trkpt><trkpt lat="55.47488184019913" lon="38.916023943253215"><ele>137.0</ele><time>2026-05-03T08:45:11.002Z</time></trkpt><trkpt lat="55.47481736064864" lon="38.91617280036316"><ele>137.0</ele><time>2026-05-03T08:45:14.002Z</time></trkpt><trkpt lat="55.47475972502212" lon="38.916287284667135"><ele>137.0</ele><time>2026-05-03T08:45:16.002Z</time></trkpt><trkpt lat="55.47468541800506" lon="38.91643223855008"><ele>137.0</ele><time>2026-05-03T08:45:18.002Z</time></trkpt><trkpt lat="55.47460893155094" lon="38.916470539375716"><ele>137.0</ele><time>2026-05-03T08:45:20.002Z</time></trkpt><trkpt lat="55.47448836002765" lon="38.916409314212856"><ele>137.0</ele><time>2026-05-03T08:45:23.002Z</time></trkpt><trkpt lat="55.47441703991218" lon="38.91653188758669"><ele>137.0</ele><time>2026-05-03T08:45:25.002Z</time></trkpt><trkpt lat="55.47432441867585" lon="38.91651820249069"><ele>137.0</ele><time>2026-05-03T08:45:27.002Z</time></trkpt><trkpt lat="55.47425312071605" lon="38.91665463112518"><ele>137.0</ele><time>2026-05-03T08:45:29.002Z</time></trkpt><trkpt lat="55.47419449782106" lon="38.91676009911016"><ele>137.0</ele><time>2026-05-03T08:45:30.002Z</time></trkpt><trkpt lat="55.47411479878281" lon="38.916896340590654"><ele>136.66666666666666</ele><time>2026-05-03T08:45:32.002Z</time></trkpt><trkpt lat="55.47400442899189" lon="38.91697066685234"><ele>136.33333333333331</ele><time>2026-05-03T08:45:34.002Z</time></trkpt><trkpt lat="55.4739462134551" lon="38.917016412133755"><ele>136.0</ele><time>2026-05-03T08:45:35.002Z</time></trkpt><trkpt lat="55.4738701702037" lon="38.9170992814301"><ele>135.66666666666666</ele><time>2026-05-03T08:45:37.002Z</time></trkpt><trkpt lat="55.47382489851758" lon="38.91718392992752"><ele>135.33333333333334</ele><time>2026-05-03T08:45:38.002Z</time></trkpt><trkpt lat="55.473760811069084" lon="38.91730505927474"><ele>135.0</ele><time>2026-05-03T08:45:40.002Z</time></trkpt><trkpt lat="55.47366820171804" lon="38.917284986729335"><ele>134.6</ele><time>2026-05-03T08:45:43.002Z</time></trkpt><trkpt lat="55.473593046173356" lon="38.917267065944024"><ele>134.2</ele><time>2026-05-03T08:45:44.002Z</time></trkpt><trkpt lat="55.47350084667685" lon="38.917301056100655"><ele>133.8</ele><time>2026-05-03T08:45:45.002Z</time></trkpt><trkpt lat="55.473417266977336" lon="38.917368034993565"><ele>133.4</ele><time>2026-05-03T08:45:46.002Z</time></trkpt><trkpt lat="55.47331715366677" lon="38.91745232990269"><ele>133.0</ele><time>2026-05-03T08:45:47.002Z</time></trkpt><trkpt lat="55.47321179426825" lon="38.91754598277278"><ele>133.0</ele><time>2026-05-03T08:45:48.002Z</time></trkpt><trkpt lat="55.47311623474677" lon="38.91758775515439"><ele>133.0</ele><time>2026-05-03T08:45:49.002Z</time></trkpt><trkpt lat="55.47302395961327" lon="38.91760537995801"><ele>133.0</ele><time>2026-05-03T08:45:50.002Z</time></trkpt><trkpt lat="55.47292838371033" lon="38.917664775543315"><ele>133.0</ele><time>2026-05-03T08:45:51.002Z</time></trkpt><trkpt lat="55.4728560713451" lon="38.917707101867556"><ele>133.0</ele><time>2026-05-03T08:45:52.002Z</time></trkpt><trkpt lat="55.472751818859194" lon="38.91772048063565"><ele>133.0</ele><time>2026-05-03T08:45:53.002Z</time></trkpt><trkpt lat="55.47265123448595" lon="38.91776374083484"><ele>133.0</ele><time>2026-05-03T08:45:54.002Z</time></trkpt><trkpt lat="55.47256053216306" lon="38.91783403907709"><ele>133.0</ele><time>2026-05-03T08:45:55.002Z</time></trkpt><trkpt lat="55.47247628383023" lon="38.9178813869003"><ele>133.0</ele><time>2026-05-03T08:45:56.002Z</time></trkpt><trkpt lat="55.472374418939076" lon="38.91788071781176"><ele>133.0</ele><time>2026-05-03T08:45:57.002Z</time></trkpt><trkpt lat="55.47225689971498" lon="38.9178738907878"><ele>133.0</ele><time>2026-05-03T08:45:58.002Z</time></trkpt><trkpt lat="55.472168750626714" lon="38.91792209935078"><ele>133.0</ele><time>2026-05-03T08:45:59.002Z</time></trkpt><trkpt lat="55.47204285989103" lon="38.917913480070446"><ele>133.0</ele><time>2026-05-03T08:46:01.002Z</time></trkpt><trkpt lat="55.47196587981466" lon="38.91787082007975"><ele>133.0</ele><time>2026-05-03T08:46:02.002Z</time></trkpt><trkpt lat="55.471902545722116" lon="38.91785677300012"><ele>133.0</ele><time>2026-05-03T08:46:03.002Z</time></trkpt><trkpt lat="55.47183460649033" lon="38.917873554890846"><ele>133.0</ele><time>2026-05-03T08:46:04.002Z</time></trkpt><trkpt lat="55.471759949422164" lon="38.91791035673227"><ele>133.20000000000002</ele><time>2026-05-03T08:46:05.002Z</time></trkpt><trkpt lat="55.471623820250414" lon="38.9179453802241"><ele>133.4</ele><time>2026-05-03T08:46:07.002Z</time></trkpt><trkpt lat="55.47153030676745" lon="38.917966037321854"><ele>133.60000000000002</ele><time>2026-05-03T08:46:08.002Z</time></trkpt><trkpt lat="55.47143510365238" lon="38.91792747783947"><ele>133.8</ele><time>2026-05-03T08:46:09.001Z</time></trkpt><trkpt lat="55.47134702959406" lon="38.91792573731787"><ele>134.0</ele><time>2026-05-03T08:46:10.001Z</time></trkpt><trkpt lat="55.471258665715034" lon="38.91791097843489"><ele>134.0</ele><time>2026-05-03T08:46:11.001Z</time></trkpt><trkpt lat="55.471156570271084" lon="38.91794248536873"><ele>134.0</ele><time>2026-05-03T08:46:12Z</time></trkpt><trkpt lat="55.47106340744706" lon="38.91798237694185"><ele>134.0</ele><time>2026-05-03T08:46:13Z</time></trkpt><trkpt lat="55.47097852757476" lon="38.91806445372087"><ele>134.0</ele><time>2026-05-03T08:46:14Z</time></trkpt><trkpt lat="55.47085498167293" lon="38.91810838770522"><ele>134.0</ele><time>2026-05-03T08:46:16Z</time></trkpt><trkpt lat="55.47078552541473" lon="38.91817278451379"><ele>134.0</ele><time>2026-05-03T08:46:17Z</time></trkpt><trkpt lat="55.47071274835555" lon="38.918278027703145"><ele>134.0</ele><time>2026-05-03T08:46:18Z</time></trkpt><trkpt lat="55.47064012687148" lon="38.918382224555636"><ele>134.0</ele><time>2026-05-03T08:46:19Z</time></trkpt><trkpt lat="55.4705375793525" lon="38.91848920547088"><ele>134.0</ele><time>2026-05-03T08:46:21Z</time></trkpt><trkpt lat="55.47044583029959" lon="38.918582085634995"><ele>134.0</ele><time>2026-05-03T08:46:23Z</time></trkpt><trkpt lat="55.470426718056395" lon="38.91870488095435"><ele>133.8</ele><time>2026-05-03T08:46:24Z</time></trkpt><trkpt lat="55.47040548770539" lon="38.918853618690214"><ele>133.60000000000002</ele><time>2026-05-03T08:46:26Z</time></trkpt><trkpt lat="55.470290140836546" lon="38.91886880877497"><ele>133.4</ele><time>2026-05-03T08:46:28Z</time></trkpt><trkpt lat="55.47020969981936" lon="38.91885041440317"><ele>133.20000000000002</ele><time>2026-05-03T08:46:29Z</time></trkpt><trkpt lat="55.4700812062253" lon="38.918959824862"><ele>133.0</ele><time>2026-05-03T08:46:31Z</time></trkpt><trkpt lat="55.46997762701592" lon="38.91904675432"><ele>133.0</ele><time>2026-05-03T08:46:32Z</time></trkpt><trkpt lat="55.46988262734116" lon="38.91911103823436"><ele>133.0</ele><time>2026-05-03T08:46:33Z</time></trkpt><trkpt lat="55.469792302736344" lon="38.91917850419125"><ele>133.0</ele><time>2026-05-03T08:46:34Z</time></trkpt><trkpt lat="55.46970159862347" lon="38.919218645683756"><ele>133.0</ele><time>2026-05-03T08:46:35Z</time></trkpt><trkpt lat="55.469610938576615" lon="38.91921254213798"><ele>133.0</ele><time>2026-05-03T08:46:36Z</time></trkpt><trkpt lat="55.4695227351085" lon="38.919265987449755"><ele>132.83333333333334</ele><time>2026-05-03T08:46:37Z</time></trkpt><trkpt lat="55.469451135066606" lon="38.91932062863348"><ele>132.66666666666669</ele><time>2026-05-03T08:46:38Z</time></trkpt><trkpt lat="55.46936802381925" lon="38.919342740856386"><ele>132.5</ele><time>2026-05-03T08:46:39Z</time></trkpt><trkpt lat="55.46928980663021" lon="38.91937910007289"><ele>132.33333333333334</ele><time>2026-05-03T08:46:40Z</time></trkpt><trkpt lat="55.46919609370886" lon="38.919411775266"><ele>132.16666666666666</ele><time>2026-05-03T08:46:41Z</time></trkpt><trkpt lat="55.46909645773219" lon="38.91945208245017"><ele>132.0</ele><time>2026-05-03T08:46:42Z</time></trkpt><trkpt lat="55.46901978596518" lon="38.91946687107481"><ele>132.0</ele><time>2026-05-03T08:46:43Z</time></trkpt><trkpt lat="55.46892534746677" lon="38.919474995725515"><ele>132.0</ele><time>2026-05-03T08:46:44Z</time></trkpt><trkpt lat="55.46885921088826" lon="38.919432325145934"><ele>132.0</ele><time>2026-05-03T08:46:47Z</time></trkpt><trkpt lat="55.468789255357784" lon="38.91938714140145"><ele>132.0</ele><time>2026-05-03T08:46:49Z</time></trkpt><trkpt lat="55.46869908960063" lon="38.91940745109503"><ele>132.0</ele><time>2026-05-03T08:46:51Z</time></trkpt><trkpt lat="55.46863190029475" lon="38.91934360202558"><ele>132.0</ele><time>2026-05-03T08:46:52Z</time></trkpt><trkpt lat="55.46856776096063" lon="38.91929864601685"><ele>131.4</ele><time>2026-05-03T08:46:53Z</time></trkpt><trkpt lat="55.468480736310816" lon="38.91928780203423"><ele>130.79999999999998</ele><time>2026-05-03T08:46:55Z</time></trkpt><trkpt lat="55.46839187353748" lon="38.919188133781084"><ele>130.2</ele><time>2026-05-03T08:46:57Z</time></trkpt><trkpt lat="55.468338288811076" lon="38.91927567012861"><ele>129.6</ele><time>2026-05-03T08:46:58Z</time></trkpt><trkpt lat="55.46823372322544" lon="38.91925540126663"><ele>129.0</ele><time>2026-05-03T08:47:00Z</time></trkpt><trkpt lat="55.46815340232212" lon="38.919189178169596"><ele>129.0</ele><time>2026-05-03T08:47:02Z</time></trkpt><trkpt lat="55.46808003426159" lon="38.91908092703763"><ele>129.0</ele><time>2026-05-03T08:47:04Z</time></trkpt><trkpt lat="55.46806655418764" lon="38.918951821644384"><ele>129.0</ele><time>2026-05-03T08:47:06Z</time></trkpt><trkpt lat="55.46802963360981" lon="38.91883721543801"><ele>129.0</ele><time>2026-05-03T08:47:09Z</time></trkpt><trkpt lat="55.46795837711175" lon="38.918858880604795"><ele>129.0</ele><time>2026-05-03T08:47:12Z</time></trkpt><trkpt lat="55.46786776205269" lon="38.918910419198305"><ele>129.0</ele><time>2026-05-03T08:47:14Z</time></trkpt><trkpt lat="55.46777780708928" lon="38.91891699748946"><ele>128.0</ele><time>2026-05-03T08:47:16.001Z</time></trkpt><trkpt lat="55.4676897589829" lon="38.91895777946445"><ele>127.0</ele><time>2026-05-03T08:47:18.001Z</time></trkpt><trkpt lat="55.46759911833686" lon="38.918897983640015"><ele>126.0</ele><time>2026-05-03T08:47:19.001Z</time></trkpt><trkpt lat="55.46746902097785" lon="38.91879005533966"><ele>125.0</ele><time>2026-05-03T08:47:20.001Z</time></trkpt><trkpt lat="55.46738424119582" lon="38.91872066736267"><ele>124.0</ele><time>2026-05-03T08:47:21.001Z</time></trkpt><trkpt lat="55.467275368160834" lon="38.918705243898344"><ele>124.0</ele><time>2026-05-03T08:47:23.001Z</time></trkpt><trkpt lat="55.46717819347998" lon="38.91858865147687"><ele>124.0</ele><time>2026-05-03T08:47:25.001Z</time></trkpt><trkpt lat="55.46711946945939" lon="38.91848649247198"><ele>124.0</ele><time>2026-05-03T08:47:26.001Z</time></trkpt><trkpt lat="55.46705370712061" lon="38.91837211455076"><ele>124.0</ele><time>2026-05-03T08:47:27.001Z</time></trkpt><trkpt lat="55.46698820894565" lon="38.918250090509574"><ele>124.0</ele><time>2026-05-03T08:47:28.001Z</time></trkpt><trkpt lat="55.46692943630333" lon="38.91812534602333"><ele>124.6</ele><time>2026-05-03T08:47:29.001Z</time></trkpt><trkpt lat="55.466858541719176" lon="38.91796657346291"><ele>125.2</ele><time>2026-05-03T08:47:30.001Z</time></trkpt><trkpt lat="55.46678805208993" lon="38.917803248591795"><ele>125.79999999999998</ele><time>2026-05-03T08:47:31.001Z</time></trkpt><trkpt lat="55.46671998021166" lon="38.91765932990113"><ele>126.39999999999999</ele><time>2026-05-03T08:47:32.001Z</time></trkpt><trkpt lat="55.46664816581409" lon="38.91753140243298"><ele>127.0</ele><time>2026-05-03T08:47:33.001Z</time></trkpt><trkpt lat="55.46658906317676" lon="38.917301204689906"><ele>127.00000000000001</ele><time>2026-05-03T08:47:34.001Z</time></trkpt><trkpt lat="55.46653381294592" lon="38.91710710854818"><ele>127.0</ele><time>2026-05-03T08:47:35.001Z</time></trkpt><trkpt lat="55.46648143040297" lon="38.91698273077574"><ele>127.0</ele><time>2026-05-03T08:47:36.001Z</time></trkpt><trkpt lat="55.46643475321542" lon="38.916869748779526"><ele>127.0</ele><time>2026-05-03T08:47:38.001Z</time></trkpt><trkpt lat="55.46635595708919" lon="38.91688137747681"><ele>127.00000000000001</ele><time>2026-05-03T08:47:42.001Z</time></trkpt><trkpt lat="55.46630159976739" lon="38.91680392034154"><ele>127.0</ele><time>2026-05-03T08:48:15Z</time></trkpt><trkpt lat="55.46624899873701" lon="38.91689367849238"><ele>127.00000000000001</ele><time>2026-05-03T08:48:27Z</time></trkpt><trkpt lat="55.46619405156868" lon="38.91701781011559"><ele>127.0</ele><time>2026-05-03T08:48:33Z</time></trkpt><trkpt lat="55.46610248586362" lon="38.917059446032304"><ele>127.0</ele><time>2026-05-03T08:51:53.001Z</time></trkpt><trkpt lat="55.4660326278314" lon="38.91705141619144"><ele>127.0</ele><time>2026-05-03T08:51:55.001Z</time></trkpt><trkpt lat="55.465934706857084" lon="38.917036116603356"><ele>127.00000000000001</ele><time>2026-05-03T08:51:57.001Z</time></trkpt><trkpt lat="55.4658680353726" lon="38.91704822521305"><ele>127.0</ele><time>2026-05-03T08:51:58.001Z</time></trkpt><trkpt lat="55.46578654099792" lon="38.91707570609465"><ele>127.0</ele><time>2026-05-03T08:51:59.001Z</time></trkpt><trkpt lat="55.465700643177996" lon="38.917095865574275"><ele>126.99999999999999</ele><time>2026-05-03T08:52:00.001Z</time></trkpt><trkpt lat="55.46560344958542" lon="38.91710821494302"><ele>126.99999999999999</ele><time>2026-05-03T08:52:01.001Z</time></trkpt><trkpt lat="55.465498850821234" lon="38.91711989471169"><ele>127.0</ele><time>2026-05-03T08:52:02.001Z</time></trkpt><trkpt lat="55.46539153391643" lon="38.91712996297389"><ele>127.0</ele><time>2026-05-03T08:52:03.001Z</time></trkpt><trkpt lat="55.46528885168958" lon="38.91714861559489"><ele>127.0</ele><time>2026-05-03T08:52:04.001Z</time></trkpt><trkpt lat="55.465180775685745" lon="38.91716950708489"><ele>126.99999999999999</ele><time>2026-05-03T08:52:05.001Z</time></trkpt><trkpt lat="55.46507425070874" lon="38.91720238215496"><ele>126.99999999999999</ele><time>2026-05-03T08:52:06.001Z</time></trkpt><trkpt lat="55.46496096666442" lon="38.917230091190554"><ele>127.0</ele><time>2026-05-03T08:52:07.001Z</time></trkpt><trkpt lat="55.46485142501867" lon="38.917246765100856"><ele>127.0</ele><time>2026-05-03T08:52:08.001Z</time></trkpt><trkpt lat="55.464738657508676" lon="38.917238029722625"><ele>127.0</ele><time>2026-05-03T08:52:09.001Z</time></trkpt><trkpt lat="55.46463128433259" lon="38.91721633586417"><ele>127.0</ele><time>2026-05-03T08:52:10.001Z</time></trkpt><trkpt lat="55.464517129750384" lon="38.917199519668756"><ele>127.0</ele><time>2026-05-03T08:52:11.001Z</time></trkpt><trkpt lat="55.46440069518163" lon="38.91719135535642"><ele>127.0</ele><time>2026-05-03T08:52:12.001Z</time></trkpt><trkpt lat="55.464277943973684" lon="38.917196148155156"><ele>126.5</ele><time>2026-05-03T08:52:13.001Z</time></trkpt><trkpt lat="55.46416440110683" lon="38.91718805942732"><ele>126.0</ele><time>2026-05-03T08:52:14.001Z</time></trkpt><trkpt lat="55.46405105254229" lon="38.91717760633455"><ele>125.5</ele><time>2026-05-03T08:52:15.001Z</time></trkpt><trkpt lat="55.463933830960286" lon="38.91715900068804"><ele>125.0</ele><time>2026-05-03T08:52:16.001Z</time></trkpt><trkpt lat="55.4638185970301" lon="38.917155822780224"><ele>125.25</ele><time>2026-05-03T08:52:17.001Z</time></trkpt><trkpt lat="55.463701445933374" lon="38.917186947531036"><ele>125.5</ele><time>2026-05-03T08:52:18.001Z</time></trkpt><trkpt lat="55.46358588796243" lon="38.91721526750328"><ele>125.75</ele><time>2026-05-03T08:52:19.001Z</time></trkpt><trkpt lat="55.463476051890154" lon="38.91724700615473"><ele>126.0</ele><time>2026-05-03T08:52:20.001Z</time></trkpt><trkpt lat="55.46336463813163" lon="38.91724756627381"><ele>126.0</ele><time>2026-05-03T08:52:21.001Z</time></trkpt><trkpt lat="55.46325954421413" lon="38.91723769950964"><ele>126.0</ele><time>2026-05-03T08:52:22.001Z</time></trkpt><trkpt lat="55.46315361305173" lon="38.91724210949252"><ele>126.0</ele><time>2026-05-03T08:52:23.001Z</time></trkpt><trkpt lat="55.46304579277881" lon="38.917254026436176"><ele>126.0</ele><time>2026-05-03T08:52:24.001Z</time></trkpt><trkpt lat="55.46293354527065" lon="38.91728543396826"><ele>126.0</ele><time>2026-05-03T08:52:25.001Z</time></trkpt><trkpt lat="55.46282667786613" lon="38.917309424961374"><ele>126.0</ele><time>2026-05-03T08:52:26.001Z</time></trkpt><trkpt lat="55.46272076327185" lon="38.91731542576155"><ele>126.0</ele><time>2026-05-03T08:52:27.001Z</time></trkpt><trkpt lat="55.46261869293924" lon="38.917318265254785"><ele>126.0</ele><time>2026-05-03T08:52:28.001Z</time></trkpt><trkpt lat="55.46251525513178" lon="38.917326928420735"><ele>126.0</ele><time>2026-05-03T08:52:29.001Z</time></trkpt><trkpt lat="55.46241884059403" lon="38.9173402067676"><ele>126.0</ele><time>2026-05-03T08:52:30.001Z</time></trkpt><trkpt lat="55.46233635744422" lon="38.91735533213861"><ele>126.0</ele><time>2026-05-03T08:52:31.001Z</time></trkpt><trkpt lat="55.46225917043478" lon="38.91734771977034"><ele>126.0</ele><time>2026-05-03T08:52:32.001Z</time></trkpt><trkpt lat="55.46219554619665" lon="38.917357348533585"><ele>126.0</ele><time>2026-05-03T08:52:33.001Z</time></trkpt><trkpt lat="55.46213630311676" lon="38.91746611057226"><ele>126.0</ele><time>2026-05-03T08:52:35.001Z</time></trkpt><trkpt lat="55.462138286064395" lon="38.917698891837574"><ele>126.0</ele><time>2026-05-03T08:52:37.001Z</time></trkpt><trkpt lat="55.462153065785074" lon="38.91786495814161"><ele>125.6</ele><time>2026-05-03T08:52:38.001Z</time></trkpt><trkpt lat="55.46215524661248" lon="38.91803330669924"><ele>125.19999999999999</ele><time>2026-05-03T08:52:39.001Z</time></trkpt><trkpt lat="55.462159133752955" lon="38.91820991582229"><ele>124.80000000000001</ele><time>2026-05-03T08:52:40.001Z</time></trkpt><trkpt lat="55.462162673263755" lon="38.91841557632305"><ele>124.4</ele><time>2026-05-03T08:52:41.001Z</time></trkpt><trkpt lat="55.46216708615639" lon="38.91861702262558"><ele>124.0</ele><time>2026-05-03T08:52:42.001Z</time></trkpt><trkpt lat="55.46217287081617" lon="38.91881831687669"><ele>123.6</ele><time>2026-05-03T08:52:43.001Z</time></trkpt><trkpt lat="55.4621789436823" lon="38.91901413040632"><ele>123.2</ele><time>2026-05-03T08:52:44.001Z</time></trkpt><trkpt lat="55.46218220209523" lon="38.91918150837243"><ele>122.79999999999998</ele><time>2026-05-03T08:52:45.001Z</time></trkpt><trkpt lat="55.46218298875293" lon="38.91935979190945"><ele>122.39999999999999</ele><time>2026-05-03T08:52:46.001Z</time></trkpt><trkpt lat="55.46219169659834" lon="38.91955190771395"><ele>122.0</ele><time>2026-05-03T08:52:47.001Z</time></trkpt><trkpt lat="55.46220867188818" lon="38.91974269526307"><ele>121.8</ele><time>2026-05-03T08:52:48.001Z</time></trkpt><trkpt lat="55.46222271333429" lon="38.919903764503275"><ele>121.6</ele><time>2026-05-03T08:52:49.001Z</time></trkpt><trkpt lat="55.462225443668636" lon="38.920066448628646"><ele>121.39999999999999</ele><time>2026-05-03T08:52:50.001Z</time></trkpt><trkpt lat="55.46223447603747" lon="38.92023206768906"><ele>121.19999999999999</ele><time>2026-05-03T08:52:51.001Z</time></trkpt><trkpt lat="55.46224205478335" lon="38.92035809799409"><ele>121.0</ele><time>2026-05-03T08:52:52.001Z</time></trkpt><trkpt lat="55.46224505399655" lon="38.920539861895925"><ele>121.00000000000001</ele><time>2026-05-03T08:52:54.001Z</time></trkpt><trkpt lat="55.4622340338627" lon="38.92067712951606"><ele>121.0</ele><time>2026-05-03T08:52:56.001Z</time></trkpt><trkpt lat="55.46220382104764" lon="38.92079845615122"><ele>121.0</ele><time>2026-05-03T08:52:58.001Z</time></trkpt><trkpt lat="55.46219526915473" lon="38.92094565902999"><ele>121.0</ele><time>2026-05-03T08:53:00.001Z</time></trkpt><trkpt lat="55.46217957533161" lon="38.92109477424725"><ele>121.00000000000001</ele><time>2026-05-03T08:53:02.001Z</time></trkpt><trkpt lat="55.46215763429746" lon="38.92128432495961"><ele>121.0</ele><time>2026-05-03T08:53:04.001Z</time></trkpt><trkpt lat="55.462149903056236" lon="38.92149759204354"><ele>121.00000000000001</ele><time>2026-05-03T08:53:06.001Z</time></trkpt><trkpt lat="55.462163011826604" lon="38.92161473594728"><ele>121.0</ele><time>2026-05-03T08:53:07.001Z</time></trkpt><trkpt lat="55.46218562936334" lon="38.921753898837366"><ele>121.0</ele><time>2026-05-03T08:53:08.001Z</time></trkpt><trkpt lat="55.46221791749202" lon="38.921875884816004"><ele>121.0</ele><time>2026-05-03T08:53:09.001Z</time></trkpt><trkpt lat="55.462292307394776" lon="38.92202447469635"><ele>121.00000000000001</ele><time>2026-05-03T08:53:11.001Z</time></trkpt><trkpt lat="55.462328533156764" lon="38.92219861370739"><ele>121.0</ele><time>2026-05-03T08:53:13.001Z</time></trkpt><trkpt lat="55.46231546306886" lon="38.922388932873844"><ele>121.33333333333334</ele><time>2026-05-03T08:53:15.001Z</time></trkpt><trkpt lat="55.46230192502366" lon="38.92250751284794"><ele>121.66666666666667</ele><time>2026-05-03T08:53:17.001Z</time></trkpt><trkpt lat="55.46228094235897" lon="38.92266605003388"><ele>122.0</ele><time>2026-05-03T08:53:24.001Z</time></trkpt><trkpt lat="55.46225883561521" lon="38.922811901337695"><ele>122.33333333333334</ele><time>2026-05-03T08:53:25.001Z</time></trkpt><trkpt lat="55.46223937178027" lon="38.92295316926022"><ele>122.66666666666667</ele><time>2026-05-03T08:53:26.001Z</time></trkpt><trkpt lat="55.462212593502066" lon="38.92309396211884"><ele>123.0</ele><time>2026-05-03T08:53:27.001Z</time></trkpt><trkpt lat="55.462181646102906" lon="38.92323385757553"><ele>123.16666666666667</ele><time>2026-05-03T08:53:28.001Z</time></trkpt><trkpt lat="55.46217725582589" lon="38.92338192741957"><ele>123.33333333333334</ele><time>2026-05-03T08:53:29.001Z</time></trkpt><trkpt lat="55.462155205365605" lon="38.92356017002406"><ele>123.5</ele><time>2026-05-03T08:53:31.001Z</time></trkpt><trkpt lat="55.462132255054755" lon="38.923677716171625"><ele>123.66666666666667</ele><time>2026-05-03T08:53:32.001Z</time></trkpt><trkpt lat="55.46210899293656" lon="38.923796269308646"><ele>123.83333333333334</ele><time>2026-05-03T08:53:33.001Z</time></trkpt><trkpt lat="55.46208661169966" lon="38.92394940760791"><ele>124.0</ele><time>2026-05-03T08:53:35.001Z</time></trkpt><trkpt lat="55.462118080101654" lon="38.92407154817017"><ele>124.00000000000001</ele><time>2026-05-03T08:53:38.001Z</time></trkpt><trkpt lat="55.462190822938226" lon="38.92410756084236"><ele>124.0</ele><time>2026-05-03T08:53:40.001Z</time></trkpt><trkpt lat="55.46224032730826" lon="38.924248334015616"><ele>124.0</ele><time>2026-05-03T08:53:42.001Z</time></trkpt><trkpt lat="55.46226997144709" lon="38.92435506572308"><ele>124.0</ele><time>2026-05-03T08:53:43.001Z</time></trkpt><trkpt lat="55.46228498759031" lon="38.924477194710384"><ele>124.00000000000001</ele><time>2026-05-03T08:53:44.001Z</time></trkpt><trkpt lat="55.462279578080036" lon="38.924626567509954"><ele>124.0</ele><time>2026-05-03T08:53:45.001Z</time></trkpt><trkpt lat="55.462280974921605" lon="38.92478811283455"><ele>124.83333333333334</ele><time>2026-05-03T08:53:46.001Z</time></trkpt><trkpt lat="55.462297517515374" lon="38.92494995619615"><ele>125.66666666666667</ele><time>2026-05-03T08:53:47.001Z</time></trkpt><trkpt lat="55.46230563838873" lon="38.92507727223054"><ele>126.5</ele><time>2026-05-03T08:53:48.001Z</time></trkpt><trkpt lat="55.462224841338895" lon="38.925226328866984"><ele>127.33333333333334</ele><time>2026-05-03T08:53:50.001Z</time></trkpt><trkpt lat="55.46215753671352" lon="38.9252546885705"><ele>128.16666666666666</ele><time>2026-05-03T08:53:51.001Z</time></trkpt><trkpt lat="55.462081052473856" lon="38.92526269826915"><ele>129.0</ele><time>2026-05-03T08:53:52.001Z</time></trkpt><trkpt lat="55.461994000444754" lon="38.92529272072788"><ele>129.75</ele><time>2026-05-03T08:53:53.001Z</time></trkpt><trkpt lat="55.46189735120062" lon="38.92535658035854"><ele>130.5</ele><time>2026-05-03T08:53:54.001Z</time></trkpt><trkpt lat="55.461789341507476" lon="38.92545025231064"><ele>131.25</ele><time>2026-05-03T08:53:55.001Z</time></trkpt><trkpt lat="55.46169110765" lon="38.92554475017593"><ele>132.0</ele><time>2026-05-03T08:53:56.001Z</time></trkpt><trkpt lat="55.461568616584046" lon="38.9256597264204"><ele>132.0</ele><time>2026-05-03T08:53:57.001Z</time></trkpt><trkpt lat="55.46145576288262" lon="38.925763301604306"><ele>132.0</ele><time>2026-05-03T08:53:58.001Z</time></trkpt><trkpt lat="55.461345449983696" lon="38.92586077369065"><ele>132.0</ele><time>2026-05-03T08:53:59.001Z</time></trkpt><trkpt lat="55.46123876119566" lon="38.925976219486216"><ele>132.0</ele><time>2026-05-03T08:54:00.001Z</time></trkpt><trkpt lat="55.461124970179256" lon="38.92608364614941"><ele>131.5</ele><time>2026-05-03T08:54:01.001Z</time></trkpt><trkpt lat="55.46101309508262" lon="38.92616044036085"><ele>131.0</ele><time>2026-05-03T08:54:02.001Z</time></trkpt><trkpt lat="55.46092229278407" lon="38.926320358849374"><ele>130.5</ele><time>2026-05-03T08:54:03.001Z</time></trkpt><trkpt lat="55.46082562717815" lon="38.926373852181825"><ele>130.0</ele><time>2026-05-03T08:54:04.001Z</time></trkpt><trkpt lat="55.46072959471065" lon="38.926485792868064"><ele>130.0</ele><time>2026-05-03T08:54:05.001Z</time></trkpt><trkpt lat="55.46062959042192" lon="38.92662472805221"><ele>130.0</ele><time>2026-05-03T08:54:06.001Z</time></trkpt><trkpt lat="55.46053689522951" lon="38.92672895765517"><ele>130.0</ele><time>2026-05-03T08:54:07.001Z</time></trkpt><trkpt lat="55.460437910401524" lon="38.926823633026665"><ele>130.0</ele><time>2026-05-03T08:54:08.001Z</time></trkpt><trkpt lat="55.460330121211456" lon="38.926914207071434"><ele>130.5</ele><time>2026-05-03T08:54:09.001Z</time></trkpt><trkpt lat="55.460224782991354" lon="38.92698586432047"><ele>131.0</ele><time>2026-05-03T08:54:10.001Z</time></trkpt><trkpt lat="55.46011575454631" lon="38.92705111671997"><ele>131.5</ele><time>2026-05-03T08:54:11.001Z</time></trkpt><trkpt lat="55.46000669304417" lon="38.927131724822914"><ele>132.0</ele><time>2026-05-03T08:54:12.001Z</time></trkpt><trkpt lat="55.45990959585574" lon="38.927249851595185"><ele>132.0</ele><time>2026-05-03T08:54:13.001Z</time></trkpt><trkpt lat="55.459808995161424" lon="38.927340063880685"><ele>132.0</ele><time>2026-05-03T08:54:14.001Z</time></trkpt><trkpt lat="55.45970449250571" lon="38.92740888521782"><ele>132.0</ele><time>2026-05-03T08:54:15.001Z</time></trkpt><trkpt lat="55.45960803944038" lon="38.92749760419166"><ele>132.0</ele><time>2026-05-03T08:54:16.001Z</time></trkpt><trkpt lat="55.45954994523653" lon="38.92757129308615"><ele>132.0</ele><time>2026-05-03T08:54:17.001Z</time></trkpt><trkpt lat="55.45946761549542" lon="38.927629784853124"><ele>132.0</ele><time>2026-05-03T08:54:18.001Z</time></trkpt><trkpt lat="55.459354364130895" lon="38.927703727523216"><ele>132.0</ele><time>2026-05-03T08:54:19.001Z</time></trkpt><trkpt lat="55.45925843897905" lon="38.92777375187045"><ele>132.0</ele><time>2026-05-03T08:54:20.001Z</time></trkpt><trkpt lat="55.459173527786376" lon="38.92786230268477"><ele>132.0</ele><time>2026-05-03T08:54:21.001Z</time></trkpt><trkpt lat="55.45910493721779" lon="38.927994614245996"><ele>132.0</ele><time>2026-05-03T08:54:22.001Z</time></trkpt><trkpt lat="55.45902348561009" lon="38.92807793352123"><ele>132.0</ele><time>2026-05-03T08:54:23.001Z</time></trkpt><trkpt lat="55.45895533899627" lon="38.92811871828397"><ele>132.0</ele><time>2026-05-03T08:54:24.001Z</time></trkpt><trkpt lat="55.458882665494556" lon="38.928176226031624"><ele>132.0</ele><time>2026-05-03T08:54:25.001Z</time></trkpt><trkpt lat="55.45877067378732" lon="38.92823016275565"><ele>132.0</ele><time>2026-05-03T08:54:26.001Z</time></trkpt><trkpt lat="55.45866148786402" lon="38.92826418398593"><ele>132.0</ele><time>2026-05-03T08:54:27.001Z</time></trkpt><trkpt lat="55.45852076770118" lon="38.92828156748574"><ele>131.4</ele><time>2026-05-03T08:54:28.001Z</time></trkpt><trkpt lat="55.45840634705005" lon="38.92827588642799"><ele>130.79999999999998</ele><time>2026-05-03T08:54:29.001Z</time></trkpt><trkpt lat="55.4583115609452" lon="38.928297593809276"><ele>130.2</ele><time>2026-05-03T08:54:30.001Z</time></trkpt><trkpt lat="55.458213535698974" lon="38.92829620562004"><ele>129.6</ele><time>2026-05-03T08:54:31.001Z</time></trkpt><trkpt lat="55.45810389481684" lon="38.92830353684125"><ele>129.0</ele><time>2026-05-03T08:54:32Z</time></trkpt><trkpt lat="55.45791833426528" lon="38.92821849207459"><ele>128.75</ele><time>2026-05-03T08:54:34Z</time></trkpt><trkpt lat="55.45780912320658" lon="38.92817279475113"><ele>128.5</ele><time>2026-05-03T08:54:35Z</time></trkpt><trkpt lat="55.457679871149374" lon="38.928106728074866"><ele>128.25</ele><time>2026-05-03T08:54:36Z</time></trkpt><trkpt lat="55.457567300397024" lon="38.92805575759812"><ele>128.0</ele><time>2026-05-03T08:54:37Z</time></trkpt><trkpt lat="55.457449697261374" lon="38.927987764746476"><ele>128.0</ele><time>2026-05-03T08:54:38Z</time></trkpt><trkpt lat="55.45735478734819" lon="38.92790818205697"><ele>128.0</ele><time>2026-05-03T08:54:39Z</time></trkpt><trkpt lat="55.4572421047242" lon="38.9278268356701"><ele>128.0</ele><time>2026-05-03T08:54:40Z</time></trkpt><trkpt lat="55.457100268016305" lon="38.92778642400231"><ele>128.0</ele><time>2026-05-03T08:54:41Z</time></trkpt><trkpt lat="55.456967518002955" lon="38.92778477412647"><ele>127.80000000000001</ele><time>2026-05-03T08:54:42Z</time></trkpt><trkpt lat="55.45683921855456" lon="38.927799711610646"><ele>127.60000000000001</ele><time>2026-05-03T08:54:43Z</time></trkpt><trkpt lat="55.456734664129485" lon="38.927870275834216"><ele>127.39999999999999</ele><time>2026-05-03T08:54:44Z</time></trkpt><trkpt lat="55.45663968240087" lon="38.92792122698799"><ele>127.19999999999999</ele><time>2026-05-03T08:54:45Z</time></trkpt><trkpt lat="55.4565619391292" lon="38.928012366532556"><ele>127.0</ele><time>2026-05-03T08:54:46Z</time></trkpt><trkpt lat="55.456480898470424" lon="38.928044492911525"><ele>127.0</ele><time>2026-05-03T08:54:47Z</time></trkpt><trkpt lat="55.4563665284736" lon="38.928016282312235"><ele>127.0</ele><time>2026-05-03T08:54:48Z</time></trkpt><trkpt lat="55.45625542568298" lon="38.92791027903368"><ele>127.0</ele><time>2026-05-03T08:54:49Z</time></trkpt><trkpt lat="55.456115384450236" lon="38.92780420587666"><ele>127.0</ele><time>2026-05-03T08:54:50Z</time></trkpt><trkpt lat="55.45601342571128" lon="38.927750286498146"><ele>127.0</ele><time>2026-05-03T08:54:51Z</time></trkpt><trkpt lat="55.455884531738995" lon="38.92767299900513"><ele>127.0</ele><time>2026-05-03T08:54:52Z</time></trkpt><trkpt lat="55.455782904086966" lon="38.9276098510131"><ele>127.0</ele><time>2026-05-03T08:54:53Z</time></trkpt><trkpt lat="55.45569084323939" lon="38.92753082492996"><ele>127.0</ele><time>2026-05-03T08:54:54Z</time></trkpt><trkpt lat="55.455588402027935" lon="38.92747510198117"><ele>126.8</ele><time>2026-05-03T08:54:55Z</time></trkpt><trkpt lat="55.455508273238955" lon="38.92742328779402"><ele>126.6</ele><time>2026-05-03T08:54:56Z</time></trkpt><trkpt lat="55.45541893044708" lon="38.927354106287716"><ele>126.39999999999999</ele><time>2026-05-03T08:54:57Z</time></trkpt><trkpt lat="55.455340996514096" lon="38.92725584675457"><ele>126.19999999999999</ele><time>2026-05-03T08:54:58Z</time></trkpt><trkpt lat="55.45524374385271" lon="38.92717455313988"><ele>126.0</ele><time>2026-05-03T08:54:59Z</time></trkpt><trkpt lat="55.4551310630989" lon="38.927143576059024"><ele>126.0</ele><time>2026-05-03T08:55:00Z</time></trkpt><trkpt lat="55.45503912971613" lon="38.927136859991805"><ele>126.0</ele><time>2026-05-03T08:55:01Z</time></trkpt><trkpt lat="55.4549321116938" lon="38.92707389864579"><ele>126.0</ele><time>2026-05-03T08:55:02Z</time></trkpt><trkpt lat="55.454807541662596" lon="38.927007136794586"><ele>126.0</ele><time>2026-05-03T08:55:03Z</time></trkpt><trkpt lat="55.454653044283916" lon="38.92689528903425"><ele>126.33333333333334</ele><time>2026-05-03T08:55:04Z</time></trkpt><trkpt lat="55.454471405961904" lon="38.926775257043865"><ele>126.66666666666667</ele><time>2026-05-03T08:55:05Z</time></trkpt><trkpt lat="55.45427569507004" lon="38.92662170158152"><ele>127.0</ele><time>2026-05-03T08:55:06Z</time></trkpt><trkpt lat="55.45408410935163" lon="38.926464281210684"><ele>126.66666666666667</ele><time>2026-05-03T08:55:07Z</time></trkpt><trkpt lat="55.45390421530636" lon="38.92632459345849"><ele>126.33333333333334</ele><time>2026-05-03T08:55:08Z</time></trkpt><trkpt lat="55.45378187789158" lon="38.926259179996855"><ele>126.0</ele><time>2026-05-03T08:55:09Z</time></trkpt><trkpt lat="55.45365068439348" lon="38.92609251688961"><ele>126.0</ele><time>2026-05-03T08:55:10Z</time></trkpt><trkpt lat="55.45351741791709" lon="38.92601358914242"><ele>126.0</ele><time>2026-05-03T08:55:11Z</time></trkpt><trkpt lat="55.45337375144163" lon="38.92589962859598"><ele>126.0</ele><time>2026-05-03T08:55:12Z</time></trkpt><trkpt lat="55.45321702889109" lon="38.925777618308096"><ele>125.5</ele><time>2026-05-03T08:55:13.001Z</time></trkpt><trkpt lat="55.45309453938904" lon="38.92570799436599"><ele>125.0</ele><time>2026-05-03T08:55:14.001Z</time></trkpt><trkpt lat="55.45296597555028" lon="38.92559327204247"><ele>124.5</ele><time>2026-05-03T08:55:15.001Z</time></trkpt><trkpt lat="55.452852605541814" lon="38.925515350645874"><ele>124.0</ele><time>2026-05-03T08:55:16.001Z</time></trkpt><trkpt lat="55.45274239946127" lon="38.9253882747825"><ele>123.75</ele><time>2026-05-03T08:55:17.001Z</time></trkpt><trkpt lat="55.452616743852836" lon="38.92531128423058"><ele>123.5</ele><time>2026-05-03T08:55:18.001Z</time></trkpt><trkpt lat="55.45252472019029" lon="38.92529091233392"><ele>123.25</ele><time>2026-05-03T08:55:19.001Z</time></trkpt><trkpt lat="55.4523968970369" lon="38.9252767802047"><ele>123.0</ele><time>2026-05-03T08:55:20.001Z</time></trkpt><trkpt lat="55.45224197263016" lon="38.92533824571809"><ele>123.75</ele><time>2026-05-03T08:55:21.001Z</time></trkpt><trkpt lat="55.452091151601174" lon="38.925321594611304"><ele>124.5</ele><time>2026-05-03T08:55:22.001Z</time></trkpt><trkpt lat="55.451966496049984" lon="38.925294444635"><ele>125.25</ele><time>2026-05-03T08:55:23.001Z</time></trkpt><trkpt lat="55.45184348130734" lon="38.92525869014971"><ele>126.0</ele><time>2026-05-03T08:55:24.001Z</time></trkpt><trkpt lat="55.45172104051085" lon="38.92523079832512"><ele>126.0</ele><time>2026-05-03T08:55:25.001Z</time></trkpt><trkpt lat="55.45159709802219" lon="38.92525731223228"><ele>126.0</ele><time>2026-05-03T08:55:26.001Z</time></trkpt><trkpt lat="55.451482670974954" lon="38.925350373796"><ele>126.0</ele><time>2026-05-03T08:55:27.001Z</time></trkpt><trkpt lat="55.45136787949114" lon="38.92548366847774"><ele>126.0</ele><time>2026-05-03T08:55:28.001Z</time></trkpt><trkpt lat="55.451243311594844" lon="38.92558640279498"><ele>126.5</ele><time>2026-05-03T08:55:29.001Z</time></trkpt><trkpt lat="55.451125972740755" lon="38.925714893091275"><ele>127.0</ele><time>2026-05-03T08:55:30.001Z</time></trkpt><trkpt lat="55.451012922467186" lon="38.92580271267535"><ele>127.5</ele><time>2026-05-03T08:55:31.001Z</time></trkpt><trkpt lat="55.450933020019214" lon="38.92592378907299"><ele>128.0</ele><time>2026-05-03T08:55:32.001Z</time></trkpt><trkpt lat="55.45085792885102" lon="38.926097062745676"><ele>128.20000000000002</ele><time>2026-05-03T08:55:33.001Z</time></trkpt><trkpt lat="55.45076883614084" lon="38.92625426970158"><ele>128.4</ele><time>2026-05-03T08:55:34.001Z</time></trkpt><trkpt lat="55.45069511863275" lon="38.92634684841402"><ele>128.60000000000002</ele><time>2026-05-03T08:55:35.001Z</time></trkpt><trkpt lat="55.450630588798326" lon="38.92639740402308"><ele>128.8</ele><time>2026-05-03T08:55:36.001Z</time></trkpt><trkpt lat="55.45053989979448" lon="38.92649080177646"><ele>129.0</ele><time>2026-05-03T08:55:38.001Z</time></trkpt><trkpt lat="55.45045918400915" lon="38.926460964799794"><ele>129.2</ele><time>2026-05-03T08:55:40.001Z</time></trkpt><trkpt lat="55.45035746124327" lon="38.926349224287044"><ele>129.4</ele><time>2026-05-03T08:55:42.001Z</time></trkpt><trkpt lat="55.45029647046471" lon="38.92623911710502"><ele>129.6</ele><time>2026-05-03T08:55:43.001Z</time></trkpt><trkpt lat="55.45023133053402" lon="38.92613071375336"><ele>129.8</ele><time>2026-05-03T08:55:44.001Z</time></trkpt><trkpt lat="55.45015574901308" lon="38.92603209973251"><ele>130.0</ele><time>2026-05-03T08:55:45.001Z</time></trkpt><trkpt lat="55.45009821108668" lon="38.925925080586524"><ele>130.0</ele><time>2026-05-03T08:55:46.001Z</time></trkpt><trkpt lat="55.45003072514251" lon="38.92585571967291"><ele>130.0</ele><time>2026-05-03T08:55:47.001Z</time></trkpt><trkpt lat="55.44994714574721" lon="38.92579883967373"><ele>130.0</ele><time>2026-05-03T08:55:50.001Z</time></trkpt><trkpt lat="55.44987974482738" lon="38.925873937785894"><ele>130.0</ele><time>2026-05-03T08:55:53.001Z</time></trkpt><trkpt lat="55.44981696264139" lon="38.92583004781581"><ele>130.0</ele><time>2026-05-03T08:56:14.001Z</time></trkpt><trkpt lat="55.449679965884314" lon="38.925862259678674"><ele>130.2</ele><time>2026-05-03T08:56:16.001Z</time></trkpt><trkpt lat="55.44961147687705" lon="38.92584190212168"><ele>130.4</ele><time>2026-05-03T08:56:17.001Z</time></trkpt><trkpt lat="55.44951875685034" lon="38.92579711476498"><ele>130.6</ele><time>2026-05-03T08:56:18.001Z</time></trkpt><trkpt lat="55.4494349654494" lon="38.925736700780334"><ele>130.8</ele><time>2026-05-03T08:56:19.001Z</time></trkpt><trkpt lat="55.449351749145656" lon="38.92565260145804"><ele>131.0</ele><time>2026-05-03T08:56:20.001Z</time></trkpt><trkpt lat="55.449235840246395" lon="38.92553340617271"><ele>131.0</ele><time>2026-05-03T08:56:21.001Z</time></trkpt><trkpt lat="55.44898905913039" lon="38.92535801809352"><ele>131.0</ele><time>2026-05-03T08:56:23.001Z</time></trkpt><trkpt lat="55.44886509733998" lon="38.92526649420924"><ele>131.0</ele><time>2026-05-03T08:56:24.001Z</time></trkpt><trkpt lat="55.44874077424922" lon="38.925158954399926"><ele>130.66666666666666</ele><time>2026-05-03T08:56:25.001Z</time></trkpt><trkpt lat="55.44862625344472" lon="38.925049910292365"><ele>130.33333333333334</ele><time>2026-05-03T08:56:26.001Z</time></trkpt><trkpt lat="55.448476739862706" lon="38.924895043197374"><ele>130.0</ele><time>2026-05-03T08:56:27.001Z</time></trkpt><trkpt lat="55.44832647464129" lon="38.92478265722014"><ele>130.0</ele><time>2026-05-03T08:56:28.001Z</time></trkpt><trkpt lat="55.448164835157854" lon="38.92465118622015"><ele>130.0</ele><time>2026-05-03T08:56:29.001Z</time></trkpt><trkpt lat="55.44801249964427" lon="38.924534116407564"><ele>130.0</ele><time>2026-05-03T08:56:30.001Z</time></trkpt><trkpt lat="55.447869932980886" lon="38.92441331392635"><ele>130.66666666666669</ele><time>2026-05-03T08:56:31.001Z</time></trkpt><trkpt lat="55.44770693480937" lon="38.92430380095179"><ele>131.33333333333334</ele><time>2026-05-03T08:56:32.001Z</time></trkpt><trkpt lat="55.44754469564256" lon="38.924217499142415"><ele>132.0</ele><time>2026-05-03T08:56:33.001Z</time></trkpt><trkpt lat="55.44738909854655" lon="38.924144433403995"><ele>132.0</ele><time>2026-05-03T08:56:34.001Z</time></trkpt><trkpt lat="55.44723544051129" lon="38.924083348269"><ele>132.0</ele><time>2026-05-03T08:56:35.001Z</time></trkpt><trkpt lat="55.44709028063232" lon="38.92402211910229"><ele>132.0</ele><time>2026-05-03T08:56:36.001Z</time></trkpt><trkpt lat="55.44691755289762" lon="38.923994866871006"><ele>132.0</ele><time>2026-05-03T08:56:37.001Z</time></trkpt><trkpt lat="55.446755921876495" lon="38.92397505493437"><ele>132.0</ele><time>2026-05-03T08:56:38Z</time></trkpt><trkpt lat="55.44658791975562" lon="38.92398002775949"><ele>132.0</ele><time>2026-05-03T08:56:39Z</time></trkpt><trkpt lat="55.44643282731157" lon="38.92395798841269"><ele>131.75</ele><time>2026-05-03T08:56:40Z</time></trkpt><trkpt lat="55.44629194504312" lon="38.92394127358088"><ele>131.5</ele><time>2026-05-03T08:56:41Z</time></trkpt><trkpt lat="55.44614065407093" lon="38.92395442468396"><ele>131.25</ele><time>2026-05-03T08:56:42Z</time></trkpt><trkpt lat="55.44599761988108" lon="38.9239522612739"><ele>131.0</ele><time>2026-05-03T08:56:43Z</time></trkpt><trkpt lat="55.445851499867004" lon="38.92395783912695"><ele>131.0</ele><time>2026-05-03T08:56:44Z</time></trkpt><trkpt lat="55.44570241620799" lon="38.92396945688363"><ele>131.0</ele><time>2026-05-03T08:56:45Z</time></trkpt><trkpt lat="55.44556178005413" lon="38.92399388822421"><ele>131.0</ele><time>2026-05-03T08:56:46Z</time></trkpt><trkpt lat="55.44542415502312" lon="38.92404125337853"><ele>131.0</ele><time>2026-05-03T08:56:47Z</time></trkpt><trkpt lat="55.445277613824985" lon="38.92405602866286"><ele>130.75</ele><time>2026-05-03T08:56:48Z</time></trkpt><trkpt lat="55.44513520521787" lon="38.924072039819926"><ele>130.5</ele><time>2026-05-03T08:56:49Z</time></trkpt><trkpt lat="55.444995087091115" lon="38.92407260427693"><ele>130.25</ele><time>2026-05-03T08:56:50Z</time></trkpt><trkpt lat="55.44486614704933" lon="38.92406874639778"><ele>130.0</ele><time>2026-05-03T08:56:51Z</time></trkpt><trkpt lat="55.4447299118286" lon="38.9240880613384"><ele>129.5</ele><time>2026-05-03T08:56:52Z</time></trkpt><trkpt lat="55.444594173765665" lon="38.92406545117899"><ele>129.0</ele><time>2026-05-03T08:56:53Z</time></trkpt><trkpt lat="55.444474912677244" lon="38.924077273279"><ele>128.5</ele><time>2026-05-03T08:56:54Z</time></trkpt><trkpt lat="55.4443468362308" lon="38.92408181540686"><ele>128.0</ele><time>2026-05-03T08:56:55Z</time></trkpt><trkpt lat="55.4442156612313" lon="38.92404367117812"><ele>128.0</ele><time>2026-05-03T08:56:56Z</time></trkpt><trkpt lat="55.44409801692017" lon="38.92404402730857"><ele>128.0</ele><time>2026-05-03T08:56:57Z</time></trkpt><trkpt lat="55.443953542050174" lon="38.92402089151553"><ele>128.0</ele><time>2026-05-03T08:56:58Z</time></trkpt><trkpt lat="55.4438185355939" lon="38.92400369430549"><ele>128.0</ele><time>2026-05-03T08:56:59Z</time></trkpt><trkpt lat="55.4436952852096" lon="38.924002709653706"><ele>127.5</ele><time>2026-05-03T08:57:00Z</time></trkpt><trkpt lat="55.44357588315707" lon="38.92397566451964"><ele>127.0</ele><time>2026-05-03T08:57:01Z</time></trkpt><trkpt lat="55.44343536226863" lon="38.92396694059317"><ele>126.5</ele><time>2026-05-03T08:57:02Z</time></trkpt><trkpt lat="55.44329029564637" lon="38.92397477742886"><ele>126.0</ele><time>2026-05-03T08:57:03Z</time></trkpt><trkpt lat="55.44315550606301" lon="38.92397193009115"><ele>126.0</ele><time>2026-05-03T08:57:04Z</time></trkpt><trkpt lat="55.44302624046593" lon="38.92394737528469"><ele>126.0</ele><time>2026-05-03T08:57:05Z</time></trkpt><trkpt lat="55.44289075000664" lon="38.923935920348136"><ele>126.0</ele><time>2026-05-03T08:57:06Z</time></trkpt><trkpt lat="55.442749148973206" lon="38.92394807187047"><ele>126.0</ele><time>2026-05-03T08:57:06.999Z</time></trkpt><trkpt lat="55.44260465696424" lon="38.923951366836334"><ele>126.0</ele><time>2026-05-03T08:57:07.999Z</time></trkpt><trkpt lat="55.44245996845366" lon="38.923968226388865"><ele>126.0</ele><time>2026-05-03T08:57:08.999Z</time></trkpt><trkpt lat="55.44231140109758" lon="38.923972295425585"><ele>126.0</ele><time>2026-05-03T08:57:09.999Z</time></trkpt><trkpt lat="55.44215927565664" lon="38.92396248464079"><ele>126.0</ele><time>2026-05-03T08:57:10.999Z</time></trkpt><trkpt lat="55.4420159226699" lon="38.92394973237737"><ele>125.66666666666666</ele><time>2026-05-03T08:57:11.999Z</time></trkpt><trkpt lat="55.44186688032927" lon="38.923926650224736"><ele>125.33333333333333</ele><time>2026-05-03T08:57:12.999Z</time></trkpt><trkpt lat="55.44171161822004" lon="38.9238932567145"><ele>125.0</ele><time>2026-05-03T08:57:13.999Z</time></trkpt><trkpt lat="55.441567787766395" lon="38.923877538652775"><ele>125.0</ele><time>2026-05-03T08:57:14.999Z</time></trkpt><trkpt lat="55.44139542077582" lon="38.92385612741953"><ele>125.0</ele><time>2026-05-03T08:57:15.999Z</time></trkpt><trkpt lat="55.44123517187787" lon="38.9238310941378"><ele>125.0</ele><time>2026-05-03T08:57:16.999Z</time></trkpt><trkpt lat="55.44108533411072" lon="38.923812264687406"><ele>125.33333333333333</ele><time>2026-05-03T08:57:17.999Z</time></trkpt><trkpt lat="55.44091916022078" lon="38.92383365838047"><ele>125.66666666666666</ele><time>2026-05-03T08:57:18.999Z</time></trkpt><trkpt lat="55.4407728107024" lon="38.92379779957714"><ele>126.0</ele><time>2026-05-03T08:57:20Z</time></trkpt><trkpt lat="55.44061986490536" lon="38.92376591463423"><ele>125.66666666666666</ele><time>2026-05-03T08:57:21Z</time></trkpt><trkpt lat="55.44046111995573" lon="38.92375634409865"><ele>125.33333333333333</ele><time>2026-05-03T08:57:22Z</time></trkpt><trkpt lat="55.44030272872031" lon="38.92371809539199"><ele>125.0</ele><time>2026-05-03T08:57:23Z</time></trkpt><trkpt lat="55.440137860992095" lon="38.923722260430004"><ele>125.0</ele><time>2026-05-03T08:57:24Z</time></trkpt><trkpt lat="55.43998474291343" lon="38.923701162752096"><ele>125.0</ele><time>2026-05-03T08:57:25Z</time></trkpt><trkpt lat="55.43982672009854" lon="38.92368745802754"><ele>125.0</ele><time>2026-05-03T08:57:26Z</time></trkpt><trkpt lat="55.43967449152194" lon="38.92370775240674"><ele>125.0</ele><time>2026-05-03T08:57:27Z</time></trkpt><trkpt lat="55.43952992914787" lon="38.92373481147298"><ele>125.0</ele><time>2026-05-03T08:57:28Z</time></trkpt><trkpt lat="55.43937723738766" lon="38.92376426489957"><ele>125.0</ele><time>2026-05-03T08:57:29Z</time></trkpt><trkpt lat="55.43920962875024" lon="38.92385392407082"><ele>125.0</ele><time>2026-05-03T08:57:30Z</time></trkpt><trkpt lat="55.43906469239765" lon="38.92393099144759"><ele>125.0</ele><time>2026-05-03T08:57:31Z</time></trkpt><trkpt lat="55.43893081847017" lon="38.92405553705539"><ele>125.0</ele><time>2026-05-03T08:57:32Z</time></trkpt><trkpt lat="55.4387960404104" lon="38.9241756045073"><ele>125.66666666666666</ele><time>2026-05-03T08:57:33Z</time></trkpt><trkpt lat="55.438663300292795" lon="38.924352279865936"><ele>126.33333333333334</ele><time>2026-05-03T08:57:34Z</time></trkpt><trkpt lat="55.43852512533216" lon="38.92451832469701"><ele>127.0</ele><time>2026-05-03T08:57:35Z</time></trkpt><trkpt lat="55.438393508549794" lon="38.924672236209744"><ele>127.0</ele><time>2026-05-03T08:57:36Z</time></trkpt><trkpt lat="55.43826236617113" lon="38.92481572737188"><ele>127.0</ele><time>2026-05-03T08:57:37Z</time></trkpt><trkpt lat="55.438124453990774" lon="38.92497340712822"><ele>127.0</ele><time>2026-05-03T08:57:38Z</time></trkpt><trkpt lat="55.43798082639898" lon="38.92509973752378"><ele>129.0</ele><time>2026-05-03T08:57:39Z</time></trkpt><trkpt lat="55.43782090983408" lon="38.92520685981533"><ele>131.0</ele><time>2026-05-03T08:57:40Z</time></trkpt><trkpt lat="55.4376566661884" lon="38.92527411569237"><ele>133.0</ele><time>2026-05-03T08:57:41Z</time></trkpt><trkpt lat="55.437487188814536" lon="38.9253125848612"><ele>133.0</ele><time>2026-05-03T08:57:42Z</time></trkpt><trkpt lat="55.43731034519682" lon="38.925316265166515"><ele>133.0</ele><time>2026-05-03T08:57:43Z</time></trkpt><trkpt lat="55.43714549587196" lon="38.925312404866695"><ele>133.0</ele><time>2026-05-03T08:57:44Z</time></trkpt><trkpt lat="55.437028489493194" lon="38.925228125478384"><ele>133.0</ele><time>2026-05-03T08:57:45Z</time></trkpt><trkpt lat="55.43688661566909" lon="38.92507108639902"><ele>133.0</ele><time>2026-05-03T08:57:46Z</time></trkpt><trkpt lat="55.436766552864285" lon="38.924886062438894"><ele>133.0</ele><time>2026-05-03T08:57:47Z</time></trkpt><trkpt lat="55.43664833297044" lon="38.92473558297287"><ele>132.66666666666669</ele><time>2026-05-03T08:57:48Z</time></trkpt><trkpt lat="55.436536223806144" lon="38.9245617894952"><ele>132.33333333333334</ele><time>2026-05-03T08:57:49Z</time></trkpt><trkpt lat="55.43639369738752" lon="38.92444668188775"><ele>132.0</ele><time>2026-05-03T08:57:50Z</time></trkpt><trkpt lat="55.436248563655866" lon="38.924332096375664"><ele>132.33333333333334</ele><time>2026-05-03T08:57:51Z</time></trkpt><trkpt lat="55.436089264218374" lon="38.924223575550194"><ele>132.66666666666669</ele><time>2026-05-03T08:57:52Z</time></trkpt><trkpt lat="55.43592875980486" lon="38.924101591261596"><ele>133.0</ele><time>2026-05-03T08:57:53Z</time></trkpt><trkpt lat="55.43577663905205" lon="38.92397292836758"><ele>133.0</ele><time>2026-05-03T08:57:54Z</time></trkpt><trkpt lat="55.43562672364167" lon="38.9238419599059"><ele>133.0</ele><time>2026-05-03T08:57:55Z</time></trkpt><trkpt lat="55.43549753561625" lon="38.92370692134018"><ele>133.0</ele><time>2026-05-03T08:57:56Z</time></trkpt><trkpt lat="55.435378570738365" lon="38.923581128533115"><ele>132.33333333333334</ele><time>2026-05-03T08:57:57Z</time></trkpt><trkpt lat="55.435240031731425" lon="38.92346799300751"><ele>131.66666666666666</ele><time>2026-05-03T08:57:58Z</time></trkpt><trkpt lat="55.435071612833845" lon="38.92334765065075"><ele>131.0</ele><time>2026-05-03T08:57:59Z</time></trkpt><trkpt lat="55.43492004655173" lon="38.92328243915584"><ele>130.75</ele><time>2026-05-03T08:58:00Z</time></trkpt><trkpt lat="55.43479324292608" lon="38.923185773999435"><ele>130.5</ele><time>2026-05-03T08:58:01Z</time></trkpt><trkpt lat="55.43465866947375" lon="38.923101755517"><ele>130.25</ele><time>2026-05-03T08:58:02Z</time></trkpt><trkpt lat="55.43451087296529" lon="38.92301493022973"><ele>130.0</ele><time>2026-05-03T08:58:03Z</time></trkpt><trkpt lat="55.43435468481948" lon="38.92293476472841"><ele>129.66666666666669</ele><time>2026-05-03T08:58:04Z</time></trkpt><trkpt lat="55.434207304125955" lon="38.922819229257165"><ele>129.33333333333334</ele><time>2026-05-03T08:58:05Z</time></trkpt><trkpt lat="55.434046661943576" lon="38.922711041259916"><ele>129.0</ele><time>2026-05-03T08:58:06Z</time></trkpt><trkpt lat="55.43390389303116" lon="38.92258238373156"><ele>128.0</ele><time>2026-05-03T08:58:07Z</time></trkpt><trkpt lat="55.433752113387925" lon="38.92244239733794"><ele>127.0</ele><time>2026-05-03T08:58:08Z</time></trkpt><trkpt lat="55.43359813831306" lon="38.9222862602471"><ele>126.0</ele><time>2026-05-03T08:58:09Z</time></trkpt><trkpt lat="55.43345089940047" lon="38.922165243367814"><ele>126.0</ele><time>2026-05-03T08:58:10Z</time></trkpt><trkpt lat="55.433312610976444" lon="38.92204429557464"><ele>126.0</ele><time>2026-05-03T08:58:11Z</time></trkpt><trkpt lat="55.43317341437119" lon="38.92191930495493"><ele>126.0</ele><time>2026-05-03T08:58:12Z</time></trkpt><trkpt lat="55.43304437277702" lon="38.92179525570215"><ele>127.33333333333334</ele><time>2026-05-03T08:58:13Z</time></trkpt><trkpt lat="55.43288587990427" lon="38.92170971375319"><ele>128.66666666666669</ele><time>2026-05-03T08:58:14Z</time></trkpt><trkpt lat="55.43275702266475" lon="38.921595676871384"><ele>130.0</ele><time>2026-05-03T08:58:15Z</time></trkpt><trkpt lat="55.43261363736136" lon="38.92152044154854"><ele>130.0</ele><time>2026-05-03T08:58:16Z</time></trkpt><trkpt lat="55.432483634167134" lon="38.921386850359966"><ele>130.0</ele><time>2026-05-03T08:58:17Z</time></trkpt><trkpt lat="55.43233804375283" lon="38.921266512509476"><ele>130.0</ele><time>2026-05-03T08:58:18Z</time></trkpt><trkpt lat="55.432200830589544" lon="38.921159589535584"><ele>130.25</ele><time>2026-05-03T08:58:19Z</time></trkpt><trkpt lat="55.432070017747044" lon="38.92107144281654"><ele>130.5</ele><time>2026-05-03T08:58:20Z</time></trkpt><trkpt lat="55.43197172132157" lon="38.92097952865039"><ele>130.75</ele><time>2026-05-03T08:58:21Z</time></trkpt><trkpt lat="55.431877138822045" lon="38.920920026693686"><ele>131.0</ele><time>2026-05-03T08:58:22Z</time></trkpt><trkpt lat="55.431745046422705" lon="38.92080557768251"><ele>131.0</ele><time>2026-05-03T08:58:24Z</time></trkpt><trkpt lat="55.43162159069607" lon="38.920793526887316"><ele>131.0</ele><time>2026-05-03T08:58:25Z</time></trkpt><trkpt lat="55.43151412326414" lon="38.920756631992916"><ele>131.0</ele><time>2026-05-03T08:58:26Z</time></trkpt><trkpt lat="55.431417673783685" lon="38.92071689141277"><ele>131.0</ele><time>2026-05-03T08:58:27Z</time></trkpt><trkpt lat="55.43132768759835" lon="38.92060491168589"><ele>131.0</ele><time>2026-05-03T08:58:28Z</time></trkpt><trkpt lat="55.43123897904351" lon="38.920645104885395"><ele>131.5</ele><time>2026-05-03T08:58:29Z</time></trkpt><trkpt lat="55.43110862551537" lon="38.92071471870374"><ele>132.0</ele><time>2026-05-03T08:58:30Z</time></trkpt><trkpt lat="55.431017255016336" lon="38.92070234954384"><ele>132.5</ele><time>2026-05-03T08:58:31Z</time></trkpt><trkpt lat="55.430898951601236" lon="38.92080619388143"><ele>133.0</ele><time>2026-05-03T08:58:32Z</time></trkpt><trkpt lat="55.4308028350221" lon="38.920781927035584"><ele>133.0</ele><time>2026-05-03T08:58:33Z</time></trkpt><trkpt lat="55.43057567836778" lon="38.920794549141014"><ele>133.0</ele><time>2026-05-03T08:58:35Z</time></trkpt><trkpt lat="55.430504086662516" lon="38.92080118713557"><ele>133.0</ele><time>2026-05-03T08:58:36Z</time></trkpt><trkpt lat="55.43043812437943" lon="38.92077094686501"><ele>133.0</ele><time>2026-05-03T08:58:37Z</time></trkpt><trkpt lat="55.43034568237018" lon="38.92078038515746"><ele>133.25</ele><time>2026-05-03T08:58:39Z</time></trkpt><trkpt lat="55.430417733744434" lon="38.920913545349414"><ele>133.5</ele><time>2026-05-03T08:58:41Z</time></trkpt><trkpt lat="55.43038809766444" lon="38.92101205505289"><ele>133.75</ele><time>2026-05-03T08:58:42Z</time></trkpt><trkpt lat="55.43039795509229" lon="38.92115745642663"><ele>134.0</ele><time>2026-05-03T08:58:43.999Z</time></trkpt><trkpt lat="55.430606648598456" lon="38.92125138597331"><ele>133.6</ele><time>2026-05-03T08:58:45.999Z</time></trkpt><trkpt lat="55.43069418161686" lon="38.921349437893696"><ele>133.2</ele><time>2026-05-03T08:58:47.999Z</time></trkpt><trkpt lat="55.43076703565628" lon="38.921400413493025"><ele>132.79999999999998</ele><time>2026-05-03T08:58:48.999Z</time></trkpt><trkpt lat="55.43085887938037" lon="38.921472331882285"><ele>132.4</ele><time>2026-05-03T08:58:49.999Z</time></trkpt><trkpt lat="55.43094531287112" lon="38.92158763770305"><ele>132.0</ele><time>2026-05-03T08:58:50.999Z</time></trkpt><trkpt lat="55.43107103328978" lon="38.92169915418744"><ele>132.0</ele><time>2026-05-03T08:58:51.999Z</time></trkpt><trkpt lat="55.43116455036785" lon="38.92176960517131"><ele>132.0</ele><time>2026-05-03T08:58:52.999Z</time></trkpt><trkpt lat="55.43128274169936" lon="38.92188375320217"><ele>132.0</ele><time>2026-05-03T08:58:53.999Z</time></trkpt><trkpt lat="55.43142242991167" lon="38.92198447629399"><ele>132.0</ele><time>2026-05-03T08:58:54.999Z</time></trkpt><trkpt lat="55.43152698611913" lon="38.92209920077915"><ele>131.66666666666666</ele><time>2026-05-03T08:58:55.999Z</time></trkpt><trkpt lat="55.43171163648294" lon="38.922258649780034"><ele>131.33333333333331</ele><time>2026-05-03T08:58:57.999Z</time></trkpt><trkpt lat="55.431844915292956" lon="38.92238201236149"><ele>131.0</ele><time>2026-05-03T08:58:58.999Z</time></trkpt><trkpt lat="55.43205548641239" lon="38.92252931643292"><ele>130.0</ele><time>2026-05-03T08:58:59.999Z</time></trkpt><trkpt lat="55.43224623061124" lon="38.9226811424921"><ele>129.0</ele><time>2026-05-03T08:59:00.999Z</time></trkpt><trkpt lat="55.43238028016031" lon="38.922745265741625"><ele>128.0</ele><time>2026-05-03T08:59:01.999Z</time></trkpt><trkpt lat="55.43250897487427" lon="38.92279719207798"><ele>127.99999999999999</ele><time>2026-05-03T08:59:02.999Z</time></trkpt><trkpt lat="55.432615459717596" lon="38.92281501287675"><ele>128.0</ele><time>2026-05-03T08:59:03.999Z</time></trkpt><trkpt lat="55.432694118801784" lon="38.922909882485484"><ele>128.0</ele><time>2026-05-03T08:59:05.999Z</time></trkpt><trkpt lat="55.43274052364994" lon="38.92305682846018"><ele>128.0</ele><time>2026-05-03T08:59:07.999Z</time></trkpt><trkpt lat="55.432743284228444" lon="38.92317224948684"><ele>127.99999999999999</ele><time>2026-05-03T08:59:09.999Z</time></trkpt><trkpt lat="55.4327083909441" lon="38.92329902412927"><ele>128.0</ele><time>2026-05-03T08:59:14Z</time></trkpt><trkpt lat="55.43265732252423" lon="38.92336923971175"><ele>127.99999999999999</ele><time>2026-05-03T08:59:16Z</time></trkpt><trkpt lat="55.43267573835224" lon="38.92349680835219"><ele>128.0</ele><time>2026-05-03T08:59:20Z</time></trkpt><trkpt lat="55.43272853699718" lon="38.92357862959023"><ele>128.0</ele><time>2026-05-03T08:59:24Z</time></trkpt><trkpt lat="55.43282116064523" lon="38.92362159579817"><ele>128.0</ele><time>2026-05-03T08:59:27Z</time></trkpt><trkpt lat="55.43287242522258" lon="38.92373077514389"><ele>127.99999999999999</ele><time>2026-05-03T08:59:30Z</time></trkpt><trkpt lat="55.432874305769786" lon="38.92384934995291"><ele>128.0</ele><time>2026-05-03T08:59:40Z</time></trkpt><trkpt lat="55.43282372729735" lon="38.92396290959392"><ele>127.99999999999999</ele><time>2026-05-03T08:59:42Z</time></trkpt><trkpt lat="55.43276790758011" lon="38.924053029491915"><ele>128.0</ele><time>2026-05-03T08:59:45Z</time></trkpt><trkpt lat="55.432700539174775" lon="38.924111202655396"><ele>128.0</ele><time>2026-05-03T08:59:48Z</time></trkpt><trkpt lat="55.43260233933452" lon="38.924148828192536"><ele>128.0</ele><time>2026-05-03T08:59:50Z</time></trkpt><trkpt lat="55.43252009979456" lon="38.92421124835246"><ele>127.99999999999999</ele><time>2026-05-03T08:59:51Z</time></trkpt><trkpt lat="55.43245077820187" lon="38.92425332955839"><ele>128.0</ele><time>2026-05-03T08:59:53Z</time></trkpt><trkpt lat="55.43244598979762" lon="38.92438645866061"><ele>128.0</ele><time>2026-05-03T08:59:55Z</time></trkpt><trkpt lat="55.43244756307951" lon="38.924551237047275"><ele>128.0</ele><time>2026-05-03T08:59:57Z</time></trkpt><trkpt lat="55.43237675335566" lon="38.92470575949891"><ele>128.0</ele><time>2026-05-03T08:59:59Z</time></trkpt><trkpt lat="55.43230890425135" lon="38.924811844154526"><ele>128.0</ele><time>2026-05-03T09:00:01Z</time></trkpt><trkpt lat="55.432201439752866" lon="38.92481930261152"><ele>128.0</ele><time>2026-05-03T09:00:03Z</time></trkpt><trkpt lat="55.432107190206004" lon="38.92485076537915"><ele>127.99999999999999</ele><time>2026-05-03T09:00:06Z</time></trkpt><trkpt lat="55.43207561583034" lon="38.92474213041676"><ele>128.0</ele><time>2026-05-03T09:00:08Z</time></trkpt><trkpt lat="55.432079357958756" lon="38.92462510492443"><ele>128.0</ele><time>2026-05-03T09:00:10Z</time></trkpt><trkpt lat="55.43202438721628" lon="38.92452410260132"><ele>128.0</ele><time>2026-05-03T09:00:12Z</time></trkpt><trkpt lat="55.43193055889149" lon="38.92457539282149"><ele>127.99999999999999</ele><time>2026-05-03T09:00:14Z</time></trkpt><trkpt lat="55.43186616810454" lon="38.924608923337416"><ele>128.0</ele><time>2026-05-03T09:00:16Z</time></trkpt><trkpt lat="55.4317806634846" lon="38.924664130780535"><ele>128.0</ele><time>2026-05-03T09:00:20Z</time></trkpt><trkpt lat="55.43171809281102" lon="38.924651707026385"><ele>128.0</ele><time>2026-05-03T09:00:21Z</time></trkpt><trkpt lat="55.43161547575235" lon="38.92452255154233"><ele>128.0</ele><time>2026-05-03T09:00:23Z</time></trkpt><trkpt lat="55.4315523299645" lon="38.92447125823404"><ele>128.0</ele><time>2026-05-03T09:00:24Z</time></trkpt><trkpt lat="55.43146594945259" lon="38.92450155617299"><ele>128.0</ele><time>2026-05-03T09:00:26Z</time></trkpt><trkpt lat="55.431362742099516" lon="38.92458312517708"><ele>127.80000000000001</ele><time>2026-05-03T09:00:28Z</time></trkpt><trkpt lat="55.43130040033972" lon="38.924716535631106"><ele>127.60000000000001</ele><time>2026-05-03T09:00:30Z</time></trkpt><trkpt lat="55.43127579011729" lon="38.92483044469272"><ele>127.39999999999999</ele><time>2026-05-03T09:00:31.001Z</time></trkpt><trkpt lat="55.431248212454044" lon="38.92493643411138"><ele>127.19999999999999</ele><time>2026-05-03T09:00:32.001Z</time></trkpt><trkpt lat="55.43117911016563" lon="38.92509861200716"><ele>127.0</ele><time>2026-05-03T09:00:34.001Z</time></trkpt><trkpt lat="55.431095631460636" lon="38.92526002748278"><ele>127.00000000000001</ele><time>2026-05-03T09:00:36.001Z</time></trkpt><trkpt lat="55.43107329531278" lon="38.92537765427776"><ele>127.0</ele><time>2026-05-03T09:00:37.001Z</time></trkpt><trkpt lat="55.43104378829172" lon="38.92548254386318"><ele>127.0</ele><time>2026-05-03T09:00:38.001Z</time></trkpt><trkpt lat="55.431009958535505" lon="38.92558597258816"><ele>127.0</ele><time>2026-05-03T09:00:39.001Z</time></trkpt><trkpt lat="55.43095646937882" lon="38.92577256131858"><ele>127.00000000000001</ele><time>2026-05-03T09:00:41.001Z</time></trkpt><trkpt lat="55.43088115893929" lon="38.92594660843326"><ele>127.0</ele><time>2026-05-03T09:00:43.001Z</time></trkpt><trkpt lat="55.43085452566411" lon="38.9260653796097"><ele>127.00000000000001</ele><time>2026-05-03T09:00:44.001Z</time></trkpt><trkpt lat="55.43081651662159" lon="38.9262151983485"><ele>127.0</ele><time>2026-05-03T09:00:45.001Z</time></trkpt><trkpt lat="55.43077709505654" lon="38.92634204269295"><ele>127.0</ele><time>2026-05-03T09:00:46.001Z</time></trkpt><trkpt lat="55.43072007194251" lon="38.92650547903899"><ele>127.0</ele><time>2026-05-03T09:00:47.001Z</time></trkpt><trkpt lat="55.43067723130684" lon="38.926648604091305"><ele>127.00000000000001</ele><time>2026-05-03T09:00:48.001Z</time></trkpt><trkpt lat="55.43064511360052" lon="38.92674948453575"><ele>127.0</ele><time>2026-05-03T09:00:49.001Z</time></trkpt><trkpt lat="55.43061609016905" lon="38.92684924569873"><ele>127.00000000000001</ele><time>2026-05-03T09:00:49.999Z</time></trkpt><trkpt lat="55.430585561480484" lon="38.92701083456178"><ele>127.0</ele><time>2026-05-03T09:00:51.999Z</time></trkpt><trkpt lat="55.4306033561312" lon="38.92721795865219"><ele>127.0</ele><time>2026-05-03T09:00:53.999Z</time></trkpt><trkpt lat="55.43061668914152" lon="38.92735938210253"><ele>127.0</ele><time>2026-05-03T09:00:55.999Z</time></trkpt><trkpt lat="55.430613588776666" lon="38.92747190500043"><ele>127.00000000000001</ele><time>2026-05-03T09:00:57.999Z</time></trkpt><trkpt lat="55.430623616845764" lon="38.9275828903725"><ele>127.0</ele><time>2026-05-03T09:00:58.999Z</time></trkpt><trkpt lat="55.430614884522434" lon="38.92770259712507"><ele>127.16666666666667</ele><time>2026-05-03T09:01:01.999Z</time></trkpt><trkpt lat="55.43061975392639" lon="38.92781676347863"><ele>127.33333333333334</ele><time>2026-05-03T09:01:04.999Z</time></trkpt><trkpt lat="55.43061357011143" lon="38.927959514872256"><ele>127.5</ele><time>2026-05-03T09:01:08Z</time></trkpt><trkpt lat="55.43060042793284" lon="38.92809512959613"><ele>127.66666666666666</ele><time>2026-05-03T09:01:10Z</time></trkpt><trkpt lat="55.430614359472926" lon="38.928283776550984"><ele>127.83333333333333</ele><time>2026-05-03T09:01:12Z</time></trkpt><trkpt lat="55.43060032582394" lon="38.92839370423519"><ele>128.0</ele><time>2026-05-03T09:01:13Z</time></trkpt><trkpt lat="55.43059447219021" lon="38.928564760678334"><ele>128.20000000000002</ele><time>2026-05-03T09:01:14Z</time></trkpt><trkpt lat="55.43058719272664" lon="38.92868802028885"><ele>128.4</ele><time>2026-05-03T09:01:15Z</time></trkpt><trkpt lat="55.43058327765596" lon="38.92884638861147"><ele>128.60000000000002</ele><time>2026-05-03T09:01:17Z</time></trkpt><trkpt lat="55.43057582970654" lon="38.92895838595695"><ele>128.8</ele><time>2026-05-03T09:01:18Z</time></trkpt><trkpt lat="55.43057291424059" lon="38.92919864348419"><ele>129.0</ele><time>2026-05-03T09:01:20Z</time></trkpt><trkpt lat="55.43056319185796" lon="38.9293772800108"><ele>129.0</ele><time>2026-05-03T09:01:21Z</time></trkpt><trkpt lat="55.430551776456205" lon="38.929528255995585"><ele>129.0</ele><time>2026-05-03T09:01:22Z</time></trkpt><trkpt lat="55.43054760130974" lon="38.92969798555507"><ele>129.0</ele><time>2026-05-03T09:01:23Z</time></trkpt><trkpt lat="55.43054437644973" lon="38.92984238204245"><ele>129.0</ele><time>2026-05-03T09:01:24Z</time></trkpt><trkpt lat="55.430518933913596" lon="38.929999617802515"><ele>129.0</ele><time>2026-05-03T09:01:25Z</time></trkpt><trkpt lat="55.430509585155725" lon="38.93016065755814"><ele>129.0</ele><time>2026-05-03T09:01:26Z</time></trkpt><trkpt lat="55.430486725993504" lon="38.93029263358215"><ele>129.2</ele><time>2026-05-03T09:01:27Z</time></trkpt><trkpt lat="55.43046767989458" lon="38.930422200650156"><ele>129.4</ele><time>2026-05-03T09:01:28Z</time></trkpt><trkpt lat="55.43045360961061" lon="38.93058529908191"><ele>129.6</ele><time>2026-05-03T09:01:29Z</time></trkpt><trkpt lat="55.430445163934756" lon="38.93075357623034"><ele>129.8</ele><time>2026-05-03T09:01:30Z</time></trkpt><trkpt lat="55.43041928628401" lon="38.93091865184074"><ele>130.0</ele><time>2026-05-03T09:01:31Z</time></trkpt><trkpt lat="55.43039865278108" lon="38.931082737441685"><ele>130.2</ele><time>2026-05-03T09:01:32Z</time></trkpt><trkpt lat="55.430375586534694" lon="38.93123151613112"><ele>130.4</ele><time>2026-05-03T09:01:33Z</time></trkpt><trkpt lat="55.43035412514246" lon="38.93140107834549"><ele>130.6</ele><time>2026-05-03T09:01:34Z</time></trkpt><trkpt lat="55.430338152113464" lon="38.931562101299036"><ele>130.8</ele><time>2026-05-03T09:01:35Z</time></trkpt><trkpt lat="55.43032220067774" lon="38.931732762479136"><ele>131.0</ele><time>2026-05-03T09:01:36Z</time></trkpt><trkpt lat="55.43031453602437" lon="38.93191016347526"><ele>132.5</ele><time>2026-05-03T09:01:37Z</time></trkpt><trkpt lat="55.430305009691416" lon="38.93206941243304"><ele>134.0</ele><time>2026-05-03T09:01:38Z</time></trkpt><trkpt lat="55.430276669472605" lon="38.932180061749165"><ele>135.5</ele><time>2026-05-03T09:01:39Z</time></trkpt><trkpt lat="55.43028542459297" lon="38.93231599357299"><ele>137.0</ele><time>2026-05-03T09:01:40Z</time></trkpt><trkpt lat="55.430267483898426" lon="38.93247395107666"><ele>138.5</ele><time>2026-05-03T09:01:41Z</time></trkpt><trkpt lat="55.4302520568294" lon="38.932595022772446"><ele>140.0</ele><time>2026-05-03T09:01:42Z</time></trkpt><trkpt lat="55.43025105837627" lon="38.93274206736102"><ele>141.0</ele><time>2026-05-03T09:01:43Z</time></trkpt><trkpt lat="55.430247672265246" lon="38.93288983197076"><ele>142.0</ele><time>2026-05-03T09:01:44Z</time></trkpt><trkpt lat="55.430210115903776" lon="38.93308090061173"><ele>143.0</ele><time>2026-05-03T09:01:45Z</time></trkpt><trkpt lat="55.43023344153107" lon="38.93318924586453"><ele>144.0</ele><time>2026-05-03T09:01:46Z</time></trkpt><trkpt lat="55.43022396203778" lon="38.93331629699439"><ele>145.0</ele><time>2026-05-03T09:01:47Z</time></trkpt><trkpt lat="55.430237019303874" lon="38.93345264155617"><ele>146.0</ele><time>2026-05-03T09:01:48Z</time></trkpt><trkpt lat="55.430226276886266" lon="38.933621926139566"><ele>146.2</ele><time>2026-05-03T09:01:49Z</time></trkpt><trkpt lat="55.430216172294514" lon="38.93381513330128"><ele>146.39999999999998</ele><time>2026-05-03T09:01:50.073Z</time></trkpt><trkpt lat="55.43019787850306" lon="38.9339814835109"><ele>146.6</ele><time>2026-05-03T09:01:51.047Z</time></trkpt><trkpt lat="55.43023823131591" lon="38.93420152811268"><ele>146.79999999999998</ele><time>2026-05-03T09:01:53.037Z</time></trkpt><trkpt lat="55.43022388053503" lon="38.93433942170337"><ele>147.0</ele><time>2026-05-03T09:01:54.034Z</time></trkpt><trkpt lat="55.430220817615925" lon="38.93448888439777"><ele>146.5</ele><time>2026-05-03T09:01:55.03Z</time></trkpt><trkpt lat="55.43027465689773" lon="38.934626526470865"><ele>146.0</ele><time>2026-05-03T09:01:56.032Z</time></trkpt><trkpt lat="55.43020055040058" lon="38.93452978297005"><ele>145.5</ele><time>2026-05-03T09:01:57.03Z</time></trkpt><trkpt lat="55.43017304019406" lon="38.93475110082236"><ele>145.0</ele><time>2026-05-03T09:01:59.027Z</time></trkpt><trkpt lat="55.430199567779155" lon="38.934517794179335"><ele>145.0</ele><time>2026-05-03T09:02:00.027Z</time></trkpt><trkpt lat="55.43014321001726" lon="38.93472996072378"><ele>145.0</ele><time>2026-05-03T09:02:02.027Z</time></trkpt><trkpt lat="55.430843579312" lon="38.93478845257403"><ele>143.75</ele><time>2026-05-03T09:02:39.015Z</time></trkpt><trkpt lat="55.430838692090425" lon="38.934902818925316"><ele>142.5</ele><time>2026-05-03T09:02:40.018Z</time></trkpt><trkpt lat="55.430873296815385" lon="38.935175059865735"><ele>141.25</ele><time>2026-05-03T09:02:41.016Z</time></trkpt><trkpt lat="55.430886719668976" lon="38.93528452042286"><ele>140.0</ele><time>2026-05-03T09:02:42.015Z</time></trkpt><trkpt lat="55.430685305406435" lon="38.935219252060875"><ele>145.0</ele><time>2026-05-03T09:02:43.016Z</time></trkpt><trkpt lat="55.43008426216628" lon="38.934800946013276"><ele>145.0</ele><time>2026-05-03T09:02:44.016Z</time></trkpt><trkpt lat="55.429752203322614" lon="38.93463935150249"><ele>145.0</ele><time>2026-05-03T09:02:45.019Z</time></trkpt><trkpt lat="55.42951496132325" lon="38.93446601061448"><ele>146.0</ele><time>2026-05-03T09:02:46.001Z</time></trkpt><trkpt lat="55.429194680476655" lon="38.93423363397255"><ele>147.0</ele><time>2026-05-03T09:02:47.001Z</time></trkpt><trkpt lat="55.42889580726272" lon="38.933959565297975"><ele>146.33333333333334</ele><time>2026-05-03T09:02:48.001Z</time></trkpt><trkpt lat="55.42863572814072" lon="38.93386975110873"><ele>145.66666666666669</ele><time>2026-05-03T09:02:49.001Z</time></trkpt><trkpt lat="55.42854460347937" lon="38.93377024493146"><ele>145.0</ele><time>2026-05-03T09:02:50.001Z</time></trkpt><trkpt lat="55.42846390956981" lon="38.93381206370573"><ele>145.0</ele><time>2026-05-03T09:02:51.001Z</time></trkpt><trkpt lat="55.42838145843749" lon="38.93390028418569"><ele>145.0</ele><time>2026-05-03T09:02:52.001Z</time></trkpt><trkpt lat="55.42828693572181" lon="38.93394585406897"><ele>145.0</ele><time>2026-05-03T09:02:54.001Z</time></trkpt><trkpt lat="55.428207966592396" lon="38.9339054511882"><ele>145.0</ele><time>2026-05-03T09:02:56Z</time></trkpt><trkpt lat="55.42814724083085" lon="38.933840546881484"><ele>145.0</ele><time>2026-05-03T09:03:21Z</time></trkpt><trkpt lat="55.42808267547498" lon="38.933870652946304"><ele>145.0</ele><time>2026-05-03T09:03:26Z</time></trkpt><trkpt lat="55.4280268287132" lon="38.93394569984239"><ele>144.16666666666669</ele><time>2026-05-03T09:03:40Z</time></trkpt><trkpt lat="55.4279556378886" lon="38.93397029330094"><ele>143.33333333333334</ele><time>2026-05-03T09:03:44Z</time></trkpt><trkpt lat="55.42785339966754" lon="38.93390581694685"><ele>142.5</ele><time>2026-05-03T09:03:46Z</time></trkpt><trkpt lat="55.427786578041044" lon="38.9338400695183"><ele>141.66666666666666</ele><time>2026-05-03T09:03:48.001Z</time></trkpt><trkpt lat="55.42773127628865" lon="38.93375683543316"><ele>140.83333333333331</ele><time>2026-05-03T09:03:50.001Z</time></trkpt><trkpt lat="55.42764283388355" lon="38.933719512887116"><ele>140.0</ele><time>2026-05-03T09:03:52.001Z</time></trkpt><trkpt lat="55.42757192118907" lon="38.9337176137989"><ele>140.0</ele><time>2026-05-03T09:03:54.001Z</time></trkpt><trkpt lat="55.42746775316663" lon="38.933721831352706"><ele>140.0</ele><time>2026-05-03T09:03:56.001Z</time></trkpt><trkpt lat="55.42739572423357" lon="38.93377544379808"><ele>140.0</ele><time>2026-05-03T09:03:58.001Z</time></trkpt><trkpt lat="55.42733901395141" lon="38.933843234678584"><ele>140.0</ele><time>2026-05-03T09:04:00.001Z</time></trkpt><trkpt lat="55.427285014576036" lon="38.93391497635378"><ele>140.0</ele><time>2026-05-03T09:04:02.001Z</time></trkpt><trkpt lat="55.4272277346811" lon="38.93400793938765"><ele>140.0</ele><time>2026-05-03T09:04:04.001Z</time></trkpt><trkpt lat="55.427165187689546" lon="38.93403926246495"><ele>140.0</ele><time>2026-05-03T09:04:36.001Z</time></trkpt><trkpt lat="55.427169468792464" lon="38.93391488368424"><ele>140.0</ele><time>2026-05-03T09:04:43.001Z</time></trkpt><trkpt lat="55.427119366402835" lon="38.933841821069805"><ele>140.0</ele><time>2026-05-03T09:04:46.001Z</time></trkpt><trkpt lat="55.427040908919736" lon="38.93385961236325"><ele>140.0</ele><time>2026-05-03T09:04:50.001Z</time></trkpt><trkpt lat="55.42697702974704" lon="38.933842985754424"><ele>140.0</ele><time>2026-05-03T09:04:53.001Z</time></trkpt><trkpt lat="55.426903437204274" lon="38.93378317286219"><ele>140.0</ele><time>2026-05-03T09:04:57.001Z</time></trkpt><trkpt lat="55.426828029620005" lon="38.93373905639417"><ele>140.0</ele><time>2026-05-03T09:04:59.001Z</time></trkpt><trkpt lat="55.426770896427215" lon="38.93366430129992"><ele>139.5</ele><time>2026-05-03T09:05:01.001Z</time></trkpt><trkpt lat="55.42671484339751" lon="38.93355176060201"><ele>139.0</ele><time>2026-05-03T09:05:03.001Z</time></trkpt><trkpt lat="55.426646309057844" lon="38.93343462589413"><ele>138.5</ele><time>2026-05-03T09:05:05.001Z</time></trkpt><trkpt lat="55.42656220583288" lon="38.933375169016514"><ele>138.0</ele><time>2026-05-03T09:05:07.001Z</time></trkpt><trkpt lat="55.42649934846199" lon="38.93332398456939"><ele>137.5</ele><time>2026-05-03T09:05:09.001Z</time></trkpt><trkpt lat="55.426433751383534" lon="38.93325199412003"><ele>137.0</ele><time>2026-05-03T09:05:11.001Z</time></trkpt><trkpt lat="55.426438818778294" lon="38.93314063436632"><ele>137.0</ele><time>2026-05-03T09:05:34.001Z</time></trkpt><trkpt lat="55.42637889694617" lon="38.93305518943947"><ele>137.0</ele><time>2026-05-03T09:05:43.001Z</time></trkpt><trkpt lat="55.426304987382956" lon="38.93301500259272"><ele>137.0</ele><time>2026-05-03T09:05:46.001Z</time></trkpt><trkpt lat="55.426229936751106" lon="38.93296124915915"><ele>137.0</ele><time>2026-05-03T09:05:49.001Z</time></trkpt><trkpt lat="55.42615183154687" lon="38.93297299242091"><ele>137.0</ele><time>2026-05-03T09:05:53.001Z</time></trkpt><trkpt lat="55.42610148632501" lon="38.932872965869045"><ele>137.0</ele><time>2026-05-03T09:05:56.001Z</time></trkpt><trkpt lat="55.42604356887489" lon="38.93280484759949"><ele>137.00000000000003</ele><time>2026-05-03T09:05:59.001Z</time></trkpt><trkpt lat="55.42597576911453" lon="38.9327858661671"><ele>137.0</ele><time>2026-05-03T09:06:09.001Z</time></trkpt><trkpt lat="55.42592687416499" lon="38.93270901200841"><ele>137.0</ele><time>2026-05-03T09:06:40.002Z</time></trkpt><trkpt lat="55.425852734917775" lon="38.932684546869645"><ele>137.0</ele><time>2026-05-03T09:06:43.002Z</time></trkpt><trkpt lat="55.425799906659286" lon="38.93259567472394"><ele>137.0</ele><time>2026-05-03T09:06:49.002Z</time></trkpt><trkpt lat="55.42574543470942" lon="38.93249686101819"><ele>137.00000000000003</ele><time>2026-05-03T09:06:54.002Z</time></trkpt><trkpt lat="55.42568779694853" lon="38.932445372082384"><ele>137.0</ele><time>2026-05-03T09:06:59.002Z</time></trkpt><trkpt lat="55.425630807678736" lon="38.932377178232166"><ele>137.0</ele><time>2026-05-03T09:07:02.002Z</time></trkpt><trkpt lat="55.42557096116093" lon="38.93230344625803"><ele>137.0</ele><time>2026-05-03T09:07:05.002Z</time></trkpt><trkpt lat="55.42551232829848" lon="38.932217496268485"><ele>137.0</ele><time>2026-05-03T09:07:08.001Z</time></trkpt><trkpt lat="55.42544173214769" lon="38.93213737792047"><ele>137.0</ele><time>2026-05-03T09:07:11.001Z</time></trkpt><trkpt lat="55.42539372280653" lon="38.932042709670995"><ele>137.0</ele><time>2026-05-03T09:07:16.001Z</time></trkpt><trkpt lat="55.425342174976194" lon="38.93194984995125"><ele>137.0</ele><time>2026-05-03T09:07:24.001Z</time></trkpt><trkpt lat="55.42528301440244" lon="38.93184065987377"><ele>136.71428571428572</ele><time>2026-05-03T09:07:28.001Z</time></trkpt><trkpt lat="55.42528822015991" lon="38.931725128725496"><ele>136.42857142857144</ele><time>2026-05-03T09:07:31.001Z</time></trkpt><trkpt lat="55.42527752019821" lon="38.93157743636907"><ele>136.14285714285714</ele><time>2026-05-03T09:07:35.001Z</time></trkpt><trkpt lat="55.425255809799175" lon="38.93145689370811"><ele>135.85714285714286</ele><time>2026-05-03T09:07:37.001Z</time></trkpt><trkpt lat="55.42525372202839" lon="38.93134304737571"><ele>135.57142857142856</ele><time>2026-05-03T09:07:42.001Z</time></trkpt><trkpt lat="55.42517699046836" lon="38.931314543811126"><ele>135.28571428571428</ele><time>2026-05-03T09:07:48.001Z</time></trkpt><trkpt lat="55.42511879042215" lon="38.93139666131595"><ele>135.0</ele><time>2026-05-03T09:07:52.001Z</time></trkpt><trkpt lat="55.425056624434845" lon="38.931419969307086"><ele>135.25</ele><time>2026-05-03T09:07:56.001Z</time></trkpt><trkpt lat="55.42485602385563" lon="38.931331226750146"><ele>135.5</ele><time>2026-05-03T09:09:06.001Z</time></trkpt><trkpt lat="55.42474908780857" lon="38.9312567522725"><ele>135.75</ele><time>2026-05-03T09:09:08.001Z</time></trkpt><trkpt lat="55.42469281669053" lon="38.931155220387566"><ele>136.0</ele><time>2026-05-03T09:09:10.001Z</time></trkpt><trkpt lat="55.424596265719416" lon="38.93101469294838"><ele>136.0</ele><time>2026-05-03T09:09:12.001Z</time></trkpt><trkpt lat="55.4245376508863" lon="38.930946546884705"><ele>136.0</ele><time>2026-05-03T09:09:13.001Z</time></trkpt><trkpt lat="55.42445297992776" lon="38.93081648774434"><ele>136.0</ele><time>2026-05-03T09:09:15Z</time></trkpt><trkpt lat="55.42438885297963" lon="38.93075093311491"><ele>136.0</ele><time>2026-05-03T09:09:16Z</time></trkpt><trkpt lat="55.42433707843395" lon="38.930670782870045"><ele>136.0</ele><time>2026-05-03T09:09:17Z</time></trkpt><trkpt lat="55.42427229185584" lon="38.93054539265606"><ele>136.0</ele><time>2026-05-03T09:09:19Z</time></trkpt><trkpt lat="55.42421906181618" lon="38.93046369199604"><ele>136.66666666666669</ele><time>2026-05-03T09:09:21Z</time></trkpt><trkpt lat="55.42417776580271" lon="38.93032754852339"><ele>137.33333333333334</ele><time>2026-05-03T09:09:24Z</time></trkpt><trkpt lat="55.42412622487779" lon="38.930216997539226"><ele>138.0</ele><time>2026-05-03T09:09:27Z</time></trkpt><trkpt lat="55.42406444432543" lon="38.930193217151285"><ele>138.66666666666666</ele><time>2026-05-03T09:09:31Z</time></trkpt><trkpt lat="55.42399361572555" lon="38.930140940173985"><ele>139.33333333333331</ele><time>2026-05-03T09:09:34Z</time></trkpt><trkpt lat="55.42393881044852" lon="38.93005246063259"><ele>140.0</ele><time>2026-05-03T09:09:45Z</time></trkpt><trkpt lat="55.42386497338377" lon="38.93002420598451"><ele>140.42857142857142</ele><time>2026-05-03T09:09:57Z</time></trkpt><trkpt lat="55.423793216311054" lon="38.92997232670145"><ele>140.85714285714286</ele><time>2026-05-03T09:09:59Z</time></trkpt><trkpt lat="55.42373419650288" lon="38.929910865794376"><ele>141.28571428571428</ele><time>2026-05-03T09:10:01Z</time></trkpt><trkpt lat="55.4236729987765" lon="38.92984547257442"><ele>141.71428571428572</ele><time>2026-05-03T09:10:03Z</time></trkpt><trkpt lat="55.4236055218018" lon="38.92980556213097"><ele>142.14285714285714</ele><time>2026-05-03T09:10:05Z</time></trkpt><trkpt lat="55.42355548905448" lon="38.929735440908786"><ele>142.57142857142856</ele><time>2026-05-03T09:10:08Z</time></trkpt><trkpt lat="55.42349436695783" lon="38.92964789246447"><ele>143.0</ele><time>2026-05-03T09:10:11Z</time></trkpt><trkpt lat="55.423431945161894" lon="38.92956040529156"><ele>143.0</ele><time>2026-05-03T09:10:13Z</time></trkpt><trkpt lat="55.42336663700138" lon="38.92948937539074"><ele>143.0</ele><time>2026-05-03T09:10:15Z</time></trkpt><trkpt lat="55.42328630518948" lon="38.929437876701556"><ele>143.0</ele><time>2026-05-03T09:10:18Z</time></trkpt><trkpt lat="55.423177730304644" lon="38.92942124025193"><ele>143.0</ele><time>2026-05-03T09:10:21Z</time></trkpt><trkpt lat="55.423084445853966" lon="38.929440450997085"><ele>143.0</ele><time>2026-05-03T09:10:23Z</time></trkpt><trkpt lat="55.422981495713074" lon="38.929391624505385"><ele>143.0</ele><time>2026-05-03T09:10:27Z</time></trkpt><trkpt lat="55.42290790688213" lon="38.92938259157979"><ele>143.0</ele><time>2026-05-03T09:10:29.001Z</time></trkpt><trkpt lat="55.42283379748895" lon="38.929376713778765"><ele>143.0</ele><time>2026-05-03T09:10:31.001Z</time></trkpt><trkpt lat="55.422759599101326" lon="38.92933893605489"><ele>143.0</ele><time>2026-05-03T09:10:33.001Z</time></trkpt><trkpt lat="55.422689161230586" lon="38.929279158965606"><ele>143.0</ele><time>2026-05-03T09:10:36.001Z</time></trkpt><trkpt lat="55.42261047447791" lon="38.92925935555483"><ele>143.0</ele><time>2026-05-03T09:10:38.001Z</time></trkpt><trkpt lat="55.422534163348104" lon="38.929249284239035"><ele>143.0</ele><time>2026-05-03T09:10:41.001Z</time></trkpt><trkpt lat="55.42248298998741" lon="38.929165570952264"><ele>143.0</ele><time>2026-05-03T09:10:43.001Z</time></trkpt><trkpt lat="55.42240890191004" lon="38.929136137728754"><ele>143.0</ele><time>2026-05-03T09:10:49.001Z</time></trkpt><trkpt lat="55.42232019958905" lon="38.929170063758164"><ele>143.0</ele><time>2026-05-03T09:10:53.001Z</time></trkpt><trkpt lat="55.42224167808481" lon="38.92918196865784"><ele>143.0</ele><time>2026-05-03T09:10:55.001Z</time></trkpt><trkpt lat="55.42216175848724" lon="38.92922635518492"><ele>143.0</ele><time>2026-05-03T09:10:58.001Z</time></trkpt><trkpt lat="55.42209253536895" lon="38.929210178901094"><ele>143.33333333333331</ele><time>2026-05-03T09:11:04.001Z</time></trkpt><trkpt lat="55.42200744551853" lon="38.929219268371654"><ele>143.66666666666666</ele><time>2026-05-03T09:11:07.001Z</time></trkpt><trkpt lat="55.4219376778583" lon="38.929256194787435"><ele>144.0</ele><time>2026-05-03T09:11:13.001Z</time></trkpt><trkpt lat="55.42191376311957" lon="38.92939547846208"><ele>144.33333333333334</ele><time>2026-05-03T09:11:19.001Z</time></trkpt><trkpt lat="55.421809278024234" lon="38.92946197500575"><ele>144.66666666666669</ele><time>2026-05-03T09:11:22Z</time></trkpt><trkpt lat="55.42173995853128" lon="38.9295598766498"><ele>145.0</ele><time>2026-05-03T09:11:24Z</time></trkpt><trkpt lat="55.42167855955869" lon="38.92965380738249"><ele>145.0</ele><time>2026-05-03T09:11:26Z</time></trkpt><trkpt lat="55.421603025799115" lon="38.92970357404738"><ele>145.0</ele><time>2026-05-03T09:11:27Z</time></trkpt><trkpt lat="55.421511061806385" lon="38.92973134904847"><ele>145.0</ele><time>2026-05-03T09:11:30Z</time></trkpt><trkpt lat="55.42143118373521" lon="38.92969885414752"><ele>145.0</ele><time>2026-05-03T09:11:32Z</time></trkpt><trkpt lat="55.42145708875983" lon="38.9295833605182"><ele>145.0</ele><time>2026-05-03T09:11:35Z</time></trkpt><trkpt lat="55.421403519639476" lon="38.92966251653347"><ele>145.0</ele><time>2026-05-03T09:11:39Z</time></trkpt><trkpt lat="55.42133212434047" lon="38.929651124112006"><ele>145.33333333333334</ele><time>2026-05-03T09:12:38.001Z</time></trkpt><trkpt lat="55.42126780398524" lon="38.92959524748735"><ele>145.66666666666669</ele><time>2026-05-03T09:12:45.001Z</time></trkpt><trkpt lat="55.42116836255042" lon="38.929671052430464"><ele>146.0</ele><time>2026-05-03T09:13:01.001Z</time></trkpt><trkpt lat="55.421104791119845" lon="38.929694978783644"><ele>146.33333333333334</ele><time>2026-05-03T09:13:02.001Z</time></trkpt><trkpt lat="55.421030814274125" lon="38.9296794636208"><ele>146.66666666666666</ele><time>2026-05-03T09:13:04.001Z</time></trkpt><trkpt lat="55.420956539660324" lon="38.9297091007107"><ele>147.0</ele><time>2026-05-03T09:13:06.001Z</time></trkpt><trkpt lat="55.42084173785778" lon="38.929796981635924"><ele>147.0</ele><time>2026-05-03T09:13:08.001Z</time></trkpt><trkpt lat="55.420731839463016" lon="38.92984622640938"><ele>147.0</ele><time>2026-05-03T09:13:09.001Z</time></trkpt><trkpt lat="55.4206462289369" lon="38.929885847123174"><ele>147.0</ele><time>2026-05-03T09:13:11.001Z</time></trkpt><trkpt lat="55.42058458620684" lon="38.92995112957527"><ele>147.0</ele><time>2026-05-03T09:13:12.001Z</time></trkpt><trkpt lat="55.42050722953949" lon="38.929991046400914"><ele>147.0</ele><time>2026-05-03T09:13:14.001Z</time></trkpt><trkpt lat="55.42036598195224" lon="38.92997235348834"><ele>147.4</ele><time>2026-05-03T09:13:16.001Z</time></trkpt><trkpt lat="55.42022501685667" lon="38.92997690213668"><ele>147.79999999999998</ele><time>2026-05-03T09:13:18.001Z</time></trkpt><trkpt lat="55.42015369037103" lon="38.929988505285586"><ele>148.2</ele><time>2026-05-03T09:13:19.001Z</time></trkpt><trkpt lat="55.42001755068213" lon="38.92998188199871"><ele>148.6</ele><time>2026-05-03T09:13:21.001Z</time></trkpt><trkpt lat="55.41995322664413" lon="38.92996894563398"><ele>149.0</ele><time>2026-05-03T09:13:22.001Z</time></trkpt><trkpt lat="55.419890476958294" lon="38.92995697536685"><ele>149.0</ele><time>2026-05-03T09:13:23.001Z</time></trkpt><trkpt lat="55.4198191340606" lon="38.92995557118335"><ele>149.0</ele><time>2026-05-03T09:13:24.001Z</time></trkpt><trkpt lat="55.419754803635406" lon="38.92997685235519"><ele>149.0</ele><time>2026-05-03T09:13:25.001Z</time></trkpt><trkpt lat="55.4196670543345" lon="38.92997369832326"><ele>149.0</ele><time>2026-05-03T09:13:26Z</time></trkpt><trkpt lat="55.41958785612742" lon="38.92998548441317"><ele>149.0</ele><time>2026-05-03T09:13:27Z</time></trkpt><trkpt lat="55.41947382408199" lon="38.92995473349414"><ele>149.0</ele><time>2026-05-03T09:13:29Z</time></trkpt><trkpt lat="55.41940547179063" lon="38.929958498098046"><ele>148.8</ele><time>2026-05-03T09:13:30Z</time></trkpt><trkpt lat="55.41933187035391" lon="38.929953474742646"><ele>148.60000000000002</ele><time>2026-05-03T09:13:31Z</time></trkpt><trkpt lat="55.41923546017192" lon="38.92995840520922"><ele>148.4</ele><time>2026-05-03T09:13:33Z</time></trkpt><trkpt lat="55.4191086852106" lon="38.92994635913922"><ele>148.20000000000002</ele><time>2026-05-03T09:13:35Z</time></trkpt><trkpt lat="55.419030666014564" lon="38.92995359730664"><ele>148.0</ele><time>2026-05-03T09:13:36Z</time></trkpt><trkpt lat="55.41893992960972" lon="38.92994338203395"><ele>148.0</ele><time>2026-05-03T09:13:38Z</time></trkpt><trkpt lat="55.41884924431965" lon="38.9299403663595"><ele>148.0</ele><time>2026-05-03T09:13:40Z</time></trkpt><trkpt lat="55.4187553317833" lon="38.929942526248766"><ele>148.0</ele><time>2026-05-03T09:13:42Z</time></trkpt><trkpt lat="55.4186602579623" lon="38.92994925872528"><ele>148.0</ele><time>2026-05-03T09:13:44Z</time></trkpt><trkpt lat="55.41853650206529" lon="38.92994548606981"><ele>148.0</ele><time>2026-05-03T09:13:46Z</time></trkpt><trkpt lat="55.418433662856614" lon="38.92994290757494"><ele>148.0</ele><time>2026-05-03T09:13:48Z</time></trkpt><trkpt lat="55.418291358399884" lon="38.92997402069599"><ele>148.0</ele><time>2026-05-03T09:13:50Z</time></trkpt><trkpt lat="55.41822404516737" lon="38.929989969364506"><ele>148.0</ele><time>2026-05-03T09:13:51Z</time></trkpt><trkpt lat="55.41814791923577" lon="38.93001185641823"><ele>148.0</ele><time>2026-05-03T09:13:52Z</time></trkpt><trkpt lat="55.4180430496224" lon="38.93000873037725"><ele>148.0</ele><time>2026-05-03T09:13:54Z</time></trkpt><trkpt lat="55.41795833692897" lon="38.9300047039428"><ele>147.66666666666669</ele><time>2026-05-03T09:13:56Z</time></trkpt><trkpt lat="55.41787873722101" lon="38.93002854264216"><ele>147.33333333333334</ele><time>2026-05-03T09:14:08Z</time></trkpt><trkpt lat="55.41778615460046" lon="38.9300007479855"><ele>147.0</ele><time>2026-05-03T09:14:11Z</time></trkpt><trkpt lat="55.41769969217627" lon="38.92999994354161"><ele>146.66666666666666</ele><time>2026-05-03T09:14:13Z</time></trkpt><trkpt lat="55.41760662413081" lon="38.93001283382662"><ele>146.33333333333331</ele><time>2026-05-03T09:14:15Z</time></trkpt><trkpt lat="55.41751961136393" lon="38.93002236039953"><ele>146.0</ele><time>2026-05-03T09:14:17Z</time></trkpt><trkpt lat="55.41745032745384" lon="38.93002031097778"><ele>146.0</ele><time>2026-05-03T09:14:18Z</time></trkpt><trkpt lat="55.41735616418489" lon="38.93003426191517"><ele>146.0</ele><time>2026-05-03T09:14:20Z</time></trkpt><trkpt lat="55.41728874954335" lon="38.930026575080774"><ele>146.0</ele><time>2026-05-03T09:14:23Z</time></trkpt><trkpt lat="55.41719972207283" lon="38.93004352814293"><ele>146.0</ele><time>2026-05-03T09:14:26Z</time></trkpt><trkpt lat="55.417119170638514" lon="38.93003291490829"><ele>146.0</ele><time>2026-05-03T09:14:29.001Z</time></trkpt><trkpt lat="55.417035641549205" lon="38.9300015402359"><ele>146.0</ele><time>2026-05-03T09:14:32.001Z</time></trkpt><trkpt lat="55.41697277583614" lon="38.93001103160796"><ele>145.66666666666666</ele><time>2026-05-03T09:14:36.001Z</time></trkpt><trkpt lat="55.41689221775592" lon="38.930009796776034"><ele>145.33333333333331</ele><time>2026-05-03T09:14:40.001Z</time></trkpt><trkpt lat="55.4168054530451" lon="38.930029795442685"><ele>145.0</ele><time>2026-05-03T09:14:44.001Z</time></trkpt><trkpt lat="55.41672817051462" lon="38.93002576868994"><ele>144.66666666666666</ele><time>2026-05-03T09:14:47.001Z</time></trkpt><trkpt lat="55.41664646057295" lon="38.930006716637784"><ele>144.33333333333334</ele><time>2026-05-03T09:14:49.001Z</time></trkpt><trkpt lat="55.41657763602037" lon="38.929992318135376"><ele>144.0</ele><time>2026-05-03T09:14:55.001Z</time></trkpt><trkpt lat="55.416511214356596" lon="38.93002593417697"><ele>144.0</ele><time>2026-05-03T09:15:21.001Z</time></trkpt><trkpt lat="55.41641509711149" lon="38.93003167268049"><ele>144.0</ele><time>2026-05-03T09:15:34Z</time></trkpt><trkpt lat="55.416327414191564" lon="38.93007766203333"><ele>144.0</ele><time>2026-05-03T09:15:36Z</time></trkpt><trkpt lat="55.416264284790486" lon="38.930078928932204"><ele>144.0</ele><time>2026-05-03T09:15:37Z</time></trkpt><trkpt lat="55.41613512124059" lon="38.93005230081923"><ele>144.0</ele><time>2026-05-03T09:15:39Z</time></trkpt><trkpt lat="55.416068981473295" lon="38.930043157299934"><ele>144.0</ele><time>2026-05-03T09:15:40Z</time></trkpt><trkpt lat="55.41600073480429" lon="38.930038033799356"><ele>143.83333333333334</ele><time>2026-05-03T09:15:41Z</time></trkpt><trkpt lat="55.41593242536706" lon="38.93003749526207"><ele>143.66666666666666</ele><time>2026-05-03T09:15:42Z</time></trkpt><trkpt lat="55.41585108697217" lon="38.930049166892395"><ele>143.5</ele><time>2026-05-03T09:15:43Z</time></trkpt><trkpt lat="55.415768325870616" lon="38.93003784340508"><ele>143.33333333333331</ele><time>2026-05-03T09:15:44Z</time></trkpt><trkpt lat="55.41564907208061" lon="38.93003260662392"><ele>143.16666666666666</ele><time>2026-05-03T09:15:46Z</time></trkpt><trkpt lat="55.415554103049416" lon="38.93002361548221"><ele>143.0</ele><time>2026-05-03T09:15:48Z</time></trkpt><trkpt lat="55.415461534937954" lon="38.93001016558754"><ele>142.6</ele><time>2026-05-03T09:15:51Z</time></trkpt><trkpt lat="55.41537862974065" lon="38.929993162218274"><ele>142.20000000000002</ele><time>2026-05-03T09:15:53Z</time></trkpt><trkpt lat="55.41526006447259" lon="38.930120997384826"><ele>141.8</ele><time>2026-05-03T09:15:55Z</time></trkpt><trkpt lat="55.415187847303095" lon="38.93007105840069"><ele>141.4</ele><time>2026-05-03T09:16:03Z</time></trkpt><trkpt lat="55.41514621651509" lon="38.92995380443143"><ele>141.0</ele><time>2026-05-03T09:16:06Z</time></trkpt><trkpt lat="55.4150711466205" lon="38.929892050837694"><ele>141.0</ele><time>2026-05-03T09:16:09Z</time></trkpt><trkpt lat="55.41499134944346" lon="38.92988433949147"><ele>141.0</ele><time>2026-05-03T09:16:11Z</time></trkpt><trkpt lat="55.41489952049734" lon="38.929779643412196"><ele>141.0</ele><time>2026-05-03T09:16:14Z</time></trkpt><trkpt lat="55.41482095707267" lon="38.92969807593632"><ele>141.0</ele><time>2026-05-03T09:16:16Z</time></trkpt><trkpt lat="55.41475468142167" lon="38.929671987149966"><ele>141.0</ele><time>2026-05-03T09:16:18Z</time></trkpt><trkpt lat="55.414683104548935" lon="38.92962746119304"><ele>141.0</ele><time>2026-05-03T09:16:20.001Z</time></trkpt><trkpt lat="55.41463120484658" lon="38.92951222847261"><ele>141.83333333333334</ele><time>2026-05-03T09:16:23.001Z</time></trkpt><trkpt lat="55.414604853207635" lon="38.92933436863017"><ele>142.66666666666666</ele><time>2026-05-03T09:16:25.001Z</time></trkpt><trkpt lat="55.41455564960268" lon="38.929259260830605"><ele>143.5</ele><time>2026-05-03T09:16:27.001Z</time></trkpt><trkpt lat="55.41449338334477" lon="38.929169931259594"><ele>144.33333333333331</ele><time>2026-05-03T09:16:29.001Z</time></trkpt><trkpt lat="55.414451145758854" lon="38.92903592987258"><ele>145.16666666666666</ele><time>2026-05-03T09:16:31.001Z</time></trkpt><trkpt lat="55.414383343198025" lon="38.92892359577615"><ele>146.0</ele><time>2026-05-03T09:16:34.001Z</time></trkpt><trkpt lat="55.41431569028184" lon="38.92883283074988"><ele>146.0</ele><time>2026-05-03T09:16:36.001Z</time></trkpt><trkpt lat="55.414257848507106" lon="38.92873057473883"><ele>146.0</ele><time>2026-05-03T09:16:39.001Z</time></trkpt><trkpt lat="55.414202333840436" lon="38.928629010982206"><ele>146.0</ele><time>2026-05-03T09:16:42.001Z</time></trkpt><trkpt lat="55.414133701568126" lon="38.92854484275326"><ele>146.0</ele><time>2026-05-03T09:16:45.001Z</time></trkpt><trkpt lat="55.41406141425731" lon="38.92846122349768"><ele>146.0</ele><time>2026-05-03T09:16:47.001Z</time></trkpt><trkpt lat="55.41398780156516" lon="38.928388438324156"><ele>146.0</ele><time>2026-05-03T09:16:50.001Z</time></trkpt><trkpt lat="55.41392948211798" lon="38.928291986520684"><ele>145.66666666666666</ele><time>2026-05-03T09:16:53.001Z</time></trkpt><trkpt lat="55.41387390290846" lon="38.92818517189125"><ele>145.33333333333331</ele><time>2026-05-03T09:16:56.001Z</time></trkpt><trkpt lat="55.413816351080996" lon="38.928097718944265"><ele>145.0</ele><time>2026-05-03T09:17:19.001Z</time></trkpt><trkpt lat="55.413781980357484" lon="38.92799203352626"><ele>144.66666666666666</ele><time>2026-05-03T09:17:24.001Z</time></trkpt><trkpt lat="55.413753597982" lon="38.927847847817866"><ele>144.33333333333334</ele><time>2026-05-03T09:17:27.001Z</time></trkpt><trkpt lat="55.413700551611576" lon="38.92778076774918"><ele>144.0</ele><time>2026-05-03T09:17:29.001Z</time></trkpt><trkpt lat="55.41365345129549" lon="38.92768141353396"><ele>144.0</ele><time>2026-05-03T09:17:31.001Z</time></trkpt><trkpt lat="55.41359054748354" lon="38.927557476156096"><ele>144.0</ele><time>2026-05-03T09:17:34.001Z</time></trkpt><trkpt lat="55.41356680509144" lon="38.92744470295029"><ele>144.0</ele><time>2026-05-03T09:17:36.001Z</time></trkpt><trkpt lat="55.41352704263425" lon="38.927300116308835"><ele>144.0</ele><time>2026-05-03T09:17:39Z</time></trkpt><trkpt lat="55.413509471627634" lon="38.927170495044194"><ele>144.0</ele><time>2026-05-03T09:17:41Z</time></trkpt><trkpt lat="55.41347648975494" lon="38.92703235695554"><ele>144.0</ele><time>2026-05-03T09:17:43Z</time></trkpt><trkpt lat="55.41344515429965" lon="38.92691556676044"><ele>144.00000000000003</ele><time>2026-05-03T09:17:45Z</time></trkpt><trkpt lat="55.41342427418505" lon="38.92679021290167"><ele>144.0</ele><time>2026-05-03T09:17:47Z</time></trkpt><trkpt lat="55.41338827806127" lon="38.9266709055081"><ele>144.0</ele><time>2026-05-03T09:17:49Z</time></trkpt><trkpt lat="55.4133676185914" lon="38.92655684782832"><ele>144.0</ele><time>2026-05-03T09:17:51Z</time></trkpt><trkpt lat="55.41333793047692" lon="38.926440342128906"><ele>144.0</ele><time>2026-05-03T09:17:53Z</time></trkpt><trkpt lat="55.41329969362706" lon="38.92633170566621"><ele>144.00000000000003</ele><time>2026-05-03T09:17:56Z</time></trkpt><trkpt lat="55.41328081313848" lon="38.92619743191517"><ele>144.0</ele><time>2026-05-03T09:18:15.001Z</time></trkpt><trkpt lat="55.41327882824639" lon="38.92607029128017"><ele>144.5</ele><time>2026-05-03T09:18:20.001Z</time></trkpt><trkpt lat="55.41324139230259" lon="38.92595530722827"><ele>145.0</ele><time>2026-05-03T09:18:28.001Z</time></trkpt><trkpt lat="55.413262220865015" lon="38.92578193319972"><ele>145.5</ele><time>2026-05-03T09:18:33.001Z</time></trkpt><trkpt lat="55.41326089633367" lon="38.92566630841846"><ele>146.0</ele><time>2026-05-03T09:18:34.001Z</time></trkpt><trkpt lat="55.41323782179801" lon="38.92544254474418"><ele>146.5</ele><time>2026-05-03T09:18:36.001Z</time></trkpt><trkpt lat="55.413232120590024" lon="38.925323336890884"><ele>147.0</ele><time>2026-05-03T09:18:38.001Z</time></trkpt><trkpt lat="55.41322740615362" lon="38.92520533348594"><ele>147.0</ele><time>2026-05-03T09:18:39.001Z</time></trkpt><trkpt lat="55.41321887065295" lon="38.925091943052976"><ele>147.0</ele><time>2026-05-03T09:18:40.001Z</time></trkpt><trkpt lat="55.413208185951554" lon="38.92495862646411"><ele>147.0</ele><time>2026-05-03T09:18:41.001Z</time></trkpt><trkpt lat="55.41318911060624" lon="38.92482393870245"><ele>147.0</ele><time>2026-05-03T09:18:42.001Z</time></trkpt><trkpt lat="55.41315436061831" lon="38.92471464432074"><ele>147.0</ele><time>2026-05-03T09:18:43.001Z</time></trkpt><trkpt lat="55.413159166816946" lon="38.92457518300292"><ele>147.0</ele><time>2026-05-03T09:18:44.001Z</time></trkpt><trkpt lat="55.41315428905942" lon="38.92443420509481"><ele>147.0</ele><time>2026-05-03T09:18:45.001Z</time></trkpt><trkpt lat="55.413140026467616" lon="38.92431509249018"><ele>147.0</ele><time>2026-05-03T09:18:46.001Z</time></trkpt><trkpt lat="55.41313801955099" lon="38.924147416725965"><ele>147.0</ele><time>2026-05-03T09:18:48.001Z</time></trkpt><trkpt lat="55.413146844597364" lon="38.924029360535116"><ele>147.0</ele><time>2026-05-03T09:18:51.001Z</time></trkpt><trkpt lat="55.41326375324336" lon="38.923985449274475"><ele>147.0</ele><time>2026-05-03T09:33:42Z</time></trkpt><trkpt lat="55.4132992774485" lon="38.92386451474055"><ele>147.0</ele><time>2026-05-03T09:33:45Z</time></trkpt><trkpt lat="55.413253827868786" lon="38.92378199438696"><ele>147.28571428571428</ele><time>2026-05-03T09:33:48Z</time></trkpt><trkpt lat="55.41319603399237" lon="38.92369423283569"><ele>147.57142857142856</ele><time>2026-05-03T09:33:50Z</time></trkpt><trkpt lat="55.41312306829166" lon="38.92368686134274"><ele>147.85714285714286</ele><time>2026-05-03T09:33:53.001Z</time></trkpt><trkpt lat="55.41307902109404" lon="38.92360134633833"><ele>148.14285714285714</ele><time>2026-05-03T09:33:57.001Z</time></trkpt><trkpt lat="55.41304925391488" lon="38.92348071050844"><ele>148.42857142857142</ele><time>2026-05-03T09:33:59.001Z</time></trkpt><trkpt lat="55.41302366170266" lon="38.923341872078986"><ele>148.71428571428572</ele><time>2026-05-03T09:34:05.001Z</time></trkpt><trkpt lat="55.41303180763709" lon="38.923214863533005"><ele>149.0</ele><time>2026-05-03T09:34:07.001Z</time></trkpt><trkpt lat="55.4130011991706" lon="38.92306624656262"><ele>148.83333333333331</ele><time>2026-05-03T09:34:09.001Z</time></trkpt><trkpt lat="55.412955753509074" lon="38.922930281312354"><ele>148.66666666666666</ele><time>2026-05-03T09:34:11.001Z</time></trkpt><trkpt lat="55.4129201818228" lon="38.922769667960225"><ele>148.5</ele><time>2026-05-03T09:34:13.001Z</time></trkpt><trkpt lat="55.41286105487557" lon="38.92263752066368"><ele>148.33333333333334</ele><time>2026-05-03T09:34:16.001Z</time></trkpt><trkpt lat="55.41284630898141" lon="38.922526946428334"><ele>148.16666666666669</ele><time>2026-05-03T09:34:18.001Z</time></trkpt><trkpt lat="55.41286258545957" lon="38.92239885605882"><ele>148.0</ele><time>2026-05-03T09:34:20.001Z</time></trkpt><trkpt lat="55.41286310519034" lon="38.92223943517722"><ele>147.8</ele><time>2026-05-03T09:34:23.001Z</time></trkpt><trkpt lat="55.41283432694438" lon="38.92206056918781"><ele>147.60000000000002</ele><time>2026-05-03T09:34:25Z</time></trkpt><trkpt lat="55.412772292515605" lon="38.92189006310878"><ele>147.39999999999998</ele><time>2026-05-03T09:34:27Z</time></trkpt><trkpt lat="55.41273291032649" lon="38.921729369818664"><ele>147.2</ele><time>2026-05-03T09:34:29Z</time></trkpt><trkpt lat="55.4127229951559" lon="38.92158266913418"><ele>147.0</ele><time>2026-05-03T09:34:32Z</time></trkpt><trkpt lat="55.41269627837978" lon="38.92146791793181"><ele>147.0</ele><time>2026-05-03T09:34:34Z</time></trkpt><trkpt lat="55.412667939773165" lon="38.92133951992217"><ele>147.0</ele><time>2026-05-03T09:34:36Z</time></trkpt><trkpt lat="55.412617114215024" lon="38.921196673942156"><ele>147.0</ele><time>2026-05-03T09:34:38Z</time></trkpt><trkpt lat="55.41258184414195" lon="38.92108104557711"><ele>147.0</ele><time>2026-05-03T09:34:40Z</time></trkpt><trkpt lat="55.4125500399438" lon="38.920921424396596"><ele>147.0</ele><time>2026-05-03T09:34:43Z</time></trkpt><trkpt lat="55.41253408378708" lon="38.92081348975624"><ele>147.0</ele><time>2026-05-03T09:34:45Z</time></trkpt><trkpt lat="55.41252615177331" lon="38.92067172986062"><ele>147.2</ele><time>2026-05-03T09:34:47Z</time></trkpt><trkpt lat="55.41249513906911" lon="38.920501998646834"><ele>147.39999999999998</ele><time>2026-05-03T09:34:49Z</time></trkpt><trkpt lat="55.41243756290412" lon="38.92036592380743"><ele>147.60000000000002</ele><time>2026-05-03T09:34:51Z</time></trkpt><trkpt lat="55.41238258051922" lon="38.920192787483465"><ele>147.8</ele><time>2026-05-03T09:34:53Z</time></trkpt><trkpt lat="55.412342202213615" lon="38.920085228561526"><ele>148.0</ele><time>2026-05-03T09:34:54Z</time></trkpt><trkpt lat="55.412258503890506" lon="38.9199304352088"><ele>148.16666666666669</ele><time>2026-05-03T09:34:56Z</time></trkpt><trkpt lat="55.412217154211866" lon="38.91984648795402"><ele>148.33333333333334</ele><time>2026-05-03T09:34:57Z</time></trkpt><trkpt lat="55.41216645891602" lon="38.91975752631746"><ele>148.5</ele><time>2026-05-03T09:34:58Z</time></trkpt><trkpt lat="55.412112562580305" lon="38.919660155081885"><ele>148.66666666666666</ele><time>2026-05-03T09:34:59Z</time></trkpt><trkpt lat="55.412031551815616" lon="38.91951356766696"><ele>148.83333333333331</ele><time>2026-05-03T09:35:01Z</time></trkpt><trkpt lat="55.41197981684421" lon="38.919409112402676"><ele>149.0</ele><time>2026-05-03T09:35:03Z</time></trkpt><trkpt lat="55.41195159366675" lon="38.91930459186973"><ele>149.0</ele><time>2026-05-03T09:35:05Z</time></trkpt><trkpt lat="55.41186112860106" lon="38.91920629073643"><ele>149.0</ele><time>2026-05-03T09:35:07Z</time></trkpt><trkpt lat="55.411803918999404" lon="38.91905689113498"><ele>149.0</ele><time>2026-05-03T09:35:09Z</time></trkpt><trkpt lat="55.41176833801187" lon="38.918928480728056"><ele>149.0</ele><time>2026-05-03T09:35:11Z</time></trkpt><trkpt lat="55.41174558065083" lon="38.918820703684936"><ele>149.0</ele><time>2026-05-03T09:35:40Z</time></trkpt><trkpt lat="55.411730408429115" lon="38.91871279206008"><ele>149.0</ele><time>2026-05-03T09:35:42Z</time></trkpt><trkpt lat="55.41170269788764" lon="38.91856924796858"><ele>149.0</ele><time>2026-05-03T09:35:46Z</time></trkpt><trkpt lat="55.411661587090606" lon="38.91845474928653"><ele>149.0</ele><time>2026-05-03T09:35:49Z</time></trkpt><trkpt lat="55.41161766915424" lon="38.91836415718837"><ele>149.0</ele><time>2026-05-03T09:35:51Z</time></trkpt><trkpt lat="55.411550531721424" lon="38.91827295723893"><ele>149.0</ele><time>2026-05-03T09:35:54Z</time></trkpt><trkpt lat="55.41153195389406" lon="38.918166955993975"><ele>149.0</ele><time>2026-05-03T09:35:56Z</time></trkpt><trkpt lat="55.411487431031105" lon="38.91806297578081"><ele>149.0</ele><time>2026-05-03T09:35:59Z</time></trkpt><trkpt lat="55.411418377779164" lon="38.91803084167728"><ele>149.0</ele><time>2026-05-03T09:36:02.001Z</time></trkpt><trkpt lat="55.411344092092314" lon="38.91797137346485"><ele>148.71428571428572</ele><time>2026-05-03T09:36:05.001Z</time></trkpt><trkpt lat="55.41131113376894" lon="38.9178640116664"><ele>148.42857142857142</ele><time>2026-05-03T09:36:08.001Z</time></trkpt><trkpt lat="55.41135115274813" lon="38.91777245304093"><ele>148.14285714285714</ele><time>2026-05-03T09:36:14.001Z</time></trkpt><trkpt lat="55.411420265402214" lon="38.91772033735997"><ele>147.85714285714286</ele><time>2026-05-03T09:36:23.001Z</time></trkpt><trkpt lat="55.41148015459448" lon="38.91766602229307"><ele>147.57142857142856</ele><time>2026-05-03T09:36:27.001Z</time></trkpt><trkpt lat="55.41148823777305" lon="38.91755327000071"><ele>147.28571428571428</ele><time>2026-05-03T09:36:30Z</time></trkpt><trkpt lat="55.41144719514188" lon="38.91744373668781"><ele>147.0</ele><time>2026-05-03T09:36:32Z</time></trkpt><trkpt lat="55.41139207593826" lon="38.91733853515455"><ele>146.66666666666666</ele><time>2026-05-03T09:36:34Z</time></trkpt><trkpt lat="55.41134263360493" lon="38.91721294380779"><ele>146.33333333333334</ele><time>2026-05-03T09:36:36Z</time></trkpt><trkpt lat="55.41128966251807" lon="38.91712575967903"><ele>146.0</ele><time>2026-05-03T09:36:38Z</time></trkpt><trkpt lat="55.411235416637545" lon="38.91702904098741"><ele>145.66666666666669</ele><time>2026-05-03T09:36:40Z</time></trkpt><trkpt lat="55.41120817912822" lon="38.91688084828602"><ele>145.33333333333334</ele><time>2026-05-03T09:36:42Z</time></trkpt><trkpt lat="55.411164471055" lon="38.916793963674046"><ele>145.0</ele><time>2026-05-03T09:36:44Z</time></trkpt><trkpt lat="55.41111491469957" lon="38.91670439743844"><ele>144.6</ele><time>2026-05-03T09:36:46Z</time></trkpt><trkpt lat="55.411051554191424" lon="38.916585322585334"><ele>144.2</ele><time>2026-05-03T09:36:49Z</time></trkpt><trkpt lat="55.41105282692871" lon="38.916401631740364"><ele>143.8</ele><time>2026-05-03T09:36:52Z</time></trkpt><trkpt lat="55.411082785244666" lon="38.916278089385926"><ele>143.4</ele><time>2026-05-03T09:36:54Z</time></trkpt><trkpt lat="55.41112338868432" lon="38.91608665712864"><ele>143.0</ele><time>2026-05-03T09:36:56Z</time></trkpt><trkpt lat="55.41113387545887" lon="38.915973114452186"><ele>143.16666666666666</ele><time>2026-05-03T09:36:57Z</time></trkpt><trkpt lat="55.411152266073216" lon="38.91583990114783"><ele>143.33333333333331</ele><time>2026-05-03T09:36:59Z</time></trkpt><trkpt lat="55.41119163503558" lon="38.915711737661084"><ele>143.5</ele><time>2026-05-03T09:37:01Z</time></trkpt><trkpt lat="55.41122411769024" lon="38.91557842231797"><ele>143.66666666666666</ele><time>2026-05-03T09:37:03Z</time></trkpt><trkpt lat="55.41124908105511" lon="38.91543961844059"><ele>143.83333333333334</ele><time>2026-05-03T09:37:05Z</time></trkpt><trkpt lat="55.411229718369924" lon="38.91530883565966"><ele>144.0</ele><time>2026-05-03T09:37:07Z</time></trkpt><trkpt lat="55.41119647227657" lon="38.91518792235421"><ele>144.0</ele><time>2026-05-03T09:37:10Z</time></trkpt><trkpt lat="55.411136337129854" lon="38.9151506758604"><ele>144.0</ele><time>2026-05-03T09:37:14Z</time></trkpt><trkpt lat="55.41104871429417" lon="38.91516211099546"><ele>144.0</ele><time>2026-05-03T09:37:17Z</time></trkpt><trkpt lat="55.41098197051331" lon="38.91511230181141"><ele>144.0</ele><time>2026-05-03T09:37:19Z</time></trkpt><trkpt lat="55.410918155132165" lon="38.91500094118683"><ele>144.0</ele><time>2026-05-03T09:37:22Z</time></trkpt><trkpt lat="55.41086778100493" lon="38.91486947073023"><ele>144.0</ele><time>2026-05-03T09:37:26Z</time></trkpt><trkpt lat="55.41088415645461" lon="38.914709943609125"><ele>144.00000000000003</ele><time>2026-05-03T09:37:29Z</time></trkpt><trkpt lat="55.41089265117349" lon="38.9145703635032"><ele>144.0</ele><time>2026-05-03T09:37:31Z</time></trkpt><trkpt lat="55.410871042900126" lon="38.91443403943425"><ele>144.0</ele><time>2026-05-03T09:37:33Z</time></trkpt><trkpt lat="55.41082178702126" lon="38.91435863599876"><ele>144.0</ele><time>2026-05-03T09:37:55Z</time></trkpt><trkpt lat="55.41075442789406" lon="38.91434161680462"><ele>144.0</ele><time>2026-05-03T09:37:58Z</time></trkpt><trkpt lat="55.410691281916975" lon="38.914286822419"><ele>144.00000000000003</ele><time>2026-05-03T09:38:01Z</time></trkpt><trkpt lat="55.41062807626943" lon="38.91419064948003"><ele>144.0</ele><time>2026-05-03T09:38:04Z</time></trkpt><trkpt lat="55.410584823187534" lon="38.914050501187674"><ele>144.16666666666666</ele><time>2026-05-03T09:38:06Z</time></trkpt><trkpt lat="55.410544096564045" lon="38.91394250942354"><ele>144.33333333333334</ele><time>2026-05-03T09:38:08Z</time></trkpt><trkpt lat="55.41050887941624" lon="38.91382537712477"><ele>144.5</ele><time>2026-05-03T09:38:10Z</time></trkpt><trkpt lat="55.410448639142224" lon="38.91374627975844"><ele>144.66666666666669</ele><time>2026-05-03T09:38:12Z</time></trkpt><trkpt lat="55.41039631280626" lon="38.91361508710276"><ele>144.83333333333334</ele><time>2026-05-03T09:38:14.001Z</time></trkpt><trkpt lat="55.41035663925356" lon="38.91340165514189"><ele>145.0</ele><time>2026-05-03T09:38:16.001Z</time></trkpt><trkpt lat="55.4102972518625" lon="38.9131918719914"><ele>145.33333333333334</ele><time>2026-05-03T09:38:18.001Z</time></trkpt><trkpt lat="55.410228913166506" lon="38.91309405402981"><ele>145.66666666666669</ele><time>2026-05-03T09:38:20.001Z</time></trkpt><trkpt lat="55.41020939217595" lon="38.91298378716898"><ele>146.0</ele><time>2026-05-03T09:38:21.001Z</time></trkpt><trkpt lat="55.410178780046444" lon="38.91285387215673"><ele>146.33333333333334</ele><time>2026-05-03T09:38:23.001Z</time></trkpt><trkpt lat="55.410135182475585" lon="38.91272789867361"><ele>146.66666666666666</ele><time>2026-05-03T09:38:25.001Z</time></trkpt><trkpt lat="55.410046077302944" lon="38.912671907544265"><ele>147.0</ele><time>2026-05-03T09:38:26.001Z</time></trkpt><trkpt lat="55.40999422338224" lon="38.91257934077428"><ele>146.4</ele><time>2026-05-03T09:38:28.001Z</time></trkpt><trkpt lat="55.409934618743236" lon="38.91240394246983"><ele>145.79999999999998</ele><time>2026-05-03T09:38:30.001Z</time></trkpt><trkpt lat="55.409887579624936" lon="38.912258267303415"><ele>145.2</ele><time>2026-05-03T09:38:32.001Z</time></trkpt><trkpt lat="55.409845673787686" lon="38.91210933227138"><ele>144.6</ele><time>2026-05-03T09:38:34.072Z</time></trkpt><trkpt lat="55.4098479976555" lon="38.911970053617246"><ele>144.0</ele><time>2026-05-03T09:38:35.045Z</time></trkpt><trkpt lat="55.40984411967521" lon="38.91176090097804"><ele>144.0</ele><time>2026-05-03T09:38:37.035Z</time></trkpt><trkpt lat="55.40976375896709" lon="38.91181356527918"><ele>144.0</ele><time>2026-05-03T09:38:38.032Z</time></trkpt><trkpt lat="55.40971848176927" lon="38.91172942544224"><ele>144.0</ele><time>2026-05-03T09:38:39.029Z</time></trkpt><trkpt lat="55.40966293294549" lon="38.91148907992084"><ele>144.0</ele><time>2026-05-03T09:38:41.031Z</time></trkpt><trkpt lat="55.409146889293496" lon="38.908886263189444"><ele>142.0</ele><time>2026-05-03T09:39:28.021Z</time></trkpt><trkpt lat="55.409101117475494" lon="38.90897963945924"><ele>140.0</ele><time>2026-05-03T09:39:29.001Z</time></trkpt><trkpt lat="55.409015501625866" lon="38.90908417170506"><ele>138.0</ele><time>2026-05-03T09:39:31.001Z</time></trkpt><trkpt lat="55.40897297810195" lon="38.90895855555332"><ele>136.0</ele><time>2026-05-03T09:39:34.001Z</time></trkpt><trkpt lat="55.40889371598642" lon="38.908914192599106"><ele>134.0</ele><time>2026-05-03T09:39:35.001Z</time></trkpt><trkpt lat="55.40881999263071" lon="38.90879453446721"><ele>132.0</ele><time>2026-05-03T09:39:36.999Z</time></trkpt><trkpt lat="55.40878227776919" lon="38.90869189303963"><ele>132.0</ele><time>2026-05-03T09:39:38.999Z</time></trkpt><trkpt lat="55.40872553583752" lon="38.90859187553813"><ele>132.0</ele><time>2026-05-03T09:39:41Z</time></trkpt><trkpt lat="55.40863379451196" lon="38.90840192216524"><ele>132.0</ele><time>2026-05-03T09:39:44Z</time></trkpt><trkpt lat="55.4086177064011" lon="38.90825886631156"><ele>132.0</ele><time>2026-05-03T09:39:46Z</time></trkpt><trkpt lat="55.40856178120549" lon="38.90811799757937"><ele>132.0</ele><time>2026-05-03T09:39:48Z</time></trkpt><trkpt lat="55.408485558693904" lon="38.90821573322201"><ele>132.0</ele><time>2026-05-03T09:39:50Z</time></trkpt><trkpt lat="55.408375584568105" lon="38.90802841924005"><ele>132.0</ele><time>2026-05-03T09:39:52.05Z</time></trkpt><trkpt lat="55.40839663529499" lon="38.907786916390776"><ele>132.0</ele><time>2026-05-03T09:39:54.043Z</time></trkpt><trkpt lat="55.408404083351776" lon="38.90761519157201"><ele>132.0</ele><time>2026-05-03T09:39:56.039Z</time></trkpt><trkpt lat="55.408395155042804" lon="38.907476785199336"><ele>131.66666666666666</ele><time>2026-05-03T09:39:58.034Z</time></trkpt><trkpt lat="55.408116662176305" lon="38.90754813090044"><ele>131.33333333333331</ele><time>2026-05-03T09:40:00.035Z</time></trkpt><trkpt lat="55.40800569267267" lon="38.90757171836099"><ele>131.0</ele><time>2026-05-03T09:40:01.035Z</time></trkpt><trkpt lat="55.40785911653883" lon="38.90730651502162"><ele>131.0</ele><time>2026-05-03T09:40:02.031Z</time></trkpt><trkpt lat="55.40801835157712" lon="38.907295218073514"><ele>131.0</ele><time>2026-05-03T09:40:03.033Z</time></trkpt><trkpt lat="55.408446401652114" lon="38.90422376941229"><ele>130.0</ele><time>2026-05-03T09:40:15.314Z</time></trkpt><trkpt lat="55.406641460921584" lon="38.90180748123238"><ele>130.0</ele><time>2026-05-03T09:41:11.001Z</time></trkpt><trkpt lat="55.40658452038498" lon="38.90168847852654"><ele>130.0</ele><time>2026-05-03T09:41:12.001Z</time></trkpt><trkpt lat="55.40641441189715" lon="38.9018837675946"><ele>130.0</ele><time>2026-05-03T09:41:13Z</time></trkpt><trkpt lat="55.40628198110926" lon="38.901708533316665"><ele>130.2</ele><time>2026-05-03T09:41:15Z</time></trkpt><trkpt lat="55.40615963737545" lon="38.901608717688646"><ele>130.4</ele><time>2026-05-03T09:41:16Z</time></trkpt><trkpt lat="55.406074442107794" lon="38.90148274438828"><ele>130.6</ele><time>2026-05-03T09:41:18Z</time></trkpt><trkpt lat="55.406005466653106" lon="38.901381980944585"><ele>130.8</ele><time>2026-05-03T09:41:19Z</time></trkpt><trkpt lat="55.40592001865731" lon="38.901257153310716"><ele>131.0</ele><time>2026-05-03T09:41:20Z</time></trkpt><trkpt lat="55.40584925023049" lon="38.90113675518093"><ele>131.0</ele><time>2026-05-03T09:41:21Z</time></trkpt><trkpt lat="55.40577602654869" lon="38.90101514903174"><ele>131.0</ele><time>2026-05-03T09:41:22Z</time></trkpt><trkpt lat="55.40570839937863" lon="38.90090312015609"><ele>131.0</ele><time>2026-05-03T09:41:23Z</time></trkpt><trkpt lat="55.405632058090795" lon="38.90077613197137"><ele>131.0</ele><time>2026-05-03T09:41:24Z</time></trkpt><trkpt lat="55.40556121886526" lon="38.90065829738803"><ele>131.0</ele><time>2026-05-03T09:41:25Z</time></trkpt><trkpt lat="55.40550639985357" lon="38.900566947097836"><ele>131.2</ele><time>2026-05-03T09:41:26Z</time></trkpt><trkpt lat="55.40541100189834" lon="38.9004078552189"><ele>131.39999999999998</ele><time>2026-05-03T09:41:28Z</time></trkpt><trkpt lat="55.40534469039251" lon="38.90031351896951"><ele>131.6</ele><time>2026-05-03T09:41:29Z</time></trkpt><trkpt lat="55.405260841062635" lon="38.90018738793541"><ele>131.79999999999998</ele><time>2026-05-03T09:41:31Z</time></trkpt><trkpt lat="55.40520618665325" lon="38.90010517356427"><ele>132.0</ele><time>2026-05-03T09:41:32Z</time></trkpt><trkpt lat="55.40515123965496" lon="38.90000949414814"><ele>132.0</ele><time>2026-05-03T09:41:34Z</time></trkpt><trkpt lat="55.405097928109896" lon="38.89990742866082"><ele>132.0</ele><time>2026-05-03T09:41:35.066Z</time></trkpt><trkpt lat="55.40505369555385" lon="38.89982004985121"><ele>132.0</ele><time>2026-05-03T09:41:36.039Z</time></trkpt><trkpt lat="55.404982518205124" lon="38.89973699519718"><ele>132.0</ele><time>2026-05-03T09:41:38.041Z</time></trkpt><trkpt lat="55.40489390188846" lon="38.89963866684779"><ele>132.0</ele><time>2026-05-03T09:41:44.034Z</time></trkpt><trkpt lat="55.4038638022284" lon="38.90355212269778"><ele>132.5</ele><time>2026-05-03T09:41:51Z</time></trkpt><trkpt lat="55.40378821880879" lon="38.90370778270974"><ele>133.0</ele><time>2026-05-03T09:41:52Z</time></trkpt><trkpt lat="55.403721756119566" lon="38.90398206940768"><ele>133.5</ele><time>2026-05-03T09:41:53Z</time></trkpt><trkpt lat="55.40363395062725" lon="38.90416768551165"><ele>134.0</ele><time>2026-05-03T09:41:54Z</time></trkpt><trkpt lat="55.403555659589294" lon="38.90430730896881"><ele>134.0</ele><time>2026-05-03T09:41:55Z</time></trkpt><trkpt lat="55.40346816835773" lon="38.90450203910046"><ele>134.0</ele><time>2026-05-03T09:41:56Z</time></trkpt><trkpt lat="55.40334872188552" lon="38.904690251201025"><ele>134.0</ele><time>2026-05-03T09:41:56.999Z</time></trkpt><trkpt lat="55.40326220206773" lon="38.90484970461382"><ele>134.0</ele><time>2026-05-03T09:41:57.999Z</time></trkpt><trkpt lat="55.40317375291496" lon="38.905012713701105"><ele>134.0</ele><time>2026-05-03T09:41:58.999Z</time></trkpt><trkpt lat="55.40308149388306" lon="38.90518198099037"><ele>134.0</ele><time>2026-05-03T09:41:59.999Z</time></trkpt><trkpt lat="55.40300078519034" lon="38.905330380868456"><ele>134.0</ele><time>2026-05-03T09:42:00.999Z</time></trkpt><trkpt lat="55.40292588026526" lon="38.90546810928112"><ele>134.0</ele><time>2026-05-03T09:42:01.999Z</time></trkpt><trkpt lat="55.40283784713968" lon="38.90562990386011"><ele>134.0</ele><time>2026-05-03T09:42:02.999Z</time></trkpt><trkpt lat="55.40276415224046" lon="38.90576515494776"><ele>134.0</ele><time>2026-05-03T09:42:03.999Z</time></trkpt><trkpt lat="55.40269032085039" lon="38.905900656523066"><ele>134.0</ele><time>2026-05-03T09:42:04.999Z</time></trkpt><trkpt lat="55.402615204708965" lon="38.90603851596825"><ele>134.0</ele><time>2026-05-03T09:42:05.999Z</time></trkpt><trkpt lat="55.40253855379989" lon="38.90617919212863"><ele>134.0</ele><time>2026-05-03T09:42:06.999Z</time></trkpt><trkpt lat="55.4024642022519" lon="38.90631564837654"><ele>134.0</ele><time>2026-05-03T09:42:07.999Z</time></trkpt><trkpt lat="55.40237809547468" lon="38.906473686107915"><ele>134.0</ele><time>2026-05-03T09:42:08.999Z</time></trkpt><trkpt lat="55.40230177980734" lon="38.906613797422914"><ele>134.0</ele><time>2026-05-03T09:42:09.999Z</time></trkpt><trkpt lat="55.4022195301184" lon="38.90676480335593"><ele>134.0</ele><time>2026-05-03T09:42:10.999Z</time></trkpt><trkpt lat="55.40214990180283" lon="38.906887994971704"><ele>134.0</ele><time>2026-05-03T09:42:11.999Z</time></trkpt><trkpt lat="55.40206135597768" lon="38.90703240059406"><ele>134.0</ele><time>2026-05-03T09:42:12.999Z</time></trkpt><trkpt lat="55.4019692237299" lon="38.90718265520374"><ele>134.0</ele><time>2026-05-03T09:42:13.999Z</time></trkpt><trkpt lat="55.40188307426957" lon="38.9073223413575"><ele>134.0</ele><time>2026-05-03T09:42:14.999Z</time></trkpt><trkpt lat="55.401813307487004" lon="38.907456385491116"><ele>134.0</ele><time>2026-05-03T09:42:15.999Z</time></trkpt><trkpt lat="55.4017320706428" lon="38.90750662882287"><ele>134.0</ele><time>2026-05-03T09:42:16.999Z</time></trkpt><trkpt lat="55.40162333870527" lon="38.90761536073836"><ele>134.0</ele><time>2026-05-03T09:42:17.999Z</time></trkpt><trkpt lat="55.40154468824104" lon="38.907694056337604"><ele>134.0</ele><time>2026-05-03T09:42:18.999Z</time></trkpt><trkpt lat="55.401451826217006" lon="38.90778767284633"><ele>134.0</ele><time>2026-05-03T09:42:19.999Z</time></trkpt><trkpt lat="55.401371691519415" lon="38.90786088698452"><ele>134.2</ele><time>2026-05-03T09:42:20.999Z</time></trkpt><trkpt lat="55.40128841294835" lon="38.90792465316531"><ele>134.4</ele><time>2026-05-03T09:42:21.999Z</time></trkpt><trkpt lat="55.40121464525622" lon="38.907981136968615"><ele>134.6</ele><time>2026-05-03T09:42:22.999Z</time></trkpt><trkpt lat="55.40106670416589" lon="38.908094415147545"><ele>134.8</ele><time>2026-05-03T09:42:24.999Z</time></trkpt><trkpt lat="55.400977323488824" lon="38.90816285412471"><ele>135.0</ele><time>2026-05-03T09:42:27.999Z</time></trkpt><trkpt lat="55.400914486646066" lon="38.908210968653336"><ele>135.0</ele><time>2026-05-03T09:42:28.999Z</time></trkpt><trkpt lat="55.40078724820766" lon="38.908368348358806"><ele>135.0</ele><time>2026-05-03T09:42:32.999Z</time></trkpt><trkpt lat="55.40072146421623" lon="38.9083241789369"><ele>135.0</ele><time>2026-05-03T09:42:35Z</time></trkpt><trkpt lat="55.40061724343231" lon="38.90838355499816"><ele>135.0</ele><time>2026-05-03T09:42:37Z</time></trkpt><trkpt lat="55.40052988738859" lon="38.90843315918793"><ele>135.0</ele><time>2026-05-03T09:42:40Z</time></trkpt><trkpt lat="55.400507213108874" lon="38.90860013195989"><ele>135.0</ele><time>2026-05-03T09:42:45Z</time></trkpt><trkpt lat="55.400479299321894" lon="38.90873833383708"><ele>135.0</ele><time>2026-05-03T09:42:57Z</time></trkpt><trkpt lat="55.400443177831924" lon="38.90887584103521"><ele>135.0</ele><time>2026-05-03T09:42:59Z</time></trkpt><trkpt lat="55.400380017108716" lon="38.90897928993965"><ele>135.0</ele><time>2026-05-03T09:43:01Z</time></trkpt><trkpt lat="55.400290402153125" lon="38.90907059175391"><ele>135.0</ele><time>2026-05-03T09:43:03Z</time></trkpt><trkpt lat="55.40017759394226" lon="38.909089055126515"><ele>135.0</ele><time>2026-05-03T09:43:04Z</time></trkpt><trkpt lat="55.400104362987896" lon="38.90902687535573"><ele>135.0</ele><time>2026-05-03T09:43:05Z</time></trkpt><trkpt lat="55.400025872173046" lon="38.909069745634554"><ele>135.0</ele><time>2026-05-03T09:43:07Z</time></trkpt><trkpt lat="55.39992729832338" lon="38.90913099553828"><ele>135.0</ele><time>2026-05-03T09:43:09Z</time></trkpt><trkpt lat="55.39985859726814" lon="38.909221714004104"><ele>135.0</ele><time>2026-05-03T09:43:11Z</time></trkpt><trkpt lat="55.39976470827667" lon="38.90934222012796"><ele>135.2</ele><time>2026-05-03T09:43:13Z</time></trkpt><trkpt lat="55.399636980959706" lon="38.909426955467666"><ele>135.4</ele><time>2026-05-03T09:43:15Z</time></trkpt><trkpt lat="55.39957009771908" lon="38.90948423906518"><ele>135.6</ele><time>2026-05-03T09:43:16Z</time></trkpt><trkpt lat="55.39949917862349" lon="38.90954204844935"><ele>135.8</ele><time>2026-05-03T09:43:17Z</time></trkpt><trkpt lat="55.399427932363025" lon="38.90962659841731"><ele>136.0</ele><time>2026-05-03T09:43:18Z</time></trkpt><trkpt lat="55.39936123670462" lon="38.90968574051224"><ele>136.0</ele><time>2026-05-03T09:43:19Z</time></trkpt><trkpt lat="55.399299397381895" lon="38.90976680356334"><ele>136.0</ele><time>2026-05-03T09:43:20Z</time></trkpt><trkpt lat="55.39926076620521" lon="38.909909747698165"><ele>136.0</ele><time>2026-05-03T09:43:21Z</time></trkpt><trkpt lat="55.39917963325611" lon="38.91001924450346"><ele>136.0</ele><time>2026-05-03T09:43:22Z</time></trkpt><trkpt lat="55.39910809622856" lon="38.91011579078281"><ele>136.0</ele><time>2026-05-03T09:43:23Z</time></trkpt><trkpt lat="55.399024214789726" lon="38.91018487775183"><ele>136.0</ele><time>2026-05-03T09:43:24Z</time></trkpt><trkpt lat="55.398897973790234" lon="38.91026996348958"><ele>136.0</ele><time>2026-05-03T09:43:26Z</time></trkpt><trkpt lat="55.39882555119111" lon="38.91032240339978"><ele>136.0</ele><time>2026-05-03T09:43:27Z</time></trkpt><trkpt lat="55.398737788749266" lon="38.910379924193194"><ele>136.0</ele><time>2026-05-03T09:43:28Z</time></trkpt><trkpt lat="55.398642249247395" lon="38.91040937755407"><ele>136.0</ele><time>2026-05-03T09:43:29Z</time></trkpt><trkpt lat="55.398512860200356" lon="38.91049353604378"><ele>136.0</ele><time>2026-05-03T09:43:31Z</time></trkpt><trkpt lat="55.39843326215399" lon="38.910506103212036"><ele>136.0</ele><time>2026-05-03T09:43:32Z</time></trkpt><trkpt lat="55.398344251845735" lon="38.91054759116869"><ele>136.0</ele><time>2026-05-03T09:43:33Z</time></trkpt><trkpt lat="55.39826400795496" lon="38.91058499333616"><ele>136.0</ele><time>2026-05-03T09:43:34Z</time></trkpt><trkpt lat="55.39806323535231" lon="38.91053711700098"><ele>136.0</ele><time>2026-05-03T09:43:36Z</time></trkpt><trkpt lat="55.397997840988175" lon="38.91059492839449"><ele>136.0</ele><time>2026-05-03T09:43:37Z</time></trkpt><trkpt lat="55.39794282795751" lon="38.910658868387856"><ele>136.0</ele><time>2026-05-03T09:43:38Z</time></trkpt><trkpt lat="55.39787048355775" lon="38.910703749089"><ele>136.0</ele><time>2026-05-03T09:43:39Z</time></trkpt><trkpt lat="55.39779619070957" lon="38.91074941219759"><ele>136.0</ele><time>2026-05-03T09:43:40Z</time></trkpt><trkpt lat="55.397700578886415" lon="38.91080736202247"><ele>136.0</ele><time>2026-05-03T09:43:42Z</time></trkpt><trkpt lat="55.39762708234328" lon="38.910835139994084"><ele>136.16666666666669</ele><time>2026-05-03T09:43:44Z</time></trkpt><trkpt lat="55.39756570210242" lon="38.91094307559382"><ele>136.33333333333334</ele><time>2026-05-03T09:43:47Z</time></trkpt><trkpt lat="55.39750700438245" lon="38.91099797349482"><ele>136.5</ele><time>2026-05-03T09:43:49Z</time></trkpt><trkpt lat="55.39742416733943" lon="38.91099727469319"><ele>136.66666666666666</ele><time>2026-05-03T09:43:52Z</time></trkpt><trkpt lat="55.397372412938665" lon="38.91110451260474"><ele>136.83333333333331</ele><time>2026-05-03T09:44:04.999Z</time></trkpt><trkpt lat="55.39731434213231" lon="38.91116201289811"><ele>137.0</ele><time>2026-05-03T09:44:07.999Z</time></trkpt><trkpt lat="55.397241324654814" lon="38.911201347202706"><ele>137.0</ele><time>2026-05-03T09:44:10.999Z</time></trkpt><trkpt lat="55.39716915117511" lon="38.911292982994524"><ele>137.0</ele><time>2026-05-03T09:44:13.999Z</time></trkpt><trkpt lat="55.39709546015374" lon="38.9113383547254"><ele>137.0</ele><time>2026-05-03T09:44:16.999Z</time></trkpt><trkpt lat="55.39702794103456" lon="38.91137267446382"><ele>137.0</ele><time>2026-05-03T09:44:19.999Z</time></trkpt><trkpt lat="55.39695763620033" lon="38.91147716234995"><ele>137.0</ele><time>2026-05-03T09:44:27Z</time></trkpt><trkpt lat="55.39688879077827" lon="38.91158786150329"><ele>137.0</ele><time>2026-05-03T09:44:29Z</time></trkpt><trkpt lat="55.39683177414631" lon="38.9116428611741"><ele>136.85714285714286</ele><time>2026-05-03T09:44:31Z</time></trkpt><trkpt lat="55.396763869473254" lon="38.911712085355475"><ele>136.71428571428572</ele><time>2026-05-03T09:44:33Z</time></trkpt><trkpt lat="55.39669911154177" lon="38.91173933501618"><ele>136.57142857142856</ele><time>2026-05-03T09:44:36Z</time></trkpt><trkpt lat="55.39663443803531" lon="38.911733695994855"><ele>136.42857142857144</ele><time>2026-05-03T09:45:23Z</time></trkpt><trkpt lat="55.396547613051204" lon="38.91170248859378"><ele>136.28571428571428</ele><time>2026-05-03T09:45:27Z</time></trkpt><trkpt lat="55.396476396757" lon="38.91173921177527"><ele>136.14285714285714</ele><time>2026-05-03T09:45:30Z</time></trkpt><trkpt lat="55.39640505049924" lon="38.91176187213713"><ele>136.0</ele><time>2026-05-03T09:45:39Z</time></trkpt><trkpt lat="55.39631274888885" lon="38.91181084197679"><ele>136.33333333333334</ele><time>2026-05-03T09:45:43Z</time></trkpt><trkpt lat="55.396276786377925" lon="38.91191068088192"><ele>136.66666666666669</ele><time>2026-05-03T09:45:46Z</time></trkpt><trkpt lat="55.39625912843172" lon="38.91202549258853"><ele>137.0</ele><time>2026-05-03T09:45:49Z</time></trkpt><trkpt lat="55.39626396454557" lon="38.912139287804166"><ele>137.33333333333334</ele><time>2026-05-03T09:45:51Z</time></trkpt><trkpt lat="55.396263993719636" lon="38.91225852913149"><ele>137.66666666666666</ele><time>2026-05-03T09:45:54Z</time></trkpt><trkpt lat="55.39617488978909" lon="38.91229484319521"><ele>138.0</ele><time>2026-05-03T09:45:58.001Z</time></trkpt><trkpt lat="55.396084056921765" lon="38.91233494039909"><ele>138.0</ele><time>2026-05-03T09:46:01.001Z</time></trkpt><trkpt lat="55.396018132148285" lon="38.91239529360034"><ele>138.0</ele><time>2026-05-03T09:46:06.001Z</time></trkpt><trkpt lat="55.39608933797864" lon="38.91253560639078"><ele>138.0</ele><time>2026-05-03T09:46:33Z</time></trkpt><trkpt lat="55.39601765170831" lon="38.91255174045724"><ele>138.0</ele><time>2026-05-03T09:46:56Z</time></trkpt><trkpt lat="55.39595557466446" lon="38.91262950241214"><ele>138.0</ele><time>2026-05-03T09:46:59Z</time></trkpt><trkpt lat="55.395854549334224" lon="38.91268087661367"><ele>138.0</ele><time>2026-05-03T09:47:02Z</time></trkpt><trkpt lat="55.395762526183645" lon="38.91265678339123"><ele>138.0</ele><time>2026-05-03T09:47:03Z</time></trkpt><trkpt lat="55.39567223129022" lon="38.912665830944434"><ele>138.0</ele><time>2026-05-03T09:47:04Z</time></trkpt><trkpt lat="55.39557909424065" lon="38.91254414014504"><ele>138.0</ele><time>2026-05-03T09:47:05Z</time></trkpt><trkpt lat="55.39549852642478" lon="38.91258172344917"><ele>138.0</ele><time>2026-05-03T09:47:06Z</time></trkpt><trkpt lat="55.395422801735485" lon="38.91261704753677"><ele>138.0</ele><time>2026-05-03T09:47:07Z</time></trkpt><trkpt lat="55.39534173587581" lon="38.912654863119826"><ele>138.5</ele><time>2026-05-03T09:47:10Z</time></trkpt><trkpt lat="55.39524555247549" lon="38.91269973073845"><ele>139.0</ele><time>2026-05-03T09:47:13Z</time></trkpt><trkpt lat="55.3952010955203" lon="38.91280138873272"><ele>139.5</ele><time>2026-05-03T09:47:14Z</time></trkpt><trkpt lat="55.395132726483766" lon="38.9129413147198"><ele>140.0</ele><time>2026-05-03T09:47:16Z</time></trkpt><trkpt lat="55.395084296221064" lon="38.91302832698934"><ele>140.5</ele><time>2026-05-03T09:47:17Z</time></trkpt><trkpt lat="55.39501478203204" lon="38.913019348352506"><ele>141.0</ele><time>2026-05-03T09:47:18Z</time></trkpt><trkpt lat="55.39489244273812" lon="38.9130352664123"><ele>141.0</ele><time>2026-05-03T09:47:20Z</time></trkpt><trkpt lat="55.39482761354609" lon="38.91304593962346"><ele>141.0</ele><time>2026-05-03T09:47:21Z</time></trkpt><trkpt lat="55.39471196825201" lon="38.91306463294022"><ele>141.0</ele><time>2026-05-03T09:47:23Z</time></trkpt><trkpt lat="55.394640192606744" lon="38.913057413379846"><ele>141.0</ele><time>2026-05-03T09:47:25Z</time></trkpt><trkpt lat="55.3945700832247" lon="38.9131245522827"><ele>141.0</ele><time>2026-05-03T09:47:27Z</time></trkpt><trkpt lat="55.39453187830544" lon="38.91326032396196"><ele>141.0</ele><time>2026-05-03T09:47:29.001Z</time></trkpt><trkpt lat="55.394507201719705" lon="38.913420571948734"><ele>140.8</ele><time>2026-05-03T09:47:31.001Z</time></trkpt><trkpt lat="55.39448205646766" lon="38.91358943987886"><ele>140.6</ele><time>2026-05-03T09:47:33.001Z</time></trkpt><trkpt lat="55.394456483877654" lon="38.9137394765708"><ele>140.4</ele><time>2026-05-03T09:47:35.001Z</time></trkpt><trkpt lat="55.39439490543476" lon="38.913875969473374"><ele>140.2</ele><time>2026-05-03T09:47:37.001Z</time></trkpt><trkpt lat="55.394317048516825" lon="38.91395313852355"><ele>140.0</ele><time>2026-05-03T09:47:39.001Z</time></trkpt><trkpt lat="55.3942992700942" lon="38.91408306465646"><ele>140.0</ele><time>2026-05-03T09:47:41.001Z</time></trkpt><trkpt lat="55.394317370505796" lon="38.91419185788577"><ele>140.0</ele><time>2026-05-03T09:47:43.001Z</time></trkpt><trkpt lat="55.394263516032" lon="38.91430878255724"><ele>140.0</ele><time>2026-05-03T09:47:45.001Z</time></trkpt><trkpt lat="55.394171716668566" lon="38.9143654004084"><ele>140.0</ele><time>2026-05-03T09:47:47.001Z</time></trkpt><trkpt lat="55.394078800907515" lon="38.91438396776445"><ele>140.0</ele><time>2026-05-03T09:47:50.001Z</time></trkpt><trkpt lat="55.39400134119136" lon="38.914341079065615"><ele>140.0</ele><time>2026-05-03T09:47:52.001Z</time></trkpt><trkpt lat="55.39389799990599" lon="38.91445210525764"><ele>140.0</ele><time>2026-05-03T09:47:54.001Z</time></trkpt><trkpt lat="55.393860503156795" lon="38.91454141950612"><ele>140.0</ele><time>2026-05-03T09:47:55.001Z</time></trkpt><trkpt lat="55.393830483352495" lon="38.91463998162176"><ele>140.0</ele><time>2026-05-03T09:47:56.001Z</time></trkpt><trkpt lat="55.39380154914905" lon="38.91474313412149"><ele>140.0</ele><time>2026-05-03T09:47:57.001Z</time></trkpt><trkpt lat="55.39373430130597" lon="38.914915779958704"><ele>140.0</ele><time>2026-05-03T09:47:59.001Z</time></trkpt><trkpt lat="55.39370300954352" lon="38.915013098369734"><ele>140.0</ele><time>2026-05-03T09:48:00.001Z</time></trkpt><trkpt lat="55.39367121598414" lon="38.91511213281891"><ele>140.0</ele><time>2026-05-03T09:48:01.001Z</time></trkpt><trkpt lat="55.39363362152897" lon="38.915209254578684"><ele>140.0</ele><time>2026-05-03T09:48:02.001Z</time></trkpt><trkpt lat="55.39358604945044" lon="38.91530122987092"><ele>140.0</ele><time>2026-05-03T09:48:03.001Z</time></trkpt><trkpt lat="55.393533043856756" lon="38.91537367890203"><ele>140.0</ele><time>2026-05-03T09:48:04.001Z</time></trkpt><trkpt lat="55.393508358752925" lon="38.915538773413594"><ele>140.0</ele><time>2026-05-03T09:48:05.001Z</time></trkpt><trkpt lat="55.39344302155913" lon="38.915575971083655"><ele>140.0</ele><time>2026-05-03T09:48:06.001Z</time></trkpt><trkpt lat="55.39337429772923" lon="38.9156407773914"><ele>140.0</ele><time>2026-05-03T09:48:07.001Z</time></trkpt><trkpt lat="55.393311159720376" lon="38.91574235841339"><ele>140.0</ele><time>2026-05-03T09:48:08.001Z</time></trkpt><trkpt lat="55.39324614206687" lon="38.91584724350136"><ele>140.0</ele><time>2026-05-03T09:48:09.001Z</time></trkpt><trkpt lat="55.393194002695765" lon="38.91593982602385"><ele>140.0</ele><time>2026-05-03T09:48:10.001Z</time></trkpt><trkpt lat="55.39313289120221" lon="38.916033917195335"><ele>140.0</ele><time>2026-05-03T09:48:11.001Z</time></trkpt><trkpt lat="55.39308628242312" lon="38.91614335059457"><ele>140.0</ele><time>2026-05-03T09:48:12.001Z</time></trkpt><trkpt lat="55.39303901379259" lon="38.91625429433505"><ele>140.0</ele><time>2026-05-03T09:48:13.001Z</time></trkpt><trkpt lat="55.39299250111548" lon="38.9163634526428"><ele>139.83333333333331</ele><time>2026-05-03T09:48:14.001Z</time></trkpt><trkpt lat="55.392941404236566" lon="38.91646150460293"><ele>139.66666666666666</ele><time>2026-05-03T09:48:15Z</time></trkpt><trkpt lat="55.39287956709967" lon="38.91657382841259"><ele>139.5</ele><time>2026-05-03T09:48:16Z</time></trkpt><trkpt lat="55.392819003542435" lon="38.916653757299684"><ele>139.33333333333334</ele><time>2026-05-03T09:48:17Z</time></trkpt><trkpt lat="55.392744189166514" lon="38.91673977051696"><ele>139.16666666666669</ele><time>2026-05-03T09:48:18Z</time></trkpt><trkpt lat="55.392654006601695" lon="38.91684317026955"><ele>139.0</ele><time>2026-05-03T09:48:19Z</time></trkpt><trkpt lat="55.3925688238136" lon="38.916941320800454"><ele>139.5</ele><time>2026-05-03T09:48:20Z</time></trkpt><trkpt lat="55.392477737971745" lon="38.91704627308784"><ele>140.0</ele><time>2026-05-03T09:48:21Z</time></trkpt><trkpt lat="55.39238559300827" lon="38.9171524457187"><ele>140.5</ele><time>2026-05-03T09:48:22Z</time></trkpt><trkpt lat="55.39228939905568" lon="38.917262512534926"><ele>141.0</ele><time>2026-05-03T09:48:23Z</time></trkpt><trkpt lat="55.392192661408465" lon="38.91742298506889"><ele>140.8</ele><time>2026-05-03T09:48:24Z</time></trkpt><trkpt lat="55.39212662974435" lon="38.9175835487318"><ele>140.6</ele><time>2026-05-03T09:48:25Z</time></trkpt><trkpt lat="55.392048418379034" lon="38.917726557375765"><ele>140.4</ele><time>2026-05-03T09:48:26Z</time></trkpt><trkpt lat="55.39197887972503" lon="38.917848150859534"><ele>140.2</ele><time>2026-05-03T09:48:27Z</time></trkpt><trkpt lat="55.391923306302964" lon="38.91800410611801"><ele>140.0</ele><time>2026-05-03T09:48:28Z</time></trkpt><trkpt lat="55.39187142815715" lon="38.91814615609682"><ele>140.0</ele><time>2026-05-03T09:48:29Z</time></trkpt><trkpt lat="55.39181630223656" lon="38.91833544649322"><ele>140.0</ele><time>2026-05-03T09:48:30Z</time></trkpt><trkpt lat="55.391767662187185" lon="38.918502463916546"><ele>140.0</ele><time>2026-05-03T09:48:31Z</time></trkpt><trkpt lat="55.39171971700916" lon="38.91866191980227"><ele>140.0</ele><time>2026-05-03T09:48:32Z</time></trkpt><trkpt lat="55.39165769311492" lon="38.91886512595332"><ele>140.25</ele><time>2026-05-03T09:48:33Z</time></trkpt><trkpt lat="55.391603376362895" lon="38.919043081513585"><ele>140.5</ele><time>2026-05-03T09:48:34Z</time></trkpt><trkpt lat="55.39154126647266" lon="38.91924625110955"><ele>140.75</ele><time>2026-05-03T09:48:35Z</time></trkpt><trkpt lat="55.39150073449197" lon="38.91945408298952"><ele>141.0</ele><time>2026-05-03T09:48:36Z</time></trkpt><trkpt lat="55.39144228982183" lon="38.919659811564465"><ele>141.2</ele><time>2026-05-03T09:48:37Z</time></trkpt><trkpt lat="55.391373099124905" lon="38.9198411401938"><ele>141.39999999999998</ele><time>2026-05-03T09:48:38Z</time></trkpt><trkpt lat="55.39130581864584" lon="38.920018478252935"><ele>141.6</ele><time>2026-05-03T09:48:39Z</time></trkpt><trkpt lat="55.39125869064939" lon="38.92016559840573"><ele>141.79999999999998</ele><time>2026-05-03T09:48:40Z</time></trkpt><trkpt lat="55.391227286396486" lon="38.92029137624469"><ele>142.0</ele><time>2026-05-03T09:48:41Z</time></trkpt><trkpt lat="55.39116966858069" lon="38.92043523578998"><ele>142.4</ele><time>2026-05-03T09:48:43Z</time></trkpt><trkpt lat="55.39109809167185" lon="38.92061456342065"><ele>142.79999999999998</ele><time>2026-05-03T09:48:45Z</time></trkpt><trkpt lat="55.39105277694426" lon="38.92073331926717"><ele>143.2</ele><time>2026-05-03T09:48:46Z</time></trkpt><trkpt lat="55.390973939754524" lon="38.92086149330594"><ele>143.6</ele><time>2026-05-03T09:48:48Z</time></trkpt><trkpt lat="55.39092195347255" lon="38.92092779932488"><ele>144.0</ele><time>2026-05-03T09:48:49Z</time></trkpt><trkpt lat="55.390832614207895" lon="38.92105681973392"><ele>144.4</ele><time>2026-05-03T09:48:51Z</time></trkpt><trkpt lat="55.39077093217894" lon="38.921120419824284"><ele>144.8</ele><time>2026-05-03T09:48:53Z</time></trkpt><trkpt lat="55.39074930323417" lon="38.92137939399502"><ele>145.2</ele><time>2026-05-03T09:48:55Z</time></trkpt><trkpt lat="55.39076861099221" lon="38.92152413337139"><ele>145.6</ele><time>2026-05-03T09:48:56Z</time></trkpt><trkpt lat="55.390767993375555" lon="38.92172888023011"><ele>146.0</ele><time>2026-05-03T09:48:58Z</time></trkpt><trkpt lat="55.3907787895946" lon="38.92187321972304"><ele>146.2</ele><time>2026-05-03T09:49:00Z</time></trkpt><trkpt lat="55.39063611882238" lon="38.92192266955135"><ele>146.39999999999998</ele><time>2026-05-03T09:49:03Z</time></trkpt><trkpt lat="55.39056373906625" lon="38.92193837134617"><ele>146.6</ele><time>2026-05-03T09:49:04Z</time></trkpt><trkpt lat="55.39047311234063" lon="38.92195803156414"><ele>146.79999999999998</ele><time>2026-05-03T09:49:05Z</time></trkpt><trkpt lat="55.390374825397394" lon="38.92202082371518"><ele>147.0</ele><time>2026-05-03T09:49:06Z</time></trkpt><trkpt lat="55.39026156417857" lon="38.92206603801898"><ele>147.0</ele><time>2026-05-03T09:49:07Z</time></trkpt><trkpt lat="55.39014361802912" lon="38.92212216304364"><ele>147.0</ele><time>2026-05-03T09:49:08Z</time></trkpt><trkpt lat="55.39003774544779" lon="38.92214543265016"><ele>147.0</ele><time>2026-05-03T09:49:09Z</time></trkpt><trkpt lat="55.389961132992006" lon="38.922143196822866"><ele>147.0</ele><time>2026-05-03T09:49:10Z</time></trkpt><trkpt lat="55.38987356774414" lon="38.92213924626569"><ele>147.0</ele><time>2026-05-03T09:49:11Z</time></trkpt><trkpt lat="55.38979960605853" lon="38.92213590943737"><ele>147.0</ele><time>2026-05-03T09:49:12Z</time></trkpt><trkpt lat="55.38973283268053" lon="38.92213289692221"><ele>147.0</ele><time>2026-05-03T09:49:13Z</time></trkpt><trkpt lat="55.38967121271648" lon="38.922348059664834"><ele>147.0</ele><time>2026-05-03T09:49:14.001Z</time></trkpt><trkpt lat="55.38963117301653" lon="38.922471648187226"><ele>147.0</ele><time>2026-05-03T09:49:15.001Z</time></trkpt><trkpt lat="55.38959781022538" lon="38.92262849329112"><ele>147.0</ele><time>2026-05-03T09:49:16.001Z</time></trkpt><trkpt lat="55.38957104868391" lon="38.92278189072071"><ele>147.75</ele><time>2026-05-03T09:49:17.001Z</time></trkpt><trkpt lat="55.38954169714108" lon="38.92296976895087"><ele>148.5</ele><time>2026-05-03T09:49:18.001Z</time></trkpt><trkpt lat="55.389504510101084" lon="38.92314122647897"><ele>149.25</ele><time>2026-05-03T09:49:19.001Z</time></trkpt><trkpt lat="55.389465451319495" lon="38.92333771336471"><ele>150.0</ele><time>2026-05-03T09:49:20.001Z</time></trkpt><trkpt lat="55.389426694531195" lon="38.92353869182966"><ele>150.0</ele><time>2026-05-03T09:49:21.001Z</time></trkpt><trkpt lat="55.38939364770574" lon="38.923732928203265"><ele>150.0</ele><time>2026-05-03T09:49:22.001Z</time></trkpt><trkpt lat="55.38935819108306" lon="38.92391850398506"><ele>150.0</ele><time>2026-05-03T09:49:23.001Z</time></trkpt><trkpt lat="55.389311762385034" lon="38.92410587284197"><ele>150.0</ele><time>2026-05-03T09:49:24.001Z</time></trkpt><trkpt lat="55.38926405497558" lon="38.92431333145952"><ele>150.0</ele><time>2026-05-03T09:49:25.001Z</time></trkpt><trkpt lat="55.389222014453004" lon="38.92451427342029"><ele>150.0</ele><time>2026-05-03T09:49:26.001Z</time></trkpt><trkpt lat="55.38918290539257" lon="38.92471654951038"><ele>150.0</ele><time>2026-05-03T09:49:27.001Z</time></trkpt><trkpt lat="55.38914138131897" lon="38.9249145847545"><ele>150.0</ele><time>2026-05-03T09:49:28.001Z</time></trkpt><trkpt lat="55.38910758119465" lon="38.92511241896141"><ele>149.8</ele><time>2026-05-03T09:49:29.001Z</time></trkpt><trkpt lat="55.389080963611434" lon="38.92532332071649"><ele>149.6</ele><time>2026-05-03T09:49:30.001Z</time></trkpt><trkpt lat="55.3890426939771" lon="38.925530356080664"><ele>149.4</ele><time>2026-05-03T09:49:31.001Z</time></trkpt><trkpt lat="55.38900292517187" lon="38.925707572273765"><ele>149.2</ele><time>2026-05-03T09:49:32.001Z</time></trkpt><trkpt lat="55.38896621518014" lon="38.925860626357505"><ele>149.0</ele><time>2026-05-03T09:49:33.001Z</time></trkpt><trkpt lat="55.388931317610485" lon="38.9260067349506"><ele>149.0</ele><time>2026-05-03T09:49:34.001Z</time></trkpt><trkpt lat="55.38888734592289" lon="38.92622229733562"><ele>149.0</ele><time>2026-05-03T09:49:35.001Z</time></trkpt><trkpt lat="55.38882828143336" lon="38.92640956628807"><ele>149.0</ele><time>2026-05-03T09:49:36.001Z</time></trkpt><trkpt lat="55.38877081242808" lon="38.92660126207852"><ele>149.0</ele><time>2026-05-03T09:49:37.001Z</time></trkpt><trkpt lat="55.38869918302575" lon="38.926779457974284"><ele>149.25</ele><time>2026-05-03T09:49:38.001Z</time></trkpt><trkpt lat="55.38864939499398" lon="38.9269735218764"><ele>149.5</ele><time>2026-05-03T09:49:39.001Z</time></trkpt><trkpt lat="55.38860345662201" lon="38.927139272684045"><ele>149.75</ele><time>2026-05-03T09:49:40.001Z</time></trkpt><trkpt lat="55.388549699482915" lon="38.92730621737147"><ele>150.0</ele><time>2026-05-03T09:49:41.001Z</time></trkpt><trkpt lat="55.38847914158196" lon="38.92746679087588"><ele>149.8</ele><time>2026-05-03T09:49:42.001Z</time></trkpt><trkpt lat="55.38841111982571" lon="38.927632075834765"><ele>149.6</ele><time>2026-05-03T09:49:43.001Z</time></trkpt><trkpt lat="55.388366730672274" lon="38.927792587838304"><ele>149.4</ele><time>2026-05-03T09:49:44.001Z</time></trkpt><trkpt lat="55.388318779718155" lon="38.927928212167"><ele>149.2</ele><time>2026-05-03T09:49:45.001Z</time></trkpt><trkpt lat="55.38827437252485" lon="38.92804846829767"><ele>149.0</ele><time>2026-05-03T09:49:46.001Z</time></trkpt><trkpt lat="55.3882303484808" lon="38.92813406988856"><ele>149.0</ele><time>2026-05-03T09:49:47.001Z</time></trkpt><trkpt lat="55.38819803074337" lon="38.928262279154154"><ele>149.0</ele><time>2026-05-03T09:49:49.001Z</time></trkpt><trkpt lat="55.388300729124694" lon="38.92816803958161"><ele>149.0</ele><time>2026-05-03T09:49:53.001Z</time></trkpt><trkpt lat="55.38821583913347" lon="38.92824123992271"><ele>149.0</ele><time>2026-05-03T09:49:54.001Z</time></trkpt><trkpt lat="55.3881684111368" lon="38.928339723874636"><ele>149.0</ele><time>2026-05-03T09:50:27Z</time></trkpt><trkpt lat="55.388177784988876" lon="38.92819114612197"><ele>149.0</ele><time>2026-05-03T09:50:30Z</time></trkpt><trkpt lat="55.388222450695714" lon="38.9281091267122"><ele>149.0</ele><time>2026-05-03T09:50:31Z</time></trkpt><trkpt lat="55.38828053761165" lon="38.927996544805254"><ele>149.0</ele><time>2026-05-03T09:50:32Z</time></trkpt><trkpt lat="55.38835637973437" lon="38.927837471425896"><ele>149.0</ele><time>2026-05-03T09:50:33Z</time></trkpt><trkpt lat="55.38843106078947" lon="38.92763729603603"><ele>149.0</ele><time>2026-05-03T09:50:34Z</time></trkpt><trkpt lat="55.38850217187143" lon="38.92750048145433"><ele>149.0</ele><time>2026-05-03T09:50:35Z</time></trkpt><trkpt lat="55.388543814930415" lon="38.92738689807165"><ele>149.25</ele><time>2026-05-03T09:50:36Z</time></trkpt><trkpt lat="55.38857745375083" lon="38.92728688026571"><ele>149.5</ele><time>2026-05-03T09:50:38Z</time></trkpt><trkpt lat="55.38842827899679" lon="38.92715779505966"><ele>149.75</ele><time>2026-05-03T09:50:40Z</time></trkpt><trkpt lat="55.38834321023422" lon="38.927090144810684"><ele>150.0</ele><time>2026-05-03T09:50:41Z</time></trkpt><trkpt lat="55.388220479401845" lon="38.927026794559424"><ele>150.0</ele><time>2026-05-03T09:50:42Z</time></trkpt><trkpt lat="55.38809171444521" lon="38.9268854429975"><ele>150.0</ele><time>2026-05-03T09:50:43Z</time></trkpt><trkpt lat="55.38793490736388" lon="38.92673645436967"><ele>150.0</ele><time>2026-05-03T09:50:44Z</time></trkpt><trkpt lat="55.387773246234396" lon="38.926583215811824"><ele>149.66666666666666</ele><time>2026-05-03T09:50:45Z</time></trkpt><trkpt lat="55.387584595075694" lon="38.92643728582357"><ele>149.33333333333331</ele><time>2026-05-03T09:50:46Z</time></trkpt><trkpt lat="55.38741700305975" lon="38.92623668341194"><ele>149.0</ele><time>2026-05-03T09:50:47Z</time></trkpt><trkpt lat="55.38727812611269" lon="38.92609747676666"><ele>149.33333333333331</ele><time>2026-05-03T09:50:48Z</time></trkpt><trkpt lat="55.387149069483314" lon="38.92600396501845"><ele>149.66666666666666</ele><time>2026-05-03T09:50:49Z</time></trkpt><trkpt lat="55.387045407363274" lon="38.925972900353536"><ele>150.0</ele><time>2026-05-03T09:50:50Z</time></trkpt><trkpt lat="55.38685271914884" lon="38.925822056115145"><ele>150.4</ele><time>2026-05-03T09:50:52Z</time></trkpt><trkpt lat="55.386758708788356" lon="38.92575519194212"><ele>150.8</ele><time>2026-05-03T09:50:53Z</time></trkpt><trkpt lat="55.38667415081383" lon="38.92566955366746"><ele>151.2</ele><time>2026-05-03T09:50:54Z</time></trkpt><trkpt lat="55.38657894616929" lon="38.92558055238686"><ele>151.6</ele><time>2026-05-03T09:50:55Z</time></trkpt><trkpt lat="55.386475053584924" lon="38.92551605827684"><ele>152.0</ele><time>2026-05-03T09:50:56Z</time></trkpt><trkpt lat="55.38638247593801" lon="38.92541789258695"><ele>151.79999999999998</ele><time>2026-05-03T09:50:57Z</time></trkpt><trkpt lat="55.386280388454836" lon="38.92533391800478"><ele>151.6</ele><time>2026-05-03T09:50:58Z</time></trkpt><trkpt lat="55.38618053003104" lon="38.92524496372713"><ele>151.39999999999998</ele><time>2026-05-03T09:50:59Z</time></trkpt><trkpt lat="55.386085116072834" lon="38.92515390405416"><ele>151.2</ele><time>2026-05-03T09:51:00Z</time></trkpt><trkpt lat="55.38600866738252" lon="38.92504413844524"><ele>151.0</ele><time>2026-05-03T09:51:01Z</time></trkpt><trkpt lat="55.38594106020866" lon="38.92497479685869"><ele>150.83333333333334</ele><time>2026-05-03T09:51:02Z</time></trkpt><trkpt lat="55.385883160967914" lon="38.92491467279988"><ele>150.66666666666669</ele><time>2026-05-03T09:51:03Z</time></trkpt><trkpt lat="55.38582532372964" lon="38.92485448276492"><ele>150.5</ele><time>2026-05-03T09:51:04.001Z</time></trkpt><trkpt lat="55.385762590993124" lon="38.92472040578056"><ele>150.33333333333334</ele><time>2026-05-03T09:51:06.001Z</time></trkpt><trkpt lat="55.38567023145964" lon="38.924612321477504"><ele>150.16666666666666</ele><time>2026-05-03T09:51:08.001Z</time></trkpt><trkpt lat="55.38559016572424" lon="38.92449782453801"><ele>150.0</ele><time>2026-05-03T09:51:10.001Z</time></trkpt><trkpt lat="55.385492487398636" lon="38.92453153664656"><ele>149.83333333333334</ele><time>2026-05-03T09:51:12.001Z</time></trkpt><trkpt lat="55.38542378046083" lon="38.92453289439008"><ele>149.66666666666666</ele><time>2026-05-03T09:51:14.001Z</time></trkpt><trkpt lat="55.38533977572558" lon="38.924488895459994"><ele>149.5</ele><time>2026-05-03T09:54:10Z</time></trkpt><trkpt lat="55.385274964984035" lon="38.92457006202132"><ele>149.33333333333331</ele><time>2026-05-03T09:54:11Z</time></trkpt><trkpt lat="55.385177233172094" lon="38.924623473694616"><ele>149.16666666666666</ele><time>2026-05-03T09:54:13.001Z</time></trkpt><trkpt lat="55.385120159288725" lon="38.92453200681217"><ele>149.0</ele><time>2026-05-03T09:54:14.001Z</time></trkpt><trkpt lat="55.385061959313795" lon="38.92448464292806"><ele>149.0</ele><time>2026-05-03T09:54:15.001Z</time></trkpt><trkpt lat="55.38498145972977" lon="38.924432332533435"><ele>149.0</ele><time>2026-05-03T09:54:16.001Z</time></trkpt><trkpt lat="55.384889423184845" lon="38.92437252519831"><ele>149.0</ele><time>2026-05-03T09:54:17.001Z</time></trkpt><trkpt lat="55.384811602037836" lon="38.924321955342876"><ele>149.0</ele><time>2026-05-03T09:54:18.001Z</time></trkpt><trkpt lat="55.38473514163735" lon="38.924272269715196"><ele>149.0</ele><time>2026-05-03T09:54:19.001Z</time></trkpt><trkpt lat="55.38464688567997" lon="38.92421491907666"><ele>149.0</ele><time>2026-05-03T09:54:20.001Z</time></trkpt><trkpt lat="55.38453835509798" lon="38.92417067956682"><ele>149.4</ele><time>2026-05-03T09:54:21.001Z</time></trkpt><trkpt lat="55.38445952318927" lon="38.92410885740916"><ele>149.8</ele><time>2026-05-03T09:54:22.001Z</time></trkpt><trkpt lat="55.38435925445503" lon="38.92405621426688"><ele>150.2</ele><time>2026-05-03T09:54:23.001Z</time></trkpt><trkpt lat="55.384250741160194" lon="38.924012556142095"><ele>150.6</ele><time>2026-05-03T09:54:24.001Z</time></trkpt><trkpt lat="55.38415547198816" lon="38.92398621626655"><ele>151.0</ele><time>2026-05-03T09:54:25.001Z</time></trkpt><trkpt lat="55.38405558861526" lon="38.92394099674978"><ele>151.0</ele><time>2026-05-03T09:54:26.001Z</time></trkpt><trkpt lat="55.38396952249086" lon="38.92388345274424"><ele>151.0</ele><time>2026-05-03T09:54:27.001Z</time></trkpt><trkpt lat="55.38389386732338" lon="38.92383124622779"><ele>151.0</ele><time>2026-05-03T09:54:28.001Z</time></trkpt><trkpt lat="55.38382935424342" lon="38.92379585377436"><ele>151.0</ele><time>2026-05-03T09:54:29.001Z</time></trkpt><trkpt lat="55.383770428591475" lon="38.92375631602096"><ele>151.0</ele><time>2026-05-03T09:54:30.001Z</time></trkpt><trkpt lat="55.38370585762462" lon="38.923673925393715"><ele>151.0</ele><time>2026-05-03T09:54:31.001Z</time></trkpt><trkpt lat="55.38363137379917" lon="38.92359199572803"><ele>151.0</ele><time>2026-05-03T09:54:32.001Z</time></trkpt><trkpt lat="55.383572529435625" lon="38.92355203599176"><ele>151.0</ele><time>2026-05-03T09:54:32.999Z</time></trkpt><trkpt lat="55.38346553014839" lon="38.92346425895856"><ele>151.0</ele><time>2026-05-03T09:54:34.999Z</time></trkpt><trkpt lat="55.38335785900354" lon="38.92340501966317"><ele>151.0</ele><time>2026-05-03T09:54:36.999Z</time></trkpt><trkpt lat="55.383294796633564" lon="38.923370288298116"><ele>151.0</ele><time>2026-05-03T09:54:37.999Z</time></trkpt><trkpt lat="55.38322700781191" lon="38.9233329329337"><ele>151.0</ele><time>2026-05-03T09:54:38.999Z</time></trkpt><trkpt lat="55.3831591775153" lon="38.92329555465591"><ele>151.0</ele><time>2026-05-03T09:54:39.999Z</time></trkpt><trkpt lat="55.383072671485756" lon="38.92324767668162"><ele>151.0</ele><time>2026-05-03T09:54:41.999Z</time></trkpt><trkpt lat="55.38301842139417" lon="38.923085043098844"><ele>151.0</ele><time>2026-05-03T09:54:44.999Z</time></trkpt><trkpt lat="55.38297807786538" lon="38.9229413900834"><ele>151.0</ele><time>2026-05-03T09:54:46.999Z</time></trkpt><trkpt lat="55.38291336173888" lon="38.922731979810166"><ele>151.0</ele><time>2026-05-03T09:54:49Z</time></trkpt><trkpt lat="55.38287827905658" lon="38.92261730329033"><ele>150.83333333333334</ele><time>2026-05-03T09:54:50Z</time></trkpt><trkpt lat="55.382838306214374" lon="38.92248664208222"><ele>150.66666666666669</ele><time>2026-05-03T09:54:51Z</time></trkpt><trkpt lat="55.382743221269656" lon="38.922368351327"><ele>150.5</ele><time>2026-05-03T09:54:53Z</time></trkpt><trkpt lat="55.38267663310869" lon="38.92230232001124"><ele>150.33333333333334</ele><time>2026-05-03T09:54:54Z</time></trkpt><trkpt lat="55.38261511713484" lon="38.92220834944757"><ele>150.16666666666666</ele><time>2026-05-03T09:54:55Z</time></trkpt><trkpt lat="55.382554066617026" lon="38.92213898519601"><ele>150.0</ele><time>2026-05-03T09:54:56Z</time></trkpt><trkpt lat="55.382497852766356" lon="38.92207502794314"><ele>150.0</ele><time>2026-05-03T09:54:57Z</time></trkpt><trkpt lat="55.38243980435719" lon="38.922008983567785"><ele>150.0</ele><time>2026-05-03T09:54:58Z</time></trkpt><trkpt lat="55.38237374230394" lon="38.92193382454102"><ele>150.0</ele><time>2026-05-03T09:55:00Z</time></trkpt><trkpt lat="55.382289972237466" lon="38.921838515208314"><ele>150.0</ele><time>2026-05-03T09:55:02Z</time></trkpt><trkpt lat="55.3822225570517" lon="38.92176182446567"><ele>150.0</ele><time>2026-05-03T09:55:04Z</time></trkpt><trkpt lat="55.38212908369932" lon="38.921655666693525"><ele>150.0</ele><time>2026-05-03T09:55:07Z</time></trkpt><trkpt lat="55.382059348837586" lon="38.921576468756804"><ele>150.16666666666666</ele><time>2026-05-03T09:55:09Z</time></trkpt><trkpt lat="55.381974807663255" lon="38.92148045528848"><ele>150.33333333333334</ele><time>2026-05-03T09:55:11Z</time></trkpt><trkpt lat="55.38191061741544" lon="38.921407554458405"><ele>150.5</ele><time>2026-05-03T09:55:12Z</time></trkpt><trkpt lat="55.38185008764603" lon="38.921338810899194"><ele>150.66666666666669</ele><time>2026-05-03T09:55:13Z</time></trkpt><trkpt lat="55.38177222475982" lon="38.921297002970114"><ele>150.83333333333334</ele><time>2026-05-03T09:55:16Z</time></trkpt><trkpt lat="55.38171847750917" lon="38.921188278361"><ele>151.0</ele><time>2026-05-03T09:55:18Z</time></trkpt><trkpt lat="55.3816634553166" lon="38.921125089440146"><ele>151.0</ele><time>2026-05-03T09:55:19Z</time></trkpt><trkpt lat="55.381584948436426" lon="38.92110185470616"><ele>151.0</ele><time>2026-05-03T09:55:20Z</time></trkpt><trkpt lat="55.3815254798281" lon="38.921060798256256"><ele>151.0</ele><time>2026-05-03T09:55:21Z</time></trkpt><trkpt lat="55.381411745036615" lon="38.92098227704102"><ele>151.0</ele><time>2026-05-03T09:55:23Z</time></trkpt><trkpt lat="55.38133778649117" lon="38.920931216875516"><ele>151.0</ele><time>2026-05-03T09:55:25Z</time></trkpt><trkpt lat="55.381270890487485" lon="38.92088503260228"><ele>151.0</ele><time>2026-05-03T09:55:27Z</time></trkpt><trkpt lat="55.381196771773304" lon="38.920833861864544"><ele>151.2</ele><time>2026-05-03T09:55:29Z</time></trkpt><trkpt lat="55.38106756606771" lon="38.92074465971898"><ele>151.39999999999998</ele><time>2026-05-03T09:55:31Z</time></trkpt><trkpt lat="55.3809628914635" lon="38.920672393556835"><ele>151.6</ele><time>2026-05-03T09:55:32Z</time></trkpt><trkpt lat="55.380891322968026" lon="38.92062298348134"><ele>151.79999999999998</ele><time>2026-05-03T09:55:33Z</time></trkpt><trkpt lat="55.38081818566324" lon="38.92057249029359"><ele>152.0</ele><time>2026-05-03T09:55:34Z</time></trkpt><trkpt lat="55.38074579969118" lon="38.92052251581514"><ele>152.0</ele><time>2026-05-03T09:55:35Z</time></trkpt><trkpt lat="55.38068385123522" lon="38.92047974728417"><ele>152.0</ele><time>2026-05-03T09:55:36Z</time></trkpt><trkpt lat="55.38057974005853" lon="38.9204078701295"><ele>152.0</ele><time>2026-05-03T09:55:38Z</time></trkpt><trkpt lat="55.380520994002424" lon="38.920367312286835"><ele>152.0</ele><time>2026-05-03T09:55:39Z</time></trkpt><trkpt lat="55.38043095522108" lon="38.92029498555063"><ele>152.0</ele><time>2026-05-03T09:55:41Z</time></trkpt><trkpt lat="55.380332318988906" lon="38.92021689199678"><ele>152.0</ele><time>2026-05-03T09:55:43Z</time></trkpt><trkpt lat="55.380231545640285" lon="38.92013710624916"><ele>151.6</ele><time>2026-05-03T09:55:45Z</time></trkpt><trkpt lat="55.380123062563634" lon="38.92005121646239"><ele>151.2</ele><time>2026-05-03T09:55:47Z</time></trkpt><trkpt lat="55.38001259689923" lon="38.919963757042254"><ele>150.8</ele><time>2026-05-03T09:55:49.001Z</time></trkpt><trkpt lat="55.379898234031174" lon="38.919873211969794"><ele>150.4</ele><time>2026-05-03T09:55:51.001Z</time></trkpt><trkpt lat="55.379824452617044" lon="38.91981479679012"><ele>150.0</ele><time>2026-05-03T09:55:52.001Z</time></trkpt><trkpt lat="55.379748103915716" lon="38.919754348901236"><ele>150.2</ele><time>2026-05-03T09:55:53.001Z</time></trkpt><trkpt lat="55.37965860341987" lon="38.91968348829819"><ele>150.4</ele><time>2026-05-03T09:55:54.001Z</time></trkpt><trkpt lat="55.37958603489013" lon="38.91962610815847"><ele>150.6</ele><time>2026-05-03T09:55:55.001Z</time></trkpt><trkpt lat="55.379504093824856" lon="38.91959640192072"><ele>150.8</ele><time>2026-05-03T09:55:57.001Z</time></trkpt><trkpt lat="55.379419576068926" lon="38.91950787059312"><ele>151.0</ele><time>2026-05-03T09:55:59.001Z</time></trkpt><trkpt lat="55.37930023578627" lon="38.9195259856063"><ele>151.0</ele><time>2026-05-03T09:56:01.001Z</time></trkpt><trkpt lat="55.379184749394824" lon="38.91953240789064"><ele>151.0</ele><time>2026-05-03T09:56:03.001Z</time></trkpt><trkpt lat="55.37911784714966" lon="38.91951448090806"><ele>151.0</ele><time>2026-05-03T09:56:05.001Z</time></trkpt><trkpt lat="55.37905352120467" lon="38.91954111770307"><ele>151.0</ele><time>2026-05-03T09:56:07.001Z</time></trkpt><trkpt lat="55.378961084345185" lon="38.91955683086205"><ele>151.0</ele><time>2026-05-03T09:56:09.001Z</time></trkpt><trkpt lat="55.37889576649326" lon="38.919539425464954"><ele>151.0</ele><time>2026-05-03T09:56:10.001Z</time></trkpt><trkpt lat="55.37880958824651" lon="38.919495166659885"><ele>151.16666666666669</ele><time>2026-05-03T09:56:11.001Z</time></trkpt><trkpt lat="55.37873108667103" lon="38.919476496614124"><ele>151.33333333333334</ele><time>2026-05-03T09:56:12.001Z</time></trkpt><trkpt lat="55.378634497824976" lon="38.919486467209495"><ele>151.5</ele><time>2026-05-03T09:56:14.001Z</time></trkpt><trkpt lat="55.378541570152905" lon="38.919488175259836"><ele>151.66666666666666</ele><time>2026-05-03T09:56:16.001Z</time></trkpt><trkpt lat="55.378457036913666" lon="38.91949887617502"><ele>151.83333333333331</ele><time>2026-05-03T09:56:18.001Z</time></trkpt><trkpt lat="55.37839270157328" lon="38.919496433094416"><ele>152.0</ele><time>2026-05-03T09:56:20.001Z</time></trkpt><trkpt lat="55.378327065183846" lon="38.91938853503244"><ele>151.79999999999998</ele><time>2026-05-03T09:56:22.001Z</time></trkpt><trkpt lat="55.378316149902915" lon="38.91916458532448"><ele>151.6</ele><time>2026-05-03T09:56:24.001Z</time></trkpt><trkpt lat="55.37832271671078" lon="38.91904293446798"><ele>151.39999999999998</ele><time>2026-05-03T09:56:25.001Z</time></trkpt><trkpt lat="55.3783816076406" lon="38.91891072303215"><ele>151.2</ele><time>2026-05-03T09:56:26.001Z</time></trkpt><trkpt lat="55.378394908068024" lon="38.91875618407339"><ele>151.0</ele><time>2026-05-03T09:56:27.001Z</time></trkpt><trkpt lat="55.37841015827589" lon="38.91857899036181"><ele>151.0</ele><time>2026-05-03T09:56:28.001Z</time></trkpt><trkpt lat="55.378426717329575" lon="38.91838658876085"><ele>151.0</ele><time>2026-05-03T09:56:29.001Z</time></trkpt><trkpt lat="55.37844240911131" lon="38.9182042641692"><ele>151.0</ele><time>2026-05-03T09:56:30.001Z</time></trkpt><trkpt lat="55.378457503613326" lon="38.91802632541092"><ele>151.0</ele><time>2026-05-03T09:56:31.001Z</time></trkpt><trkpt lat="55.3784716460353" lon="38.917859292035885"><ele>151.0</ele><time>2026-05-03T09:56:32.001Z</time></trkpt><trkpt lat="55.37848355810487" lon="38.91772164529894"><ele>151.0</ele><time>2026-05-03T09:56:33.001Z</time></trkpt><trkpt lat="55.378493170127356" lon="38.91759170294424"><ele>151.0</ele><time>2026-05-03T09:56:34.001Z</time></trkpt><trkpt lat="55.378510604033806" lon="38.917471859067696"><ele>151.0</ele><time>2026-05-03T09:56:35.001Z</time></trkpt><trkpt lat="55.378509764743406" lon="38.91726880134552"><ele>151.0</ele><time>2026-05-03T09:56:37.001Z</time></trkpt><trkpt lat="55.378534065484565" lon="38.91713802037972"><ele>151.0</ele><time>2026-05-03T09:56:39Z</time></trkpt><trkpt lat="55.37831938170447" lon="38.91705309857608"><ele>151.2</ele><time>2026-05-03T09:56:41Z</time></trkpt><trkpt lat="55.37823541834596" lon="38.917050220585914"><ele>151.39999999999998</ele><time>2026-05-03T09:56:42Z</time></trkpt><trkpt lat="55.37814404925776" lon="38.91703838849135"><ele>151.6</ele><time>2026-05-03T09:56:43Z</time></trkpt><trkpt lat="55.37804189677674" lon="38.91702314071491"><ele>151.79999999999998</ele><time>2026-05-03T09:56:44Z</time></trkpt><trkpt lat="55.37793409273872" lon="38.91700250461339"><ele>152.0</ele><time>2026-05-03T09:56:45Z</time></trkpt><trkpt lat="55.37782104743875" lon="38.91698243973813"><ele>152.0</ele><time>2026-05-03T09:56:46Z</time></trkpt><trkpt lat="55.3777135112789" lon="38.916970462061784"><ele>152.0</ele><time>2026-05-03T09:56:47Z</time></trkpt><trkpt lat="55.37763456125702" lon="38.91693760993809"><ele>152.0</ele><time>2026-05-03T09:56:48Z</time></trkpt><trkpt lat="55.377499108781436" lon="38.9169210910146"><ele>152.0</ele><time>2026-05-03T09:56:49Z</time></trkpt><trkpt lat="55.37735577182379" lon="38.91689832419559"><ele>152.0</ele><time>2026-05-03T09:56:50Z</time></trkpt><trkpt lat="55.37722873105205" lon="38.9168525139685"><ele>152.0</ele><time>2026-05-03T09:56:51Z</time></trkpt><trkpt lat="55.37708491330383" lon="38.91682235776283"><ele>152.0</ele><time>2026-05-03T09:56:52Z</time></trkpt><trkpt lat="55.37694410315701" lon="38.91679283215303"><ele>152.0</ele><time>2026-05-03T09:56:53Z</time></trkpt><trkpt lat="55.37679933788973" lon="38.916762477295634"><ele>151.5</ele><time>2026-05-03T09:56:54Z</time></trkpt><trkpt lat="55.376663055162275" lon="38.91675792028289"><ele>151.0</ele><time>2026-05-03T09:56:55Z</time></trkpt><trkpt lat="55.376525730747375" lon="38.9167351437888"><ele>150.5</ele><time>2026-05-03T09:56:56Z</time></trkpt><trkpt lat="55.37638253320675" lon="38.91670899557551"><ele>150.0</ele><time>2026-05-03T09:56:57Z</time></trkpt><trkpt lat="55.376244373629326" lon="38.91665859136351"><ele>149.75</ele><time>2026-05-03T09:56:58Z</time></trkpt><trkpt lat="55.376108178056214" lon="38.91663455685424"><ele>149.5</ele><time>2026-05-03T09:56:59Z</time></trkpt><trkpt lat="55.375969342466206" lon="38.91660951696155"><ele>149.25</ele><time>2026-05-03T09:57:00Z</time></trkpt><trkpt lat="55.37582262212454" lon="38.91658366540862"><ele>149.0</ele><time>2026-05-03T09:57:01Z</time></trkpt><trkpt lat="55.37566300970849" lon="38.916575712903786"><ele>148.75</ele><time>2026-05-03T09:57:02Z</time></trkpt><trkpt lat="55.375489933466724" lon="38.91651903563266"><ele>148.5</ele><time>2026-05-03T09:57:03Z</time></trkpt><trkpt lat="55.37530887344464" lon="38.91648361216505"><ele>148.25</ele><time>2026-05-03T09:57:04Z</time></trkpt><trkpt lat="55.375240641423396" lon="38.91650409680793"><ele>148.0</ele><time>2026-05-03T09:57:05Z</time></trkpt><trkpt lat="55.37509339085509" lon="38.916467516204555"><ele>148.0</ele><time>2026-05-03T09:57:06Z</time></trkpt><trkpt lat="55.3749782406269" lon="38.91644161808832"><ele>148.0</ele><time>2026-05-03T09:57:07Z</time></trkpt><trkpt lat="55.374842364000735" lon="38.91640822194474"><ele>148.0</ele><time>2026-05-03T09:57:08Z</time></trkpt><trkpt lat="55.37471268749372" lon="38.916418082980826"><ele>148.0</ele><time>2026-05-03T09:57:09Z</time></trkpt><trkpt lat="55.37458346287651" lon="38.91643165549072"><ele>147.75</ele><time>2026-05-03T09:57:10Z</time></trkpt><trkpt lat="55.37445037610238" lon="38.916462995612385"><ele>147.5</ele><time>2026-05-03T09:57:11Z</time></trkpt><trkpt lat="55.374312664659065" lon="38.916515850295234"><ele>147.25</ele><time>2026-05-03T09:57:12Z</time></trkpt><trkpt lat="55.37418294210324" lon="38.91656428818807"><ele>147.0</ele><time>2026-05-03T09:57:13Z</time></trkpt><trkpt lat="55.37406089329346" lon="38.91660459329723"><ele>147.0</ele><time>2026-05-03T09:57:14Z</time></trkpt><trkpt lat="55.373930907340544" lon="38.91659827269224"><ele>147.0</ele><time>2026-05-03T09:57:15Z</time></trkpt><trkpt lat="55.37379863538423" lon="38.91661939485785"><ele>147.0</ele><time>2026-05-03T09:57:16Z</time></trkpt><trkpt lat="55.37367468178615" lon="38.916658260889946"><ele>147.0</ele><time>2026-05-03T09:57:17Z</time></trkpt><trkpt lat="55.37355200063519" lon="38.91664590250179"><ele>147.75</ele><time>2026-05-03T09:57:18Z</time></trkpt><trkpt lat="55.373444424868865" lon="38.91664297855833"><ele>148.5</ele><time>2026-05-03T09:57:19Z</time></trkpt><trkpt lat="55.373343662233246" lon="38.91667175710843"><ele>149.25</ele><time>2026-05-03T09:57:20Z</time></trkpt><trkpt lat="55.37323452685078" lon="38.91673929903299"><ele>150.0</ele><time>2026-05-03T09:57:21Z</time></trkpt><trkpt lat="55.373109781305445" lon="38.916805508079726"><ele>150.0</ele><time>2026-05-03T09:57:22Z</time></trkpt><trkpt lat="55.372988426309895" lon="38.916815619839745"><ele>150.0</ele><time>2026-05-03T09:57:23Z</time></trkpt><trkpt lat="55.372855275612956" lon="38.91685395079574"><ele>150.0</ele><time>2026-05-03T09:57:24Z</time></trkpt><trkpt lat="55.37271689323216" lon="38.91689413009919"><ele>150.0</ele><time>2026-05-03T09:57:25Z</time></trkpt><trkpt lat="55.37258715269158" lon="38.91693246219205"><ele>150.0</ele><time>2026-05-03T09:57:26Z</time></trkpt><trkpt lat="55.372469215305934" lon="38.91696374788043"><ele>150.0</ele><time>2026-05-03T09:57:27Z</time></trkpt><trkpt lat="55.372342231196455" lon="38.91698931351295"><ele>150.0</ele><time>2026-05-03T09:57:28Z</time></trkpt><trkpt lat="55.37223137130038" lon="38.91701163285125"><ele>150.0</ele><time>2026-05-03T09:57:29Z</time></trkpt><trkpt lat="55.37212881890906" lon="38.91703227966277"><ele>149.4</ele><time>2026-05-03T09:57:30Z</time></trkpt><trkpt lat="55.37203494119907" lon="38.91704942590622"><ele>148.8</ele><time>2026-05-03T09:57:31Z</time></trkpt><trkpt lat="55.37192924044487" lon="38.9170568480642"><ele>148.2</ele><time>2026-05-03T09:57:32Z</time></trkpt><trkpt lat="55.3718152205775" lon="38.91706485438726"><ele>147.6</ele><time>2026-05-03T09:57:33Z</time></trkpt><trkpt lat="55.37169308752041" lon="38.91707110160218"><ele>147.0</ele><time>2026-05-03T09:57:34Z</time></trkpt><trkpt lat="55.371558312913514" lon="38.917070600721395"><ele>147.0</ele><time>2026-05-03T09:57:35Z</time></trkpt><trkpt lat="55.37142318927554" lon="38.9170700985438"><ele>147.0</ele><time>2026-05-03T09:57:36Z</time></trkpt><trkpt lat="55.371299038207916" lon="38.91707089959422"><ele>147.0</ele><time>2026-05-03T09:57:37Z</time></trkpt><trkpt lat="55.371184654664994" lon="38.91707237408156"><ele>147.0</ele><time>2026-05-03T09:57:38Z</time></trkpt><trkpt lat="55.371076316855124" lon="38.91707377063532"><ele>146.79999999999998</ele><time>2026-05-03T09:57:39Z</time></trkpt><trkpt lat="55.37097063225112" lon="38.91708649035121"><ele>146.6</ele><time>2026-05-03T09:57:40Z</time></trkpt><trkpt lat="55.37087121530537" lon="38.91709985162305"><ele>146.39999999999998</ele><time>2026-05-03T09:57:41Z</time></trkpt><trkpt lat="55.370778516523835" lon="38.91711230999965"><ele>146.2</ele><time>2026-05-03T09:57:42.001Z</time></trkpt><trkpt lat="55.37069076925885" lon="38.91712410290883"><ele>146.0</ele><time>2026-05-03T09:57:43.001Z</time></trkpt><trkpt lat="55.37060759604875" lon="38.91713528103269"><ele>146.0</ele><time>2026-05-03T09:57:44.001Z</time></trkpt><trkpt lat="55.37052541305947" lon="38.91714894133242"><ele>146.0</ele><time>2026-05-03T09:57:45.001Z</time></trkpt><trkpt lat="55.37045775915574" lon="38.9171597024397"><ele>146.0</ele><time>2026-05-03T09:57:46.001Z</time></trkpt><trkpt lat="55.370307648013075" lon="38.917183537286874"><ele>146.0</ele><time>2026-05-03T09:57:48.001Z</time></trkpt><trkpt lat="55.37023226816897" lon="38.91719550618172"><ele>146.0</ele><time>2026-05-03T09:57:49.001Z</time></trkpt><trkpt lat="55.370178523725954" lon="38.91713719183374"><ele>146.0</ele><time>2026-05-03T09:57:52.001Z</time></trkpt><trkpt lat="55.370146837541974" lon="38.91697749426406"><ele>145.33333333333331</ele><time>2026-05-03T09:57:55.001Z</time></trkpt><trkpt lat="55.37013231980514" lon="38.916826727353914"><ele>144.66666666666666</ele><time>2026-05-03T09:57:58.001Z</time></trkpt><trkpt lat="55.370130810199335" lon="38.91668872060873"><ele>144.0</ele><time>2026-05-03T09:58:00.001Z</time></trkpt><trkpt lat="55.3701410611494" lon="38.91649814876169"><ele>143.33333333333334</ele><time>2026-05-03T09:58:02.001Z</time></trkpt><trkpt lat="55.37014407042644" lon="38.91635792073145"><ele>142.66666666666669</ele><time>2026-05-03T09:58:04.001Z</time></trkpt><trkpt lat="55.37014730095825" lon="38.91624358118131"><ele>142.0</ele><time>2026-05-03T09:58:05.001Z</time></trkpt><trkpt lat="55.37017467600464" lon="38.916047249509866"><ele>142.2</ele><time>2026-05-03T09:58:07.001Z</time></trkpt><trkpt lat="55.370196762432165" lon="38.915899638731474"><ele>142.39999999999998</ele><time>2026-05-03T09:58:09.001Z</time></trkpt><trkpt lat="55.37026041612644" lon="38.91572401496253"><ele>142.60000000000002</ele><time>2026-05-03T09:58:11.001Z</time></trkpt><trkpt lat="55.37029390213954" lon="38.91549062583412"><ele>142.8</ele><time>2026-05-03T09:58:13.001Z</time></trkpt><trkpt lat="55.370297523447185" lon="38.91536455592373"><ele>143.0</ele><time>2026-05-03T09:58:15.001Z</time></trkpt><trkpt lat="55.370300910713844" lon="38.91522092863605"><ele>143.0</ele><time>2026-05-03T09:58:17.001Z</time></trkpt><trkpt lat="55.37031501459614" lon="38.915082251161856"><ele>143.0</ele><time>2026-05-03T09:58:19.001Z</time></trkpt><trkpt lat="55.370326519905966" lon="38.9149666416612"><ele>143.0</ele><time>2026-05-03T09:58:25.001Z</time></trkpt><trkpt lat="55.37033972615595" lon="38.91484336749297"><ele>143.0</ele><time>2026-05-03T09:58:29.001Z</time></trkpt><trkpt lat="55.370353895102944" lon="38.914706890761146"><ele>143.0</ele><time>2026-05-03T09:58:32.001Z</time></trkpt><trkpt lat="55.37041832748045" lon="38.91462636263641"><ele>143.0</ele><time>2026-05-03T09:58:34.001Z</time></trkpt><trkpt lat="55.37041686370408" lon="38.914481132366234"><ele>143.33333333333331</ele><time>2026-05-03T09:58:37.001Z</time></trkpt><trkpt lat="55.37037828116675" lon="38.91439164954793"><ele>143.66666666666666</ele><time>2026-05-03T09:58:39.001Z</time></trkpt><trkpt lat="55.370305298965626" lon="38.91432236014399"><ele>144.0</ele><time>2026-05-03T09:58:42.001Z</time></trkpt><trkpt lat="55.37032361524424" lon="38.91411082214933"><ele>144.33333333333334</ele><time>2026-05-03T09:58:45Z</time></trkpt><trkpt lat="55.37034241477395" lon="38.914001582061175"><ele>144.66666666666669</ele><time>2026-05-03T09:58:46Z</time></trkpt><trkpt lat="55.37035723298439" lon="38.91385277829406"><ele>145.0</ele><time>2026-05-03T09:58:47Z</time></trkpt><trkpt lat="55.370423718318285" lon="38.91371749575676"><ele>145.2</ele><time>2026-05-03T09:58:48Z</time></trkpt><trkpt lat="55.37043156161101" lon="38.913572159660276"><ele>145.4</ele><time>2026-05-03T09:58:49Z</time></trkpt><trkpt lat="55.37043996347987" lon="38.91338425922784"><ele>145.6</ele><time>2026-05-03T09:58:50Z</time></trkpt><trkpt lat="55.3704528843175" lon="38.91321544796431"><ele>145.8</ele><time>2026-05-03T09:58:51Z</time></trkpt><trkpt lat="55.37046387120168" lon="38.91303707111048"><ele>146.0</ele><time>2026-05-03T09:58:52Z</time></trkpt><trkpt lat="55.370475568102044" lon="38.91284329360325"><ele>146.0</ele><time>2026-05-03T09:58:53Z</time></trkpt><trkpt lat="55.370480846520266" lon="38.91265024479022"><ele>146.0</ele><time>2026-05-03T09:58:54Z</time></trkpt><trkpt lat="55.370470198996244" lon="38.912437571008"><ele>146.0</ele><time>2026-05-03T09:58:55Z</time></trkpt><trkpt lat="55.37045690874947" lon="38.91222583059077"><ele>146.0</ele><time>2026-05-03T09:58:56Z</time></trkpt><trkpt lat="55.37044463341082" lon="38.91203018778459"><ele>146.0</ele><time>2026-05-03T09:58:57Z</time></trkpt><trkpt lat="55.370430762017" lon="38.91182340169526"><ele>146.0</ele><time>2026-05-03T09:58:58Z</time></trkpt><trkpt lat="55.37041884840598" lon="38.91165769237299"><ele>146.0</ele><time>2026-05-03T09:58:59Z</time></trkpt><trkpt lat="55.37040832250507" lon="38.91151128502736"><ele>146.0</ele><time>2026-05-03T09:59:00Z</time></trkpt><trkpt lat="55.37040035398651" lon="38.911400449040805"><ele>146.0</ele><time>2026-05-03T09:59:01Z</time></trkpt><trkpt lat="55.37038877435863" lon="38.911239385106164"><ele>145.5</ele><time>2026-05-03T09:59:03Z</time></trkpt><trkpt lat="55.37038022978272" lon="38.91112053657045"><ele>145.0</ele><time>2026-05-03T09:59:06Z</time></trkpt><trkpt lat="55.37015264115756" lon="38.911123193105894"><ele>144.5</ele><time>2026-05-03T09:59:10Z</time></trkpt><trkpt lat="55.37007871850025" lon="38.911106171047614"><ele>144.0</ele><time>2026-05-03T09:59:12Z</time></trkpt><trkpt lat="55.36999106964187" lon="38.91106859947192"><ele>144.0</ele><time>2026-05-03T09:59:26Z</time></trkpt><trkpt lat="55.369924442840045" lon="38.91100865159903"><ele>144.0</ele><time>2026-05-03T09:59:29Z</time></trkpt><trkpt lat="55.36985296012227" lon="38.91097757716035"><ele>144.0</ele><time>2026-05-03T09:59:32Z</time></trkpt><trkpt lat="55.369758018048174" lon="38.91097352100176"><ele>144.0</ele><time>2026-05-03T09:59:35.001Z</time></trkpt><trkpt lat="55.369696926727904" lon="38.91089836324637"><ele>144.0</ele><time>2026-05-03T09:59:37.001Z</time></trkpt><trkpt lat="55.369613134340256" lon="38.910861821399585"><ele>144.0</ele><time>2026-05-03T09:59:39.001Z</time></trkpt><trkpt lat="55.36954608618413" lon="38.91079939792748"><ele>144.42857142857144</ele><time>2026-05-03T09:59:41.001Z</time></trkpt><trkpt lat="55.36948977511824" lon="38.910726664354065"><ele>144.85714285714286</ele><time>2026-05-03T09:59:43.001Z</time></trkpt><trkpt lat="55.36943688552669" lon="38.91064728038807"><ele>145.28571428571428</ele><time>2026-05-03T09:59:45.001Z</time></trkpt><trkpt lat="55.3693727058563" lon="38.910571089861996"><ele>145.71428571428572</ele><time>2026-05-03T09:59:47.001Z</time></trkpt><trkpt lat="55.36935042734651" lon="38.910439207618126"><ele>146.14285714285714</ele><time>2026-05-03T09:59:49.001Z</time></trkpt><trkpt lat="55.36929178802895" lon="38.9103468490619"><ele>146.57142857142858</ele><time>2026-05-03T09:59:52.001Z</time></trkpt><trkpt lat="55.3692595639079" lon="38.91024171368947"><ele>147.0</ele><time>2026-05-03T09:59:54.001Z</time></trkpt><trkpt lat="55.369192759659086" lon="38.91022310198716"><ele>147.0</ele><time>2026-05-03T09:59:58.001Z</time></trkpt><trkpt lat="55.369257994947745" lon="38.91025747214287"><ele>147.0</ele><time>2026-05-03T10:16:43Z</time></trkpt><trkpt lat="55.36930803416955" lon="38.91036431777725"><ele>147.0</ele><time>2026-05-03T10:16:45Z</time></trkpt><trkpt lat="55.369361031452776" lon="38.91048004135911"><ele>147.0</ele><time>2026-05-03T10:16:47Z</time></trkpt><trkpt lat="55.369395168741335" lon="38.91061450426989"><ele>147.0</ele><time>2026-05-03T10:16:49Z</time></trkpt><trkpt lat="55.369465752926864" lon="38.91072938969184"><ele>147.0</ele><time>2026-05-03T10:16:52Z</time></trkpt><trkpt lat="55.369524849387695" lon="38.91081206369823"><ele>147.0</ele><time>2026-05-03T10:16:54Z</time></trkpt><trkpt lat="55.369600401567496" lon="38.91084807692219"><ele>147.0</ele><time>2026-05-03T10:16:56Z</time></trkpt><trkpt lat="55.36966914281937" lon="38.910900582619995"><ele>147.0</ele><time>2026-05-03T10:16:58Z</time></trkpt><trkpt lat="55.369925703499234" lon="38.910976042212546"><ele>147.0</ele><time>2026-05-03T10:17:05.001Z</time></trkpt><trkpt lat="55.36999337198104" lon="38.911047591243964"><ele>146.5</ele><time>2026-05-03T10:17:07.001Z</time></trkpt><trkpt lat="55.37007462177618" lon="38.91108882984253"><ele>146.0</ele><time>2026-05-03T10:17:09.001Z</time></trkpt><trkpt lat="55.37014809980298" lon="38.91109618470181"><ele>145.5</ele><time>2026-05-03T10:17:11.001Z</time></trkpt><trkpt lat="55.37021444930836" lon="38.911112626939115"><ele>145.0</ele><time>2026-05-03T10:17:12.001Z</time></trkpt><trkpt lat="55.37030085152923" lon="38.911180678044055"><ele>144.5</ele><time>2026-05-03T10:17:14.001Z</time></trkpt><trkpt lat="55.37034207944698" lon="38.911313997710266"><ele>144.0</ele><time>2026-05-03T10:17:16.001Z</time></trkpt><trkpt lat="55.37033409384847" lon="38.91149943654756"><ele>144.0</ele><time>2026-05-03T10:17:18.001Z</time></trkpt><trkpt lat="55.370336122221076" lon="38.91162746749741"><ele>144.0</ele><time>2026-05-03T10:17:19.001Z</time></trkpt><trkpt lat="55.37034218227448" lon="38.91179812232451"><ele>144.0</ele><time>2026-05-03T10:17:20.001Z</time></trkpt><trkpt lat="55.37036151072584" lon="38.91197934695548"><ele>144.0</ele><time>2026-05-03T10:17:21.001Z</time></trkpt><trkpt lat="55.37038325398086" lon="38.912151350303084"><ele>144.0</ele><time>2026-05-03T10:17:22.001Z</time></trkpt><trkpt lat="55.37040269731255" lon="38.91230661640774"><ele>144.4</ele><time>2026-05-03T10:17:23.001Z</time></trkpt><trkpt lat="55.37041160536703" lon="38.91251215146277"><ele>144.8</ele><time>2026-05-03T10:17:24.001Z</time></trkpt><trkpt lat="55.37041031375955" lon="38.91267876945148"><ele>145.2</ele><time>2026-05-03T10:17:25.001Z</time></trkpt><trkpt lat="55.370401738900895" lon="38.91287826878516"><ele>145.6</ele><time>2026-05-03T10:17:26.001Z</time></trkpt><trkpt lat="55.37040559089959" lon="38.91305385071335"><ele>146.0</ele><time>2026-05-03T10:17:27.001Z</time></trkpt><trkpt lat="55.370402063672" lon="38.913252657314096"><ele>146.0</ele><time>2026-05-03T10:17:28.001Z</time></trkpt><trkpt lat="55.370399493397784" lon="38.913451478186786"><ele>146.0</ele><time>2026-05-03T10:17:29.001Z</time></trkpt><trkpt lat="55.37038540447777" lon="38.913623155153275"><ele>146.0</ele><time>2026-05-03T10:17:30.001Z</time></trkpt><trkpt lat="55.370387048101" lon="38.91378226722747"><ele>146.0</ele><time>2026-05-03T10:17:31.001Z</time></trkpt><trkpt lat="55.37037846362427" lon="38.913950673731584"><ele>146.0</ele><time>2026-05-03T10:17:32.001Z</time></trkpt><trkpt lat="55.370371251763565" lon="38.91409320413373"><ele>145.83333333333331</ele><time>2026-05-03T10:17:33.001Z</time></trkpt><trkpt lat="55.37036367783811" lon="38.91427832328946"><ele>145.66666666666666</ele><time>2026-05-03T10:17:35.001Z</time></trkpt><trkpt lat="55.370355263214705" lon="38.91440677673234"><ele>145.5</ele><time>2026-05-03T10:17:36.999Z</time></trkpt><trkpt lat="55.370338801313174" lon="38.91452336046035"><ele>145.33333333333334</ele><time>2026-05-03T10:17:39.999Z</time></trkpt><trkpt lat="55.37032749793981" lon="38.91463466636718"><ele>145.16666666666669</ele><time>2026-05-03T10:17:42.999Z</time></trkpt><trkpt lat="55.3703074066311" lon="38.9148293930408"><ele>145.0</ele><time>2026-05-03T10:17:45.999Z</time></trkpt><trkpt lat="55.37038983083349" lon="38.91493927451192"><ele>145.0</ele><time>2026-05-03T10:17:46.999Z</time></trkpt><trkpt lat="55.370418716413795" lon="38.915059294652664"><ele>145.0</ele><time>2026-05-03T10:17:49.999Z</time></trkpt><trkpt lat="55.370334595297805" lon="38.915321692409215"><ele>145.0</ele><time>2026-05-03T10:23:23.001Z</time></trkpt><trkpt lat="55.37028727103285" lon="38.915427442220604"><ele>145.0</ele><time>2026-05-03T10:23:24.001Z</time></trkpt><trkpt lat="55.37024841641966" lon="38.91552389254814"><ele>145.0</ele><time>2026-05-03T10:23:25.001Z</time></trkpt><trkpt lat="55.370239588702354" lon="38.91565365770057"><ele>144.6</ele><time>2026-05-03T10:23:27.001Z</time></trkpt><trkpt lat="55.37019213215877" lon="38.91579126078455"><ele>144.2</ele><time>2026-05-03T10:23:29.001Z</time></trkpt><trkpt lat="55.3701613745559" lon="38.915932289945324"><ele>143.8</ele><time>2026-05-03T10:23:32.001Z</time></trkpt><trkpt lat="55.37012169863743" lon="38.91604891678918"><ele>143.4</ele><time>2026-05-03T10:23:34.001Z</time></trkpt><trkpt lat="55.37009729420306" lon="38.91626165782604"><ele>143.0</ele><time>2026-05-03T10:23:36.001Z</time></trkpt><trkpt lat="55.370095437579664" lon="38.91642072468643"><ele>142.83333333333331</ele><time>2026-05-03T10:23:38.001Z</time></trkpt><trkpt lat="55.3700656370753" lon="38.91654256000797"><ele>142.66666666666666</ele><time>2026-05-03T10:23:40.001Z</time></trkpt><trkpt lat="55.37001819497786" lon="38.91665811883646"><ele>142.5</ele><time>2026-05-03T10:23:42.001Z</time></trkpt><trkpt lat="55.370032428279664" lon="38.91683390340308"><ele>142.33333333333334</ele><time>2026-05-03T10:23:44.001Z</time></trkpt><trkpt lat="55.37005412220489" lon="38.916977924493054"><ele>142.16666666666669</ele><time>2026-05-03T10:23:46.001Z</time></trkpt><trkpt lat="55.37006113425403" lon="38.917129590530635"><ele>142.0</ele><time>2026-05-03T10:23:48.001Z</time></trkpt><trkpt lat="55.37007361480963" lon="38.91723956587451"><ele>142.0</ele><time>2026-05-03T10:23:50.001Z</time></trkpt><trkpt lat="55.37014489747525" lon="38.917331847517005"><ele>142.0</ele><time>2026-05-03T10:23:52.001Z</time></trkpt><trkpt lat="55.37022548062035" lon="38.91731775157382"><ele>142.0</ele><time>2026-05-03T10:23:54.001Z</time></trkpt><trkpt lat="55.37032439578893" lon="38.91730783578542"><ele>142.0</ele><time>2026-05-03T10:23:55.999Z</time></trkpt><trkpt lat="55.370440719239" lon="38.91724224190273"><ele>142.0</ele><time>2026-05-03T10:23:57.999Z</time></trkpt><trkpt lat="55.3705167737558" lon="38.91722820591051"><ele>142.79999999999998</ele><time>2026-05-03T10:23:58.999Z</time></trkpt><trkpt lat="55.370602942775555" lon="38.91720651540993"><ele>143.6</ele><time>2026-05-03T10:23:59.999Z</time></trkpt><trkpt lat="55.37069424172152" lon="38.91718867478874"><ele>144.39999999999998</ele><time>2026-05-03T10:24:00.999Z</time></trkpt><trkpt lat="55.37079121695582" lon="38.917176885844206"><ele>145.2</ele><time>2026-05-03T10:24:01.999Z</time></trkpt><trkpt lat="55.37088375009766" lon="38.91717164954944"><ele>146.0</ele><time>2026-05-03T10:24:02.999Z</time></trkpt><trkpt lat="55.370979001740466" lon="38.917168912115415"><ele>146.0</ele><time>2026-05-03T10:24:03.999Z</time></trkpt><trkpt lat="55.37108351254439" lon="38.91716221980557"><ele>146.0</ele><time>2026-05-03T10:24:04.999Z</time></trkpt><trkpt lat="55.371190891966044" lon="38.9171664359544"><ele>146.0</ele><time>2026-05-03T10:24:05.999Z</time></trkpt><trkpt lat="55.371294242956644" lon="38.917168580579194"><ele>146.0</ele><time>2026-05-03T10:24:06.999Z</time></trkpt><trkpt lat="55.37139008146646" lon="38.917182166030436"><ele>146.0</ele><time>2026-05-03T10:24:07.999Z</time></trkpt><trkpt lat="55.37148496652548" lon="38.9171781564653"><ele>146.2</ele><time>2026-05-03T10:24:08.999Z</time></trkpt><trkpt lat="55.371584545617644" lon="38.917181486983914"><ele>146.39999999999998</ele><time>2026-05-03T10:24:09.999Z</time></trkpt><trkpt lat="55.37168291348026" lon="38.917174704594416"><ele>146.6</ele><time>2026-05-03T10:24:10.999Z</time></trkpt><trkpt lat="55.37178048883883" lon="38.917163311615276"><ele>146.79999999999998</ele><time>2026-05-03T10:24:11.999Z</time></trkpt><trkpt lat="55.37187888997902" lon="38.917149848971356"><ele>147.0</ele><time>2026-05-03T10:24:12.999Z</time></trkpt><trkpt lat="55.371980902967515" lon="38.9171356239971"><ele>147.0</ele><time>2026-05-03T10:24:13.999Z</time></trkpt><trkpt lat="55.3720872576277" lon="38.91712063545692"><ele>147.0</ele><time>2026-05-03T10:24:14.999Z</time></trkpt><trkpt lat="55.372201954438886" lon="38.91710372805404"><ele>147.0</ele><time>2026-05-03T10:24:15.999Z</time></trkpt><trkpt lat="55.37232381771853" lon="38.917074140932115"><ele>147.0</ele><time>2026-05-03T10:24:16.999Z</time></trkpt><trkpt lat="55.372443623265774" lon="38.917043621311954"><ele>147.75</ele><time>2026-05-03T10:24:17.999Z</time></trkpt><trkpt lat="55.37256720646442" lon="38.917008318343804"><ele>148.5</ele><time>2026-05-03T10:24:18.999Z</time></trkpt><trkpt lat="55.372690927676715" lon="38.91697514352277"><ele>149.25</ele><time>2026-05-03T10:24:19.999Z</time></trkpt><trkpt lat="55.372793653587294" lon="38.91693772516578"><ele>150.0</ele><time>2026-05-03T10:24:20.999Z</time></trkpt><trkpt lat="55.3728953313253" lon="38.91689494699902"><ele>150.0</ele><time>2026-05-03T10:24:22Z</time></trkpt><trkpt lat="55.37299025573902" lon="38.916872771776724"><ele>150.0</ele><time>2026-05-03T10:24:23Z</time></trkpt><trkpt lat="55.37309307891817" lon="38.916834349156964"><ele>150.0</ele><time>2026-05-03T10:24:24Z</time></trkpt><trkpt lat="55.37320236946484" lon="38.916796485154535"><ele>150.0</ele><time>2026-05-03T10:24:25Z</time></trkpt><trkpt lat="55.37331307236931" lon="38.91676082942262"><ele>150.0</ele><time>2026-05-03T10:24:26Z</time></trkpt><trkpt lat="55.3734265922939" lon="38.91675592555831"><ele>150.0</ele><time>2026-05-03T10:24:27Z</time></trkpt><trkpt lat="55.373534862701625" lon="38.91672656687615"><ele>150.0</ele><time>2026-05-03T10:24:28Z</time></trkpt><trkpt lat="55.3736329291399" lon="38.916704457006"><ele>150.0</ele><time>2026-05-03T10:24:29Z</time></trkpt><trkpt lat="55.373729483430026" lon="38.91668903856967"><ele>150.0</ele><time>2026-05-03T10:24:30Z</time></trkpt><trkpt lat="55.373814815515786" lon="38.9166478874667"><ele>150.0</ele><time>2026-05-03T10:24:31Z</time></trkpt><trkpt lat="55.37390149466565" lon="38.916640440924645"><ele>149.5</ele><time>2026-05-03T10:24:32Z</time></trkpt><trkpt lat="55.37398265067712" lon="38.91662864919404"><ele>149.0</ele><time>2026-05-03T10:24:33Z</time></trkpt><trkpt lat="55.374064566848595" lon="38.91661951881771"><ele>148.5</ele><time>2026-05-03T10:24:34Z</time></trkpt><trkpt lat="55.37414563316998" lon="38.91660378159964"><ele>148.0</ele><time>2026-05-03T10:24:35Z</time></trkpt><trkpt lat="55.37424018602068" lon="38.916589692123665"><ele>147.5</ele><time>2026-05-03T10:24:36Z</time></trkpt><trkpt lat="55.37433800784026" lon="38.916554328042444"><ele>147.0</ele><time>2026-05-03T10:24:36.999Z</time></trkpt><trkpt lat="55.374440275769146" lon="38.916513532287695"><ele>147.0</ele><time>2026-05-03T10:24:37.999Z</time></trkpt><trkpt lat="55.37454987099717" lon="38.91652082955868"><ele>147.0</ele><time>2026-05-03T10:24:38.999Z</time></trkpt><trkpt lat="55.374660769989546" lon="38.91649903708754"><ele>147.0</ele><time>2026-05-03T10:24:39.999Z</time></trkpt><trkpt lat="55.37476838306941" lon="38.916502196940776"><ele>147.0</ele><time>2026-05-03T10:24:40.999Z</time></trkpt><trkpt lat="55.37488099095352" lon="38.91651654041071"><ele>147.0</ele><time>2026-05-03T10:24:41.999Z</time></trkpt><trkpt lat="55.37499610773352" lon="38.91653120339147"><ele>147.25</ele><time>2026-05-03T10:24:42.999Z</time></trkpt><trkpt lat="55.37511326059773" lon="38.91654623185357"><ele>147.5</ele><time>2026-05-03T10:24:43.999Z</time></trkpt><trkpt lat="55.37522854164343" lon="38.916561059665234"><ele>147.75</ele><time>2026-05-03T10:24:44.999Z</time></trkpt><trkpt lat="55.375344068697586" lon="38.91657591911721"><ele>148.0</ele><time>2026-05-03T10:24:45.999Z</time></trkpt><trkpt lat="55.375458509695946" lon="38.91659035217115"><ele>148.20000000000002</ele><time>2026-05-03T10:24:46.999Z</time></trkpt><trkpt lat="55.37557199919354" lon="38.9165768062432"><ele>148.4</ele><time>2026-05-03T10:24:47.999Z</time></trkpt><trkpt lat="55.3756837102934" lon="38.91660448815538"><ele>148.60000000000002</ele><time>2026-05-03T10:24:48.999Z</time></trkpt><trkpt lat="55.37579600911991" lon="38.91662642018176"><ele>148.8</ele><time>2026-05-03T10:24:49.999Z</time></trkpt><trkpt lat="55.37590518664719" lon="38.91664521545103"><ele>149.0</ele><time>2026-05-03T10:24:50.999Z</time></trkpt><trkpt lat="55.37601359139941" lon="38.91665602184014"><ele>149.0</ele><time>2026-05-03T10:24:51.999Z</time></trkpt><trkpt lat="55.37611406702507" lon="38.91666784122526"><ele>149.0</ele><time>2026-05-03T10:24:52.999Z</time></trkpt><trkpt lat="55.376216466446536" lon="38.916693220917985"><ele>149.0</ele><time>2026-05-03T10:24:53.999Z</time></trkpt><trkpt lat="55.3763216012544" lon="38.91670633298596"><ele>149.0</ele><time>2026-05-03T10:24:54.999Z</time></trkpt><trkpt lat="55.376429841679986" lon="38.916749560382655"><ele>149.0</ele><time>2026-05-03T10:24:55.999Z</time></trkpt><trkpt lat="55.37654051698998" lon="38.91676884665319"><ele>149.25</ele><time>2026-05-03T10:24:56.999Z</time></trkpt><trkpt lat="55.376651844411015" lon="38.91679032768861"><ele>149.5</ele><time>2026-05-03T10:24:57.999Z</time></trkpt><trkpt lat="55.3767639126984" lon="38.916813826554176"><ele>149.75</ele><time>2026-05-03T10:24:58.999Z</time></trkpt><trkpt lat="55.376877642982194" lon="38.91680996138453"><ele>150.0</ele><time>2026-05-03T10:24:59.999Z</time></trkpt><trkpt lat="55.376988665291805" lon="38.916835357192085"><ele>150.0</ele><time>2026-05-03T10:25:00.999Z</time></trkpt><trkpt lat="55.37709880529887" lon="38.916860018350796"><ele>150.0</ele><time>2026-05-03T10:25:01.999Z</time></trkpt><trkpt lat="55.37720849178466" lon="38.91688755968667"><ele>150.0</ele><time>2026-05-03T10:25:02.999Z</time></trkpt><trkpt lat="55.37731562694499" lon="38.91690373402354"><ele>150.0</ele><time>2026-05-03T10:25:03.999Z</time></trkpt><trkpt lat="55.3774192325379" lon="38.91695123638105"><ele>150.0</ele><time>2026-05-03T10:25:04.999Z</time></trkpt><trkpt lat="55.37752456802484" lon="38.916973323474004"><ele>150.4</ele><time>2026-05-03T10:25:05.999Z</time></trkpt><trkpt lat="55.37763146390999" lon="38.916995737817636"><ele>150.8</ele><time>2026-05-03T10:25:07Z</time></trkpt><trkpt lat="55.37773979596173" lon="38.91701845328573"><ele>151.2</ele><time>2026-05-03T10:25:08Z</time></trkpt><trkpt lat="55.37785033117383" lon="38.91704163066419"><ele>151.6</ele><time>2026-05-03T10:25:09Z</time></trkpt><trkpt lat="55.377959527884684" lon="38.91706448730259"><ele>152.0</ele><time>2026-05-03T10:25:10Z</time></trkpt><trkpt lat="55.37806498911377" lon="38.91708652399746"><ele>152.2</ele><time>2026-05-03T10:25:11Z</time></trkpt><trkpt lat="55.37816306402961" lon="38.91710701722041"><ele>152.39999999999998</ele><time>2026-05-03T10:25:12Z</time></trkpt><trkpt lat="55.37825910924369" lon="38.91712708638051"><ele>152.60000000000002</ele><time>2026-05-03T10:25:13Z</time></trkpt><trkpt lat="55.37835261702057" lon="38.91714662531077"><ele>152.8</ele><time>2026-05-03T10:25:14Z</time></trkpt><trkpt lat="55.37844350553138" lon="38.91714331119703"><ele>153.0</ele><time>2026-05-03T10:25:15Z</time></trkpt><trkpt lat="55.37850899576273" lon="38.91719988536257"><ele>153.0</ele><time>2026-05-03T10:25:16Z</time></trkpt><trkpt lat="55.37858684171701" lon="38.91723893403989"><ele>153.0</ele><time>2026-05-03T10:25:18Z</time></trkpt><trkpt lat="55.37847546736514" lon="38.91742670403111"><ele>153.0</ele><time>2026-05-03T10:25:19Z</time></trkpt><trkpt lat="55.37846042183386" lon="38.917600558141125"><ele>153.0</ele><time>2026-05-03T10:25:21Z</time></trkpt><trkpt lat="55.37844726082105" lon="38.91775263618442"><ele>153.0</ele><time>2026-05-03T10:25:23Z</time></trkpt><trkpt lat="55.37843707438611" lon="38.917870343055846"><ele>151.0</ele><time>2026-05-03T10:25:25Z</time></trkpt><trkpt lat="55.378435684153146" lon="38.917981851367095"><ele>151.0</ele><time>2026-05-03T10:25:32Z</time></trkpt></trkseg></trk></gpx>